<?xml version='1.0' encoding='UTF-8'?><gpx version="1.1" creator="JPX - https://github.com/jenetics/jpx" xmlns="http://www.topografix.com/GPX/1/1"><trk><trkseg><trkpt lat="45.405497" lon="7.6618699"><ele>421.40000000000003</ele><time>2026-04-11T09:03:00.297Z</time></trkpt><trkpt lat="45.4054323" lon="7.6619248"><ele>420.8</ele><time>2026-04-11T09:07:19.953Z</time></trkpt><trkpt lat="45.4053778" lon="7.6619805"><ele>420.2</ele><time>2026-04-11T09:07:23.953Z</time></trkpt><trkpt lat="45.4053906" lon="7.6621631"><ele>419.6</ele><time>2026-04-11T09:07:34.946Z</time></trkpt><trkpt lat="45.4054193" lon="7.6622888"><ele>419.0</ele><time>2026-04-11T09:07:36.978Z</time></trkpt><trkpt lat="45.4054603" lon="7.662415"><ele>419.0</ele><time>2026-04-11T09:07:38.962Z</time></trkpt><trkpt lat="45.405495" lon="7.6625476"><ele>419.0</ele><time>2026-04-11T09:07:40.967Z</time></trkpt><trkpt lat="45.4055343" lon="7.6627218"><ele>419.0</ele><time>2026-04-11T09:07:43.037Z</time></trkpt><trkpt lat="45.4055484" lon="7.6628289"><ele>419.0</ele><time>2026-04-11T09:07:44.031Z</time></trkpt><trkpt lat="45.4055433" lon="7.6629503"><ele>419.0</ele><time>2026-04-11T09:07:44.962Z</time></trkpt><trkpt lat="45.4055349" lon="7.6630586"><ele>419.79999999999995</ele><time>2026-04-11T09:07:45.968Z</time></trkpt><trkpt lat="45.4055342" lon="7.6631545"><ele>420.59999999999997</ele><time>2026-04-11T09:07:47.014Z</time></trkpt><trkpt lat="45.405537" lon="7.6632459"><ele>421.4</ele><time>2026-04-11T09:07:47.993Z</time></trkpt><trkpt lat="45.4055529" lon="7.6634069"><ele>422.2</ele><time>2026-04-11T09:07:49.974Z</time></trkpt><trkpt lat="45.4055879" lon="7.6635607"><ele>423.0</ele><time>2026-04-11T09:07:51.995Z</time></trkpt><trkpt lat="45.4056283" lon="7.663718"><ele>423.6666666666667</ele><time>2026-04-11T09:07:53.973Z</time></trkpt><trkpt lat="45.4056477" lon="7.6638059"><ele>424.33333333333337</ele><time>2026-04-11T09:07:54.965Z</time></trkpt><trkpt lat="45.4056769" lon="7.663946"><ele>425.0</ele><time>2026-04-11T09:07:56.968Z</time></trkpt><trkpt lat="45.4057165" lon="7.6640312"><ele>425.6666666666667</ele><time>2026-04-11T09:07:58.955Z</time></trkpt><trkpt lat="45.4057883" lon="7.6640821"><ele>426.33333333333337</ele><time>2026-04-11T09:08:02.036Z</time></trkpt><trkpt lat="45.4058994" lon="7.6640627"><ele>427.0</ele><time>2026-04-11T09:08:03.952Z</time></trkpt><trkpt lat="45.4060015" lon="7.6640367"><ele>427.00000000000006</ele><time>2026-04-11T09:08:04.955Z</time></trkpt><trkpt lat="45.4061006" lon="7.6640004"><ele>427.0</ele><time>2026-04-11T09:08:05.995Z</time></trkpt><trkpt lat="45.406187" lon="7.6639924"><ele>427.0</ele><time>2026-04-11T09:08:06.956Z</time></trkpt><trkpt lat="45.4062609" lon="7.6640123"><ele>427.0</ele><time>2026-04-11T09:08:07.962Z</time></trkpt><trkpt lat="45.4063145" lon="7.6640631"><ele>427.00000000000006</ele><time>2026-04-11T09:08:08.962Z</time></trkpt><trkpt lat="45.4063225" lon="7.6641787"><ele>427.0</ele><time>2026-04-11T09:08:10.956Z</time></trkpt><trkpt lat="45.406172" lon="7.6642575"><ele>427.0</ele><time>2026-04-11T09:08:12.955Z</time></trkpt><trkpt lat="45.4060782" lon="7.6643308"><ele>427.00000000000006</ele><time>2026-04-11T09:08:14.047Z</time></trkpt><trkpt lat="45.4059673" lon="7.6644186"><ele>427.00000000000006</ele><time>2026-04-11T09:08:14.957Z</time></trkpt><trkpt lat="45.4058654" lon="7.6644663"><ele>427.0</ele><time>2026-04-11T09:08:15.956Z</time></trkpt><trkpt lat="45.4057674" lon="7.6644646"><ele>427.0</ele><time>2026-04-11T09:08:16.994Z</time></trkpt><trkpt lat="45.4056758" lon="7.6644455"><ele>427.0</ele><time>2026-04-11T09:08:18.035Z</time></trkpt><trkpt lat="45.4055816" lon="7.6643926"><ele>427.0</ele><time>2026-04-11T09:08:19.027Z</time></trkpt><trkpt lat="45.4054751" lon="7.6643119"><ele>427.0</ele><time>2026-04-11T09:08:19.949Z</time></trkpt><trkpt lat="45.4053534" lon="7.6642213"><ele>427.0</ele><time>2026-04-11T09:08:20.95Z</time></trkpt><trkpt lat="45.4052075" lon="7.6641455"><ele>426.0</ele><time>2026-04-11T09:08:21.983Z</time></trkpt><trkpt lat="45.4050382" lon="7.6640824"><ele>425.0</ele><time>2026-04-11T09:08:23.019Z</time></trkpt><trkpt lat="45.4048574" lon="7.6640435"><ele>424.0</ele><time>2026-04-11T09:08:23.955Z</time></trkpt><trkpt lat="45.4046782" lon="7.6640171"><ele>423.33333333333337</ele><time>2026-04-11T09:08:24.957Z</time></trkpt><trkpt lat="45.4045029" lon="7.6640103"><ele>422.66666666666663</ele><time>2026-04-11T09:08:25.955Z</time></trkpt><trkpt lat="45.4043476" lon="7.6640141"><ele>422.0</ele><time>2026-04-11T09:08:27.015Z</time></trkpt><trkpt lat="45.4041965" lon="7.6640166"><ele>422.0</ele><time>2026-04-11T09:08:28.014Z</time></trkpt><trkpt lat="45.4040637" lon="7.6640178"><ele>422.0</ele><time>2026-04-11T09:08:29.038Z</time></trkpt><trkpt lat="45.4039421" lon="7.6640029"><ele>422.0</ele><time>2026-04-11T09:08:29.951Z</time></trkpt><trkpt lat="45.4038379" lon="7.6639951"><ele>422.0</ele><time>2026-04-11T09:08:31.008Z</time></trkpt><trkpt lat="45.403751" lon="7.663974"><ele>422.0</ele><time>2026-04-11T09:08:32.017Z</time></trkpt><trkpt lat="45.4036857" lon="7.6639554"><ele>425.49999999999994</ele><time>2026-04-11T09:08:33.013Z</time></trkpt><trkpt lat="45.4036119" lon="7.6639637"><ele>429.0</ele><time>2026-04-11T09:08:34.954Z</time></trkpt><trkpt lat="45.4035802" lon="7.6640529"><ele>432.5</ele><time>2026-04-11T09:08:36.947Z</time></trkpt><trkpt lat="45.4035869" lon="7.6641424"><ele>436.0</ele><time>2026-04-11T09:08:37.952Z</time></trkpt><trkpt lat="45.4036155" lon="7.6642573"><ele>439.49999999999994</ele><time>2026-04-11T09:08:39.017Z</time></trkpt><trkpt lat="45.4036563" lon="7.6644018"><ele>443.0</ele><time>2026-04-11T09:08:39.952Z</time></trkpt><trkpt lat="45.4037144" lon="7.6646077"><ele>443.2</ele><time>2026-04-11T09:08:40.942Z</time></trkpt><trkpt lat="45.4037639" lon="7.664793"><ele>443.4</ele><time>2026-04-11T09:08:41.947Z</time></trkpt><trkpt lat="45.4037951" lon="7.6649517"><ele>443.59999999999997</ele><time>2026-04-11T09:08:42.95Z</time></trkpt><trkpt lat="45.4038059" lon="7.6650612"><ele>443.79999999999995</ele><time>2026-04-11T09:08:43.945Z</time></trkpt><trkpt lat="45.4038077" lon="7.665152"><ele>444.0</ele><time>2026-04-11T09:08:44.952Z</time></trkpt><trkpt lat="45.4037791" lon="7.6652539"><ele>443.0</ele><time>2026-04-11T09:08:46.939Z</time></trkpt><trkpt lat="45.4036521" lon="7.6653013"><ele>442.0</ele><time>2026-04-11T09:08:48.943Z</time></trkpt><trkpt lat="45.4035512" lon="7.665375"><ele>441.0</ele><time>2026-04-11T09:08:50.948Z</time></trkpt><trkpt lat="45.4034806" lon="7.6655343"><ele>440.0</ele><time>2026-04-11T09:08:52.94Z</time></trkpt><trkpt lat="45.4034464" lon="7.6656505"><ele>440.0</ele><time>2026-04-11T09:08:53.944Z</time></trkpt><trkpt lat="45.4034133" lon="7.6657715"><ele>440.0</ele><time>2026-04-11T09:08:54.946Z</time></trkpt><trkpt lat="45.4033812" lon="7.6658713"><ele>440.0</ele><time>2026-04-11T09:08:55.951Z</time></trkpt><trkpt lat="45.4033001" lon="7.6659929"><ele>440.0</ele><time>2026-04-11T09:08:58.012Z</time></trkpt><trkpt lat="45.4031772" lon="7.6660192"><ele>440.0</ele><time>2026-04-11T09:08:59.942Z</time></trkpt><trkpt lat="45.403101" lon="7.6660154"><ele>439.99999999999994</ele><time>2026-04-11T09:09:00.95Z</time></trkpt><trkpt lat="45.4030329" lon="7.6660194"><ele>440.0</ele><time>2026-04-11T09:09:01.945Z</time></trkpt><trkpt lat="45.4029657" lon="7.6660503"><ele>440.0</ele><time>2026-04-11T09:09:03.035Z</time></trkpt><trkpt lat="45.4028752" lon="7.6660584"><ele>440.0</ele><time>2026-04-11T09:09:04.964Z</time></trkpt><trkpt lat="45.4028145" lon="7.6661113"><ele>440.0</ele><time>2026-04-11T09:09:09.04Z</time></trkpt><trkpt lat="45.4028667" lon="7.6661822"><ele>439.99999999999994</ele><time>2026-04-11T09:09:11.962Z</time></trkpt><trkpt lat="45.402926" lon="7.6662135"><ele>440.0</ele><time>2026-04-11T09:09:13.95Z</time></trkpt><trkpt lat="45.4029964" lon="7.6662544"><ele>443.57142857142856</ele><time>2026-04-11T09:09:15.948Z</time></trkpt><trkpt lat="45.4030589" lon="7.6662725"><ele>447.1428571428571</ele><time>2026-04-11T09:09:18.029Z</time></trkpt><trkpt lat="45.4031442" lon="7.6663046"><ele>450.71428571428567</ele><time>2026-04-11T09:09:20.944Z</time></trkpt><trkpt lat="45.4032242" lon="7.6663295"><ele>454.2857142857143</ele><time>2026-04-11T09:09:22.943Z</time></trkpt><trkpt lat="45.4032863" lon="7.6663687"><ele>457.8571428571429</ele><time>2026-04-11T09:09:24.942Z</time></trkpt><trkpt lat="45.4033519" lon="7.6664208"><ele>461.4285714285714</ele><time>2026-04-11T09:09:26.949Z</time></trkpt><trkpt lat="45.4033992" lon="7.6664895"><ele>465.0</ele><time>2026-04-11T09:09:29.041Z</time></trkpt><trkpt lat="45.4034531" lon="7.6665427"><ele>465.0</ele><time>2026-04-11T09:09:30.949Z</time></trkpt><trkpt lat="45.4035142" lon="7.666615"><ele>465.0</ele><time>2026-04-11T09:09:33.946Z</time></trkpt><trkpt lat="45.403555" lon="7.6667272"><ele>465.0</ele><time>2026-04-11T09:09:36.966Z</time></trkpt><trkpt lat="45.4035943" lon="7.6668516"><ele>465.0</ele><time>2026-04-11T09:09:39.95Z</time></trkpt><trkpt lat="45.4036168" lon="7.6669915"><ele>465.0</ele><time>2026-04-11T09:09:41.952Z</time></trkpt><trkpt lat="45.4036281" lon="7.6671419"><ele>464.8333333333333</ele><time>2026-04-11T09:09:43.94Z</time></trkpt><trkpt lat="45.4036926" lon="7.6672682"><ele>464.66666666666663</ele><time>2026-04-11T09:09:45.954Z</time></trkpt><trkpt lat="45.4037357" lon="7.6673365"><ele>464.5</ele><time>2026-04-11T09:09:46.951Z</time></trkpt><trkpt lat="45.4037819" lon="7.6674311"><ele>464.3333333333333</ele><time>2026-04-11T09:09:48.035Z</time></trkpt><trkpt lat="45.4038078" lon="7.6675221"><ele>464.16666666666663</ele><time>2026-04-11T09:09:49.03Z</time></trkpt><trkpt lat="45.4038537" lon="7.6676851"><ele>464.0</ele><time>2026-04-11T09:09:50.962Z</time></trkpt><trkpt lat="45.4038658" lon="7.6678597"><ele>466.79999999999995</ele><time>2026-04-11T09:09:52.957Z</time></trkpt><trkpt lat="45.4038695" lon="7.6679595"><ele>469.59999999999997</ele><time>2026-04-11T09:09:53.956Z</time></trkpt><trkpt lat="45.4038748" lon="7.6681279"><ele>472.4</ele><time>2026-04-11T09:09:56.029Z</time></trkpt><trkpt lat="45.4038801" lon="7.668275"><ele>475.2</ele><time>2026-04-11T09:09:57.954Z</time></trkpt><trkpt lat="45.4039002" lon="7.6684072"><ele>478.0</ele><time>2026-04-11T09:09:59.958Z</time></trkpt><trkpt lat="45.4039105" lon="7.6685115"><ele>479.79999999999995</ele><time>2026-04-11T09:10:01.959Z</time></trkpt><trkpt lat="45.403945" lon="7.6686618"><ele>481.59999999999997</ele><time>2026-04-11T09:10:04.031Z</time></trkpt><trkpt lat="45.40399" lon="7.6688118"><ele>483.40000000000003</ele><time>2026-04-11T09:10:05.957Z</time></trkpt><trkpt lat="45.4040139" lon="7.6688975"><ele>485.20000000000005</ele><time>2026-04-11T09:10:06.95Z</time></trkpt><trkpt lat="45.4040743" lon="7.6690423"><ele>487.0</ele><time>2026-04-11T09:10:08.956Z</time></trkpt><trkpt lat="45.4041537" lon="7.6691629"><ele>487.0</ele><time>2026-04-11T09:10:10.95Z</time></trkpt><trkpt lat="45.4042828" lon="7.6692066"><ele>487.00000000000006</ele><time>2026-04-11T09:10:13.017Z</time></trkpt><trkpt lat="45.4043514" lon="7.6692257"><ele>487.00000000000006</ele><time>2026-04-11T09:10:14.022Z</time></trkpt><trkpt lat="45.4044402" lon="7.6692787"><ele>487.0</ele><time>2026-04-11T09:10:15.958Z</time></trkpt><trkpt lat="45.4044917" lon="7.6694385"><ele>487.0</ele><time>2026-04-11T09:10:17.953Z</time></trkpt><trkpt lat="45.4045153" lon="7.6695294"><ele>487.50000000000006</ele><time>2026-04-11T09:10:18.958Z</time></trkpt><trkpt lat="45.4045378" lon="7.6696308"><ele>488.0</ele><time>2026-04-11T09:10:19.95Z</time></trkpt><trkpt lat="45.4045569" lon="7.6697278"><ele>488.5</ele><time>2026-04-11T09:10:20.942Z</time></trkpt><trkpt lat="45.4045736" lon="7.6698269"><ele>489.0</ele><time>2026-04-11T09:10:21.957Z</time></trkpt><trkpt lat="45.4045773" lon="7.6699238"><ele>489.50000000000006</ele><time>2026-04-11T09:10:22.956Z</time></trkpt><trkpt lat="45.4045834" lon="7.6700692"><ele>490.0</ele><time>2026-04-11T09:10:24.956Z</time></trkpt><trkpt lat="45.4046833" lon="7.6701348"><ele>491.6</ele><time>2026-04-11T09:10:26.952Z</time></trkpt><trkpt lat="45.4047598" lon="7.6701595"><ele>493.2</ele><time>2026-04-11T09:10:27.955Z</time></trkpt><trkpt lat="45.4048587" lon="7.6701675"><ele>494.79999999999995</ele><time>2026-04-11T09:10:28.952Z</time></trkpt><trkpt lat="45.4049793" lon="7.6701743"><ele>496.4</ele><time>2026-04-11T09:10:29.955Z</time></trkpt><trkpt lat="45.4050952" lon="7.6701692"><ele>498.0</ele><time>2026-04-11T09:10:30.957Z</time></trkpt><trkpt lat="45.4052057" lon="7.6701428"><ele>498.0</ele><time>2026-04-11T09:10:31.94Z</time></trkpt><trkpt lat="45.4052905" lon="7.6700975"><ele>498.0</ele><time>2026-04-11T09:10:32.946Z</time></trkpt><trkpt lat="45.4053783" lon="7.670063"><ele>498.0</ele><time>2026-04-11T09:10:33.941Z</time></trkpt><trkpt lat="45.4054476" lon="7.670038"><ele>498.0</ele><time>2026-04-11T09:10:34.951Z</time></trkpt><trkpt lat="45.4055417" lon="7.6700179"><ele>498.0</ele><time>2026-04-11T09:10:36.947Z</time></trkpt><trkpt lat="45.4054588" lon="7.6700646"><ele>498.0</ele><time>2026-04-11T09:10:41.043Z</time></trkpt><trkpt lat="45.4053421" lon="7.6701343"><ele>498.0</ele><time>2026-04-11T09:10:42.948Z</time></trkpt><trkpt lat="45.4052843" lon="7.6702037"><ele>498.0</ele><time>2026-04-11T09:10:43.967Z</time></trkpt><trkpt lat="45.4052237" lon="7.6702771"><ele>498.0</ele><time>2026-04-11T09:10:44.956Z</time></trkpt><trkpt lat="45.4051504" lon="7.6703368"><ele>498.0</ele><time>2026-04-11T09:10:45.954Z</time></trkpt><trkpt lat="45.4050753" lon="7.6703952"><ele>498.0</ele><time>2026-04-11T09:10:46.955Z</time></trkpt><trkpt lat="45.4050055" lon="7.6704411"><ele>498.0</ele><time>2026-04-11T09:10:47.951Z</time></trkpt><trkpt lat="45.404941" lon="7.6704848"><ele>499.4</ele><time>2026-04-11T09:10:48.955Z</time></trkpt><trkpt lat="45.4048837" lon="7.670529"><ele>500.79999999999995</ele><time>2026-04-11T09:10:49.96Z</time></trkpt><trkpt lat="45.4048111" lon="7.6706165"><ele>502.2</ele><time>2026-04-11T09:10:51.952Z</time></trkpt><trkpt lat="45.4048391" lon="7.6707656"><ele>503.6</ele><time>2026-04-11T09:10:53.954Z</time></trkpt><trkpt lat="45.4049046" lon="7.6709025"><ele>505.0</ele><time>2026-04-11T09:10:55.968Z</time></trkpt><trkpt lat="45.4049942" lon="7.6709951"><ele>505.00000000000006</ele><time>2026-04-11T09:10:57.951Z</time></trkpt><trkpt lat="45.4050584" lon="7.6710226"><ele>505.0</ele><time>2026-04-11T09:10:58.955Z</time></trkpt><trkpt lat="45.40512" lon="7.6710568"><ele>505.0</ele><time>2026-04-11T09:10:59.954Z</time></trkpt><trkpt lat="45.4051897" lon="7.6710892"><ele>505.0</ele><time>2026-04-11T09:11:00.955Z</time></trkpt><trkpt lat="45.4052779" lon="7.6711198"><ele>505.00000000000006</ele><time>2026-04-11T09:11:01.957Z</time></trkpt><trkpt lat="45.4053722" lon="7.6711353"><ele>505.0</ele><time>2026-04-11T09:11:02.953Z</time></trkpt><trkpt lat="45.405458" lon="7.671149"><ele>504.8</ele><time>2026-04-11T09:11:03.948Z</time></trkpt><trkpt lat="45.4055528" lon="7.6711695"><ele>504.6</ele><time>2026-04-11T09:11:04.954Z</time></trkpt><trkpt lat="45.4056413" lon="7.6711931"><ele>504.4</ele><time>2026-04-11T09:11:05.953Z</time></trkpt><trkpt lat="45.4057308" lon="7.6712169"><ele>504.2</ele><time>2026-04-11T09:11:07.022Z</time></trkpt><trkpt lat="45.405821" lon="7.6712401"><ele>504.0</ele><time>2026-04-11T09:11:08.025Z</time></trkpt><trkpt lat="45.4059108" lon="7.6712725"><ele>504.0</ele><time>2026-04-11T09:11:09.032Z</time></trkpt><trkpt lat="45.4059964" lon="7.6713035"><ele>504.0</ele><time>2026-04-11T09:11:09.954Z</time></trkpt><trkpt lat="45.4060671" lon="7.6713241"><ele>504.0</ele><time>2026-04-11T09:11:11.011Z</time></trkpt><trkpt lat="45.4061391" lon="7.6713512"><ele>504.0</ele><time>2026-04-11T09:11:12.017Z</time></trkpt><trkpt lat="45.4062084" lon="7.6713747"><ele>504.0</ele><time>2026-04-11T09:11:13.015Z</time></trkpt><trkpt lat="45.4062716" lon="7.6714034"><ele>504.0</ele><time>2026-04-11T09:11:13.972Z</time></trkpt><trkpt lat="45.4063729" lon="7.6714788"><ele>505.5</ele><time>2026-04-11T09:11:15.955Z</time></trkpt><trkpt lat="45.4064479" lon="7.6716161"><ele>507.0</ele><time>2026-04-11T09:11:17.956Z</time></trkpt><trkpt lat="45.4064879" lon="7.6717086"><ele>508.5</ele><time>2026-04-11T09:11:18.951Z</time></trkpt><trkpt lat="45.4065372" lon="7.6717854"><ele>510.0</ele><time>2026-04-11T09:11:19.953Z</time></trkpt><trkpt lat="45.406591" lon="7.6718771"><ele>511.5</ele><time>2026-04-11T09:11:20.958Z</time></trkpt><trkpt lat="45.406646" lon="7.6719615"><ele>513.0</ele><time>2026-04-11T09:11:22.061Z</time></trkpt><trkpt lat="45.4067713" lon="7.6721097"><ele>514.0000000000001</ele><time>2026-04-11T09:11:23.961Z</time></trkpt><trkpt lat="45.4068365" lon="7.6721662"><ele>515.0</ele><time>2026-04-11T09:11:24.954Z</time></trkpt><trkpt lat="45.4068936" lon="7.6722065"><ele>516.0</ele><time>2026-04-11T09:11:25.952Z</time></trkpt><trkpt lat="45.4069525" lon="7.6722394"><ele>517.0</ele><time>2026-04-11T09:11:26.955Z</time></trkpt><trkpt lat="45.4070111" lon="7.6722781"><ele>518.0</ele><time>2026-04-11T09:11:27.952Z</time></trkpt><trkpt lat="45.4070766" lon="7.6723122"><ele>519.0000000000001</ele><time>2026-04-11T09:11:29.028Z</time></trkpt><trkpt lat="45.40714" lon="7.6723409"><ele>520.0</ele><time>2026-04-11T09:11:29.969Z</time></trkpt><trkpt lat="45.4071991" lon="7.672384"><ele>520.0</ele><time>2026-04-11T09:11:30.96Z</time></trkpt><trkpt lat="45.4072563" lon="7.67244"><ele>520.0</ele><time>2026-04-11T09:11:31.954Z</time></trkpt><trkpt lat="45.4072926" lon="7.6725267"><ele>520.0</ele><time>2026-04-11T09:11:32.955Z</time></trkpt><trkpt lat="45.4073222" lon="7.6726209"><ele>520.0</ele><time>2026-04-11T09:11:33.965Z</time></trkpt><trkpt lat="45.4073521" lon="7.6727238"><ele>520.0</ele><time>2026-04-11T09:11:34.964Z</time></trkpt><trkpt lat="45.40739" lon="7.672832"><ele>520.0</ele><time>2026-04-11T09:11:35.949Z</time></trkpt><trkpt lat="45.407424" lon="7.6729319"><ele>517.8333333333334</ele><time>2026-04-11T09:11:36.956Z</time></trkpt><trkpt lat="45.4074511" lon="7.6730231"><ele>515.6666666666667</ele><time>2026-04-11T09:11:38.041Z</time></trkpt><trkpt lat="45.4074818" lon="7.6731081"><ele>513.5</ele><time>2026-04-11T09:11:38.976Z</time></trkpt><trkpt lat="45.4075401" lon="7.6732462"><ele>511.33333333333337</ele><time>2026-04-11T09:11:40.957Z</time></trkpt><trkpt lat="45.4076133" lon="7.6733773"><ele>509.1666666666667</ele><time>2026-04-11T09:11:42.973Z</time></trkpt><trkpt lat="45.4076637" lon="7.6734446"><ele>507.0</ele><time>2026-04-11T09:11:44.037Z</time></trkpt><trkpt lat="45.407719" lon="7.6734938"><ele>507.0</ele><time>2026-04-11T09:11:44.944Z</time></trkpt><trkpt lat="45.4078223" lon="7.6735253"><ele>507.00000000000006</ele><time>2026-04-11T09:11:46.954Z</time></trkpt><trkpt lat="45.4079369" lon="7.6734799"><ele>507.00000000000006</ele><time>2026-04-11T09:11:48.95Z</time></trkpt><trkpt lat="45.4080465" lon="7.6734226"><ele>507.0</ele><time>2026-04-11T09:11:50.955Z</time></trkpt><trkpt lat="45.4081336" lon="7.6733754"><ele>507.0</ele><time>2026-04-11T09:11:53.037Z</time></trkpt><trkpt lat="45.4082096" lon="7.6733294"><ele>507.0</ele><time>2026-04-11T09:11:54.958Z</time></trkpt><trkpt lat="45.4083304" lon="7.6733239"><ele>507.00000000000006</ele><time>2026-04-11T09:11:56.954Z</time></trkpt><trkpt lat="45.4083939" lon="7.6733347"><ele>507.00000000000006</ele><time>2026-04-11T09:11:57.951Z</time></trkpt><trkpt lat="45.4085044" lon="7.6733665"><ele>507.0</ele><time>2026-04-11T09:11:59.957Z</time></trkpt><trkpt lat="45.408614" lon="7.6734079"><ele>507.0</ele><time>2026-04-11T09:12:01.946Z</time></trkpt><trkpt lat="45.4087113" lon="7.6734508"><ele>507.0</ele><time>2026-04-11T09:12:03.963Z</time></trkpt><trkpt lat="45.4087853" lon="7.6734184"><ele>507.0</ele><time>2026-04-11T09:12:05.955Z</time></trkpt><trkpt lat="45.4088506" lon="7.6733345"><ele>507.0</ele><time>2026-04-11T09:12:07.948Z</time></trkpt><trkpt lat="45.4089025" lon="7.6732429"><ele>507.0</ele><time>2026-04-11T09:12:09.95Z</time></trkpt><trkpt lat="45.4089521" lon="7.673181"><ele>507.0</ele><time>2026-04-11T09:12:11.95Z</time></trkpt><trkpt lat="45.4090018" lon="7.6731211"><ele>507.0</ele><time>2026-04-11T09:12:13.948Z</time></trkpt><trkpt lat="45.409062" lon="7.6730385"><ele>507.5</ele><time>2026-04-11T09:12:17.023Z</time></trkpt><trkpt lat="45.409103" lon="7.672961"><ele>508.0</ele><time>2026-04-11T09:12:18.953Z</time></trkpt><trkpt lat="45.4091572" lon="7.6728245"><ele>508.5</ele><time>2026-04-11T09:12:20.955Z</time></trkpt><trkpt lat="45.4092146" lon="7.672772"><ele>509.0</ele><time>2026-04-11T09:12:22.951Z</time></trkpt><trkpt lat="45.4092376" lon="7.6728595"><ele>509.5</ele><time>2026-04-11T09:12:25.971Z</time></trkpt><trkpt lat="45.4091752" lon="7.6729635"><ele>510.0</ele><time>2026-04-11T09:12:35.961Z</time></trkpt><trkpt lat="45.4091087" lon="7.6730479"><ele>507.7142857142857</ele><time>2026-04-11T09:12:37.96Z</time></trkpt><trkpt lat="45.4090831" lon="7.6731378"><ele>505.42857142857144</ele><time>2026-04-11T09:12:41.029Z</time></trkpt><trkpt lat="45.4091418" lon="7.6731017"><ele>503.14285714285717</ele><time>2026-04-11T09:12:44.957Z</time></trkpt><trkpt lat="45.4092155" lon="7.6730792"><ele>500.8571428571429</ele><time>2026-04-11T09:12:47.946Z</time></trkpt><trkpt lat="45.4092592" lon="7.6731688"><ele>498.57142857142856</ele><time>2026-04-11T09:12:51.989Z</time></trkpt><trkpt lat="45.4092635" lon="7.6732881"><ele>496.28571428571433</ele><time>2026-04-11T09:12:54.95Z</time></trkpt><trkpt lat="45.409276" lon="7.6733858"><ele>494.0</ele><time>2026-04-11T09:12:58.954Z</time></trkpt><trkpt lat="45.4093247" lon="7.6734796"><ele>494.0</ele><time>2026-04-11T09:13:02.968Z</time></trkpt><trkpt lat="45.4093005" lon="7.6735786"><ele>494.0</ele><time>2026-04-11T09:13:05.956Z</time></trkpt><trkpt lat="45.4093439" lon="7.6736519"><ele>494.0</ele><time>2026-04-11T09:13:23.96Z</time></trkpt><trkpt lat="45.4094167" lon="7.673665"><ele>494.0</ele><time>2026-04-11T09:13:26.959Z</time></trkpt><trkpt lat="45.4094984" lon="7.6736774"><ele>494.0</ele><time>2026-04-11T09:13:29.956Z</time></trkpt><trkpt lat="45.4095592" lon="7.673638"><ele>494.0</ele><time>2026-04-11T09:13:31.958Z</time></trkpt><trkpt lat="45.4096241" lon="7.6736086"><ele>494.0</ele><time>2026-04-11T09:13:52.958Z</time></trkpt><trkpt lat="45.4097137" lon="7.6737145"><ele>493.66666666666663</ele><time>2026-04-11T09:18:42.105Z</time></trkpt><trkpt lat="45.4096708" lon="7.6736136"><ele>493.3333333333333</ele><time>2026-04-11T09:19:52.997Z</time></trkpt><trkpt lat="45.4097187" lon="7.6735516"><ele>493.0</ele><time>2026-04-11T09:21:10.01Z</time></trkpt><trkpt lat="45.40975" lon="7.6734627"><ele>492.66666666666663</ele><time>2026-04-11T09:21:14.009Z</time></trkpt><trkpt lat="45.40975" lon="7.6733566"><ele>492.3333333333333</ele><time>2026-04-11T09:21:15.996Z</time></trkpt><trkpt lat="45.4097081" lon="7.6732342"><ele>492.0</ele><time>2026-04-11T09:21:19.018Z</time></trkpt><trkpt lat="45.4096821" lon="7.6731375"><ele>492.00000000000006</ele><time>2026-04-11T09:21:23.014Z</time></trkpt><trkpt lat="45.4097456" lon="7.6731347"><ele>492.0</ele><time>2026-04-11T09:21:36.017Z</time></trkpt><trkpt lat="45.4098084" lon="7.673183"><ele>492.00000000000006</ele><time>2026-04-11T09:21:38.011Z</time></trkpt><trkpt lat="45.4098749" lon="7.6732039"><ele>492.00000000000006</ele><time>2026-04-11T09:21:41.004Z</time></trkpt><trkpt lat="45.4098625" lon="7.6731128"><ele>492.0</ele><time>2026-04-11T09:21:47.006Z</time></trkpt><trkpt lat="45.4098627" lon="7.673216"><ele>492.00000000000006</ele><time>2026-04-11T09:21:54.013Z</time></trkpt><trkpt lat="45.4098441" lon="7.6733138"><ele>492.00000000000006</ele><time>2026-04-11T09:21:58.009Z</time></trkpt><trkpt lat="45.4099032" lon="7.6733862"><ele>492.0</ele><time>2026-04-11T09:22:03.013Z</time></trkpt><trkpt lat="45.409936" lon="7.6735025"><ele>492.0</ele><time>2026-04-11T09:22:07.019Z</time></trkpt><trkpt lat="45.4099387" lon="7.6735967"><ele>492.0</ele><time>2026-04-11T09:22:09.016Z</time></trkpt><trkpt lat="45.4099328" lon="7.6736987"><ele>492.0</ele><time>2026-04-11T09:22:13.003Z</time></trkpt><trkpt lat="45.4099733" lon="7.6738068"><ele>492.0</ele><time>2026-04-11T09:22:18.012Z</time></trkpt><trkpt lat="45.4100387" lon="7.6738707"><ele>492.0</ele><time>2026-04-11T09:22:21.006Z</time></trkpt><trkpt lat="45.4100992" lon="7.6739191"><ele>491.00000000000006</ele><time>2026-04-11T09:22:23.008Z</time></trkpt><trkpt lat="45.4101605" lon="7.6739721"><ele>490.0</ele><time>2026-04-11T09:22:25.006Z</time></trkpt><trkpt lat="45.4102416" lon="7.6740234"><ele>489.00000000000006</ele><time>2026-04-11T09:22:28.011Z</time></trkpt><trkpt lat="45.4103146" lon="7.6740069"><ele>488.00000000000006</ele><time>2026-04-11T09:22:32.016Z</time></trkpt><trkpt lat="45.4102478" lon="7.6740207"><ele>487.0</ele><time>2026-04-11T09:22:39.01Z</time></trkpt><trkpt lat="45.41018" lon="7.6740325"><ele>486.00000000000006</ele><time>2026-04-11T09:22:42.012Z</time></trkpt><trkpt lat="45.410114" lon="7.6740228"><ele>485.00000000000006</ele><time>2026-04-11T09:22:45.999Z</time></trkpt><trkpt lat="45.4100445" lon="7.6739853"><ele>484.99999999999994</ele><time>2026-04-11T09:22:50.017Z</time></trkpt><trkpt lat="45.4099992" lon="7.6739229"><ele>485.0</ele><time>2026-04-11T09:22:53.013Z</time></trkpt><trkpt lat="45.409973" lon="7.6738088"><ele>485.0</ele><time>2026-04-11T09:22:56.012Z</time></trkpt><trkpt lat="45.4099254" lon="7.673692"><ele>485.0</ele><time>2026-04-11T09:22:59.017Z</time></trkpt><trkpt lat="45.4098822" lon="7.6736128"><ele>484.99999999999994</ele><time>2026-04-11T09:23:01.039Z</time></trkpt><trkpt lat="45.4098449" lon="7.6735302"><ele>485.0</ele><time>2026-04-11T09:23:03.024Z</time></trkpt><trkpt lat="45.4097889" lon="7.6734207"><ele>486.00000000000006</ele><time>2026-04-11T09:23:06.013Z</time></trkpt><trkpt lat="45.4097384" lon="7.6733273"><ele>487.0</ele><time>2026-04-11T09:23:08.035Z</time></trkpt><trkpt lat="45.4097133" lon="7.6732213"><ele>488.00000000000006</ele><time>2026-04-11T09:23:10.017Z</time></trkpt><trkpt lat="45.4097014" lon="7.6731292"><ele>489.00000000000006</ele><time>2026-04-11T09:23:12.035Z</time></trkpt><trkpt lat="45.4097037" lon="7.6730341"><ele>490.0</ele><time>2026-04-11T09:23:44.021Z</time></trkpt><trkpt lat="45.4097745" lon="7.6729893"><ele>491.00000000000006</ele><time>2026-04-11T09:23:49.026Z</time></trkpt><trkpt lat="45.4098445" lon="7.6730044"><ele>492.00000000000006</ele><time>2026-04-11T09:23:53.024Z</time></trkpt><trkpt lat="45.4098834" lon="7.6730864"><ele>492.00000000000006</ele><time>2026-04-11T09:23:58.026Z</time></trkpt><trkpt lat="45.4099016" lon="7.6731945"><ele>492.0</ele><time>2026-04-11T09:24:03.019Z</time></trkpt><trkpt lat="45.4099204" lon="7.6732933"><ele>492.00000000000006</ele><time>2026-04-11T09:24:08.026Z</time></trkpt><trkpt lat="45.4098979" lon="7.6733796"><ele>492.00000000000006</ele><time>2026-04-11T09:24:20.027Z</time></trkpt><trkpt lat="45.4098443" lon="7.6734428"><ele>492.0</ele><time>2026-04-11T09:24:27.021Z</time></trkpt><trkpt lat="45.4097946" lon="7.6735179"><ele>492.00000000000006</ele><time>2026-04-11T09:24:31.03Z</time></trkpt><trkpt lat="45.4097917" lon="7.673428"><ele>492.00000000000006</ele><time>2026-04-11T09:24:44.03Z</time></trkpt><trkpt lat="45.4097535" lon="7.673355"><ele>492.0</ele><time>2026-04-11T09:24:46.025Z</time></trkpt><trkpt lat="45.409722" lon="7.673277"><ele>492.0</ele><time>2026-04-11T09:24:48.031Z</time></trkpt><trkpt lat="45.4096828" lon="7.6731923"><ele>492.0</ele><time>2026-04-11T09:24:50.03Z</time></trkpt><trkpt lat="45.4096655" lon="7.6731033"><ele>492.0</ele><time>2026-04-11T09:24:52.02Z</time></trkpt><trkpt lat="45.4097244" lon="7.6729886"><ele>492.0</ele><time>2026-04-11T09:24:55.027Z</time></trkpt><trkpt lat="45.4097863" lon="7.6729154"><ele>492.0</ele><time>2026-04-11T09:24:57.024Z</time></trkpt><trkpt lat="45.4098477" lon="7.6728194"><ele>493.00000000000006</ele><time>2026-04-11T09:24:59.014Z</time></trkpt><trkpt lat="45.4098867" lon="7.6727413"><ele>494.0</ele><time>2026-04-11T09:25:01.026Z</time></trkpt><trkpt lat="45.4099334" lon="7.6726659"><ele>495.00000000000006</ele><time>2026-04-11T09:25:04.018Z</time></trkpt><trkpt lat="45.4099929" lon="7.6726097"><ele>496.00000000000006</ele><time>2026-04-11T09:25:07.027Z</time></trkpt><trkpt lat="45.4100423" lon="7.6725505"><ele>497.0</ele><time>2026-04-11T09:25:09.027Z</time></trkpt><trkpt lat="45.4100948" lon="7.6724936"><ele>498.00000000000006</ele><time>2026-04-11T09:25:13.022Z</time></trkpt><trkpt lat="45.4101688" lon="7.6725429"><ele>499.00000000000006</ele><time>2026-04-11T09:25:38.025Z</time></trkpt><trkpt lat="45.4102484" lon="7.6725686"><ele>499.00000000000006</ele><time>2026-04-11T09:25:41.019Z</time></trkpt><trkpt lat="45.4103041" lon="7.672645"><ele>499.0</ele><time>2026-04-11T09:25:46.031Z</time></trkpt><trkpt lat="45.4103945" lon="7.6726666"><ele>499.0</ele><time>2026-04-11T09:27:02.955Z</time></trkpt><trkpt lat="45.4103371" lon="7.672594"><ele>499.0</ele><time>2026-04-11T09:27:36.957Z</time></trkpt><trkpt lat="45.4102979" lon="7.6724726"><ele>499.00000000000006</ele><time>2026-04-11T09:33:02.943Z</time></trkpt><trkpt lat="45.4102469" lon="7.672551"><ele>499.0</ele><time>2026-04-11T09:33:13.95Z</time></trkpt><trkpt lat="45.4101977" lon="7.6726155"><ele>499.00000000000006</ele><time>2026-04-11T09:33:16.961Z</time></trkpt><trkpt lat="45.4101529" lon="7.6726948"><ele>499.0</ele><time>2026-04-11T09:33:20.953Z</time></trkpt><trkpt lat="45.4100839" lon="7.6726935"><ele>499.00000000000006</ele><time>2026-04-11T09:33:26.954Z</time></trkpt><trkpt lat="45.41001" lon="7.6727082"><ele>499.00000000000006</ele><time>2026-04-11T09:33:32.94Z</time></trkpt><trkpt lat="45.4099528" lon="7.6727775"><ele>499.0</ele><time>2026-04-11T09:33:37.959Z</time></trkpt><trkpt lat="45.4098921" lon="7.6728224"><ele>499.00000000000006</ele><time>2026-04-11T09:33:41.966Z</time></trkpt><trkpt lat="45.4098411" lon="7.6728792"><ele>499.00000000000006</ele><time>2026-04-11T09:33:45.954Z</time></trkpt><trkpt lat="45.4098503" lon="7.6729951"><ele>497.83333333333337</ele><time>2026-04-11T09:33:51.956Z</time></trkpt><trkpt lat="45.4098786" lon="7.6731219"><ele>496.6666666666667</ele><time>2026-04-11T09:33:53.939Z</time></trkpt><trkpt lat="45.4098953" lon="7.673211"><ele>495.5</ele><time>2026-04-11T09:33:56.941Z</time></trkpt><trkpt lat="45.4098815" lon="7.6733159"><ele>494.33333333333337</ele><time>2026-04-11T09:33:59.942Z</time></trkpt><trkpt lat="45.4099345" lon="7.673389"><ele>493.1666666666667</ele><time>2026-04-11T09:34:05.95Z</time></trkpt><trkpt lat="45.4099488" lon="7.6734801"><ele>492.0</ele><time>2026-04-11T09:34:08.94Z</time></trkpt><trkpt lat="45.409946" lon="7.6736118"><ele>490.8333333333333</ele><time>2026-04-11T09:34:11.961Z</time></trkpt><trkpt lat="45.4099386" lon="7.673728"><ele>489.66666666666663</ele><time>2026-04-11T09:34:14.94Z</time></trkpt><trkpt lat="45.409974" lon="7.6738161"><ele>488.5</ele><time>2026-04-11T09:34:17.954Z</time></trkpt><trkpt lat="45.4100261" lon="7.6738811"><ele>487.3333333333333</ele><time>2026-04-11T09:34:21.939Z</time></trkpt><trkpt lat="45.4100976" lon="7.6739226"><ele>486.16666666666663</ele><time>2026-04-11T09:34:24.952Z</time></trkpt><trkpt lat="45.4101645" lon="7.673969"><ele>485.0</ele><time>2026-04-11T09:34:27.955Z</time></trkpt><trkpt lat="45.410257" lon="7.6739866"><ele>485.0</ele><time>2026-04-11T09:34:30.95Z</time></trkpt><trkpt lat="45.4103419" lon="7.6739606"><ele>485.0</ele><time>2026-04-11T09:34:32.942Z</time></trkpt><trkpt lat="45.4104677" lon="7.6738885"><ele>485.0</ele><time>2026-04-11T09:34:34.961Z</time></trkpt><trkpt lat="45.4105453" lon="7.6738334"><ele>485.0</ele><time>2026-04-11T09:34:35.958Z</time></trkpt><trkpt lat="45.4106105" lon="7.6737539"><ele>485.0</ele><time>2026-04-11T09:34:37.952Z</time></trkpt><trkpt lat="45.410659" lon="7.6736346"><ele>486.3333333333333</ele><time>2026-04-11T09:34:40.956Z</time></trkpt><trkpt lat="45.4107011" lon="7.673539"><ele>487.66666666666663</ele><time>2026-04-11T09:34:42.947Z</time></trkpt><trkpt lat="45.410765" lon="7.6734845"><ele>489.0</ele><time>2026-04-11T09:35:02.955Z</time></trkpt><trkpt lat="45.4108429" lon="7.6734821"><ele>490.33333333333337</ele><time>2026-04-11T09:35:06.943Z</time></trkpt><trkpt lat="45.4109077" lon="7.6734874"><ele>491.6666666666667</ele><time>2026-04-11T09:35:10.95Z</time></trkpt><trkpt lat="45.4109653" lon="7.6735655"><ele>493.0</ele><time>2026-04-11T09:35:14.961Z</time></trkpt><trkpt lat="45.4110422" lon="7.6736276"><ele>493.00000000000006</ele><time>2026-04-11T09:35:17.953Z</time></trkpt><trkpt lat="45.4110869" lon="7.6737427"><ele>493.0</ele><time>2026-04-11T09:35:20.94Z</time></trkpt><trkpt lat="45.4110922" lon="7.6738502"><ele>493.0</ele><time>2026-04-11T09:35:23.954Z</time></trkpt><trkpt lat="45.4111341" lon="7.6739404"><ele>493.0</ele><time>2026-04-11T09:35:27.95Z</time></trkpt><trkpt lat="45.4112101" lon="7.6739375"><ele>493.00000000000006</ele><time>2026-04-11T09:35:52.958Z</time></trkpt><trkpt lat="45.4112743" lon="7.6740198"><ele>493.0</ele><time>2026-04-11T09:35:55.953Z</time></trkpt><trkpt lat="45.4112158" lon="7.6740796"><ele>493.00000000000006</ele><time>2026-04-11T09:36:01.955Z</time></trkpt><trkpt lat="45.4111494" lon="7.6740912"><ele>493.0</ele><time>2026-04-11T09:36:06.956Z</time></trkpt><trkpt lat="45.4110642" lon="7.6741332"><ele>493.0</ele><time>2026-04-11T09:36:09.952Z</time></trkpt><trkpt lat="45.4109965" lon="7.6742117"><ele>493.0</ele><time>2026-04-11T09:36:12.953Z</time></trkpt><trkpt lat="45.4109259" lon="7.6742622"><ele>493.00000000000006</ele><time>2026-04-11T09:36:16.034Z</time></trkpt><trkpt lat="45.4108601" lon="7.6742685"><ele>493.0</ele><time>2026-04-11T09:36:17.963Z</time></trkpt><trkpt lat="45.4107677" lon="7.6742404"><ele>493.00000000000006</ele><time>2026-04-11T09:36:20.955Z</time></trkpt><trkpt lat="45.4106808" lon="7.6742182"><ele>493.0</ele><time>2026-04-11T09:36:22.993Z</time></trkpt><trkpt lat="45.4105898" lon="7.6741821"><ele>493.0</ele><time>2026-04-11T09:36:24.966Z</time></trkpt><trkpt lat="45.4105171" lon="7.6741531"><ele>493.0</ele><time>2026-04-11T09:36:26.953Z</time></trkpt><trkpt lat="45.4104627" lon="7.6741039"><ele>493.00000000000006</ele><time>2026-04-11T09:36:30.964Z</time></trkpt><trkpt lat="45.4103975" lon="7.674063"><ele>493.0</ele><time>2026-04-11T09:36:37.95Z</time></trkpt><trkpt lat="45.4103785" lon="7.6739758"><ele>493.0</ele><time>2026-04-11T09:36:40.955Z</time></trkpt><trkpt lat="45.4104431" lon="7.6740004"><ele>493.0</ele><time>2026-04-11T09:56:49.968Z</time></trkpt><trkpt lat="45.4103828" lon="7.6739378"><ele>493.0</ele><time>2026-04-11T09:57:10.97Z</time></trkpt><trkpt lat="45.4103969" lon="7.6738337"><ele>493.0</ele><time>2026-04-11T09:57:13.966Z</time></trkpt><trkpt lat="45.4104316" lon="7.6739242"><ele>493.0</ele><time>2026-04-11T09:57:30.966Z</time></trkpt><trkpt lat="45.4104784" lon="7.6739864"><ele>493.0</ele><time>2026-04-11T09:57:36.96Z</time></trkpt><trkpt lat="45.410501" lon="7.6740807"><ele>493.0</ele><time>2026-04-11T09:57:41.975Z</time></trkpt><trkpt lat="45.4105597" lon="7.6742041"><ele>493.0</ele><time>2026-04-11T09:57:44.958Z</time></trkpt><trkpt lat="45.4106073" lon="7.6742688"><ele>492.99999999999994</ele><time>2026-04-11T09:57:45.968Z</time></trkpt><trkpt lat="45.4106721" lon="7.6744133"><ele>492.99999999999994</ele><time>2026-04-11T09:57:46.963Z</time></trkpt><trkpt lat="45.4107426" lon="7.6745741"><ele>493.0</ele><time>2026-04-11T09:57:47.984Z</time></trkpt><trkpt lat="45.4107842" lon="7.6747475"><ele>493.0</ele><time>2026-04-11T09:57:49.027Z</time></trkpt><trkpt lat="45.4108191" lon="7.6748805"><ele>492.6666666666667</ele><time>2026-04-11T09:57:50.026Z</time></trkpt><trkpt lat="45.410843" lon="7.6749815"><ele>492.33333333333337</ele><time>2026-04-11T09:57:50.943Z</time></trkpt><trkpt lat="45.410867" lon="7.6750682"><ele>492.0</ele><time>2026-04-11T09:57:51.95Z</time></trkpt><trkpt lat="45.4109353" lon="7.6751986"><ele>491.66666666666663</ele><time>2026-04-11T09:57:53.955Z</time></trkpt><trkpt lat="45.4110153" lon="7.6752812"><ele>491.3333333333333</ele><time>2026-04-11T09:57:55.954Z</time></trkpt><trkpt lat="45.4110814" lon="7.6753386"><ele>491.0</ele><time>2026-04-11T09:57:57.942Z</time></trkpt><trkpt lat="45.4111373" lon="7.6754029"><ele>490.99999999999994</ele><time>2026-04-11T09:58:01.952Z</time></trkpt><trkpt lat="45.4111995" lon="7.6754458"><ele>491.0</ele><time>2026-04-11T09:58:06.949Z</time></trkpt><trkpt lat="45.4112727" lon="7.6754449"><ele>491.0</ele><time>2026-04-11T09:58:11.956Z</time></trkpt><trkpt lat="45.4113644" lon="7.6754335"><ele>491.0</ele><time>2026-04-11T09:58:15.961Z</time></trkpt><trkpt lat="45.4114485" lon="7.6754467"><ele>490.99999999999994</ele><time>2026-04-11T09:58:18.966Z</time></trkpt><trkpt lat="45.4115247" lon="7.6754587"><ele>491.0</ele><time>2026-04-11T09:58:21.968Z</time></trkpt><trkpt lat="45.4116057" lon="7.6754553"><ele>492.0</ele><time>2026-04-11T09:58:25.037Z</time></trkpt><trkpt lat="45.4116859" lon="7.6754445"><ele>493.0</ele><time>2026-04-11T09:58:27.959Z</time></trkpt><trkpt lat="45.4117623" lon="7.6754393"><ele>494.0</ele><time>2026-04-11T09:58:29.968Z</time></trkpt><trkpt lat="45.4118707" lon="7.6754211"><ele>495.0</ele><time>2026-04-11T09:58:31.962Z</time></trkpt><trkpt lat="45.4119755" lon="7.6754127"><ele>496.0</ele><time>2026-04-11T09:58:32.97Z</time></trkpt><trkpt lat="45.4120843" lon="7.6754137"><ele>496.4</ele><time>2026-04-11T09:58:34.028Z</time></trkpt><trkpt lat="45.4121885" lon="7.6754399"><ele>496.8</ele><time>2026-04-11T09:58:35.035Z</time></trkpt><trkpt lat="45.412278" lon="7.6755155"><ele>497.19999999999993</ele><time>2026-04-11T09:58:35.954Z</time></trkpt><trkpt lat="45.4123517" lon="7.6756086"><ele>497.59999999999997</ele><time>2026-04-11T09:58:36.958Z</time></trkpt><trkpt lat="45.4124242" lon="7.6757193"><ele>498.0</ele><time>2026-04-11T09:58:38.951Z</time></trkpt><trkpt lat="45.4124818" lon="7.6757759"><ele>498.0</ele><time>2026-04-11T09:58:39.943Z</time></trkpt><trkpt lat="45.4125207" lon="7.6758536"><ele>498.0</ele><time>2026-04-11T09:58:41.941Z</time></trkpt><trkpt lat="45.4125434" lon="7.6759609"><ele>498.0</ele><time>2026-04-11T09:58:45.952Z</time></trkpt><trkpt lat="45.4125297" lon="7.6760919"><ele>498.0</ele><time>2026-04-11T09:58:54.957Z</time></trkpt><trkpt lat="45.4125928" lon="7.6761327"><ele>498.0</ele><time>2026-04-11T09:59:00.05Z</time></trkpt><trkpt lat="45.4126681" lon="7.6761742"><ele>498.0</ele><time>2026-04-11T09:59:04.956Z</time></trkpt><trkpt lat="45.4127302" lon="7.676189"><ele>499.3333333333333</ele><time>2026-04-11T09:59:07.952Z</time></trkpt><trkpt lat="45.412805" lon="7.6762552"><ele>500.66666666666663</ele><time>2026-04-11T09:59:13.948Z</time></trkpt><trkpt lat="45.412866" lon="7.6763373"><ele>502.0</ele><time>2026-04-11T09:59:16.944Z</time></trkpt><trkpt lat="45.4129167" lon="7.676412"><ele>503.3333333333333</ele><time>2026-04-11T09:59:20.952Z</time></trkpt><trkpt lat="45.4129806" lon="7.6764735"><ele>504.66666666666663</ele><time>2026-04-11T10:00:26.942Z</time></trkpt><trkpt lat="45.4130511" lon="7.6765168"><ele>506.0</ele><time>2026-04-11T10:00:29.952Z</time></trkpt><trkpt lat="45.41308" lon="7.6766291"><ele>506.00000000000006</ele><time>2026-04-11T10:00:31.967Z</time></trkpt><trkpt lat="45.4130957" lon="7.6767335"><ele>506.0</ele><time>2026-04-11T10:00:33.968Z</time></trkpt><trkpt lat="45.413051" lon="7.6768233"><ele>506.00000000000006</ele><time>2026-04-11T10:00:37.975Z</time></trkpt><trkpt lat="45.4129883" lon="7.6768909"><ele>506.00000000000006</ele><time>2026-04-11T10:00:39.96Z</time></trkpt><trkpt lat="45.4129238" lon="7.6769622"><ele>506.0</ele><time>2026-04-11T10:00:41.965Z</time></trkpt><trkpt lat="45.4128689" lon="7.6770176"><ele>506.00000000000006</ele><time>2026-04-11T10:00:43.965Z</time></trkpt><trkpt lat="45.4128102" lon="7.6770511"><ele>506.00000000000006</ele><time>2026-04-11T10:00:45.96Z</time></trkpt><trkpt lat="45.4127467" lon="7.6770668"><ele>505.8</ele><time>2026-04-11T10:00:47.97Z</time></trkpt><trkpt lat="45.4126698" lon="7.6770634"><ele>505.6</ele><time>2026-04-11T10:00:50.977Z</time></trkpt><trkpt lat="45.4126072" lon="7.6770818"><ele>505.4</ele><time>2026-04-11T10:00:57.964Z</time></trkpt><trkpt lat="45.4126907" lon="7.6771231"><ele>505.2</ele><time>2026-04-11T10:01:01.958Z</time></trkpt><trkpt lat="45.4128005" lon="7.6771554"><ele>505.0</ele><time>2026-04-11T10:01:03.951Z</time></trkpt><trkpt lat="45.4129169" lon="7.6771623"><ele>507.1666666666667</ele><time>2026-04-11T10:01:05.956Z</time></trkpt><trkpt lat="45.4130356" lon="7.6771653"><ele>509.33333333333337</ele><time>2026-04-11T10:01:08.004Z</time></trkpt><trkpt lat="45.4130987" lon="7.6771807"><ele>511.5</ele><time>2026-04-11T10:01:09.02Z</time></trkpt><trkpt lat="45.4131622" lon="7.6772042"><ele>513.6666666666666</ele><time>2026-04-11T10:01:10.026Z</time></trkpt><trkpt lat="45.4132282" lon="7.6772229"><ele>515.8333333333333</ele><time>2026-04-11T10:01:11.028Z</time></trkpt><trkpt lat="45.4132943" lon="7.6772428"><ele>518.0</ele><time>2026-04-11T10:01:12.032Z</time></trkpt><trkpt lat="45.4133625" lon="7.6772679"><ele>518.0</ele><time>2026-04-11T10:01:12.95Z</time></trkpt><trkpt lat="45.4134305" lon="7.6772999"><ele>518.0</ele><time>2026-04-11T10:01:13.964Z</time></trkpt><trkpt lat="45.4134934" lon="7.677336"><ele>518.0</ele><time>2026-04-11T10:01:14.982Z</time></trkpt><trkpt lat="45.4135633" lon="7.6773698"><ele>518.0</ele><time>2026-04-11T10:01:16.033Z</time></trkpt><trkpt lat="45.4136315" lon="7.677403"><ele>518.0</ele><time>2026-04-11T10:01:16.971Z</time></trkpt><trkpt lat="45.4136884" lon="7.677442"><ele>518.0</ele><time>2026-04-11T10:01:17.965Z</time></trkpt><trkpt lat="45.4137699" lon="7.6775132"><ele>518.0</ele><time>2026-04-11T10:01:19.962Z</time></trkpt><trkpt lat="45.4138188" lon="7.6775836"><ele>518.6666666666666</ele><time>2026-04-11T10:01:21.936Z</time></trkpt><trkpt lat="45.4138335" lon="7.6777159"><ele>519.3333333333333</ele><time>2026-04-11T10:01:25.028Z</time></trkpt><trkpt lat="45.4138088" lon="7.6778392"><ele>520.0</ele><time>2026-04-11T10:01:27.959Z</time></trkpt><trkpt lat="45.4137809" lon="7.6779492"><ele>520.6666666666666</ele><time>2026-04-11T10:01:30.957Z</time></trkpt><trkpt lat="45.4137505" lon="7.6780614"><ele>521.3333333333334</ele><time>2026-04-11T10:01:33.949Z</time></trkpt><trkpt lat="45.4137369" lon="7.6781838"><ele>522.0</ele><time>2026-04-11T10:01:36.949Z</time></trkpt><trkpt lat="45.4137702" lon="7.6782813"><ele>521.8333333333334</ele><time>2026-04-11T10:01:41.955Z</time></trkpt><trkpt lat="45.4138406" lon="7.67833"><ele>521.6666666666666</ele><time>2026-04-11T10:01:43.955Z</time></trkpt><trkpt lat="45.4139222" lon="7.6783894"><ele>521.5</ele><time>2026-04-11T10:01:46.03Z</time></trkpt><trkpt lat="45.4139905" lon="7.6784711"><ele>521.3333333333333</ele><time>2026-04-11T10:01:47.959Z</time></trkpt><trkpt lat="45.4140718" lon="7.6785839"><ele>521.1666666666666</ele><time>2026-04-11T10:01:49.96Z</time></trkpt><trkpt lat="45.414129" lon="7.6786562"><ele>521.0</ele><time>2026-04-11T10:01:50.955Z</time></trkpt><trkpt lat="45.4141814" lon="7.6787308"><ele>519.0</ele><time>2026-04-11T10:01:51.964Z</time></trkpt><trkpt lat="45.4142295" lon="7.6788125"><ele>517.0</ele><time>2026-04-11T10:01:52.96Z</time></trkpt><trkpt lat="45.4143176" lon="7.6789487"><ele>515.0</ele><time>2026-04-11T10:01:55.035Z</time></trkpt><trkpt lat="45.4143582" lon="7.6790195"><ele>513.0</ele><time>2026-04-11T10:01:55.959Z</time></trkpt><trkpt lat="45.4144337" lon="7.6791658"><ele>511.0</ele><time>2026-04-11T10:01:57.958Z</time></trkpt><trkpt lat="45.4144861" lon="7.6792916"><ele>511.0</ele><time>2026-04-11T10:01:59.955Z</time></trkpt><trkpt lat="45.4145091" lon="7.6793949"><ele>511.0</ele><time>2026-04-11T10:02:01.951Z</time></trkpt><trkpt lat="45.414438" lon="7.679476"><ele>511.0</ele><time>2026-04-11T10:02:04.954Z</time></trkpt><trkpt lat="45.4143414" lon="7.679497"><ele>511.0</ele><time>2026-04-11T10:02:06.952Z</time></trkpt><trkpt lat="45.4142266" lon="7.6795466"><ele>511.0</ele><time>2026-04-11T10:02:08.95Z</time></trkpt><trkpt lat="45.4141296" lon="7.6796453"><ele>510.6666666666667</ele><time>2026-04-11T10:02:10.956Z</time></trkpt><trkpt lat="45.4140782" lon="7.6797154"><ele>510.33333333333337</ele><time>2026-04-11T10:02:11.953Z</time></trkpt><trkpt lat="45.4140317" lon="7.679793"><ele>510.0</ele><time>2026-04-11T10:02:12.942Z</time></trkpt><trkpt lat="45.4139848" lon="7.6798778"><ele>509.66666666666663</ele><time>2026-04-11T10:02:13.959Z</time></trkpt><trkpt lat="45.413934" lon="7.6799682"><ele>509.3333333333333</ele><time>2026-04-11T10:02:14.963Z</time></trkpt><trkpt lat="45.4138812" lon="7.6800485"><ele>509.0</ele><time>2026-04-11T10:02:15.952Z</time></trkpt><trkpt lat="45.4138194" lon="7.6801171"><ele>509.16666666666663</ele><time>2026-04-11T10:02:16.952Z</time></trkpt><trkpt lat="45.4137588" lon="7.6801864"><ele>509.3333333333333</ele><time>2026-04-11T10:02:17.957Z</time></trkpt><trkpt lat="45.4137106" lon="7.6802584"><ele>509.5</ele><time>2026-04-11T10:02:19.029Z</time></trkpt><trkpt lat="45.4136684" lon="7.6803255"><ele>509.66666666666663</ele><time>2026-04-11T10:02:19.961Z</time></trkpt><trkpt lat="45.4135846" lon="7.6804311"><ele>509.8333333333333</ele><time>2026-04-11T10:02:21.958Z</time></trkpt><trkpt lat="45.4135022" lon="7.6804768"><ele>510.0</ele><time>2026-04-11T10:02:23.954Z</time></trkpt><trkpt lat="45.4134048" lon="7.680425"><ele>510.0</ele><time>2026-04-11T10:02:25.958Z</time></trkpt><trkpt lat="45.4133279" lon="7.6803522"><ele>510.0</ele><time>2026-04-11T10:02:27.98Z</time></trkpt><trkpt lat="45.4132458" lon="7.6802723"><ele>510.0</ele><time>2026-04-11T10:02:29.979Z</time></trkpt><trkpt lat="45.4131824" lon="7.6801525"><ele>510.0</ele><time>2026-04-11T10:02:32.03Z</time></trkpt><trkpt lat="45.4131391" lon="7.6800424"><ele>510.0</ele><time>2026-04-11T10:02:33.954Z</time></trkpt><trkpt lat="45.4131009" lon="7.6799321"><ele>508.5</ele><time>2026-04-11T10:02:35.947Z</time></trkpt><trkpt lat="45.4130564" lon="7.6798394"><ele>507.0</ele><time>2026-04-11T10:02:37.943Z</time></trkpt><trkpt lat="45.4129706" lon="7.6797421"><ele>505.5</ele><time>2026-04-11T10:02:40.043Z</time></trkpt><trkpt lat="45.412863" lon="7.6796476"><ele>504.0</ele><time>2026-04-11T10:02:41.959Z</time></trkpt><trkpt lat="45.4128106" lon="7.6795957"><ele>502.5</ele><time>2026-04-11T10:02:42.963Z</time></trkpt><trkpt lat="45.4127563" lon="7.6795394"><ele>501.0</ele><time>2026-04-11T10:02:43.957Z</time></trkpt><trkpt lat="45.4126936" lon="7.6794923"><ele>501.5</ele><time>2026-04-11T10:02:44.963Z</time></trkpt><trkpt lat="45.4126265" lon="7.6794579"><ele>502.0</ele><time>2026-04-11T10:02:45.974Z</time></trkpt><trkpt lat="45.4125551" lon="7.6794325"><ele>502.5</ele><time>2026-04-11T10:02:47.025Z</time></trkpt><trkpt lat="45.4124834" lon="7.6793978"><ele>503.0</ele><time>2026-04-11T10:02:47.954Z</time></trkpt><trkpt lat="45.4124309" lon="7.6793459"><ele>503.5</ele><time>2026-04-11T10:02:48.955Z</time></trkpt><trkpt lat="45.4123546" lon="7.6792499"><ele>504.0</ele><time>2026-04-11T10:02:50.964Z</time></trkpt><trkpt lat="45.4122782" lon="7.6791536"><ele>504.0</ele><time>2026-04-11T10:02:52.965Z</time></trkpt><trkpt lat="45.4122376" lon="7.6790609"><ele>504.0</ele><time>2026-04-11T10:02:54.956Z</time></trkpt><trkpt lat="45.4121773" lon="7.6789783"><ele>504.0</ele><time>2026-04-11T10:02:57.96Z</time></trkpt><trkpt lat="45.412115" lon="7.6789408"><ele>504.0</ele><time>2026-04-11T10:02:59.962Z</time></trkpt><trkpt lat="45.4120062" lon="7.6788837"><ele>504.0</ele><time>2026-04-11T10:03:01.963Z</time></trkpt><trkpt lat="45.4119081" lon="7.6788394"><ele>504.0</ele><time>2026-04-11T10:03:03.96Z</time></trkpt><trkpt lat="45.4118201" lon="7.6788062"><ele>503.0</ele><time>2026-04-11T10:03:05.959Z</time></trkpt><trkpt lat="45.4117216" lon="7.6787638"><ele>502.0</ele><time>2026-04-11T10:03:07.963Z</time></trkpt><trkpt lat="45.4116072" lon="7.6787101"><ele>501.0</ele><time>2026-04-11T10:03:09.965Z</time></trkpt><trkpt lat="45.411512" lon="7.678649"><ele>500.0</ele><time>2026-04-11T10:03:11.963Z</time></trkpt><trkpt lat="45.4114183" lon="7.6785697"><ele>499.0</ele><time>2026-04-11T10:03:13.961Z</time></trkpt><trkpt lat="45.4113382" lon="7.6784989"><ele>500.83333333333337</ele><time>2026-04-11T10:03:15.959Z</time></trkpt><trkpt lat="45.4112385" lon="7.6784789"><ele>502.6666666666667</ele><time>2026-04-11T10:03:17.964Z</time></trkpt><trkpt lat="45.4111148" lon="7.678465"><ele>504.5</ele><time>2026-04-11T10:03:19.954Z</time></trkpt><trkpt lat="45.4110516" lon="7.6784618"><ele>506.33333333333337</ele><time>2026-04-11T10:03:20.957Z</time></trkpt><trkpt lat="45.4109853" lon="7.6784431"><ele>508.1666666666667</ele><time>2026-04-11T10:03:21.96Z</time></trkpt><trkpt lat="45.4109141" lon="7.6784266"><ele>510.0</ele><time>2026-04-11T10:03:22.961Z</time></trkpt><trkpt lat="45.4108409" lon="7.6783996"><ele>510.0</ele><time>2026-04-11T10:03:23.969Z</time></trkpt><trkpt lat="45.410771" lon="7.678381"><ele>510.0</ele><time>2026-04-11T10:03:24.963Z</time></trkpt><trkpt lat="45.4107082" lon="7.6783595"><ele>510.0</ele><time>2026-04-11T10:03:25.964Z</time></trkpt><trkpt lat="45.4106111" lon="7.6783541"><ele>510.0</ele><time>2026-04-11T10:03:27.963Z</time></trkpt><trkpt lat="45.4105209" lon="7.6783757"><ele>510.0</ele><time>2026-04-11T10:03:29.967Z</time></trkpt><trkpt lat="45.4104566" lon="7.6784531"><ele>510.0</ele><time>2026-04-11T10:03:31.957Z</time></trkpt><trkpt lat="45.4104441" lon="7.678635"><ele>513.0</ele><time>2026-04-11T10:03:33.954Z</time></trkpt><trkpt lat="45.4104457" lon="7.6787293"><ele>516.0</ele><time>2026-04-11T10:03:34.965Z</time></trkpt><trkpt lat="45.4104545" lon="7.6788213"><ele>519.0</ele><time>2026-04-11T10:03:35.96Z</time></trkpt><trkpt lat="45.4104578" lon="7.6789148"><ele>522.0</ele><time>2026-04-11T10:03:36.964Z</time></trkpt><trkpt lat="45.4104269" lon="7.6790752"><ele>525.0</ele><time>2026-04-11T10:03:38.968Z</time></trkpt><trkpt lat="45.4103558" lon="7.6791613"><ele>528.0</ele><time>2026-04-11T10:03:40.97Z</time></trkpt><trkpt lat="45.4102771" lon="7.6791624"><ele>528.0</ele><time>2026-04-11T10:03:42.962Z</time></trkpt><trkpt lat="45.4101655" lon="7.6791717"><ele>528.0</ele><time>2026-04-11T10:03:44.965Z</time></trkpt><trkpt lat="45.410056" lon="7.6791997"><ele>528.0</ele><time>2026-04-11T10:03:46.965Z</time></trkpt><trkpt lat="45.4099873" lon="7.6792311"><ele>528.0</ele><time>2026-04-11T10:03:47.953Z</time></trkpt><trkpt lat="45.4099183" lon="7.6792628"><ele>528.0</ele><time>2026-04-11T10:03:48.964Z</time></trkpt><trkpt lat="45.4098172" lon="7.6792926"><ele>528.0</ele><time>2026-04-11T10:03:50.958Z</time></trkpt><trkpt lat="45.4097132" lon="7.6793073"><ele>528.0</ele><time>2026-04-11T10:03:52.964Z</time></trkpt><trkpt lat="45.4096005" lon="7.6792995"><ele>528.0</ele><time>2026-04-11T10:03:54.958Z</time></trkpt><trkpt lat="45.4095021" lon="7.679218"><ele>528.0</ele><time>2026-04-11T10:03:56.97Z</time></trkpt><trkpt lat="45.4094042" lon="7.6791245"><ele>528.0</ele><time>2026-04-11T10:03:58.967Z</time></trkpt><trkpt lat="45.409332" lon="7.6790798"><ele>530.5</ele><time>2026-04-11T10:03:59.958Z</time></trkpt><trkpt lat="45.4092004" lon="7.6790662"><ele>533.0</ele><time>2026-04-11T10:04:00.967Z</time></trkpt><trkpt lat="45.4090535" lon="7.6790704"><ele>535.5</ele><time>2026-04-11T10:04:01.969Z</time></trkpt><trkpt lat="45.4089378" lon="7.6790537"><ele>538.0</ele><time>2026-04-11T10:04:02.962Z</time></trkpt><trkpt lat="45.4088473" lon="7.6790393"><ele>538.3333333333334</ele><time>2026-04-11T10:04:03.963Z</time></trkpt><trkpt lat="45.4087733" lon="7.6790447"><ele>538.6666666666667</ele><time>2026-04-11T10:04:04.954Z</time></trkpt><trkpt lat="45.4087094" lon="7.6790692"><ele>539.0</ele><time>2026-04-11T10:04:05.957Z</time></trkpt><trkpt lat="45.408641" lon="7.6790831"><ele>539.3333333333334</ele><time>2026-04-11T10:04:06.962Z</time></trkpt><trkpt lat="45.4085636" lon="7.6791034"><ele>539.6666666666666</ele><time>2026-04-11T10:04:08.96Z</time></trkpt><trkpt lat="45.4086355" lon="7.6791512"><ele>540.0</ele><time>2026-04-11T10:04:11.961Z</time></trkpt><trkpt lat="45.4087666" lon="7.6792243"><ele>539.6</ele><time>2026-04-11T10:04:13.966Z</time></trkpt><trkpt lat="45.4088606" lon="7.6792807"><ele>539.2</ele><time>2026-04-11T10:04:14.956Z</time></trkpt><trkpt lat="45.4089645" lon="7.6793377"><ele>538.8</ele><time>2026-04-11T10:04:15.96Z</time></trkpt><trkpt lat="45.4090527" lon="7.6793973"><ele>538.4</ele><time>2026-04-11T10:04:16.958Z</time></trkpt><trkpt lat="45.4091287" lon="7.6794748"><ele>538.0</ele><time>2026-04-11T10:04:17.962Z</time></trkpt><trkpt lat="45.4091981" lon="7.6795532"><ele>539.3333333333334</ele><time>2026-04-11T10:04:18.952Z</time></trkpt><trkpt lat="45.409257" lon="7.6796268"><ele>540.6666666666667</ele><time>2026-04-11T10:04:19.951Z</time></trkpt><trkpt lat="45.4093206" lon="7.6796926"><ele>542.0</ele><time>2026-04-11T10:04:20.945Z</time></trkpt><trkpt lat="45.4093892" lon="7.6797589"><ele>543.3333333333334</ele><time>2026-04-11T10:04:21.956Z</time></trkpt><trkpt lat="45.4094646" lon="7.679829"><ele>544.6666666666666</ele><time>2026-04-11T10:04:22.958Z</time></trkpt><trkpt lat="45.4095559" lon="7.6799052"><ele>546.0</ele><time>2026-04-11T10:04:23.96Z</time></trkpt><trkpt lat="45.4096537" lon="7.6799733"><ele>545.6666666666666</ele><time>2026-04-11T10:04:24.961Z</time></trkpt><trkpt lat="45.4097502" lon="7.6800414"><ele>545.3333333333334</ele><time>2026-04-11T10:04:25.963Z</time></trkpt><trkpt lat="45.4098373" lon="7.680104"><ele>545.0</ele><time>2026-04-11T10:04:26.964Z</time></trkpt><trkpt lat="45.4099088" lon="7.6801629"><ele>544.6666666666667</ele><time>2026-04-11T10:04:27.961Z</time></trkpt><trkpt lat="45.4099767" lon="7.6802185"><ele>544.3333333333334</ele><time>2026-04-11T10:04:28.958Z</time></trkpt><trkpt lat="45.4100396" lon="7.6802769"><ele>544.0</ele><time>2026-04-11T10:04:29.969Z</time></trkpt><trkpt lat="45.4101078" lon="7.680333"><ele>544.0</ele><time>2026-04-11T10:04:30.963Z</time></trkpt><trkpt lat="45.4101849" lon="7.6803608"><ele>544.0</ele><time>2026-04-11T10:04:31.958Z</time></trkpt><trkpt lat="45.4102759" lon="7.6803565"><ele>544.0</ele><time>2026-04-11T10:04:32.965Z</time></trkpt><trkpt lat="45.4103627" lon="7.6803333"><ele>544.0</ele><time>2026-04-11T10:04:33.962Z</time></trkpt><trkpt lat="45.4104469" lon="7.6803028"><ele>544.0</ele><time>2026-04-11T10:04:34.96Z</time></trkpt><trkpt lat="45.4105261" lon="7.6802781"><ele>544.0</ele><time>2026-04-11T10:04:35.956Z</time></trkpt><trkpt lat="45.4105899" lon="7.6802646"><ele>544.0</ele><time>2026-04-11T10:04:36.958Z</time></trkpt><trkpt lat="45.4106954" lon="7.6802469"><ele>544.0</ele><time>2026-04-11T10:04:38.965Z</time></trkpt><trkpt lat="45.4108012" lon="7.6802327"><ele>544.0</ele><time>2026-04-11T10:04:40.965Z</time></trkpt><trkpt lat="45.4109034" lon="7.6802488"><ele>544.0</ele><time>2026-04-11T10:04:42.969Z</time></trkpt><trkpt lat="45.4110003" lon="7.6803028"><ele>544.0</ele><time>2026-04-11T10:04:44.964Z</time></trkpt><trkpt lat="45.4110788" lon="7.6804446"><ele>543.6666666666667</ele><time>2026-04-11T10:04:46.967Z</time></trkpt><trkpt lat="45.4111137" lon="7.6805229"><ele>543.3333333333334</ele><time>2026-04-11T10:04:47.958Z</time></trkpt><trkpt lat="45.4111519" lon="7.6806107"><ele>543.0</ele><time>2026-04-11T10:04:48.964Z</time></trkpt><trkpt lat="45.4112003" lon="7.6807228"><ele>542.6666666666666</ele><time>2026-04-11T10:04:49.966Z</time></trkpt><trkpt lat="45.4112543" lon="7.6808432"><ele>542.3333333333333</ele><time>2026-04-11T10:04:50.959Z</time></trkpt><trkpt lat="45.4113084" lon="7.6809655"><ele>542.0</ele><time>2026-04-11T10:04:51.966Z</time></trkpt><trkpt lat="45.4113719" lon="7.6810819"><ele>544.8333333333333</ele><time>2026-04-11T10:04:52.968Z</time></trkpt><trkpt lat="45.4114279" lon="7.6811839"><ele>547.6666666666666</ele><time>2026-04-11T10:04:54.037Z</time></trkpt><trkpt lat="45.4114812" lon="7.681278"><ele>550.5</ele><time>2026-04-11T10:04:55.024Z</time></trkpt><trkpt lat="45.4115471" lon="7.6813607"><ele>553.3333333333334</ele><time>2026-04-11T10:04:56.028Z</time></trkpt><trkpt lat="45.4116046" lon="7.6814388"><ele>556.1666666666667</ele><time>2026-04-11T10:04:56.961Z</time></trkpt><trkpt lat="45.4116732" lon="7.6815103"><ele>559.0</ele><time>2026-04-11T10:04:57.965Z</time></trkpt><trkpt lat="45.4117434" lon="7.6815659"><ele>559.0</ele><time>2026-04-11T10:04:58.965Z</time></trkpt><trkpt lat="45.4118149" lon="7.6816235"><ele>559.0</ele><time>2026-04-11T10:04:59.957Z</time></trkpt><trkpt lat="45.4118799" lon="7.6817133"><ele>559.0</ele><time>2026-04-11T10:05:00.966Z</time></trkpt><trkpt lat="45.411943" lon="7.68176"><ele>559.0</ele><time>2026-04-11T10:05:02.033Z</time></trkpt><trkpt lat="45.4120196" lon="7.681802"><ele>559.0</ele><time>2026-04-11T10:05:02.943Z</time></trkpt><trkpt lat="45.4120869" lon="7.6818511"><ele>559.0</ele><time>2026-04-11T10:05:03.955Z</time></trkpt><trkpt lat="45.4121547" lon="7.681922"><ele>559.3333333333334</ele><time>2026-04-11T10:05:04.979Z</time></trkpt><trkpt lat="45.4122316" lon="7.6819775"><ele>559.6666666666667</ele><time>2026-04-11T10:05:06.03Z</time></trkpt><trkpt lat="45.4123031" lon="7.6820472"><ele>560.0</ele><time>2026-04-11T10:05:07.034Z</time></trkpt><trkpt lat="45.412375" lon="7.6821276"><ele>560.3333333333334</ele><time>2026-04-11T10:05:07.961Z</time></trkpt><trkpt lat="45.4124401" lon="7.682222"><ele>560.6666666666666</ele><time>2026-04-11T10:05:08.965Z</time></trkpt><trkpt lat="45.4125106" lon="7.6823043"><ele>561.0</ele><time>2026-04-11T10:05:09.951Z</time></trkpt><trkpt lat="45.4125833" lon="7.6823665"><ele>561.0</ele><time>2026-04-11T10:05:11.032Z</time></trkpt><trkpt lat="45.4126556" lon="7.6824162"><ele>561.0</ele><time>2026-04-11T10:05:12.025Z</time></trkpt><trkpt lat="45.4127249" lon="7.682465"><ele>561.0</ele><time>2026-04-11T10:05:12.969Z</time></trkpt><trkpt lat="45.4127929" lon="7.6825096"><ele>561.0</ele><time>2026-04-11T10:05:13.962Z</time></trkpt><trkpt lat="45.4128601" lon="7.6825518"><ele>561.0</ele><time>2026-04-11T10:05:14.991Z</time></trkpt><trkpt lat="45.4129274" lon="7.6825919"><ele>561.0</ele><time>2026-04-11T10:05:16.031Z</time></trkpt><trkpt lat="45.4129969" lon="7.6826344"><ele>557.2</ele><time>2026-04-11T10:05:17.032Z</time></trkpt><trkpt lat="45.413053" lon="7.6826882"><ele>553.4000000000001</ele><time>2026-04-11T10:05:17.96Z</time></trkpt><trkpt lat="45.4131535" lon="7.6827798"><ele>549.6</ele><time>2026-04-11T10:05:19.995Z</time></trkpt><trkpt lat="45.4132422" lon="7.6829311"><ele>545.8000000000001</ele><time>2026-04-11T10:05:22.045Z</time></trkpt><trkpt lat="45.4132773" lon="7.6830197"><ele>542.0</ele><time>2026-04-11T10:05:22.987Z</time></trkpt><trkpt lat="45.4133102" lon="7.6831151"><ele>542.0</ele><time>2026-04-11T10:05:24.019Z</time></trkpt><trkpt lat="45.4133316" lon="7.6832192"><ele>542.0</ele><time>2026-04-11T10:05:24.953Z</time></trkpt><trkpt lat="45.4133425" lon="7.6833153"><ele>542.0</ele><time>2026-04-11T10:05:26.034Z</time></trkpt><trkpt lat="45.4133492" lon="7.6834155"><ele>542.0</ele><time>2026-04-11T10:05:26.968Z</time></trkpt><trkpt lat="45.4133542" lon="7.6835283"><ele>542.0</ele><time>2026-04-11T10:05:27.96Z</time></trkpt><trkpt lat="45.4133533" lon="7.6836581"><ele>542.0</ele><time>2026-04-11T10:05:28.956Z</time></trkpt><trkpt lat="45.4133361" lon="7.6838061"><ele>544.6666666666666</ele><time>2026-04-11T10:05:29.945Z</time></trkpt><trkpt lat="45.4133143" lon="7.6840236"><ele>547.3333333333334</ele><time>2026-04-11T10:05:30.946Z</time></trkpt><trkpt lat="45.4133285" lon="7.6842662"><ele>550.0</ele><time>2026-04-11T10:05:31.953Z</time></trkpt><trkpt lat="45.413348" lon="7.6844716"><ele>551.1666666666667</ele><time>2026-04-11T10:05:32.958Z</time></trkpt><trkpt lat="45.413357" lon="7.684622"><ele>552.3333333333334</ele><time>2026-04-11T10:05:33.957Z</time></trkpt><trkpt lat="45.4133727" lon="7.6847312"><ele>553.5</ele><time>2026-04-11T10:05:34.981Z</time></trkpt><trkpt lat="45.4133946" lon="7.6848338"><ele>554.6666666666666</ele><time>2026-04-11T10:05:35.959Z</time></trkpt><trkpt lat="45.4134257" lon="7.6849315"><ele>555.8333333333333</ele><time>2026-04-11T10:05:37.043Z</time></trkpt><trkpt lat="45.4134674" lon="7.6850209"><ele>557.0</ele><time>2026-04-11T10:05:37.952Z</time></trkpt><trkpt lat="45.4135165" lon="7.6850854"><ele>557.0</ele><time>2026-04-11T10:05:38.953Z</time></trkpt><trkpt lat="45.4135723" lon="7.6851488"><ele>557.0</ele><time>2026-04-11T10:05:39.954Z</time></trkpt><trkpt lat="45.4136338" lon="7.6852001"><ele>557.0</ele><time>2026-04-11T10:05:40.95Z</time></trkpt><trkpt lat="45.4136924" lon="7.6852556"><ele>557.0</ele><time>2026-04-11T10:05:41.958Z</time></trkpt><trkpt lat="45.4137695" lon="7.685348"><ele>557.0</ele><time>2026-04-11T10:05:43.953Z</time></trkpt><trkpt lat="45.4138119" lon="7.6854332"><ele>557.0</ele><time>2026-04-11T10:05:45.959Z</time></trkpt><trkpt lat="45.4138861" lon="7.6855939"><ele>558.75</ele><time>2026-04-11T10:05:47.955Z</time></trkpt><trkpt lat="45.4139611" lon="7.685705"><ele>560.5</ele><time>2026-04-11T10:05:49.028Z</time></trkpt><trkpt lat="45.4140412" lon="7.6858521"><ele>562.25</ele><time>2026-04-11T10:05:50.038Z</time></trkpt><trkpt lat="45.4141353" lon="7.6860256"><ele>564.0</ele><time>2026-04-11T10:05:51.026Z</time></trkpt><trkpt lat="45.4142281" lon="7.6862023"><ele>564.0</ele><time>2026-04-11T10:05:51.96Z</time></trkpt><trkpt lat="45.4143272" lon="7.6863713"><ele>564.0</ele><time>2026-04-11T10:05:52.964Z</time></trkpt><trkpt lat="45.4144417" lon="7.6865267"><ele>564.0</ele><time>2026-04-11T10:05:53.958Z</time></trkpt><trkpt lat="45.4145538" lon="7.6866804"><ele>564.0</ele><time>2026-04-11T10:05:54.947Z</time></trkpt><trkpt lat="45.4146505" lon="7.6868209"><ele>564.0</ele><time>2026-04-11T10:05:55.956Z</time></trkpt><trkpt lat="45.4147509" lon="7.686961"><ele>564.0</ele><time>2026-04-11T10:05:57.004Z</time></trkpt><trkpt lat="45.4148543" lon="7.6870744"><ele>564.0</ele><time>2026-04-11T10:05:57.956Z</time></trkpt><trkpt lat="45.4149627" lon="7.6871639"><ele>563.0</ele><time>2026-04-11T10:05:58.961Z</time></trkpt><trkpt lat="45.4150874" lon="7.6872308"><ele>562.0</ele><time>2026-04-11T10:06:00.054Z</time></trkpt><trkpt lat="45.4153636" lon="7.6872847"><ele>561.0</ele><time>2026-04-11T10:06:01.953Z</time></trkpt><trkpt lat="45.4154903" lon="7.6873032"><ele>557.5</ele><time>2026-04-11T10:06:02.962Z</time></trkpt><trkpt lat="45.4156181" lon="7.6873277"><ele>554.0</ele><time>2026-04-11T10:06:03.955Z</time></trkpt><trkpt lat="45.4157406" lon="7.6873567"><ele>550.5</ele><time>2026-04-11T10:06:04.957Z</time></trkpt><trkpt lat="45.4158669" lon="7.6873806"><ele>547.0</ele><time>2026-04-11T10:06:06.031Z</time></trkpt><trkpt lat="45.4159804" lon="7.6874093"><ele>547.0</ele><time>2026-04-11T10:06:07.04Z</time></trkpt><trkpt lat="45.4160905" lon="7.6874331"><ele>547.0</ele><time>2026-04-11T10:06:07.952Z</time></trkpt><trkpt lat="45.4161959" lon="7.6874529"><ele>547.0</ele><time>2026-04-11T10:06:08.956Z</time></trkpt><trkpt lat="45.4162873" lon="7.6874708"><ele>547.0</ele><time>2026-04-11T10:06:09.958Z</time></trkpt><trkpt lat="45.4163707" lon="7.6874857"><ele>547.0</ele><time>2026-04-11T10:06:10.998Z</time></trkpt><trkpt lat="45.4164484" lon="7.6874781"><ele>545.2</ele><time>2026-04-11T10:06:11.952Z</time></trkpt><trkpt lat="45.4165269" lon="7.6874762"><ele>543.4000000000001</ele><time>2026-04-11T10:06:12.954Z</time></trkpt><trkpt lat="45.4166131" lon="7.6874655"><ele>541.5999999999999</ele><time>2026-04-11T10:06:13.948Z</time></trkpt><trkpt lat="45.4167133" lon="7.6874507"><ele>539.8</ele><time>2026-04-11T10:06:15.03Z</time></trkpt><trkpt lat="45.4168174" lon="7.6874276"><ele>538.0</ele><time>2026-04-11T10:06:16.035Z</time></trkpt><trkpt lat="45.4169147" lon="7.6874147"><ele>538.0</ele><time>2026-04-11T10:06:17.039Z</time></trkpt><trkpt lat="45.4170006" lon="7.6874017"><ele>538.0</ele><time>2026-04-11T10:06:17.95Z</time></trkpt><trkpt lat="45.4170686" lon="7.6873919"><ele>538.0</ele><time>2026-04-11T10:06:18.954Z</time></trkpt><trkpt lat="45.4171928" lon="7.6873391"><ele>538.0</ele><time>2026-04-11T10:06:21.036Z</time></trkpt><trkpt lat="45.4172942" lon="7.6873123"><ele>538.0</ele><time>2026-04-11T10:06:22.938Z</time></trkpt><trkpt lat="45.4173645" lon="7.6873119"><ele>538.8333333333334</ele><time>2026-04-11T10:06:24.952Z</time></trkpt><trkpt lat="45.4174479" lon="7.6872995"><ele>539.6666666666667</ele><time>2026-04-11T10:06:47.956Z</time></trkpt><trkpt lat="45.4175647" lon="7.6872556"><ele>540.5</ele><time>2026-04-11T10:06:49.945Z</time></trkpt><trkpt lat="45.4176339" lon="7.6872311"><ele>541.3333333333334</ele><time>2026-04-11T10:06:50.957Z</time></trkpt><trkpt lat="45.4176973" lon="7.6871913"><ele>542.1666666666666</ele><time>2026-04-11T10:06:51.958Z</time></trkpt><trkpt lat="45.4177561" lon="7.6871478"><ele>543.0</ele><time>2026-04-11T10:06:52.957Z</time></trkpt><trkpt lat="45.4178336" lon="7.6870742"><ele>543.0</ele><time>2026-04-11T10:06:54.953Z</time></trkpt><trkpt lat="45.4178968" lon="7.6870973"><ele>543.0</ele><time>2026-04-11T10:06:56.957Z</time></trkpt><trkpt lat="45.4179781" lon="7.6871654"><ele>543.0</ele><time>2026-04-11T10:06:58.958Z</time></trkpt><trkpt lat="45.4180393" lon="7.687226"><ele>543.0</ele><time>2026-04-11T10:07:00.961Z</time></trkpt><trkpt lat="45.4180688" lon="7.6873062"><ele>543.0</ele><time>2026-04-11T10:08:34.96Z</time></trkpt><trkpt lat="45.4179822" lon="7.6872035"><ele>543.0</ele><time>2026-04-11T10:08:37.942Z</time></trkpt><trkpt lat="45.4179158" lon="7.6871457"><ele>543.0</ele><time>2026-04-11T10:08:40.954Z</time></trkpt><trkpt lat="45.4178472" lon="7.6871944"><ele>543.0</ele><time>2026-04-11T10:08:42.951Z</time></trkpt><trkpt lat="45.4177534" lon="7.6872825"><ele>543.0</ele><time>2026-04-11T10:08:44.955Z</time></trkpt><trkpt lat="45.4176513" lon="7.6873208"><ele>543.0</ele><time>2026-04-11T10:08:46.957Z</time></trkpt><trkpt lat="45.4175623" lon="7.6873233"><ele>543.0</ele><time>2026-04-11T10:08:48.948Z</time></trkpt><trkpt lat="45.4174969" lon="7.6873519"><ele>543.0</ele><time>2026-04-11T10:08:50.959Z</time></trkpt><trkpt lat="45.4174636" lon="7.6874634"><ele>543.0</ele><time>2026-04-11T10:08:53.956Z</time></trkpt><trkpt lat="45.4175026" lon="7.6875796"><ele>543.0</ele><time>2026-04-11T10:08:56.033Z</time></trkpt><trkpt lat="45.4175374" lon="7.6877373"><ele>543.0</ele><time>2026-04-11T10:08:57.955Z</time></trkpt><trkpt lat="45.4175564" lon="7.6878627"><ele>543.0</ele><time>2026-04-11T10:08:58.955Z</time></trkpt><trkpt lat="45.41758" lon="7.6880624"><ele>551.3333333333334</ele><time>2026-04-11T10:08:59.956Z</time></trkpt><trkpt lat="45.4176063" lon="7.6883106"><ele>559.6666666666667</ele><time>2026-04-11T10:09:00.953Z</time></trkpt><trkpt lat="45.41763" lon="7.6885401"><ele>568.0</ele><time>2026-04-11T10:09:01.96Z</time></trkpt><trkpt lat="45.4176563" lon="7.6887246"><ele>571.1666666666667</ele><time>2026-04-11T10:09:02.948Z</time></trkpt><trkpt lat="45.4176646" lon="7.6888296"><ele>574.3333333333334</ele><time>2026-04-11T10:09:03.954Z</time></trkpt><trkpt lat="45.4176491" lon="7.6889995"><ele>577.5</ele><time>2026-04-11T10:09:05.962Z</time></trkpt><trkpt lat="45.4176284" lon="7.6890964"><ele>580.6666666666666</ele><time>2026-04-11T10:09:07.031Z</time></trkpt><trkpt lat="45.4175887" lon="7.689192"><ele>583.8333333333333</ele><time>2026-04-11T10:09:07.951Z</time></trkpt><trkpt lat="45.4175521" lon="7.6892816"><ele>587.0</ele><time>2026-04-11T10:09:08.949Z</time></trkpt><trkpt lat="45.4175203" lon="7.6893776"><ele>590.2</ele><time>2026-04-11T10:09:09.968Z</time></trkpt><trkpt lat="45.4174904" lon="7.6894647"><ele>593.4000000000001</ele><time>2026-04-11T10:09:11.034Z</time></trkpt><trkpt lat="45.4174792" lon="7.6895647"><ele>596.5999999999999</ele><time>2026-04-11T10:09:12.039Z</time></trkpt><trkpt lat="45.4174867" lon="7.689688"><ele>599.8</ele><time>2026-04-11T10:09:12.965Z</time></trkpt><trkpt lat="45.4174908" lon="7.689852"><ele>603.0</ele><time>2026-04-11T10:09:13.971Z</time></trkpt><trkpt lat="45.417506" lon="7.6900783"><ele>606.5</ele><time>2026-04-11T10:09:14.979Z</time></trkpt><trkpt lat="45.4175298" lon="7.690294"><ele>610.0</ele><time>2026-04-11T10:09:16.036Z</time></trkpt><trkpt lat="45.4175488" lon="7.69049"><ele>613.5</ele><time>2026-04-11T10:09:17.033Z</time></trkpt><trkpt lat="45.4175764" lon="7.6906743"><ele>617.0</ele><time>2026-04-11T10:09:17.956Z</time></trkpt><trkpt lat="45.4175987" lon="7.6908076"><ele>617.0</ele><time>2026-04-11T10:09:18.955Z</time></trkpt><trkpt lat="45.417619" lon="7.6909061"><ele>617.0</ele><time>2026-04-11T10:09:19.951Z</time></trkpt><trkpt lat="45.4176624" lon="7.6910535"><ele>617.0</ele><time>2026-04-11T10:09:22.03Z</time></trkpt><trkpt lat="45.4177085" lon="7.6911969"><ele>617.0</ele><time>2026-04-11T10:09:23.955Z</time></trkpt><trkpt lat="45.4177384" lon="7.6912824"><ele>617.0</ele><time>2026-04-11T10:09:24.952Z</time></trkpt><trkpt lat="45.4177686" lon="7.6913628"><ele>617.0</ele><time>2026-04-11T10:09:25.953Z</time></trkpt><trkpt lat="45.417839" lon="7.6914419"><ele>619.2</ele><time>2026-04-11T10:09:27.957Z</time></trkpt><trkpt lat="45.417903" lon="7.6913835"><ele>621.4000000000001</ele><time>2026-04-11T10:09:30.951Z</time></trkpt><trkpt lat="45.417932" lon="7.6912899"><ele>623.5999999999999</ele><time>2026-04-11T10:09:32.944Z</time></trkpt><trkpt lat="45.4179668" lon="7.6911913"><ele>625.8</ele><time>2026-04-11T10:09:34.969Z</time></trkpt><trkpt lat="45.4180291" lon="7.6909901"><ele>628.0</ele><time>2026-04-11T10:09:36.955Z</time></trkpt><trkpt lat="45.4180719" lon="7.6908233"><ele>628.0</ele><time>2026-04-11T10:09:37.95Z</time></trkpt><trkpt lat="45.4181038" lon="7.6906749"><ele>628.0</ele><time>2026-04-11T10:09:38.95Z</time></trkpt><trkpt lat="45.4181369" lon="7.6905453"><ele>628.0</ele><time>2026-04-11T10:09:39.95Z</time></trkpt><trkpt lat="45.4181641" lon="7.6904278"><ele>628.0</ele><time>2026-04-11T10:09:40.938Z</time></trkpt><trkpt lat="45.4181905" lon="7.6903226"><ele>628.0</ele><time>2026-04-11T10:09:41.941Z</time></trkpt><trkpt lat="45.4182205" lon="7.6902284"><ele>628.0</ele><time>2026-04-11T10:09:42.954Z</time></trkpt><trkpt lat="45.418265" lon="7.6901196"><ele>628.0</ele><time>2026-04-11T10:09:44.947Z</time></trkpt><trkpt lat="45.4183195" lon="7.6900704"><ele>628.0</ele><time>2026-04-11T10:09:46.954Z</time></trkpt><trkpt lat="45.4184001" lon="7.6900949"><ele>628.0</ele><time>2026-04-11T10:09:48.953Z</time></trkpt><trkpt lat="45.4184604" lon="7.6901474"><ele>628.0</ele><time>2026-04-11T10:09:49.954Z</time></trkpt><trkpt lat="45.4185177" lon="7.6902247"><ele>628.0</ele><time>2026-04-11T10:09:50.957Z</time></trkpt><trkpt lat="45.4185819" lon="7.6902991"><ele>628.0</ele><time>2026-04-11T10:09:51.951Z</time></trkpt><trkpt lat="45.4186756" lon="7.6903964"><ele>628.0</ele><time>2026-04-11T10:09:53.951Z</time></trkpt><trkpt lat="45.418729" lon="7.690458"><ele>628.0</ele><time>2026-04-11T10:09:54.953Z</time></trkpt><trkpt lat="45.4188014" lon="7.6905353"><ele>628.0</ele><time>2026-04-11T10:09:57.949Z</time></trkpt><trkpt lat="45.4188504" lon="7.6906064"><ele>628.0</ele><time>2026-04-11T10:09:59.943Z</time></trkpt><trkpt lat="45.418886" lon="7.6907303"><ele>628.0</ele><time>2026-04-11T10:10:02.957Z</time></trkpt><trkpt lat="45.4188971" lon="7.690864"><ele>628.0</ele><time>2026-04-11T10:10:04.944Z</time></trkpt><trkpt lat="45.4189436" lon="7.6910002"><ele>629.1666666666667</ele><time>2026-04-11T10:10:06.952Z</time></trkpt><trkpt lat="45.419003" lon="7.6910775"><ele>630.3333333333334</ele><time>2026-04-11T10:10:08.948Z</time></trkpt><trkpt lat="45.4190636" lon="7.6911322"><ele>631.5</ele><time>2026-04-11T10:10:10.952Z</time></trkpt><trkpt lat="45.4191288" lon="7.6911547"><ele>632.6666666666666</ele><time>2026-04-11T10:10:12.953Z</time></trkpt><trkpt lat="45.4192007" lon="7.6911468"><ele>633.8333333333333</ele><time>2026-04-11T10:10:14.949Z</time></trkpt><trkpt lat="45.4192677" lon="7.6911306"><ele>635.0</ele><time>2026-04-11T10:10:16.957Z</time></trkpt><trkpt lat="45.4193581" lon="7.6911514"><ele>634.6666666666666</ele><time>2026-04-11T10:10:19.95Z</time></trkpt><trkpt lat="45.4194376" lon="7.6911622"><ele>634.3333333333333</ele><time>2026-04-11T10:10:23.947Z</time></trkpt><trkpt lat="45.4195057" lon="7.6911912"><ele>634.0</ele><time>2026-04-11T10:10:26.948Z</time></trkpt><trkpt lat="45.4195667" lon="7.691295"><ele>633.6666666666666</ele><time>2026-04-11T10:10:29.952Z</time></trkpt><trkpt lat="45.4195966" lon="7.691396"><ele>633.3333333333334</ele><time>2026-04-11T10:10:31.952Z</time></trkpt><trkpt lat="45.419628" lon="7.6914939"><ele>633.0</ele><time>2026-04-11T10:10:33.944Z</time></trkpt><trkpt lat="45.41966" lon="7.6916042"><ele>633.0</ele><time>2026-04-11T10:10:35.952Z</time></trkpt><trkpt lat="45.41968" lon="7.691712"><ele>633.0</ele><time>2026-04-11T10:10:37.956Z</time></trkpt><trkpt lat="45.419707" lon="7.6918228"><ele>633.0</ele><time>2026-04-11T10:10:39.95Z</time></trkpt><trkpt lat="45.4197356" lon="7.6919419"><ele>633.0</ele><time>2026-04-11T10:10:41.949Z</time></trkpt><trkpt lat="45.4197792" lon="7.692057"><ele>633.0</ele><time>2026-04-11T10:10:43.944Z</time></trkpt><trkpt lat="45.4198072" lon="7.6921518"><ele>633.0</ele><time>2026-04-11T10:10:46.03Z</time></trkpt><trkpt lat="45.4198321" lon="7.6922543"><ele>635.5</ele><time>2026-04-11T10:10:47.945Z</time></trkpt><trkpt lat="45.4198486" lon="7.6923429"><ele>638.0</ele><time>2026-04-11T10:10:49.948Z</time></trkpt><trkpt lat="45.4198612" lon="7.6924319"><ele>640.5</ele><time>2026-04-11T10:10:51.946Z</time></trkpt><trkpt lat="45.4198795" lon="7.6925307"><ele>643.0</ele><time>2026-04-11T10:10:53.96Z</time></trkpt><trkpt lat="45.4199002" lon="7.6926311"><ele>645.5</ele><time>2026-04-11T10:10:55.951Z</time></trkpt><trkpt lat="45.4199179" lon="7.69276"><ele>648.0</ele><time>2026-04-11T10:10:58.936Z</time></trkpt><trkpt lat="45.4199331" lon="7.6928852"><ele>648.2857142857143</ele><time>2026-04-11T10:11:01.954Z</time></trkpt><trkpt lat="45.4199389" lon="7.6929889"><ele>648.5714285714286</ele><time>2026-04-11T10:11:03.947Z</time></trkpt><trkpt lat="45.419936" lon="7.693092"><ele>648.8571428571429</ele><time>2026-04-11T10:11:06.038Z</time></trkpt><trkpt lat="45.4199307" lon="7.6931974"><ele>649.1428571428571</ele><time>2026-04-11T10:11:08.954Z</time></trkpt><trkpt lat="45.4199144" lon="7.6933006"><ele>649.4285714285714</ele><time>2026-04-11T10:11:11.943Z</time></trkpt><trkpt lat="45.419903" lon="7.6933965"><ele>649.7142857142857</ele><time>2026-04-11T10:11:13.967Z</time></trkpt><trkpt lat="45.4198987" lon="7.6935163"><ele>650.0</ele><time>2026-04-11T10:11:16.96Z</time></trkpt><trkpt lat="45.4198845" lon="7.6936214"><ele>647.8333333333333</ele><time>2026-04-11T10:11:18.956Z</time></trkpt><trkpt lat="45.4198674" lon="7.6937398"><ele>645.6666666666666</ele><time>2026-04-11T10:11:22.031Z</time></trkpt><trkpt lat="45.41985" lon="7.6938446"><ele>643.5</ele><time>2026-04-11T10:11:23.958Z</time></trkpt><trkpt lat="45.4198137" lon="7.6939306"><ele>641.3333333333334</ele><time>2026-04-11T10:11:25.952Z</time></trkpt><trkpt lat="45.4197634" lon="7.6940104"><ele>639.1666666666667</ele><time>2026-04-11T10:11:27.958Z</time></trkpt><trkpt lat="45.4197195" lon="7.6941369"><ele>637.0</ele><time>2026-04-11T10:11:30.958Z</time></trkpt><trkpt lat="45.4197021" lon="7.6942713"><ele>637.0</ele><time>2026-04-11T10:11:32.96Z</time></trkpt><trkpt lat="45.4196829" lon="7.6943608"><ele>637.0</ele><time>2026-04-11T10:11:33.955Z</time></trkpt><trkpt lat="45.4196684" lon="7.6945209"><ele>637.0</ele><time>2026-04-11T10:11:35.957Z</time></trkpt><trkpt lat="45.4196457" lon="7.6946494"><ele>637.0</ele><time>2026-04-11T10:11:37.951Z</time></trkpt><trkpt lat="45.4196257" lon="7.6947486"><ele>637.0</ele><time>2026-04-11T10:11:39.955Z</time></trkpt><trkpt lat="45.4195921" lon="7.6948539"><ele>637.0</ele><time>2026-04-11T10:11:43.95Z</time></trkpt><trkpt lat="45.4195471" lon="7.6949308"><ele>637.1428571428571</ele><time>2026-04-11T10:11:47.953Z</time></trkpt><trkpt lat="45.4195073" lon="7.6950163"><ele>637.2857142857142</ele><time>2026-04-11T10:11:59.95Z</time></trkpt><trkpt lat="45.4194598" lon="7.6950819"><ele>637.4285714285714</ele><time>2026-04-11T10:12:20.039Z</time></trkpt><trkpt lat="45.4194637" lon="7.695176"><ele>637.5714285714286</ele><time>2026-04-11T10:12:26.957Z</time></trkpt><trkpt lat="45.4194751" lon="7.6952784"><ele>637.7142857142857</ele><time>2026-04-11T10:12:33.952Z</time></trkpt><trkpt lat="45.4195428" lon="7.6952904"><ele>637.8571428571429</ele><time>2026-04-11T10:13:37.956Z</time></trkpt><trkpt lat="45.4196229" lon="7.695256"><ele>638.0</ele><time>2026-04-11T10:13:40.951Z</time></trkpt><trkpt lat="45.419706" lon="7.6952451"><ele>640.8571428571429</ele><time>2026-04-11T10:13:59.952Z</time></trkpt><trkpt lat="45.4197553" lon="7.6953121"><ele>643.7142857142857</ele><time>2026-04-11T10:14:37.957Z</time></trkpt><trkpt lat="45.4196996" lon="7.6953695"><ele>646.5714285714286</ele><time>2026-04-11T10:14:57.961Z</time></trkpt><trkpt lat="45.4196359" lon="7.6953572"><ele>649.4285714285714</ele><time>2026-04-11T10:15:05.957Z</time></trkpt><trkpt lat="45.4195725" lon="7.6953714"><ele>652.2857142857142</ele><time>2026-04-11T10:15:14.953Z</time></trkpt><trkpt lat="45.419536" lon="7.6952793"><ele>655.1428571428571</ele><time>2026-04-11T10:15:24.03Z</time></trkpt><trkpt lat="45.4195" lon="7.695202"><ele>658.0</ele><time>2026-04-11T10:15:30.955Z</time></trkpt><trkpt lat="45.4194619" lon="7.6952805"><ele>658.0</ele><time>2026-04-11T10:20:14.949Z</time></trkpt><trkpt lat="45.4195238" lon="7.6953213"><ele>658.0</ele><time>2026-04-11T10:20:41.94Z</time></trkpt><trkpt lat="45.419587" lon="7.6952915"><ele>658.0</ele><time>2026-04-11T10:20:48.951Z</time></trkpt><trkpt lat="45.4196556" lon="7.6952918"><ele>658.0</ele><time>2026-04-11T10:20:56.936Z</time></trkpt><trkpt lat="45.419732" lon="7.6953161"><ele>658.0</ele><time>2026-04-11T10:21:32.952Z</time></trkpt><trkpt lat="45.4197942" lon="7.6953484"><ele>658.0</ele><time>2026-04-11T10:21:35.95Z</time></trkpt><trkpt lat="45.4198592" lon="7.6953803"><ele>658.0</ele><time>2026-04-11T10:21:38.945Z</time></trkpt><trkpt lat="45.4199369" lon="7.6953643"><ele>658.0</ele><time>2026-04-11T10:21:40.951Z</time></trkpt><trkpt lat="45.4200022" lon="7.695342"><ele>658.0</ele><time>2026-04-11T10:21:42.919Z</time></trkpt><trkpt lat="45.4200892" lon="7.6953773"><ele>658.0</ele><time>2026-04-11T10:21:45Z</time></trkpt><trkpt lat="45.4201422" lon="7.6954503"><ele>658.0</ele><time>2026-04-11T10:21:46.949Z</time></trkpt><trkpt lat="45.4202022" lon="7.6955313"><ele>658.0</ele><time>2026-04-11T10:21:48.947Z</time></trkpt><trkpt lat="45.4202717" lon="7.6955302"><ele>658.0</ele><time>2026-04-11T10:21:50.915Z</time></trkpt><trkpt lat="45.420341" lon="7.6954667"><ele>658.0</ele><time>2026-04-11T10:21:52.945Z</time></trkpt><trkpt lat="45.420416" lon="7.6954873"><ele>658.0</ele><time>2026-04-11T10:21:54.946Z</time></trkpt><trkpt lat="45.4205065" lon="7.6955662"><ele>658.0</ele><time>2026-04-11T10:21:56.938Z</time></trkpt><trkpt lat="45.4205999" lon="7.695667"><ele>658.0</ele><time>2026-04-11T10:21:58.951Z</time></trkpt><trkpt lat="45.4206767" lon="7.6957896"><ele>658.0</ele><time>2026-04-11T10:22:00.949Z</time></trkpt><trkpt lat="45.4207126" lon="7.6958683"><ele>658.3333333333334</ele><time>2026-04-11T10:22:01.948Z</time></trkpt><trkpt lat="45.4207847" lon="7.696003"><ele>658.6666666666667</ele><time>2026-04-11T10:22:03.952Z</time></trkpt><trkpt lat="45.4208232" lon="7.6960824"><ele>659.0</ele><time>2026-04-11T10:22:04.951Z</time></trkpt><trkpt lat="45.4208611" lon="7.696157"><ele>659.3333333333334</ele><time>2026-04-11T10:22:05.945Z</time></trkpt><trkpt lat="45.4208968" lon="7.6962331"><ele>659.6666666666666</ele><time>2026-04-11T10:22:06.95Z</time></trkpt><trkpt lat="45.4209192" lon="7.6963254"><ele>660.0</ele><time>2026-04-11T10:22:07.945Z</time></trkpt><trkpt lat="45.4209479" lon="7.6964193"><ele>660.0</ele><time>2026-04-11T10:22:08.946Z</time></trkpt><trkpt lat="45.4209708" lon="7.6965092"><ele>660.0</ele><time>2026-04-11T10:22:09.955Z</time></trkpt><trkpt lat="45.4210041" lon="7.6966036"><ele>660.0</ele><time>2026-04-11T10:22:10.961Z</time></trkpt><trkpt lat="45.4210437" lon="7.6966849"><ele>660.0</ele><time>2026-04-11T10:22:11.949Z</time></trkpt><trkpt lat="45.4211282" lon="7.6967941"><ele>660.0</ele><time>2026-04-11T10:22:13.949Z</time></trkpt><trkpt lat="45.4212241" lon="7.6968548"><ele>660.0</ele><time>2026-04-11T10:22:15.953Z</time></trkpt><trkpt lat="45.4213159" lon="7.6969163"><ele>657.8333333333334</ele><time>2026-04-11T10:22:17.948Z</time></trkpt><trkpt lat="45.4213879" lon="7.6969902"><ele>655.6666666666666</ele><time>2026-04-11T10:22:19.959Z</time></trkpt><trkpt lat="45.4214415" lon="7.697069"><ele>653.5</ele><time>2026-04-11T10:22:21.953Z</time></trkpt><trkpt lat="45.4214725" lon="7.6971777"><ele>651.3333333333333</ele><time>2026-04-11T10:22:23.948Z</time></trkpt><trkpt lat="45.421493" lon="7.6973134"><ele>649.1666666666666</ele><time>2026-04-11T10:22:25.939Z</time></trkpt><trkpt lat="45.4215311" lon="7.6974411"><ele>647.0</ele><time>2026-04-11T10:22:27.942Z</time></trkpt><trkpt lat="45.4215593" lon="7.697616"><ele>647.0</ele><time>2026-04-11T10:22:29.95Z</time></trkpt><trkpt lat="45.4215785" lon="7.6977167"><ele>647.0</ele><time>2026-04-11T10:22:30.946Z</time></trkpt><trkpt lat="45.4216006" lon="7.6978309"><ele>647.0</ele><time>2026-04-11T10:22:31.949Z</time></trkpt><trkpt lat="45.4216256" lon="7.6979505"><ele>647.0</ele><time>2026-04-11T10:22:32.955Z</time></trkpt><trkpt lat="45.4216467" lon="7.6980624"><ele>647.0</ele><time>2026-04-11T10:22:33.958Z</time></trkpt><trkpt lat="45.4216734" lon="7.6981851"><ele>647.0</ele><time>2026-04-11T10:22:34.946Z</time></trkpt><trkpt lat="45.4216977" lon="7.6983132"><ele>648.6666666666666</ele><time>2026-04-11T10:22:35.952Z</time></trkpt><trkpt lat="45.4217254" lon="7.6984204"><ele>650.3333333333333</ele><time>2026-04-11T10:22:36.955Z</time></trkpt><trkpt lat="45.4217534" lon="7.6985243"><ele>652.0</ele><time>2026-04-11T10:22:37.95Z</time></trkpt><trkpt lat="45.4217884" lon="7.6986155"><ele>653.6666666666666</ele><time>2026-04-11T10:22:38.948Z</time></trkpt><trkpt lat="45.421849" lon="7.6987337"><ele>655.3333333333334</ele><time>2026-04-11T10:22:40.938Z</time></trkpt><trkpt lat="45.4218851" lon="7.6988116"><ele>657.0</ele><time>2026-04-11T10:22:42.94Z</time></trkpt><trkpt lat="45.4218176" lon="7.6988169"><ele>657.0</ele><time>2026-04-11T10:22:47.951Z</time></trkpt><trkpt lat="45.4217303" lon="7.6987531"><ele>657.0</ele><time>2026-04-11T10:22:49.944Z</time></trkpt><trkpt lat="45.4216389" lon="7.6986784"><ele>657.0</ele><time>2026-04-11T10:22:51.948Z</time></trkpt><trkpt lat="45.4215458" lon="7.6985922"><ele>657.0</ele><time>2026-04-11T10:22:53.947Z</time></trkpt><trkpt lat="45.4214399" lon="7.698509"><ele>657.0</ele><time>2026-04-11T10:22:55.953Z</time></trkpt><trkpt lat="45.4213798" lon="7.6984622"><ele>657.0</ele><time>2026-04-11T10:22:56.946Z</time></trkpt><trkpt lat="45.4213239" lon="7.6984125"><ele>657.0</ele><time>2026-04-11T10:22:57.953Z</time></trkpt><trkpt lat="45.4212731" lon="7.6983548"><ele>657.0</ele><time>2026-04-11T10:22:58.946Z</time></trkpt><trkpt lat="45.421216" lon="7.6983026"><ele>657.0</ele><time>2026-04-11T10:22:59.948Z</time></trkpt><trkpt lat="45.4211468" lon="7.6981681"><ele>657.0</ele><time>2026-04-11T10:23:01.939Z</time></trkpt><trkpt lat="45.4211017" lon="7.6981033"><ele>657.0</ele><time>2026-04-11T10:23:02.946Z</time></trkpt><trkpt lat="45.4210076" lon="7.697996"><ele>661.0</ele><time>2026-04-11T10:23:04.945Z</time></trkpt><trkpt lat="45.4209292" lon="7.6978839"><ele>665.0</ele><time>2026-04-11T10:23:06.958Z</time></trkpt><trkpt lat="45.4208471" lon="7.6977813"><ele>669.0</ele><time>2026-04-11T10:23:08.947Z</time></trkpt><trkpt lat="45.4207642" lon="7.6977255"><ele>673.0</ele><time>2026-04-11T10:23:10.951Z</time></trkpt><trkpt lat="45.4206655" lon="7.6976677"><ele>677.0</ele><time>2026-04-11T10:23:12.948Z</time></trkpt><trkpt lat="45.4205634" lon="7.6975956"><ele>677.0</ele><time>2026-04-11T10:23:14.951Z</time></trkpt><trkpt lat="45.4205004" lon="7.6974813"><ele>677.0</ele><time>2026-04-11T10:23:16.948Z</time></trkpt><trkpt lat="45.420468" lon="7.6973793"><ele>677.0</ele><time>2026-04-11T10:23:18.947Z</time></trkpt><trkpt lat="45.4204182" lon="7.6972912"><ele>677.0</ele><time>2026-04-11T10:23:20.945Z</time></trkpt><trkpt lat="45.4203281" lon="7.6971847"><ele>677.0</ele><time>2026-04-11T10:23:22.947Z</time></trkpt><trkpt lat="45.4202733" lon="7.6971221"><ele>677.0</ele><time>2026-04-11T10:23:23.953Z</time></trkpt><trkpt lat="45.4201923" lon="7.6969955"><ele>679.4000000000001</ele><time>2026-04-11T10:23:25.952Z</time></trkpt><trkpt lat="45.4201068" lon="7.6968804"><ele>681.8000000000001</ele><time>2026-04-11T10:23:27.944Z</time></trkpt><trkpt lat="45.4200287" lon="7.6968137"><ele>684.2</ele><time>2026-04-11T10:23:29.951Z</time></trkpt><trkpt lat="45.4199506" lon="7.6967411"><ele>686.6</ele><time>2026-04-11T10:23:31.954Z</time></trkpt><trkpt lat="45.4198615" lon="7.6966983"><ele>689.0</ele><time>2026-04-11T10:23:34.95Z</time></trkpt><trkpt lat="45.4197905" lon="7.6966537"><ele>689.0</ele><time>2026-04-11T10:23:36.952Z</time></trkpt><trkpt lat="45.419729" lon="7.6966278"><ele>689.0</ele><time>2026-04-11T10:23:38.951Z</time></trkpt><trkpt lat="45.4196606" lon="7.6966211"><ele>689.0</ele><time>2026-04-11T10:23:41.945Z</time></trkpt><trkpt lat="45.4196198" lon="7.6967104"><ele>689.0</ele><time>2026-04-11T10:23:45.951Z</time></trkpt><trkpt lat="45.4195644" lon="7.6967654"><ele>689.0</ele><time>2026-04-11T10:23:53.935Z</time></trkpt><trkpt lat="45.41953" lon="7.6968563"><ele>689.0</ele><time>2026-04-11T10:23:57.941Z</time></trkpt><trkpt lat="45.4194665" lon="7.6968861"><ele>689.0</ele><time>2026-04-11T10:24:18.939Z</time></trkpt><trkpt lat="45.4194115" lon="7.6969304"><ele>694.5</ele><time>2026-04-11T10:24:21.95Z</time></trkpt><trkpt lat="45.4193291" lon="7.6969749"><ele>700.0</ele><time>2026-04-11T10:24:24.936Z</time></trkpt><trkpt lat="45.4192566" lon="7.6970027"><ele>705.5</ele><time>2026-04-11T10:24:26.934Z</time></trkpt><trkpt lat="45.4191903" lon="7.6970216"><ele>711.0</ele><time>2026-04-11T10:24:28.93Z</time></trkpt><trkpt lat="45.4191212" lon="7.6970491"><ele>716.5</ele><time>2026-04-11T10:24:30.963Z</time></trkpt><trkpt lat="45.4190531" lon="7.6970832"><ele>722.0</ele><time>2026-04-11T10:24:32.958Z</time></trkpt><trkpt lat="45.4189709" lon="7.6971197"><ele>722.0</ele><time>2026-04-11T10:24:34.95Z</time></trkpt><trkpt lat="45.418901" lon="7.6971437"><ele>722.0</ele><time>2026-04-11T10:24:36.941Z</time></trkpt><trkpt lat="45.4188282" lon="7.6971835"><ele>722.0</ele><time>2026-04-11T10:24:38.951Z</time></trkpt><trkpt lat="45.4187684" lon="7.6972726"><ele>722.0</ele><time>2026-04-11T10:24:40.952Z</time></trkpt><trkpt lat="45.4186969" lon="7.6973251"><ele>722.0</ele><time>2026-04-11T10:24:43.956Z</time></trkpt><trkpt lat="45.4186336" lon="7.6972895"><ele>722.0</ele><time>2026-04-11T10:24:46.947Z</time></trkpt><trkpt lat="45.4185684" lon="7.6971745"><ele>722.8333333333333</ele><time>2026-04-11T10:25:36.956Z</time></trkpt><trkpt lat="45.4185353" lon="7.6970438"><ele>723.6666666666666</ele><time>2026-04-11T10:25:39.948Z</time></trkpt><trkpt lat="45.4185119" lon="7.6969402"><ele>724.5</ele><time>2026-04-11T10:25:40.944Z</time></trkpt><trkpt lat="45.4184829" lon="7.6968311"><ele>725.3333333333334</ele><time>2026-04-11T10:25:41.956Z</time></trkpt><trkpt lat="45.4184596" lon="7.6967051"><ele>726.1666666666667</ele><time>2026-04-11T10:25:42.954Z</time></trkpt><trkpt lat="45.418432" lon="7.6965882"><ele>727.0</ele><time>2026-04-11T10:25:43.953Z</time></trkpt><trkpt lat="45.4184095" lon="7.6964673"><ele>727.0</ele><time>2026-04-11T10:25:44.943Z</time></trkpt><trkpt lat="45.4183871" lon="7.6963494"><ele>727.0</ele><time>2026-04-11T10:25:45.953Z</time></trkpt><trkpt lat="45.4183718" lon="7.6962406"><ele>727.0</ele><time>2026-04-11T10:25:46.95Z</time></trkpt><trkpt lat="45.418355" lon="7.6961385"><ele>727.0</ele><time>2026-04-11T10:25:47.947Z</time></trkpt><trkpt lat="45.4183276" lon="7.6960365"><ele>727.0</ele><time>2026-04-11T10:25:48.952Z</time></trkpt><trkpt lat="45.4182961" lon="7.6959239"><ele>727.0</ele><time>2026-04-11T10:25:49.939Z</time></trkpt><trkpt lat="45.4182735" lon="7.6958092"><ele>725.6666666666667</ele><time>2026-04-11T10:25:50.954Z</time></trkpt><trkpt lat="45.4182615" lon="7.6956943"><ele>724.3333333333334</ele><time>2026-04-11T10:25:51.953Z</time></trkpt><trkpt lat="45.4182485" lon="7.69559"><ele>723.0</ele><time>2026-04-11T10:25:52.945Z</time></trkpt><trkpt lat="45.4182344" lon="7.6954941"><ele>721.6666666666666</ele><time>2026-04-11T10:25:53.948Z</time></trkpt><trkpt lat="45.4181851" lon="7.695347"><ele>720.3333333333333</ele><time>2026-04-11T10:25:55.956Z</time></trkpt><trkpt lat="45.4181544" lon="7.6952218"><ele>719.0</ele><time>2026-04-11T10:25:57.954Z</time></trkpt><trkpt lat="45.4181" lon="7.6951559"><ele>717.8000000000001</ele><time>2026-04-11T10:25:59.945Z</time></trkpt><trkpt lat="45.417991" lon="7.695179"><ele>716.6</ele><time>2026-04-11T10:26:01.958Z</time></trkpt><trkpt lat="45.4179252" lon="7.6952034"><ele>715.4</ele><time>2026-04-11T10:26:02.949Z</time></trkpt><trkpt lat="45.4178606" lon="7.6952404"><ele>714.2</ele><time>2026-04-11T10:26:03.939Z</time></trkpt><trkpt lat="45.4177464" lon="7.6953089"><ele>713.0</ele><time>2026-04-11T10:26:05.954Z</time></trkpt><trkpt lat="45.4176467" lon="7.695364"><ele>717.8</ele><time>2026-04-11T10:26:07.955Z</time></trkpt><trkpt lat="45.4175199" lon="7.6954016"><ele>722.5999999999999</ele><time>2026-04-11T10:26:09.953Z</time></trkpt><trkpt lat="45.4174571" lon="7.6954151"><ele>727.4000000000001</ele><time>2026-04-11T10:26:10.95Z</time></trkpt><trkpt lat="45.4173516" lon="7.695435"><ele>732.2</ele><time>2026-04-11T10:26:12.938Z</time></trkpt><trkpt lat="45.4172823" lon="7.6954479"><ele>737.0</ele><time>2026-04-11T10:26:14.955Z</time></trkpt><trkpt lat="45.4173983" lon="7.6954608"><ele>737.0</ele><time>2026-04-11T10:26:20.958Z</time></trkpt><trkpt lat="45.4175064" lon="7.6955048"><ele>737.0</ele><time>2026-04-11T10:26:22.936Z</time></trkpt><trkpt lat="45.4176027" lon="7.6955299"><ele>737.0</ele><time>2026-04-11T10:26:24.953Z</time></trkpt><trkpt lat="45.4176885" lon="7.6955316"><ele>737.0</ele><time>2026-04-11T10:26:26.948Z</time></trkpt><trkpt lat="45.4177533" lon="7.6955578"><ele>737.0</ele><time>2026-04-11T10:26:28.951Z</time></trkpt><trkpt lat="45.4177354" lon="7.6956692"><ele>737.0</ele><time>2026-04-11T10:26:32.953Z</time></trkpt><trkpt lat="45.4176705" lon="7.6957183"><ele>737.0</ele><time>2026-04-11T10:26:34.953Z</time></trkpt><trkpt lat="45.4175991" lon="7.6957845"><ele>737.0</ele><time>2026-04-11T10:26:36.947Z</time></trkpt><trkpt lat="45.4175171" lon="7.6958594"><ele>737.0</ele><time>2026-04-11T10:26:38.953Z</time></trkpt><trkpt lat="45.4174563" lon="7.6959342"><ele>737.0</ele><time>2026-04-11T10:26:40.954Z</time></trkpt><trkpt lat="45.4174093" lon="7.6960202"><ele>737.0</ele><time>2026-04-11T10:26:43.949Z</time></trkpt><trkpt lat="45.4174213" lon="7.6961396"><ele>737.0</ele><time>2026-04-11T10:26:46.956Z</time></trkpt><trkpt lat="45.417442" lon="7.6962669"><ele>740.0</ele><time>2026-04-11T10:26:48.935Z</time></trkpt><trkpt lat="45.4174511" lon="7.6963948"><ele>743.0</ele><time>2026-04-11T10:26:50.951Z</time></trkpt><trkpt lat="45.4174322" lon="7.696497"><ele>746.0</ele><time>2026-04-11T10:26:52.941Z</time></trkpt><trkpt lat="45.4173799" lon="7.6965951"><ele>749.0</ele><time>2026-04-11T10:26:54.95Z</time></trkpt><trkpt lat="45.4173108" lon="7.6967271"><ele>752.0</ele><time>2026-04-11T10:26:56.953Z</time></trkpt><trkpt lat="45.417263" lon="7.696853"><ele>752.0</ele><time>2026-04-11T10:26:58.951Z</time></trkpt><trkpt lat="45.4172296" lon="7.6969707"><ele>752.0</ele><time>2026-04-11T10:27:00.947Z</time></trkpt><trkpt lat="45.4172223" lon="7.6970802"><ele>752.0</ele><time>2026-04-11T10:27:03.948Z</time></trkpt><trkpt lat="45.4171899" lon="7.6971676"><ele>752.0</ele><time>2026-04-11T10:27:06.952Z</time></trkpt><trkpt lat="45.4171464" lon="7.6972646"><ele>733.0</ele><time>2026-04-11T10:27:23.959Z</time></trkpt></trkseg><trkseg><trkpt lat="45.4375557" lon="7.6933964"><ele>825.0</ele><time>2026-04-11T12:47:50.213Z</time></trkpt><trkpt lat="45.4374907" lon="7.6933579"><ele>825.0</ele><time>2026-04-11T12:47:56.216Z</time></trkpt><trkpt lat="45.437424" lon="7.6933773"><ele>825.0</ele><time>2026-04-11T12:48:03.215Z</time></trkpt><trkpt lat="45.437369" lon="7.6934447"><ele>825.0</ele><time>2026-04-11T12:48:14.211Z</time></trkpt><trkpt lat="45.4373467" lon="7.6935501"><ele>825.0</ele><time>2026-04-11T12:50:37.226Z</time></trkpt><trkpt lat="45.4373976" lon="7.6936465"><ele>825.0</ele><time>2026-04-11T12:50:39.215Z</time></trkpt><trkpt lat="45.437445" lon="7.6938091"><ele>825.0</ele><time>2026-04-11T12:50:41.21Z</time></trkpt><trkpt lat="45.437478" lon="7.6938928"><ele>825.0</ele><time>2026-04-11T12:50:42.211Z</time></trkpt><trkpt lat="45.4375417" lon="7.6940016"><ele>825.0</ele><time>2026-04-11T12:50:44.201Z</time></trkpt><trkpt lat="45.4376101" lon="7.6940995"><ele>825.0</ele><time>2026-04-11T12:50:46.216Z</time></trkpt><trkpt lat="45.4376835" lon="7.6941801"><ele>825.0</ele><time>2026-04-11T12:50:48.216Z</time></trkpt><trkpt lat="45.4377433" lon="7.6942634"><ele>825.0</ele><time>2026-04-11T12:50:50.221Z</time></trkpt><trkpt lat="45.4377895" lon="7.6943374"><ele>824.6</ele><time>2026-04-11T12:50:52.219Z</time></trkpt><trkpt lat="45.4378047" lon="7.6944498"><ele>824.2</ele><time>2026-04-11T12:50:55.22Z</time></trkpt><trkpt lat="45.4377614" lon="7.6945698"><ele>823.8</ele><time>2026-04-11T12:50:57.214Z</time></trkpt><trkpt lat="45.4377074" lon="7.6946969"><ele>823.4</ele><time>2026-04-11T12:50:59.221Z</time></trkpt><trkpt lat="45.4376276" lon="7.6947593"><ele>823.0</ele><time>2026-04-11T12:51:01.213Z</time></trkpt><trkpt lat="45.4375339" lon="7.6947864"><ele>822.9999999999999</ele><time>2026-04-11T12:51:03.221Z</time></trkpt><trkpt lat="45.4374669" lon="7.6948042"><ele>823.0</ele><time>2026-04-11T12:51:05.214Z</time></trkpt><trkpt lat="45.4375601" lon="7.6947737"><ele>823.0</ele><time>2026-04-11T12:51:11.221Z</time></trkpt><trkpt lat="45.437645" lon="7.6947093"><ele>823.0</ele><time>2026-04-11T12:51:13.213Z</time></trkpt><trkpt lat="45.4377137" lon="7.6946541"><ele>822.9999999999999</ele><time>2026-04-11T12:51:15.212Z</time></trkpt><trkpt lat="45.4377571" lon="7.6945526"><ele>823.0</ele><time>2026-04-11T12:51:17.214Z</time></trkpt><trkpt lat="45.4377788" lon="7.6944614"><ele>822.9999999999999</ele><time>2026-04-11T12:51:20.219Z</time></trkpt><trkpt lat="45.4378625" lon="7.6944939"><ele>823.0</ele><time>2026-04-11T12:51:25.218Z</time></trkpt><trkpt lat="45.4379454" lon="7.6945608"><ele>823.0</ele><time>2026-04-11T12:51:28.215Z</time></trkpt><trkpt lat="45.4380201" lon="7.6946891"><ele>823.0</ele><time>2026-04-11T12:51:30.219Z</time></trkpt><trkpt lat="45.4380644" lon="7.6947653"><ele>822.9999999999999</ele><time>2026-04-11T12:51:31.217Z</time></trkpt><trkpt lat="45.4381057" lon="7.6948585"><ele>823.0</ele><time>2026-04-11T12:51:32.218Z</time></trkpt><trkpt lat="45.4381405" lon="7.6949382"><ele>824.2</ele><time>2026-04-11T12:51:33.21Z</time></trkpt><trkpt lat="45.4381874" lon="7.6950086"><ele>825.4</ele><time>2026-04-11T12:51:34.215Z</time></trkpt><trkpt lat="45.4382667" lon="7.6951288"><ele>826.6</ele><time>2026-04-11T12:51:36.221Z</time></trkpt><trkpt lat="45.4383469" lon="7.6952449"><ele>827.8000000000001</ele><time>2026-04-11T12:51:38.212Z</time></trkpt><trkpt lat="45.4384503" lon="7.695268"><ele>829.0</ele><time>2026-04-11T12:51:40.215Z</time></trkpt><trkpt lat="45.4385703" lon="7.695279"><ele>828.9999999999999</ele><time>2026-04-11T12:51:42.218Z</time></trkpt><trkpt lat="45.4386359" lon="7.6952741"><ele>829.0</ele><time>2026-04-11T12:51:43.219Z</time></trkpt><trkpt lat="45.4386992" lon="7.6952808"><ele>829.0</ele><time>2026-04-11T12:51:44.215Z</time></trkpt><trkpt lat="45.4387661" lon="7.6952981"><ele>829.0</ele><time>2026-04-11T12:51:45.215Z</time></trkpt><trkpt lat="45.4388418" lon="7.6953175"><ele>828.9999999999999</ele><time>2026-04-11T12:51:46.215Z</time></trkpt><trkpt lat="45.4389635" lon="7.6953375"><ele>829.0</ele><time>2026-04-11T12:51:48.216Z</time></trkpt><trkpt lat="45.4390826" lon="7.6953638"><ele>828.8571428571429</ele><time>2026-04-11T12:51:50.219Z</time></trkpt><trkpt lat="45.4391553" lon="7.6953637"><ele>828.7142857142857</ele><time>2026-04-11T12:51:51.209Z</time></trkpt><trkpt lat="45.4392255" lon="7.6953865"><ele>828.5714285714287</ele><time>2026-04-11T12:51:52.222Z</time></trkpt><trkpt lat="45.4392976" lon="7.6954033"><ele>828.4285714285714</ele><time>2026-04-11T12:51:53.215Z</time></trkpt><trkpt lat="45.4393675" lon="7.6954014"><ele>828.2857142857143</ele><time>2026-04-11T12:51:54.222Z</time></trkpt><trkpt lat="45.4394377" lon="7.6954135"><ele>828.1428571428572</ele><time>2026-04-11T12:51:55.206Z</time></trkpt><trkpt lat="45.4395051" lon="7.6954287"><ele>828.0</ele><time>2026-04-11T12:51:56.213Z</time></trkpt><trkpt lat="45.4395783" lon="7.6954586"><ele>830.5999999999999</ele><time>2026-04-11T12:51:57.216Z</time></trkpt><trkpt lat="45.4397213" lon="7.695486"><ele>833.1999999999999</ele><time>2026-04-11T12:51:59.217Z</time></trkpt><trkpt lat="45.4397975" lon="7.6955001"><ele>835.8</ele><time>2026-04-11T12:52:01.217Z</time></trkpt><trkpt lat="45.4398528" lon="7.6955707"><ele>838.4</ele><time>2026-04-11T12:52:03.223Z</time></trkpt><trkpt lat="45.4398915" lon="7.6957017"><ele>841.0</ele><time>2026-04-11T12:52:05.21Z</time></trkpt><trkpt lat="45.4399006" lon="7.6958027"><ele>840.9999999999999</ele><time>2026-04-11T12:52:06.219Z</time></trkpt><trkpt lat="45.4399154" lon="7.6959288"><ele>841.0</ele><time>2026-04-11T12:52:07.217Z</time></trkpt><trkpt lat="45.4399523" lon="7.6960501"><ele>841.0</ele><time>2026-04-11T12:52:08.216Z</time></trkpt><trkpt lat="45.4400015" lon="7.6961741"><ele>841.0</ele><time>2026-04-11T12:52:09.217Z</time></trkpt><trkpt lat="45.4400386" lon="7.6962822"><ele>840.9999999999999</ele><time>2026-04-11T12:52:10.209Z</time></trkpt><trkpt lat="45.4400705" lon="7.6963779"><ele>841.0</ele><time>2026-04-11T12:52:11.214Z</time></trkpt><trkpt lat="45.4401245" lon="7.696462"><ele>840.1999999999999</ele><time>2026-04-11T12:52:12.219Z</time></trkpt><trkpt lat="45.440193" lon="7.6965489"><ele>839.4</ele><time>2026-04-11T12:52:13.211Z</time></trkpt><trkpt lat="45.4402771" lon="7.696635"><ele>838.6</ele><time>2026-04-11T12:52:14.215Z</time></trkpt><trkpt lat="45.4403605" lon="7.6967293"><ele>837.8</ele><time>2026-04-11T12:52:15.209Z</time></trkpt><trkpt lat="45.4404397" lon="7.6968252"><ele>837.0</ele><time>2026-04-11T12:52:16.215Z</time></trkpt><trkpt lat="45.4405103" lon="7.6969376"><ele>839.2</ele><time>2026-04-11T12:52:17.214Z</time></trkpt><trkpt lat="45.4405722" lon="7.6970584"><ele>841.4000000000001</ele><time>2026-04-11T12:52:18.216Z</time></trkpt><trkpt lat="45.4406271" lon="7.697183"><ele>843.5999999999999</ele><time>2026-04-11T12:52:19.212Z</time></trkpt><trkpt lat="45.4406748" lon="7.6973098"><ele>845.8</ele><time>2026-04-11T12:52:20.219Z</time></trkpt><trkpt lat="45.4407262" lon="7.6974284"><ele>848.0</ele><time>2026-04-11T12:52:21.216Z</time></trkpt><trkpt lat="45.4407762" lon="7.6975223"><ele>848.0000000000001</ele><time>2026-04-11T12:52:22.219Z</time></trkpt><trkpt lat="45.4408342" lon="7.6975919"><ele>848.0</ele><time>2026-04-11T12:52:23.22Z</time></trkpt><trkpt lat="45.4408993" lon="7.6976465"><ele>848.0</ele><time>2026-04-11T12:52:24.216Z</time></trkpt><trkpt lat="45.4409714" lon="7.6976953"><ele>848.0</ele><time>2026-04-11T12:52:25.218Z</time></trkpt><trkpt lat="45.4410415" lon="7.6977536"><ele>848.0000000000001</ele><time>2026-04-11T12:52:26.22Z</time></trkpt><trkpt lat="45.4411025" lon="7.697816"><ele>848.0</ele><time>2026-04-11T12:52:27.227Z</time></trkpt><trkpt lat="45.4411659" lon="7.6979004"><ele>850.2</ele><time>2026-04-11T12:52:28.22Z</time></trkpt><trkpt lat="45.4412381" lon="7.6980072"><ele>852.4</ele><time>2026-04-11T12:52:29.219Z</time></trkpt><trkpt lat="45.441318" lon="7.6981149"><ele>854.6000000000001</ele><time>2026-04-11T12:52:30.221Z</time></trkpt><trkpt lat="45.441406" lon="7.6982264"><ele>856.8000000000001</ele><time>2026-04-11T12:52:31.226Z</time></trkpt><trkpt lat="45.441495" lon="7.6983358"><ele>859.0</ele><time>2026-04-11T12:52:32.221Z</time></trkpt><trkpt lat="45.4415761" lon="7.6984357"><ele>859.0</ele><time>2026-04-11T12:52:33.212Z</time></trkpt><trkpt lat="45.4416495" lon="7.6985305"><ele>859.0000000000001</ele><time>2026-04-11T12:52:34.213Z</time></trkpt><trkpt lat="45.4417246" lon="7.6986139"><ele>859.0000000000001</ele><time>2026-04-11T12:52:35.218Z</time></trkpt><trkpt lat="45.4418031" lon="7.6986953"><ele>859.0</ele><time>2026-04-11T12:52:36.215Z</time></trkpt><trkpt lat="45.4418849" lon="7.6987549"><ele>859.0</ele><time>2026-04-11T12:52:37.219Z</time></trkpt><trkpt lat="45.4419789" lon="7.6987871"><ele>858.2</ele><time>2026-04-11T12:52:38.218Z</time></trkpt><trkpt lat="45.4420644" lon="7.698835"><ele>857.4000000000001</ele><time>2026-04-11T12:52:39.214Z</time></trkpt><trkpt lat="45.4421452" lon="7.6989004"><ele>856.6</ele><time>2026-04-11T12:52:40.216Z</time></trkpt><trkpt lat="45.4422308" lon="7.6989688"><ele>855.8</ele><time>2026-04-11T12:52:41.22Z</time></trkpt><trkpt lat="45.4423173" lon="7.6990216"><ele>855.0</ele><time>2026-04-11T12:52:42.21Z</time></trkpt><trkpt lat="45.4424149" lon="7.6990643"><ele>855.0</ele><time>2026-04-11T12:52:43.221Z</time></trkpt><trkpt lat="45.4425046" lon="7.6990936"><ele>855.0</ele><time>2026-04-11T12:52:44.217Z</time></trkpt><trkpt lat="45.4425786" lon="7.6991205"><ele>855.0</ele><time>2026-04-11T12:52:45.212Z</time></trkpt><trkpt lat="45.442693" lon="7.699191"><ele>855.0</ele><time>2026-04-11T12:52:47.211Z</time></trkpt><trkpt lat="45.4427605" lon="7.6992407"><ele>855.0</ele><time>2026-04-11T12:52:49.212Z</time></trkpt><trkpt lat="45.4427521" lon="7.6994023"><ele>855.75</ele><time>2026-04-11T12:52:52.209Z</time></trkpt><trkpt lat="45.4427223" lon="7.699554"><ele>856.5</ele><time>2026-04-11T12:52:53.209Z</time></trkpt><trkpt lat="45.4426569" lon="7.6997006"><ele>857.25</ele><time>2026-04-11T12:52:54.213Z</time></trkpt><trkpt lat="45.442563" lon="7.6998393"><ele>858.0</ele><time>2026-04-11T12:52:55.207Z</time></trkpt><trkpt lat="45.4424571" lon="7.699955"><ele>858.0</ele><time>2026-04-11T12:52:56.202Z</time></trkpt><trkpt lat="45.4423458" lon="7.7000429"><ele>858.0</ele><time>2026-04-11T12:52:57.211Z</time></trkpt><trkpt lat="45.4422311" lon="7.7001156"><ele>858.0</ele><time>2026-04-11T12:52:58.211Z</time></trkpt><trkpt lat="45.4421318" lon="7.700177"><ele>858.0</ele><time>2026-04-11T12:52:59.211Z</time></trkpt><trkpt lat="45.4420427" lon="7.7002606"><ele>855.4</ele><time>2026-04-11T12:53:00.216Z</time></trkpt><trkpt lat="45.4419673" lon="7.7003673"><ele>852.8</ele><time>2026-04-11T12:53:01.208Z</time></trkpt><trkpt lat="45.4418985" lon="7.7004772"><ele>850.2</ele><time>2026-04-11T12:53:02.218Z</time></trkpt><trkpt lat="45.4418374" lon="7.7005919"><ele>847.6</ele><time>2026-04-11T12:53:03.215Z</time></trkpt><trkpt lat="45.4417942" lon="7.7007162"><ele>845.0</ele><time>2026-04-11T12:53:04.218Z</time></trkpt><trkpt lat="45.4417574" lon="7.7008402"><ele>845.0</ele><time>2026-04-11T12:53:05.216Z</time></trkpt><trkpt lat="45.4417337" lon="7.7009649"><ele>845.0</ele><time>2026-04-11T12:53:06.212Z</time></trkpt><trkpt lat="45.4417219" lon="7.7010978"><ele>845.0</ele><time>2026-04-11T12:53:07.214Z</time></trkpt><trkpt lat="45.441727" lon="7.7012439"><ele>845.0</ele><time>2026-04-11T12:53:08.211Z</time></trkpt><trkpt lat="45.4417297" lon="7.7013901"><ele>845.0</ele><time>2026-04-11T12:53:09.212Z</time></trkpt><trkpt lat="45.4417244" lon="7.7015355"><ele>845.2</ele><time>2026-04-11T12:53:10.22Z</time></trkpt><trkpt lat="45.4417061" lon="7.7016715"><ele>845.4</ele><time>2026-04-11T12:53:11.219Z</time></trkpt><trkpt lat="45.441681" lon="7.7018073"><ele>845.5999999999999</ele><time>2026-04-11T12:53:12.202Z</time></trkpt><trkpt lat="45.4416515" lon="7.7019342"><ele>845.8</ele><time>2026-04-11T12:53:13.211Z</time></trkpt><trkpt lat="45.4416102" lon="7.7020507"><ele>846.0</ele><time>2026-04-11T12:53:14.217Z</time></trkpt><trkpt lat="45.4415596" lon="7.7021514"><ele>845.0</ele><time>2026-04-11T12:53:15.209Z</time></trkpt><trkpt lat="45.4414944" lon="7.7022306"><ele>844.0</ele><time>2026-04-11T12:53:16.213Z</time></trkpt><trkpt lat="45.4414238" lon="7.702298"><ele>843.0</ele><time>2026-04-11T12:53:17.207Z</time></trkpt><trkpt lat="45.4413463" lon="7.7023508"><ele>842.0</ele><time>2026-04-11T12:53:18.207Z</time></trkpt><trkpt lat="45.4412564" lon="7.7024078"><ele>841.0</ele><time>2026-04-11T12:53:19.202Z</time></trkpt><trkpt lat="45.4411692" lon="7.7024612"><ele>841.0</ele><time>2026-04-11T12:53:20.213Z</time></trkpt><trkpt lat="45.4410871" lon="7.7025435"><ele>841.0</ele><time>2026-04-11T12:53:21.21Z</time></trkpt><trkpt lat="45.4409996" lon="7.7026333"><ele>841.0</ele><time>2026-04-11T12:53:22.206Z</time></trkpt><trkpt lat="45.4409083" lon="7.7027226"><ele>841.0</ele><time>2026-04-11T12:53:23.216Z</time></trkpt><trkpt lat="45.4408172" lon="7.7028098"><ele>841.0</ele><time>2026-04-11T12:53:24.217Z</time></trkpt><trkpt lat="45.440727" lon="7.7028764"><ele>840.9999999999999</ele><time>2026-04-11T12:53:25.211Z</time></trkpt><trkpt lat="45.4406497" lon="7.7029419"><ele>841.0</ele><time>2026-04-11T12:53:26.216Z</time></trkpt><trkpt lat="45.4405742" lon="7.7030074"><ele>841.0</ele><time>2026-04-11T12:53:27.219Z</time></trkpt><trkpt lat="45.4405109" lon="7.7030864"><ele>841.0</ele><time>2026-04-11T12:53:28.211Z</time></trkpt><trkpt lat="45.4404492" lon="7.7031824"><ele>840.9999999999999</ele><time>2026-04-11T12:53:29.213Z</time></trkpt><trkpt lat="45.4403998" lon="7.7032716"><ele>841.0</ele><time>2026-04-11T12:53:30.223Z</time></trkpt><trkpt lat="45.4403431" lon="7.7033753"><ele>840.9999999999999</ele><time>2026-04-11T12:53:31.206Z</time></trkpt><trkpt lat="45.4402889" lon="7.7034791"><ele>841.0</ele><time>2026-04-11T12:53:32.213Z</time></trkpt><trkpt lat="45.44023" lon="7.7035802"><ele>841.0</ele><time>2026-04-11T12:53:33.216Z</time></trkpt><trkpt lat="45.4401741" lon="7.7036726"><ele>841.0</ele><time>2026-04-11T12:53:34.21Z</time></trkpt><trkpt lat="45.4401288" lon="7.7037666"><ele>840.9999999999999</ele><time>2026-04-11T12:53:35.212Z</time></trkpt><trkpt lat="45.4400905" lon="7.7038573"><ele>841.0</ele><time>2026-04-11T12:53:36.221Z</time></trkpt><trkpt lat="45.4400557" lon="7.703965"><ele>841.1999999999999</ele><time>2026-04-11T12:53:37.209Z</time></trkpt><trkpt lat="45.440063" lon="7.7040883"><ele>841.4</ele><time>2026-04-11T12:53:38.213Z</time></trkpt><trkpt lat="45.4400812" lon="7.7042136"><ele>841.6</ele><time>2026-04-11T12:53:39.203Z</time></trkpt><trkpt lat="45.4400948" lon="7.704347"><ele>841.8</ele><time>2026-04-11T12:53:40.215Z</time></trkpt><trkpt lat="45.4401114" lon="7.7044789"><ele>842.0</ele><time>2026-04-11T12:53:41.214Z</time></trkpt><trkpt lat="45.4401221" lon="7.7046105"><ele>842.5000000000001</ele><time>2026-04-11T12:53:42.212Z</time></trkpt><trkpt lat="45.4401358" lon="7.7047421"><ele>843.0</ele><time>2026-04-11T12:53:43.216Z</time></trkpt><trkpt lat="45.4401423" lon="7.7048716"><ele>843.5</ele><time>2026-04-11T12:53:44.212Z</time></trkpt><trkpt lat="45.4401261" lon="7.7049959"><ele>844.0</ele><time>2026-04-11T12:53:45.212Z</time></trkpt><trkpt lat="45.4401049" lon="7.7051155"><ele>844.5000000000001</ele><time>2026-04-11T12:53:46.208Z</time></trkpt><trkpt lat="45.4400773" lon="7.7052268"><ele>845.0</ele><time>2026-04-11T12:53:47.215Z</time></trkpt><trkpt lat="45.4400633" lon="7.7053335"><ele>845.0000000000001</ele><time>2026-04-11T12:53:48.22Z</time></trkpt><trkpt lat="45.4400651" lon="7.7054451"><ele>845.0</ele><time>2026-04-11T12:53:49.218Z</time></trkpt><trkpt lat="45.4400743" lon="7.7055373"><ele>845.0</ele><time>2026-04-11T12:53:50.215Z</time></trkpt><trkpt lat="45.4401412" lon="7.7056813"><ele>845.0</ele><time>2026-04-11T12:53:52.214Z</time></trkpt><trkpt lat="45.4402049" lon="7.7057315"><ele>845.0000000000001</ele><time>2026-04-11T12:53:53.214Z</time></trkpt><trkpt lat="45.4402701" lon="7.7057862"><ele>845.0</ele><time>2026-04-11T12:53:54.216Z</time></trkpt><trkpt lat="45.4403411" lon="7.7058466"><ele>845.0000000000001</ele><time>2026-04-11T12:53:55.22Z</time></trkpt><trkpt lat="45.4404173" lon="7.7058844"><ele>845.0</ele><time>2026-04-11T12:53:56.216Z</time></trkpt><trkpt lat="45.4404915" lon="7.705899"><ele>845.0</ele><time>2026-04-11T12:53:57.213Z</time></trkpt><trkpt lat="45.4405631" lon="7.7059182"><ele>845.0</ele><time>2026-04-11T12:53:58.214Z</time></trkpt><trkpt lat="45.4406338" lon="7.7059091"><ele>845.0000000000001</ele><time>2026-04-11T12:53:59.218Z</time></trkpt><trkpt lat="45.440702" lon="7.7058992"><ele>845.0</ele><time>2026-04-11T12:54:00.22Z</time></trkpt><trkpt lat="45.4408174" lon="7.705892"><ele>850.75</ele><time>2026-04-11T12:54:02.216Z</time></trkpt><trkpt lat="45.4409011" lon="7.7059561"><ele>856.5</ele><time>2026-04-11T12:54:04.217Z</time></trkpt><trkpt lat="45.4409598" lon="7.7060541"><ele>862.25</ele><time>2026-04-11T12:54:06.218Z</time></trkpt><trkpt lat="45.4409824" lon="7.7063247"><ele>868.0</ele><time>2026-04-11T12:54:08.212Z</time></trkpt><trkpt lat="45.4410024" lon="7.7065388"><ele>868.0</ele><time>2026-04-11T12:54:09.205Z</time></trkpt><trkpt lat="45.4410457" lon="7.7067547"><ele>868.0</ele><time>2026-04-11T12:54:10.207Z</time></trkpt><trkpt lat="45.4410935" lon="7.7069185"><ele>868.0</ele><time>2026-04-11T12:54:11.199Z</time></trkpt><trkpt lat="45.4411432" lon="7.7070541"><ele>868.0</ele><time>2026-04-11T12:54:12.213Z</time></trkpt><trkpt lat="45.4411776" lon="7.7071786"><ele>867.2</ele><time>2026-04-11T12:54:13.205Z</time></trkpt><trkpt lat="45.4412429" lon="7.7073082"><ele>866.4</ele><time>2026-04-11T12:54:14.214Z</time></trkpt><trkpt lat="45.4413086" lon="7.7074286"><ele>865.6000000000001</ele><time>2026-04-11T12:54:15.211Z</time></trkpt><trkpt lat="45.4413775" lon="7.7075267"><ele>864.8000000000001</ele><time>2026-04-11T12:54:16.224Z</time></trkpt><trkpt lat="45.4414525" lon="7.7076194"><ele>864.0</ele><time>2026-04-11T12:54:17.218Z</time></trkpt><trkpt lat="45.4415349" lon="7.7076808"><ele>866.0</ele><time>2026-04-11T12:54:18.221Z</time></trkpt><trkpt lat="45.4416246" lon="7.707718"><ele>868.0</ele><time>2026-04-11T12:54:19.216Z</time></trkpt><trkpt lat="45.4417259" lon="7.707745"><ele>870.0</ele><time>2026-04-11T12:54:20.221Z</time></trkpt><trkpt lat="45.4418524" lon="7.7077774"><ele>872.0</ele><time>2026-04-11T12:54:21.218Z</time></trkpt><trkpt lat="45.441991" lon="7.7078021"><ele>879.25</ele><time>2026-04-11T12:54:22.209Z</time></trkpt><trkpt lat="45.4421412" lon="7.7078351"><ele>886.5</ele><time>2026-04-11T12:54:23.218Z</time></trkpt><trkpt lat="45.4422746" lon="7.7078594"><ele>893.75</ele><time>2026-04-11T12:54:24.216Z</time></trkpt><trkpt lat="45.4423834" lon="7.7078843"><ele>901.0</ele><time>2026-04-11T12:54:25.222Z</time></trkpt><trkpt lat="45.4424731" lon="7.7079042"><ele>901.0</ele><time>2026-04-11T12:54:26.214Z</time></trkpt><trkpt lat="45.4425553" lon="7.7079374"><ele>900.9999999999999</ele><time>2026-04-11T12:54:27.22Z</time></trkpt><trkpt lat="45.4426177" lon="7.7079943"><ele>900.9999999999999</ele><time>2026-04-11T12:54:28.223Z</time></trkpt><trkpt lat="45.4426696" lon="7.7080844"><ele>901.0</ele><time>2026-04-11T12:54:29.217Z</time></trkpt><trkpt lat="45.4427309" lon="7.7082488"><ele>901.0</ele><time>2026-04-11T12:54:30.218Z</time></trkpt><trkpt lat="45.4428087" lon="7.7084338"><ele>897.5</ele><time>2026-04-11T12:54:31.206Z</time></trkpt><trkpt lat="45.4428728" lon="7.7085945"><ele>894.0</ele><time>2026-04-11T12:54:32.213Z</time></trkpt><trkpt lat="45.4429312" lon="7.7087443"><ele>890.5</ele><time>2026-04-11T12:54:33.209Z</time></trkpt><trkpt lat="45.4429863" lon="7.7088679"><ele>887.0</ele><time>2026-04-11T12:54:34.214Z</time></trkpt><trkpt lat="45.4430575" lon="7.7089948"><ele>891.75</ele><time>2026-04-11T12:54:35.208Z</time></trkpt><trkpt lat="45.4431368" lon="7.7091155"><ele>896.5</ele><time>2026-04-11T12:54:36.212Z</time></trkpt><trkpt lat="45.4432225" lon="7.709241"><ele>901.25</ele><time>2026-04-11T12:54:37.212Z</time></trkpt><trkpt lat="45.4433049" lon="7.7093668"><ele>906.0</ele><time>2026-04-11T12:54:38.207Z</time></trkpt><trkpt lat="45.4433742" lon="7.7094759"><ele>906.0</ele><time>2026-04-11T12:54:39.208Z</time></trkpt><trkpt lat="45.4434352" lon="7.7095681"><ele>906.0</ele><time>2026-04-11T12:54:40.207Z</time></trkpt><trkpt lat="45.4434923" lon="7.7096568"><ele>906.0</ele><time>2026-04-11T12:54:41.212Z</time></trkpt><trkpt lat="45.4435497" lon="7.7097366"><ele>906.0</ele><time>2026-04-11T12:54:42.212Z</time></trkpt><trkpt lat="45.4435987" lon="7.7098438"><ele>906.0</ele><time>2026-04-11T12:54:43.217Z</time></trkpt><trkpt lat="45.4436287" lon="7.7099446"><ele>906.0</ele><time>2026-04-11T12:54:44.212Z</time></trkpt><trkpt lat="45.4436703" lon="7.7100436"><ele>906.0</ele><time>2026-04-11T12:54:45.217Z</time></trkpt><trkpt lat="45.4437038" lon="7.7101329"><ele>906.0</ele><time>2026-04-11T12:54:46.216Z</time></trkpt><trkpt lat="45.4437516" lon="7.7102515"><ele>906.0</ele><time>2026-04-11T12:54:48.215Z</time></trkpt><trkpt lat="45.443858" lon="7.7102677"><ele>906.0</ele><time>2026-04-11T12:54:50.22Z</time></trkpt><trkpt lat="45.4439264" lon="7.7102521"><ele>906.0</ele><time>2026-04-11T12:54:51.216Z</time></trkpt><trkpt lat="45.4439936" lon="7.7102182"><ele>906.0</ele><time>2026-04-11T12:54:52.218Z</time></trkpt><trkpt lat="45.444057" lon="7.7101777"><ele>911.0</ele><time>2026-04-11T12:54:53.205Z</time></trkpt><trkpt lat="45.4441102" lon="7.7101228"><ele>915.9999999999999</ele><time>2026-04-11T12:54:54.207Z</time></trkpt><trkpt lat="45.4441876" lon="7.7100594"><ele>920.9999999999999</ele><time>2026-04-11T12:54:56.21Z</time></trkpt><trkpt lat="45.4442715" lon="7.7100426"><ele>926.0</ele><time>2026-04-11T12:55:24.205Z</time></trkpt><trkpt lat="45.4443841" lon="7.7099313"><ele>931.0</ele><time>2026-04-11T12:55:48.216Z</time></trkpt><trkpt lat="45.4444567" lon="7.7098548"><ele>931.0</ele><time>2026-04-11T12:55:49.212Z</time></trkpt><trkpt lat="45.444526" lon="7.709778"><ele>930.9999999999999</ele><time>2026-04-11T12:55:50.213Z</time></trkpt><trkpt lat="45.4445924" lon="7.7096884"><ele>930.9999999999999</ele><time>2026-04-11T12:55:51.216Z</time></trkpt><trkpt lat="45.4446706" lon="7.7095678"><ele>931.0</ele><time>2026-04-11T12:55:52.213Z</time></trkpt><trkpt lat="45.4447321" lon="7.7094546"><ele>931.0</ele><time>2026-04-11T12:55:53.22Z</time></trkpt><trkpt lat="45.4447847" lon="7.7093564"><ele>929.6666666666666</ele><time>2026-04-11T12:55:54.21Z</time></trkpt><trkpt lat="45.444843" lon="7.7092601"><ele>928.3333333333333</ele><time>2026-04-11T12:55:55.221Z</time></trkpt><trkpt lat="45.4448984" lon="7.7091865"><ele>927.0</ele><time>2026-04-11T12:55:56.22Z</time></trkpt><trkpt lat="45.4449709" lon="7.7091534"><ele>925.6666666666667</ele><time>2026-04-11T12:55:57.229Z</time></trkpt><trkpt lat="45.4450405" lon="7.7091279"><ele>924.3333333333334</ele><time>2026-04-11T12:55:58.214Z</time></trkpt><trkpt lat="45.4451679" lon="7.7091041"><ele>923.0</ele><time>2026-04-11T12:56:00.206Z</time></trkpt><trkpt lat="45.4452734" lon="7.7090979"><ele>923.0000000000001</ele><time>2026-04-11T12:56:02.201Z</time></trkpt><trkpt lat="45.4453485" lon="7.7091104"><ele>923.0</ele><time>2026-04-11T12:56:04.201Z</time></trkpt><trkpt lat="45.4453696" lon="7.7091979"><ele>923.0</ele><time>2026-04-11T12:56:06.215Z</time></trkpt><trkpt lat="45.4453378" lon="7.7092994"><ele>923.0</ele><time>2026-04-11T12:56:08.215Z</time></trkpt><trkpt lat="45.4452816" lon="7.7094175"><ele>923.0000000000001</ele><time>2026-04-11T12:56:10.205Z</time></trkpt><trkpt lat="45.4452609" lon="7.7095771"><ele>923.0</ele><time>2026-04-11T12:56:12.216Z</time></trkpt><trkpt lat="45.4452961" lon="7.7097328"><ele>921.5</ele><time>2026-04-11T12:56:14.212Z</time></trkpt><trkpt lat="45.4453383" lon="7.7098965"><ele>920.0</ele><time>2026-04-11T12:56:16.21Z</time></trkpt><trkpt lat="45.4453964" lon="7.7100557"><ele>918.5</ele><time>2026-04-11T12:56:18.232Z</time></trkpt><trkpt lat="45.44546" lon="7.7101848"><ele>917.0</ele><time>2026-04-11T12:56:20.218Z</time></trkpt><trkpt lat="45.4455425" lon="7.7102855"><ele>910.8</ele><time>2026-04-11T12:56:22.218Z</time></trkpt><trkpt lat="45.4456091" lon="7.7103594"><ele>904.6</ele><time>2026-04-11T12:56:24.222Z</time></trkpt><trkpt lat="45.4456917" lon="7.7103827"><ele>898.3999999999999</ele><time>2026-04-11T12:56:26.219Z</time></trkpt><trkpt lat="45.4457907" lon="7.7104223"><ele>892.1999999999999</ele><time>2026-04-11T12:56:28.206Z</time></trkpt><trkpt lat="45.4458814" lon="7.710515"><ele>886.0</ele><time>2026-04-11T12:56:30.214Z</time></trkpt><trkpt lat="45.4459449" lon="7.7106075"><ele>886.0</ele><time>2026-04-11T12:56:32.221Z</time></trkpt><trkpt lat="45.4460086" lon="7.7107257"><ele>886.0</ele><time>2026-04-11T12:56:34.207Z</time></trkpt><trkpt lat="45.4460521" lon="7.7108886"><ele>886.0</ele><time>2026-04-11T12:56:36.217Z</time></trkpt><trkpt lat="45.446089" lon="7.7110542"><ele>886.0</ele><time>2026-04-11T12:56:38.209Z</time></trkpt><trkpt lat="45.4461153" lon="7.7112137"><ele>886.4</ele><time>2026-04-11T12:56:40.215Z</time></trkpt><trkpt lat="45.4461424" lon="7.7113536"><ele>886.8</ele><time>2026-04-11T12:56:42.217Z</time></trkpt><trkpt lat="45.4461859" lon="7.7114994"><ele>887.1999999999999</ele><time>2026-04-11T12:56:44.22Z</time></trkpt><trkpt lat="45.4462482" lon="7.71163"><ele>887.5999999999999</ele><time>2026-04-11T12:56:46.216Z</time></trkpt><trkpt lat="45.4462893" lon="7.7116997"><ele>888.0</ele><time>2026-04-11T12:56:47.214Z</time></trkpt><trkpt lat="45.4463456" lon="7.7118348"><ele>881.5</ele><time>2026-04-11T12:56:49.215Z</time></trkpt><trkpt lat="45.4463992" lon="7.7119823"><ele>875.0</ele><time>2026-04-11T12:56:51.22Z</time></trkpt><trkpt lat="45.4464221" lon="7.7120666"><ele>868.5</ele><time>2026-04-11T12:56:52.222Z</time></trkpt><trkpt lat="45.4464349" lon="7.7121701"><ele>862.0</ele><time>2026-04-11T12:56:53.212Z</time></trkpt><trkpt lat="45.4464461" lon="7.7122629"><ele>855.5</ele><time>2026-04-11T12:56:54.217Z</time></trkpt><trkpt lat="45.4464542" lon="7.7123604"><ele>849.0</ele><time>2026-04-11T12:56:55.218Z</time></trkpt><trkpt lat="45.4464818" lon="7.7125329"><ele>849.0</ele><time>2026-04-11T12:56:57.214Z</time></trkpt><trkpt lat="45.4465089" lon="7.7127128"><ele>849.0</ele><time>2026-04-11T12:56:59.208Z</time></trkpt><trkpt lat="45.4465282" lon="7.7128001"><ele>849.0</ele><time>2026-04-11T12:57:00.216Z</time></trkpt><trkpt lat="45.446564" lon="7.7129479"><ele>849.0</ele><time>2026-04-11T12:57:02.215Z</time></trkpt><trkpt lat="45.4466095" lon="7.7131107"><ele>849.0</ele><time>2026-04-11T12:57:04.218Z</time></trkpt><trkpt lat="45.4466609" lon="7.7132528"><ele>848.6666666666666</ele><time>2026-04-11T12:57:06.216Z</time></trkpt><trkpt lat="45.4467088" lon="7.7134093"><ele>848.3333333333333</ele><time>2026-04-11T12:57:08.222Z</time></trkpt><trkpt lat="45.4467299" lon="7.7135038"><ele>848.0</ele><time>2026-04-11T12:57:09.217Z</time></trkpt><trkpt lat="45.4467483" lon="7.7136019"><ele>847.6666666666666</ele><time>2026-04-11T12:57:10.21Z</time></trkpt><trkpt lat="45.4467929" lon="7.7137323"><ele>847.3333333333333</ele><time>2026-04-11T12:57:12.217Z</time></trkpt><trkpt lat="45.4468382" lon="7.7138247"><ele>847.0</ele><time>2026-04-11T12:57:14.213Z</time></trkpt><trkpt lat="45.4469044" lon="7.7139557"><ele>846.0</ele><time>2026-04-11T12:57:16.205Z</time></trkpt><trkpt lat="45.4469439" lon="7.7140917"><ele>845.0</ele><time>2026-04-11T12:57:18.215Z</time></trkpt><trkpt lat="45.446968" lon="7.7142102"><ele>844.0</ele><time>2026-04-11T12:57:20.215Z</time></trkpt><trkpt lat="45.4469553" lon="7.7143469"><ele>843.0</ele><time>2026-04-11T12:57:22.219Z</time></trkpt><trkpt lat="45.4469536" lon="7.7145054"><ele>842.0</ele><time>2026-04-11T12:57:24.213Z</time></trkpt><trkpt lat="45.44696" lon="7.7146007"><ele>842.0</ele><time>2026-04-11T12:57:25.214Z</time></trkpt><trkpt lat="45.4469599" lon="7.714691"><ele>842.0</ele><time>2026-04-11T12:57:26.212Z</time></trkpt><trkpt lat="45.4469745" lon="7.7148555"><ele>842.0</ele><time>2026-04-11T12:57:28.217Z</time></trkpt><trkpt lat="45.4469804" lon="7.7149907"><ele>842.0</ele><time>2026-04-11T12:57:30.199Z</time></trkpt><trkpt lat="45.4469854" lon="7.7151452"><ele>842.0</ele><time>2026-04-11T12:57:32.213Z</time></trkpt><trkpt lat="45.4469885" lon="7.715285"><ele>841.2</ele><time>2026-04-11T12:57:34.207Z</time></trkpt><trkpt lat="45.4469994" lon="7.7154433"><ele>840.4000000000001</ele><time>2026-04-11T12:57:36.212Z</time></trkpt><trkpt lat="45.4469976" lon="7.7156004"><ele>839.5999999999999</ele><time>2026-04-11T12:57:38.22Z</time></trkpt><trkpt lat="45.4469841" lon="7.7157367"><ele>838.8</ele><time>2026-04-11T12:57:40.221Z</time></trkpt><trkpt lat="45.4469575" lon="7.7158684"><ele>838.0</ele><time>2026-04-11T12:57:42.218Z</time></trkpt><trkpt lat="45.4468995" lon="7.7159919"><ele>837.9999999999999</ele><time>2026-04-11T12:57:44.21Z</time></trkpt><trkpt lat="45.4468678" lon="7.7160772"><ele>838.0</ele><time>2026-04-11T12:57:46.213Z</time></trkpt><trkpt lat="45.4468151" lon="7.716132"><ele>838.0</ele><time>2026-04-11T12:57:52.22Z</time></trkpt><trkpt lat="45.4467455" lon="7.7160952"><ele>838.0</ele><time>2026-04-11T12:58:23.218Z</time></trkpt><trkpt lat="45.4466589" lon="7.715947"><ele>837.9999999999999</ele><time>2026-04-11T12:58:25.197Z</time></trkpt><trkpt lat="45.4466218" lon="7.7158704"><ele>838.0</ele><time>2026-04-11T12:58:26.214Z</time></trkpt><trkpt lat="45.4465578" lon="7.7157568"><ele>838.0</ele><time>2026-04-11T12:58:28.223Z</time></trkpt><trkpt lat="45.44647" lon="7.7156697"><ele>838.0</ele><time>2026-04-11T12:58:30.217Z</time></trkpt><trkpt lat="45.4463691" lon="7.7155906"><ele>838.0</ele><time>2026-04-11T12:58:32.209Z</time></trkpt><trkpt lat="45.4462698" lon="7.7154935"><ele>838.0</ele><time>2026-04-11T12:58:34.218Z</time></trkpt><trkpt lat="45.4461776" lon="7.7153805"><ele>843.2</ele><time>2026-04-11T12:58:36.214Z</time></trkpt><trkpt lat="45.4461118" lon="7.71527"><ele>848.4</ele><time>2026-04-11T12:58:38.216Z</time></trkpt><trkpt lat="45.4460904" lon="7.7151283"><ele>853.6000000000001</ele><time>2026-04-11T12:58:40.214Z</time></trkpt><trkpt lat="45.446075" lon="7.7149631"><ele>858.8000000000001</ele><time>2026-04-11T12:58:42.224Z</time></trkpt><trkpt lat="45.4460515" lon="7.7148138"><ele>864.0</ele><time>2026-04-11T12:58:44.226Z</time></trkpt><trkpt lat="45.4460214" lon="7.7147297"><ele>866.1666666666666</ele><time>2026-04-11T12:58:46.224Z</time></trkpt><trkpt lat="45.4459378" lon="7.7146676"><ele>868.3333333333333</ele><time>2026-04-11T12:58:49.214Z</time></trkpt><trkpt lat="45.4458611" lon="7.7146412"><ele>870.5</ele><time>2026-04-11T12:58:51.202Z</time></trkpt><trkpt lat="45.4457782" lon="7.7146087"><ele>872.6666666666666</ele><time>2026-04-11T12:58:54.219Z</time></trkpt><trkpt lat="45.4457158" lon="7.7145933"><ele>874.8333333333333</ele><time>2026-04-11T12:58:57.219Z</time></trkpt><trkpt lat="45.4456556" lon="7.7145347"><ele>877.0</ele><time>2026-04-11T12:59:47.219Z</time></trkpt><trkpt lat="45.4456331" lon="7.7144294"><ele>877.7142857142858</ele><time>2026-04-11T13:02:12.966Z</time></trkpt><trkpt lat="45.4456401" lon="7.7143333"><ele>878.4285714285714</ele><time>2026-04-11T13:02:15.966Z</time></trkpt><trkpt lat="45.4456523" lon="7.7142407"><ele>879.1428571428571</ele><time>2026-04-11T13:02:20.964Z</time></trkpt><trkpt lat="45.4456478" lon="7.7141475"><ele>879.8571428571429</ele><time>2026-04-11T13:02:24.031Z</time></trkpt><trkpt lat="45.4456554" lon="7.7140149"><ele>880.5714285714286</ele><time>2026-04-11T13:02:26.98Z</time></trkpt><trkpt lat="45.4456641" lon="7.7139131"><ele>881.2857142857143</ele><time>2026-04-11T13:02:28.972Z</time></trkpt><trkpt lat="45.4456645" lon="7.7138163"><ele>882.0</ele><time>2026-04-11T13:02:30.997Z</time></trkpt><trkpt lat="45.445672" lon="7.7137269"><ele>882.0</ele><time>2026-04-11T13:02:34.005Z</time></trkpt><trkpt lat="45.4456611" lon="7.7136123"><ele>882.0</ele><time>2026-04-11T13:02:38.966Z</time></trkpt><trkpt lat="45.4456549" lon="7.713512"><ele>882.0</ele><time>2026-04-11T13:02:41.973Z</time></trkpt><trkpt lat="45.44565" lon="7.7134178"><ele>882.0</ele><time>2026-04-11T13:02:43.976Z</time></trkpt><trkpt lat="45.4456579" lon="7.7133132"><ele>882.0</ele><time>2026-04-11T13:02:45.973Z</time></trkpt><trkpt lat="45.4456639" lon="7.713212"><ele>882.0</ele><time>2026-04-11T13:02:48.049Z</time></trkpt><trkpt lat="45.4456585" lon="7.7131065"><ele>882.0</ele><time>2026-04-11T13:02:49.967Z</time></trkpt><trkpt lat="45.4456556" lon="7.712996"><ele>882.3333333333334</ele><time>2026-04-11T13:02:51.985Z</time></trkpt><trkpt lat="45.4456597" lon="7.7128791"><ele>882.6666666666667</ele><time>2026-04-11T13:02:53.953Z</time></trkpt><trkpt lat="45.4456669" lon="7.7127612"><ele>883.0</ele><time>2026-04-11T13:02:55.964Z</time></trkpt><trkpt lat="45.4456872" lon="7.7126276"><ele>883.3333333333334</ele><time>2026-04-11T13:02:57.966Z</time></trkpt><trkpt lat="45.4456987" lon="7.7125077"><ele>883.6666666666667</ele><time>2026-04-11T13:02:59.968Z</time></trkpt><trkpt lat="45.4457102" lon="7.7123865"><ele>884.0</ele><time>2026-04-11T13:03:01.965Z</time></trkpt><trkpt lat="45.4457204" lon="7.7122773"><ele>884.1666666666667</ele><time>2026-04-11T13:03:03.965Z</time></trkpt><trkpt lat="45.4457189" lon="7.712186"><ele>884.3333333333334</ele><time>2026-04-11T13:03:05.969Z</time></trkpt><trkpt lat="45.4457209" lon="7.712044"><ele>884.5</ele><time>2026-04-11T13:03:08.961Z</time></trkpt><trkpt lat="45.4457218" lon="7.7119372"><ele>884.6666666666667</ele><time>2026-04-11T13:03:10.956Z</time></trkpt><trkpt lat="45.4457302" lon="7.711826"><ele>884.8333333333334</ele><time>2026-04-11T13:03:12.958Z</time></trkpt><trkpt lat="45.4457396" lon="7.7117336"><ele>885.0</ele><time>2026-04-11T13:03:14.962Z</time></trkpt><trkpt lat="45.4457466" lon="7.7116066"><ele>885.1666666666666</ele><time>2026-04-11T13:03:18.035Z</time></trkpt><trkpt lat="45.4457462" lon="7.7114766"><ele>885.3333333333333</ele><time>2026-04-11T13:03:20.964Z</time></trkpt><trkpt lat="45.445745" lon="7.7113739"><ele>885.5</ele><time>2026-04-11T13:03:22.965Z</time></trkpt><trkpt lat="45.4457478" lon="7.7112628"><ele>885.6666666666666</ele><time>2026-04-11T13:03:24.963Z</time></trkpt><trkpt lat="45.4457525" lon="7.7111461"><ele>885.8333333333333</ele><time>2026-04-11T13:03:27.04Z</time></trkpt><trkpt lat="45.445746" lon="7.7110359"><ele>886.0</ele><time>2026-04-11T13:03:28.966Z</time></trkpt><trkpt lat="45.4457223" lon="7.7109389"><ele>885.9999999999999</ele><time>2026-04-11T13:03:30.961Z</time></trkpt><trkpt lat="45.4457041" lon="7.710846"><ele>886.0</ele><time>2026-04-11T13:03:32.957Z</time></trkpt><trkpt lat="45.4456799" lon="7.7107612"><ele>886.0</ele><time>2026-04-11T13:03:34.969Z</time></trkpt><trkpt lat="45.4456611" lon="7.7106391"><ele>886.0</ele><time>2026-04-11T13:03:38.032Z</time></trkpt><trkpt lat="45.4456335" lon="7.7105125"><ele>885.9999999999999</ele><time>2026-04-11T13:03:40.974Z</time></trkpt><trkpt lat="45.4455921" lon="7.7104226"><ele>886.0</ele><time>2026-04-11T13:03:42.966Z</time></trkpt><trkpt lat="45.4455346" lon="7.7103384"><ele>891.1666666666666</ele><time>2026-04-11T13:03:44.957Z</time></trkpt><trkpt lat="45.4454552" lon="7.7102896"><ele>896.3333333333333</ele><time>2026-04-11T13:03:47.037Z</time></trkpt><trkpt lat="45.4453854" lon="7.7102817"><ele>901.5</ele><time>2026-04-11T13:03:48.959Z</time></trkpt><trkpt lat="45.4452983" lon="7.7103178"><ele>906.6666666666667</ele><time>2026-04-11T13:03:50.963Z</time></trkpt><trkpt lat="45.4452129" lon="7.7103543"><ele>911.8333333333334</ele><time>2026-04-11T13:03:52.961Z</time></trkpt><trkpt lat="45.44514" lon="7.7104133"><ele>917.0</ele><time>2026-04-11T13:03:54.962Z</time></trkpt><trkpt lat="45.4450886" lon="7.7104764"><ele>917.0</ele><time>2026-04-11T13:03:57.034Z</time></trkpt><trkpt lat="45.4450317" lon="7.7105494"><ele>917.0</ele><time>2026-04-11T13:03:58.953Z</time></trkpt><trkpt lat="45.4449565" lon="7.7106195"><ele>917.0</ele><time>2026-04-11T13:04:00.953Z</time></trkpt><trkpt lat="45.4448626" lon="7.7106916"><ele>917.0</ele><time>2026-04-11T13:04:03.028Z</time></trkpt><trkpt lat="45.4447798" lon="7.7107687"><ele>917.0</ele><time>2026-04-11T13:04:04.951Z</time></trkpt><trkpt lat="45.444709" lon="7.7108217"><ele>917.0000000000001</ele><time>2026-04-11T13:04:07.962Z</time></trkpt><trkpt lat="45.4446508" lon="7.7108629"><ele>917.0</ele><time>2026-04-11T13:04:11.018Z</time></trkpt><trkpt lat="45.4445844" lon="7.710909"><ele>917.0</ele><time>2026-04-11T13:04:12.975Z</time></trkpt><trkpt lat="45.444511" lon="7.710948"><ele>917.0</ele><time>2026-04-11T13:04:14.953Z</time></trkpt><trkpt lat="45.4444378" lon="7.7109794"><ele>917.0000000000001</ele><time>2026-04-11T13:04:16.958Z</time></trkpt><trkpt lat="45.4443614" lon="7.7109986"><ele>917.0</ele><time>2026-04-11T13:04:18.986Z</time></trkpt><trkpt lat="45.4442759" lon="7.7109613"><ele>919.3333333333334</ele><time>2026-04-11T13:04:21.958Z</time></trkpt><trkpt lat="45.444214" lon="7.7109231"><ele>921.6666666666667</ele><time>2026-04-11T13:04:23.961Z</time></trkpt><trkpt lat="45.4441543" lon="7.7108778"><ele>924.0</ele><time>2026-04-11T13:04:25.968Z</time></trkpt><trkpt lat="45.4440892" lon="7.7107769"><ele>926.3333333333333</ele><time>2026-04-11T13:04:28.025Z</time></trkpt><trkpt lat="45.4440501" lon="7.7106638"><ele>928.6666666666666</ele><time>2026-04-11T13:04:29.942Z</time></trkpt><trkpt lat="45.4440449" lon="7.7105446"><ele>931.0</ele><time>2026-04-11T13:04:31.949Z</time></trkpt><trkpt lat="45.4440726" lon="7.7104431"><ele>930.9999999999999</ele><time>2026-04-11T13:04:33.959Z</time></trkpt><trkpt lat="45.4441094" lon="7.7103249"><ele>931.0</ele><time>2026-04-11T13:04:35.945Z</time></trkpt><trkpt lat="45.4441241" lon="7.7102042"><ele>931.0</ele><time>2026-04-11T13:04:37.971Z</time></trkpt><trkpt lat="45.4441501" lon="7.7101011"><ele>931.0</ele><time>2026-04-11T13:04:39.962Z</time></trkpt><trkpt lat="45.4442188" lon="7.7100279"><ele>930.9999999999999</ele><time>2026-04-11T13:04:42.956Z</time></trkpt><trkpt lat="45.4442606" lon="7.7099547"><ele>931.0</ele><time>2026-04-11T13:08:59.97Z</time></trkpt><trkpt lat="45.4442993" lon="7.7098571"><ele>931.0</ele><time>2026-04-11T13:11:05.968Z</time></trkpt><trkpt lat="45.4443554" lon="7.7097122"><ele>930.9999999999999</ele><time>2026-04-11T13:11:07.957Z</time></trkpt><trkpt lat="45.4443792" lon="7.7095978"><ele>930.9999999999999</ele><time>2026-04-11T13:11:08.958Z</time></trkpt><trkpt lat="45.4444039" lon="7.7094732"><ele>931.0</ele><time>2026-04-11T13:11:09.964Z</time></trkpt><trkpt lat="45.4444246" lon="7.7093476"><ele>931.0</ele><time>2026-04-11T13:11:10.961Z</time></trkpt><trkpt lat="45.4444502" lon="7.7092194"><ele>932.1666666666666</ele><time>2026-04-11T13:11:11.96Z</time></trkpt><trkpt lat="45.4444748" lon="7.7090895"><ele>933.3333333333333</ele><time>2026-04-11T13:11:12.955Z</time></trkpt><trkpt lat="45.4444997" lon="7.7089736"><ele>934.5</ele><time>2026-04-11T13:11:13.955Z</time></trkpt><trkpt lat="45.4445263" lon="7.7088647"><ele>935.6666666666667</ele><time>2026-04-11T13:11:14.959Z</time></trkpt><trkpt lat="45.4445569" lon="7.7087524"><ele>936.8333333333334</ele><time>2026-04-11T13:11:15.965Z</time></trkpt><trkpt lat="45.4445847" lon="7.7086419"><ele>938.0</ele><time>2026-04-11T13:11:16.953Z</time></trkpt><trkpt lat="45.4446204" lon="7.708543"><ele>936.8333333333334</ele><time>2026-04-11T13:11:17.961Z</time></trkpt><trkpt lat="45.444655" lon="7.7084288"><ele>935.6666666666667</ele><time>2026-04-11T13:11:18.958Z</time></trkpt><trkpt lat="45.4446873" lon="7.7083282"><ele>934.5</ele><time>2026-04-11T13:11:19.959Z</time></trkpt><trkpt lat="45.4447201" lon="7.7082137"><ele>933.3333333333333</ele><time>2026-04-11T13:11:20.957Z</time></trkpt><trkpt lat="45.444752" lon="7.7081086"><ele>932.1666666666666</ele><time>2026-04-11T13:11:21.962Z</time></trkpt><trkpt lat="45.444795" lon="7.7079968"><ele>931.0</ele><time>2026-04-11T13:11:22.958Z</time></trkpt><trkpt lat="45.4448473" lon="7.707902"><ele>930.9999999999999</ele><time>2026-04-11T13:11:23.96Z</time></trkpt><trkpt lat="45.4448933" lon="7.707801"><ele>931.0</ele><time>2026-04-11T13:11:24.962Z</time></trkpt><trkpt lat="45.4449367" lon="7.707709"><ele>931.0</ele><time>2026-04-11T13:11:25.957Z</time></trkpt><trkpt lat="45.4449748" lon="7.707604"><ele>931.0</ele><time>2026-04-11T13:11:26.964Z</time></trkpt><trkpt lat="45.4450118" lon="7.7075111"><ele>930.9999999999999</ele><time>2026-04-11T13:11:27.959Z</time></trkpt><trkpt lat="45.445048" lon="7.7074261"><ele>931.0</ele><time>2026-04-11T13:11:28.952Z</time></trkpt><trkpt lat="45.4450949" lon="7.7073464"><ele>930.9999999999999</ele><time>2026-04-11T13:11:29.95Z</time></trkpt><trkpt lat="45.4451526" lon="7.7072768"><ele>931.0</ele><time>2026-04-11T13:11:30.966Z</time></trkpt><trkpt lat="45.4452149" lon="7.7072147"><ele>931.0</ele><time>2026-04-11T13:11:31.964Z</time></trkpt><trkpt lat="45.4452798" lon="7.7071641"><ele>931.0</ele><time>2026-04-11T13:11:32.961Z</time></trkpt><trkpt lat="45.4453411" lon="7.7071129"><ele>930.9999999999999</ele><time>2026-04-11T13:11:33.967Z</time></trkpt><trkpt lat="45.4454214" lon="7.7070814"><ele>931.0</ele><time>2026-04-11T13:11:34.951Z</time></trkpt><trkpt lat="45.4454915" lon="7.7070504"><ele>930.9999999999999</ele><time>2026-04-11T13:11:35.966Z</time></trkpt><trkpt lat="45.4455742" lon="7.7070261"><ele>931.0</ele><time>2026-04-11T13:11:36.952Z</time></trkpt><trkpt lat="45.4456555" lon="7.7070146"><ele>931.0</ele><time>2026-04-11T13:11:37.946Z</time></trkpt><trkpt lat="45.4457249" lon="7.7069975"><ele>931.0</ele><time>2026-04-11T13:11:38.944Z</time></trkpt><trkpt lat="45.4457938" lon="7.7069779"><ele>930.9999999999999</ele><time>2026-04-11T13:11:39.946Z</time></trkpt><trkpt lat="45.4459145" lon="7.7069148"><ele>931.0</ele><time>2026-04-11T13:11:41.959Z</time></trkpt><trkpt lat="45.4459628" lon="7.7068345"><ele>933.8333333333333</ele><time>2026-04-11T13:11:43.006Z</time></trkpt><trkpt lat="45.4460058" lon="7.7067319"><ele>936.6666666666666</ele><time>2026-04-11T13:11:43.952Z</time></trkpt><trkpt lat="45.4460366" lon="7.7066284"><ele>939.5</ele><time>2026-04-11T13:11:44.964Z</time></trkpt><trkpt lat="45.4460767" lon="7.7065172"><ele>942.3333333333333</ele><time>2026-04-11T13:11:45.966Z</time></trkpt><trkpt lat="45.4461143" lon="7.706405"><ele>945.1666666666666</ele><time>2026-04-11T13:11:46.955Z</time></trkpt><trkpt lat="45.4461548" lon="7.7062833"><ele>948.0</ele><time>2026-04-11T13:11:47.962Z</time></trkpt><trkpt lat="45.4462007" lon="7.7061672"><ele>947.4</ele><time>2026-04-11T13:11:48.956Z</time></trkpt><trkpt lat="45.4462456" lon="7.7060445"><ele>946.8</ele><time>2026-04-11T13:11:49.961Z</time></trkpt><trkpt lat="45.4462879" lon="7.7059274"><ele>946.2</ele><time>2026-04-11T13:11:50.961Z</time></trkpt><trkpt lat="45.4463323" lon="7.7058168"><ele>945.6</ele><time>2026-04-11T13:11:51.96Z</time></trkpt><trkpt lat="45.4463848" lon="7.705715"><ele>945.0</ele><time>2026-04-11T13:11:52.96Z</time></trkpt><trkpt lat="45.44645" lon="7.705611"><ele>945.0</ele><time>2026-04-11T13:11:53.968Z</time></trkpt><trkpt lat="45.446505" lon="7.7055175"><ele>945.0</ele><time>2026-04-11T13:11:54.969Z</time></trkpt><trkpt lat="45.4465386" lon="7.7054317"><ele>945.0</ele><time>2026-04-11T13:11:55.946Z</time></trkpt><trkpt lat="45.4465709" lon="7.7053437"><ele>945.0</ele><time>2026-04-11T13:11:56.956Z</time></trkpt><trkpt lat="45.4466048" lon="7.7052679"><ele>945.0</ele><time>2026-04-11T13:11:57.962Z</time></trkpt><trkpt lat="45.4467225" lon="7.7051667"><ele>945.0</ele><time>2026-04-11T13:11:59.969Z</time></trkpt><trkpt lat="45.446791" lon="7.7051606"><ele>945.6666666666666</ele><time>2026-04-11T13:12:00.96Z</time></trkpt><trkpt lat="45.4468666" lon="7.7051467"><ele>946.3333333333333</ele><time>2026-04-11T13:12:01.964Z</time></trkpt><trkpt lat="45.4469482" lon="7.7051456"><ele>947.0</ele><time>2026-04-11T13:12:02.961Z</time></trkpt><trkpt lat="45.4470248" lon="7.7051279"><ele>947.6666666666666</ele><time>2026-04-11T13:12:03.965Z</time></trkpt><trkpt lat="45.4471468" lon="7.7050474"><ele>948.3333333333333</ele><time>2026-04-11T13:12:05.96Z</time></trkpt><trkpt lat="45.4471953" lon="7.7049857"><ele>949.0</ele><time>2026-04-11T13:12:06.959Z</time></trkpt><trkpt lat="45.4472525" lon="7.7049217"><ele>949.0</ele><time>2026-04-11T13:12:07.974Z</time></trkpt><trkpt lat="45.447297" lon="7.7048453"><ele>949.0000000000001</ele><time>2026-04-11T13:12:08.964Z</time></trkpt><trkpt lat="45.4473749" lon="7.7047124"><ele>949.0000000000001</ele><time>2026-04-11T13:12:10.959Z</time></trkpt><trkpt lat="45.4474176" lon="7.7045682"><ele>949.0</ele><time>2026-04-11T13:12:12.967Z</time></trkpt><trkpt lat="45.4475033" lon="7.7044326"><ele>949.0</ele><time>2026-04-11T13:12:14.966Z</time></trkpt><trkpt lat="45.4475663" lon="7.7043748"><ele>949.5714285714287</ele><time>2026-04-11T13:12:15.966Z</time></trkpt><trkpt lat="45.4476486" lon="7.7043359"><ele>950.1428571428571</ele><time>2026-04-11T13:12:16.963Z</time></trkpt><trkpt lat="45.4477186" lon="7.7043133"><ele>950.7142857142858</ele><time>2026-04-11T13:12:17.958Z</time></trkpt><trkpt lat="45.4477832" lon="7.7042916"><ele>951.2857142857143</ele><time>2026-04-11T13:12:18.961Z</time></trkpt><trkpt lat="45.4478469" lon="7.7043055"><ele>951.8571428571429</ele><time>2026-04-11T13:12:19.963Z</time></trkpt><trkpt lat="45.4479177" lon="7.7043659"><ele>952.4285714285714</ele><time>2026-04-11T13:12:21.961Z</time></trkpt><trkpt lat="45.4479854" lon="7.7043573"><ele>953.0</ele><time>2026-04-11T13:12:23.965Z</time></trkpt><trkpt lat="45.4480602" lon="7.7042629"><ele>953.0000000000001</ele><time>2026-04-11T13:12:26.011Z</time></trkpt><trkpt lat="45.4480944" lon="7.7041832"><ele>953.0</ele><time>2026-04-11T13:12:26.954Z</time></trkpt><trkpt lat="45.4481276" lon="7.7041028"><ele>953.0</ele><time>2026-04-11T13:12:27.959Z</time></trkpt><trkpt lat="45.448161" lon="7.704019"><ele>953.0</ele><time>2026-04-11T13:12:28.964Z</time></trkpt><trkpt lat="45.4482254" lon="7.7038948"><ele>953.0000000000001</ele><time>2026-04-11T13:12:30.962Z</time></trkpt><trkpt lat="45.4482985" lon="7.7038001"><ele>953.0</ele><time>2026-04-11T13:12:32.961Z</time></trkpt><trkpt lat="45.4483732" lon="7.703778"><ele>953.0</ele><time>2026-04-11T13:12:34.956Z</time></trkpt><trkpt lat="45.448462" lon="7.703829"><ele>953.0</ele><time>2026-04-11T13:12:36.956Z</time></trkpt><trkpt lat="45.4485257" lon="7.7039147"><ele>953.0</ele><time>2026-04-11T13:12:38.959Z</time></trkpt><trkpt lat="45.4486025" lon="7.7040784"><ele>953.0</ele><time>2026-04-11T13:12:40.966Z</time></trkpt><trkpt lat="45.4486443" lon="7.7042012"><ele>953.0</ele><time>2026-04-11T13:12:41.955Z</time></trkpt><trkpt lat="45.448686" lon="7.7043095"><ele>953.0000000000001</ele><time>2026-04-11T13:12:42.96Z</time></trkpt><trkpt lat="45.44873" lon="7.7044085"><ele>953.0</ele><time>2026-04-11T13:12:43.95Z</time></trkpt><trkpt lat="45.4487901" lon="7.7045104"><ele>953.0</ele><time>2026-04-11T13:12:44.969Z</time></trkpt><trkpt lat="45.4488533" lon="7.7046194"><ele>953.0</ele><time>2026-04-11T13:12:45.964Z</time></trkpt><trkpt lat="45.448922" lon="7.704705"><ele>953.0000000000001</ele><time>2026-04-11T13:12:46.963Z</time></trkpt><trkpt lat="45.4489823" lon="7.7047749"><ele>953.0</ele><time>2026-04-11T13:12:47.97Z</time></trkpt><trkpt lat="45.4490738" lon="7.7048675"><ele>954.25</ele><time>2026-04-11T13:12:49.963Z</time></trkpt><trkpt lat="45.4491827" lon="7.7049437"><ele>955.5</ele><time>2026-04-11T13:12:51.961Z</time></trkpt><trkpt lat="45.4492884" lon="7.7050192"><ele>956.75</ele><time>2026-04-11T13:12:53.96Z</time></trkpt><trkpt lat="45.4493567" lon="7.7051307"><ele>958.0</ele><time>2026-04-11T13:12:55.965Z</time></trkpt><trkpt lat="45.4494194" lon="7.7052677"><ele>957.2</ele><time>2026-04-11T13:12:57.958Z</time></trkpt><trkpt lat="45.4495107" lon="7.7053714"><ele>956.4</ele><time>2026-04-11T13:12:59.967Z</time></trkpt><trkpt lat="45.4495972" lon="7.7054477"><ele>955.6000000000001</ele><time>2026-04-11T13:13:01.958Z</time></trkpt><trkpt lat="45.4496861" lon="7.7054673"><ele>954.8000000000001</ele><time>2026-04-11T13:13:03.962Z</time></trkpt><trkpt lat="45.4498056" lon="7.7054599"><ele>954.0</ele><time>2026-04-11T13:13:05.947Z</time></trkpt><trkpt lat="45.4498995" lon="7.7054608"><ele>954.0</ele><time>2026-04-11T13:13:07.952Z</time></trkpt><trkpt lat="45.4499582" lon="7.7055212"><ele>954.0</ele><time>2026-04-11T13:13:09.967Z</time></trkpt><trkpt lat="45.4499852" lon="7.7056262"><ele>954.0</ele><time>2026-04-11T13:13:11.948Z</time></trkpt><trkpt lat="45.4500077" lon="7.7057316"><ele>954.0</ele><time>2026-04-11T13:13:13.962Z</time></trkpt><trkpt lat="45.4500674" lon="7.7058476"><ele>954.0</ele><time>2026-04-11T13:13:15.97Z</time></trkpt><trkpt lat="45.4501502" lon="7.7059609"><ele>954.0</ele><time>2026-04-11T13:13:17.965Z</time></trkpt><trkpt lat="45.4501736" lon="7.7060777"><ele>951.8333333333334</ele><time>2026-04-11T13:13:18.964Z</time></trkpt><trkpt lat="45.4502005" lon="7.7062101"><ele>949.6666666666667</ele><time>2026-04-11T13:13:19.954Z</time></trkpt><trkpt lat="45.4502282" lon="7.7063338"><ele>947.5</ele><time>2026-04-11T13:13:20.957Z</time></trkpt><trkpt lat="45.450269" lon="7.7064317"><ele>945.3333333333334</ele><time>2026-04-11T13:13:21.964Z</time></trkpt><trkpt lat="45.4503147" lon="7.7065209"><ele>943.1666666666667</ele><time>2026-04-11T13:13:22.946Z</time></trkpt><trkpt lat="45.4503687" lon="7.7065945"><ele>941.0</ele><time>2026-04-11T13:13:23.955Z</time></trkpt><trkpt lat="45.4504208" lon="7.7066667"><ele>941.1666666666667</ele><time>2026-04-11T13:13:24.962Z</time></trkpt><trkpt lat="45.4504724" lon="7.7067206"><ele>941.3333333333334</ele><time>2026-04-11T13:13:25.966Z</time></trkpt><trkpt lat="45.4505297" lon="7.706759"><ele>941.5</ele><time>2026-04-11T13:13:26.966Z</time></trkpt><trkpt lat="45.4506542" lon="7.7067835"><ele>941.6666666666667</ele><time>2026-04-11T13:13:28.958Z</time></trkpt><trkpt lat="45.4507744" lon="7.7068097"><ele>941.8333333333334</ele><time>2026-04-11T13:13:30.966Z</time></trkpt><trkpt lat="45.4508369" lon="7.706863"><ele>942.0</ele><time>2026-04-11T13:13:31.963Z</time></trkpt><trkpt lat="45.4509138" lon="7.7069266"><ele>942.0</ele><time>2026-04-11T13:13:32.962Z</time></trkpt><trkpt lat="45.4509889" lon="7.7069973"><ele>942.0</ele><time>2026-04-11T13:13:33.959Z</time></trkpt><trkpt lat="45.4510661" lon="7.7070775"><ele>942.0</ele><time>2026-04-11T13:13:34.953Z</time></trkpt><trkpt lat="45.4511377" lon="7.707156"><ele>942.0</ele><time>2026-04-11T13:13:35.96Z</time></trkpt><trkpt lat="45.4511984" lon="7.7072248"><ele>942.0</ele><time>2026-04-11T13:13:36.957Z</time></trkpt><trkpt lat="45.4512565" lon="7.7072838"><ele>942.0</ele><time>2026-04-11T13:13:37.957Z</time></trkpt><trkpt lat="45.4513522" lon="7.707397"><ele>942.8333333333334</ele><time>2026-04-11T13:13:39.957Z</time></trkpt><trkpt lat="45.4513798" lon="7.7074882"><ele>943.6666666666667</ele><time>2026-04-11T13:13:40.965Z</time></trkpt><trkpt lat="45.4514024" lon="7.7075797"><ele>944.5</ele><time>2026-04-11T13:13:41.962Z</time></trkpt><trkpt lat="45.4514387" lon="7.7076657"><ele>945.3333333333334</ele><time>2026-04-11T13:13:42.964Z</time></trkpt><trkpt lat="45.4515206" lon="7.7078012"><ele>946.1666666666667</ele><time>2026-04-11T13:13:44.956Z</time></trkpt><trkpt lat="45.4515718" lon="7.7078552"><ele>947.0</ele><time>2026-04-11T13:13:45.95Z</time></trkpt><trkpt lat="45.451693" lon="7.7079148"><ele>947.0000000000001</ele><time>2026-04-11T13:13:47.959Z</time></trkpt><trkpt lat="45.4517557" lon="7.7079303"><ele>947.0</ele><time>2026-04-11T13:13:48.959Z</time></trkpt><trkpt lat="45.4518232" lon="7.7079407"><ele>947.0</ele><time>2026-04-11T13:13:49.954Z</time></trkpt><trkpt lat="45.4519585" lon="7.7079334"><ele>947.0</ele><time>2026-04-11T13:13:51.957Z</time></trkpt><trkpt lat="45.452033" lon="7.7079131"><ele>947.0000000000001</ele><time>2026-04-11T13:13:52.958Z</time></trkpt><trkpt lat="45.452107" lon="7.7078885"><ele>947.0</ele><time>2026-04-11T13:13:53.953Z</time></trkpt><trkpt lat="45.4521773" lon="7.7078687"><ele>948.2</ele><time>2026-04-11T13:13:54.958Z</time></trkpt><trkpt lat="45.4522474" lon="7.7078684"><ele>949.4000000000001</ele><time>2026-04-11T13:13:55.957Z</time></trkpt><trkpt lat="45.4523565" lon="7.7078909"><ele>950.5999999999999</ele><time>2026-04-11T13:13:57.96Z</time></trkpt><trkpt lat="45.4524206" lon="7.7079973"><ele>951.8</ele><time>2026-04-11T13:13:59.957Z</time></trkpt><trkpt lat="45.4524273" lon="7.7080961"><ele>953.0</ele><time>2026-04-11T13:14:00.954Z</time></trkpt><trkpt lat="45.4524622" lon="7.7082413"><ele>953.0000000000001</ele><time>2026-04-11T13:14:02.959Z</time></trkpt><trkpt lat="45.4525359" lon="7.7083292"><ele>953.0</ele><time>2026-04-11T13:14:04.958Z</time></trkpt><trkpt lat="45.452635" lon="7.7083203"><ele>953.0</ele><time>2026-04-11T13:14:06.961Z</time></trkpt><trkpt lat="45.4527201" lon="7.7083018"><ele>953.0</ele><time>2026-04-11T13:14:08.961Z</time></trkpt><trkpt lat="45.4527842" lon="7.7082759"><ele>953.0000000000001</ele><time>2026-04-11T13:14:10.962Z</time></trkpt><trkpt lat="45.4528445" lon="7.7082262"><ele>953.0</ele><time>2026-04-11T13:14:14.958Z</time></trkpt><trkpt lat="45.4529018" lon="7.7081848"><ele>954.2</ele><time>2026-04-11T13:14:17.964Z</time></trkpt><trkpt lat="45.4529767" lon="7.7081427"><ele>955.4</ele><time>2026-04-11T13:14:21.961Z</time></trkpt><trkpt lat="45.453059" lon="7.7081278"><ele>956.6000000000001</ele><time>2026-04-11T13:14:24.961Z</time></trkpt><trkpt lat="45.4531166" lon="7.7082014"><ele>957.8000000000001</ele><time>2026-04-11T13:14:26.953Z</time></trkpt><trkpt lat="45.4531806" lon="7.7083308"><ele>959.0</ele><time>2026-04-11T13:14:28.963Z</time></trkpt><trkpt lat="45.4532457" lon="7.7084606"><ele>957.6</ele><time>2026-04-11T13:14:30.958Z</time></trkpt><trkpt lat="45.4533129" lon="7.7086181"><ele>956.2</ele><time>2026-04-11T13:14:32.948Z</time></trkpt><trkpt lat="45.4533394" lon="7.7087005"><ele>954.8000000000001</ele><time>2026-04-11T13:14:33.96Z</time></trkpt><trkpt lat="45.4533732" lon="7.708789"><ele>953.4000000000001</ele><time>2026-04-11T13:14:34.958Z</time></trkpt><trkpt lat="45.4534203" lon="7.7089612"><ele>952.0</ele><time>2026-04-11T13:14:36.961Z</time></trkpt><trkpt lat="45.4534543" lon="7.7090391"><ele>951.9999999999999</ele><time>2026-04-11T13:14:37.959Z</time></trkpt><trkpt lat="45.4534928" lon="7.7091172"><ele>952.0</ele><time>2026-04-11T13:14:38.961Z</time></trkpt><trkpt lat="45.4535295" lon="7.7092057"><ele>952.0</ele><time>2026-04-11T13:14:39.966Z</time></trkpt><trkpt lat="45.4535563" lon="7.7092902"><ele>952.0</ele><time>2026-04-11T13:14:40.962Z</time></trkpt><trkpt lat="45.4535922" lon="7.7094303"><ele>951.9999999999999</ele><time>2026-04-11T13:14:42.961Z</time></trkpt><trkpt lat="45.4536423" lon="7.7095676"><ele>952.0</ele><time>2026-04-11T13:14:44.958Z</time></trkpt><trkpt lat="45.4537" lon="7.7096877"><ele>952.6</ele><time>2026-04-11T13:14:46.956Z</time></trkpt><trkpt lat="45.4537691" lon="7.709801"><ele>953.2</ele><time>2026-04-11T13:14:48.959Z</time></trkpt><trkpt lat="45.4538593" lon="7.7098934"><ele>953.8</ele><time>2026-04-11T13:14:50.957Z</time></trkpt><trkpt lat="45.4539522" lon="7.7099672"><ele>954.4</ele><time>2026-04-11T13:14:52.957Z</time></trkpt><trkpt lat="45.4540378" lon="7.7100625"><ele>955.0</ele><time>2026-04-11T13:14:54.961Z</time></trkpt><trkpt lat="45.4541105" lon="7.7102027"><ele>954.3333333333333</ele><time>2026-04-11T13:14:56.949Z</time></trkpt><trkpt lat="45.4541437" lon="7.7102887"><ele>953.6666666666666</ele><time>2026-04-11T13:14:57.962Z</time></trkpt><trkpt lat="45.4541729" lon="7.7103747"><ele>953.0</ele><time>2026-04-11T13:14:58.966Z</time></trkpt><trkpt lat="45.4542063" lon="7.710458"><ele>952.3333333333333</ele><time>2026-04-11T13:14:59.961Z</time></trkpt><trkpt lat="45.4542409" lon="7.7105333"><ele>951.6666666666666</ele><time>2026-04-11T13:15:00.955Z</time></trkpt><trkpt lat="45.4543048" lon="7.7106758"><ele>951.0</ele><time>2026-04-11T13:15:02.959Z</time></trkpt><trkpt lat="45.4543394" lon="7.7108179"><ele>951.0</ele><time>2026-04-11T13:15:04.954Z</time></trkpt><trkpt lat="45.4543571" lon="7.7109674"><ele>951.0</ele><time>2026-04-11T13:15:06.96Z</time></trkpt><trkpt lat="45.4543738" lon="7.7111401"><ele>951.0</ele><time>2026-04-11T13:15:08.962Z</time></trkpt><trkpt lat="45.4544067" lon="7.7112857"><ele>951.0</ele><time>2026-04-11T13:15:10.963Z</time></trkpt><trkpt lat="45.4544966" lon="7.7114016"><ele>950.0</ele><time>2026-04-11T13:15:12.948Z</time></trkpt><trkpt lat="45.4545924" lon="7.7114914"><ele>948.9999999999999</ele><time>2026-04-11T13:15:14.968Z</time></trkpt><trkpt lat="45.4546684" lon="7.7115953"><ele>947.9999999999999</ele><time>2026-04-11T13:15:16.962Z</time></trkpt><trkpt lat="45.4547432" lon="7.7117087"><ele>947.0</ele><time>2026-04-11T13:15:18.962Z</time></trkpt><trkpt lat="45.4548196" lon="7.7118082"><ele>946.0</ele><time>2026-04-11T13:15:20.965Z</time></trkpt><trkpt lat="45.4549216" lon="7.7118776"><ele>945.8333333333333</ele><time>2026-04-11T13:15:22.96Z</time></trkpt><trkpt lat="45.455027" lon="7.7119395"><ele>945.6666666666666</ele><time>2026-04-11T13:15:24.962Z</time></trkpt><trkpt lat="45.4551166" lon="7.7120079"><ele>945.5</ele><time>2026-04-11T13:15:26.96Z</time></trkpt><trkpt lat="45.4551653" lon="7.7120746"><ele>945.3333333333333</ele><time>2026-04-11T13:15:28.967Z</time></trkpt><trkpt lat="45.455172" lon="7.7121843"><ele>945.1666666666666</ele><time>2026-04-11T13:15:31.962Z</time></trkpt><trkpt lat="45.4551472" lon="7.7122908"><ele>945.0</ele><time>2026-04-11T13:15:34.96Z</time></trkpt><trkpt lat="45.4552324" lon="7.7123465"><ele>945.0</ele><time>2026-04-11T13:15:38.963Z</time></trkpt><trkpt lat="45.4552917" lon="7.7124179"><ele>945.0</ele><time>2026-04-11T13:15:39.958Z</time></trkpt><trkpt lat="45.4553494" lon="7.712508"><ele>945.0</ele><time>2026-04-11T13:15:40.961Z</time></trkpt><trkpt lat="45.4553999" lon="7.7125884"><ele>945.0</ele><time>2026-04-11T13:15:41.961Z</time></trkpt><trkpt lat="45.4554557" lon="7.7126826"><ele>945.0</ele><time>2026-04-11T13:15:42.946Z</time></trkpt><trkpt lat="45.4555143" lon="7.7127825"><ele>945.0</ele><time>2026-04-11T13:15:43.946Z</time></trkpt><trkpt lat="45.4555511" lon="7.712891"><ele>944.6</ele><time>2026-04-11T13:15:44.957Z</time></trkpt><trkpt lat="45.4555851" lon="7.7130256"><ele>944.2</ele><time>2026-04-11T13:15:45.946Z</time></trkpt><trkpt lat="45.4556196" lon="7.7131597"><ele>943.8</ele><time>2026-04-11T13:15:46.948Z</time></trkpt><trkpt lat="45.4556609" lon="7.7132874"><ele>943.4</ele><time>2026-04-11T13:15:47.967Z</time></trkpt><trkpt lat="45.4557052" lon="7.7134051"><ele>943.0</ele><time>2026-04-11T13:15:48.954Z</time></trkpt><trkpt lat="45.455757" lon="7.7135186"><ele>942.6666666666666</ele><time>2026-04-11T13:15:49.95Z</time></trkpt><trkpt lat="45.4558063" lon="7.7136251"><ele>942.3333333333333</ele><time>2026-04-11T13:15:50.954Z</time></trkpt><trkpt lat="45.4558514" lon="7.7137158"><ele>942.0</ele><time>2026-04-11T13:15:51.956Z</time></trkpt><trkpt lat="45.4558952" lon="7.713791"><ele>941.6666666666667</ele><time>2026-04-11T13:15:52.953Z</time></trkpt><trkpt lat="45.4559408" lon="7.7138618"><ele>941.3333333333334</ele><time>2026-04-11T13:15:53.959Z</time></trkpt><trkpt lat="45.4559831" lon="7.7139465"><ele>941.0</ele><time>2026-04-11T13:15:54.961Z</time></trkpt><trkpt lat="45.4560266" lon="7.7140362"><ele>940.9999999999999</ele><time>2026-04-11T13:15:55.961Z</time></trkpt><trkpt lat="45.456063" lon="7.7141327"><ele>941.0</ele><time>2026-04-11T13:15:56.957Z</time></trkpt><trkpt lat="45.4560971" lon="7.7142336"><ele>940.9999999999999</ele><time>2026-04-11T13:15:57.952Z</time></trkpt><trkpt lat="45.4561315" lon="7.7143213"><ele>940.9999999999999</ele><time>2026-04-11T13:15:58.959Z</time></trkpt><trkpt lat="45.4561662" lon="7.7144003"><ele>941.0</ele><time>2026-04-11T13:15:59.962Z</time></trkpt><trkpt lat="45.4562026" lon="7.7144786"><ele>940.9999999999999</ele><time>2026-04-11T13:16:00.959Z</time></trkpt><trkpt lat="45.4562445" lon="7.7145569"><ele>940.9999999999999</ele><time>2026-04-11T13:16:01.95Z</time></trkpt><trkpt lat="45.4562849" lon="7.7146276"><ele>939.5999999999999</ele><time>2026-04-11T13:16:02.97Z</time></trkpt><trkpt lat="45.4563734" lon="7.7147043"><ele>938.1999999999999</ele><time>2026-04-11T13:16:04.96Z</time></trkpt><trkpt lat="45.4564694" lon="7.7146649"><ele>936.8000000000001</ele><time>2026-04-11T13:16:06.96Z</time></trkpt><trkpt lat="45.4565258" lon="7.7146183"><ele>935.4000000000001</ele><time>2026-04-11T13:16:07.965Z</time></trkpt><trkpt lat="45.456637" lon="7.7145701"><ele>934.0</ele><time>2026-04-11T13:16:09.966Z</time></trkpt><trkpt lat="45.4567413" lon="7.7145434"><ele>934.0</ele><time>2026-04-11T13:16:11.966Z</time></trkpt><trkpt lat="45.4568599" lon="7.7144817"><ele>934.0000000000001</ele><time>2026-04-11T13:16:13.959Z</time></trkpt><trkpt lat="45.4569953" lon="7.7145236"><ele>934.0000000000001</ele><time>2026-04-11T13:16:15.959Z</time></trkpt><trkpt lat="45.4570602" lon="7.7145929"><ele>934.0</ele><time>2026-04-11T13:16:16.959Z</time></trkpt><trkpt lat="45.4571147" lon="7.7146665"><ele>934.0</ele><time>2026-04-11T13:16:17.96Z</time></trkpt><trkpt lat="45.4571745" lon="7.7147431"><ele>932.1666666666666</ele><time>2026-04-11T13:16:18.959Z</time></trkpt><trkpt lat="45.4572493" lon="7.7148005"><ele>930.3333333333333</ele><time>2026-04-11T13:16:19.96Z</time></trkpt><trkpt lat="45.45732" lon="7.7148416"><ele>928.5</ele><time>2026-04-11T13:16:20.961Z</time></trkpt><trkpt lat="45.4573803" lon="7.714895"><ele>926.6666666666667</ele><time>2026-04-11T13:16:21.951Z</time></trkpt><trkpt lat="45.4574312" lon="7.7149587"><ele>924.8333333333334</ele><time>2026-04-11T13:16:22.962Z</time></trkpt><trkpt lat="45.4574974" lon="7.71509"><ele>923.0</ele><time>2026-04-11T13:16:24.96Z</time></trkpt><trkpt lat="45.4575616" lon="7.7151824"><ele>923.0000000000001</ele><time>2026-04-11T13:16:26.961Z</time></trkpt><trkpt lat="45.4576748" lon="7.7151529"><ele>923.0</ele><time>2026-04-11T13:16:28.961Z</time></trkpt><trkpt lat="45.4577466" lon="7.7151369"><ele>923.0</ele><time>2026-04-11T13:16:29.955Z</time></trkpt><trkpt lat="45.4578195" lon="7.7151368"><ele>923.0</ele><time>2026-04-11T13:16:30.964Z</time></trkpt><trkpt lat="45.4578974" lon="7.715146"><ele>923.0000000000001</ele><time>2026-04-11T13:16:31.959Z</time></trkpt><trkpt lat="45.4579774" lon="7.715141"><ele>923.0</ele><time>2026-04-11T13:16:32.955Z</time></trkpt><trkpt lat="45.4580529" lon="7.715154"><ele>921.5714285714286</ele><time>2026-04-11T13:16:33.965Z</time></trkpt><trkpt lat="45.45812" lon="7.7151851"><ele>920.1428571428571</ele><time>2026-04-11T13:16:34.962Z</time></trkpt><trkpt lat="45.4581747" lon="7.7152378"><ele>918.7142857142857</ele><time>2026-04-11T13:16:35.953Z</time></trkpt><trkpt lat="45.4582246" lon="7.7153109"><ele>917.2857142857142</ele><time>2026-04-11T13:16:36.954Z</time></trkpt><trkpt lat="45.4582627" lon="7.7154086"><ele>915.8571428571429</ele><time>2026-04-11T13:16:37.947Z</time></trkpt><trkpt lat="45.4582842" lon="7.7155031"><ele>914.4285714285713</ele><time>2026-04-11T13:16:38.954Z</time></trkpt><trkpt lat="45.4583036" lon="7.7155995"><ele>912.9999999999999</ele><time>2026-04-11T13:16:39.959Z</time></trkpt><trkpt lat="45.4583104" lon="7.7156912"><ele>912.9999999999999</ele><time>2026-04-11T13:16:40.965Z</time></trkpt><trkpt lat="45.4583006" lon="7.7157849"><ele>913.0</ele><time>2026-04-11T13:16:41.96Z</time></trkpt><trkpt lat="45.4582808" lon="7.7158793"><ele>912.9999999999999</ele><time>2026-04-11T13:16:42.958Z</time></trkpt><trkpt lat="45.4582548" lon="7.7159714"><ele>912.9999999999999</ele><time>2026-04-11T13:16:43.969Z</time></trkpt><trkpt lat="45.4582249" lon="7.716053"><ele>913.0</ele><time>2026-04-11T13:16:44.966Z</time></trkpt><trkpt lat="45.4581976" lon="7.7161444"><ele>912.9999999999999</ele><time>2026-04-11T13:16:45.962Z</time></trkpt><trkpt lat="45.4581747" lon="7.7162592"><ele>912.9999999999999</ele><time>2026-04-11T13:16:46.962Z</time></trkpt><trkpt lat="45.4581555" lon="7.7163678"><ele>912.1666666666666</ele><time>2026-04-11T13:16:47.959Z</time></trkpt><trkpt lat="45.4581388" lon="7.7164765"><ele>911.3333333333333</ele><time>2026-04-11T13:16:48.953Z</time></trkpt><trkpt lat="45.4581196" lon="7.7165794"><ele>910.5</ele><time>2026-04-11T13:16:49.95Z</time></trkpt><trkpt lat="45.4581075" lon="7.7166836"><ele>909.6666666666667</ele><time>2026-04-11T13:16:50.957Z</time></trkpt><trkpt lat="45.458107" lon="7.7167956"><ele>908.8333333333334</ele><time>2026-04-11T13:16:51.967Z</time></trkpt><trkpt lat="45.4581123" lon="7.7168966"><ele>908.0</ele><time>2026-04-11T13:16:53.034Z</time></trkpt><trkpt lat="45.4581752" lon="7.7170624"><ele>907.6666666666667</ele><time>2026-04-11T13:16:54.954Z</time></trkpt><trkpt lat="45.4582168" lon="7.7171444"><ele>907.3333333333334</ele><time>2026-04-11T13:16:55.953Z</time></trkpt><trkpt lat="45.4582587" lon="7.7172131"><ele>907.0</ele><time>2026-04-11T13:16:57.05Z</time></trkpt><trkpt lat="45.4582939" lon="7.7173584"><ele>906.6666666666667</ele><time>2026-04-11T13:16:58.953Z</time></trkpt><trkpt lat="45.4583063" lon="7.7175296"><ele>906.3333333333334</ele><time>2026-04-11T13:17:01.028Z</time></trkpt><trkpt lat="45.4583054" lon="7.7176263"><ele>906.0</ele><time>2026-04-11T13:17:02.024Z</time></trkpt><trkpt lat="45.4582999" lon="7.7177264"><ele>904.7142857142856</ele><time>2026-04-11T13:17:03.016Z</time></trkpt><trkpt lat="45.4582931" lon="7.7178303"><ele>903.4285714285713</ele><time>2026-04-11T13:17:04.014Z</time></trkpt><trkpt lat="45.4582753" lon="7.7179302"><ele>902.1428571428571</ele><time>2026-04-11T13:17:04.948Z</time></trkpt><trkpt lat="45.4582635" lon="7.7180319"><ele>900.8571428571428</ele><time>2026-04-11T13:17:06.031Z</time></trkpt><trkpt lat="45.458243" lon="7.7181228"><ele>899.5714285714284</ele><time>2026-04-11T13:17:07.029Z</time></trkpt><trkpt lat="45.4582148" lon="7.7182129"><ele>898.2857142857143</ele><time>2026-04-11T13:17:08.03Z</time></trkpt><trkpt lat="45.4581855" lon="7.7183005"><ele>897.0</ele><time>2026-04-11T13:17:09.036Z</time></trkpt><trkpt lat="45.4581537" lon="7.7183929"><ele>897.0</ele><time>2026-04-11T13:17:09.955Z</time></trkpt><trkpt lat="45.4581148" lon="7.7184823"><ele>897.0</ele><time>2026-04-11T13:17:11.018Z</time></trkpt><trkpt lat="45.4580753" lon="7.7185664"><ele>897.0</ele><time>2026-04-11T13:17:12.026Z</time></trkpt><trkpt lat="45.458035" lon="7.7186463"><ele>897.0</ele><time>2026-04-11T13:17:13.017Z</time></trkpt><trkpt lat="45.4579925" lon="7.7187166"><ele>897.0</ele><time>2026-04-11T13:17:14.03Z</time></trkpt><trkpt lat="45.4579418" lon="7.7187729"><ele>897.0</ele><time>2026-04-11T13:17:14.942Z</time></trkpt><trkpt lat="45.4578741" lon="7.7188258"><ele>897.0</ele><time>2026-04-11T13:17:15.952Z</time></trkpt><trkpt lat="45.4578069" lon="7.7188561"><ele>897.3333333333334</ele><time>2026-04-11T13:17:16.954Z</time></trkpt><trkpt lat="45.4577368" lon="7.7188687"><ele>897.6666666666667</ele><time>2026-04-11T13:17:17.951Z</time></trkpt><trkpt lat="45.4576641" lon="7.7188708"><ele>898.0</ele><time>2026-04-11T13:17:18.954Z</time></trkpt><trkpt lat="45.4575842" lon="7.7188594"><ele>898.3333333333334</ele><time>2026-04-11T13:17:19.959Z</time></trkpt><trkpt lat="45.4575154" lon="7.7188453"><ele>898.6666666666667</ele><time>2026-04-11T13:17:20.96Z</time></trkpt><trkpt lat="45.457445" lon="7.7188326"><ele>899.0</ele><time>2026-04-11T13:17:22.026Z</time></trkpt><trkpt lat="45.4573386" lon="7.7188168"><ele>899.0000000000001</ele><time>2026-04-11T13:17:23.964Z</time></trkpt><trkpt lat="45.4572756" lon="7.7188972"><ele>899.0</ele><time>2026-04-11T13:17:25.957Z</time></trkpt><trkpt lat="45.4572389" lon="7.7189726"><ele>899.0</ele><time>2026-04-11T13:17:26.959Z</time></trkpt><trkpt lat="45.4571898" lon="7.7190576"><ele>899.0</ele><time>2026-04-11T13:17:27.963Z</time></trkpt><trkpt lat="45.4571192" lon="7.7191516"><ele>899.0000000000001</ele><time>2026-04-11T13:17:28.956Z</time></trkpt><trkpt lat="45.457054" lon="7.7192363"><ele>899.0</ele><time>2026-04-11T13:17:29.954Z</time></trkpt><trkpt lat="45.4569824" lon="7.7193207"><ele>900.5000000000001</ele><time>2026-04-11T13:17:30.957Z</time></trkpt><trkpt lat="45.4569202" lon="7.7194167"><ele>902.0</ele><time>2026-04-11T13:17:31.957Z</time></trkpt><trkpt lat="45.4568627" lon="7.7195158"><ele>903.5</ele><time>2026-04-11T13:17:32.959Z</time></trkpt><trkpt lat="45.4568205" lon="7.719614"><ele>905.0</ele><time>2026-04-11T13:17:33.957Z</time></trkpt><trkpt lat="45.4567823" lon="7.7197184"><ele>906.5000000000001</ele><time>2026-04-11T13:17:34.943Z</time></trkpt><trkpt lat="45.456745" lon="7.7198268"><ele>908.0</ele><time>2026-04-11T13:17:35.945Z</time></trkpt><trkpt lat="45.4567097" lon="7.7199341"><ele>908.0000000000001</ele><time>2026-04-11T13:17:36.971Z</time></trkpt><trkpt lat="45.456672" lon="7.7200367"><ele>908.0</ele><time>2026-04-11T13:17:37.958Z</time></trkpt><trkpt lat="45.4566279" lon="7.7201373"><ele>908.0</ele><time>2026-04-11T13:17:39.037Z</time></trkpt><trkpt lat="45.4565782" lon="7.7202216"><ele>908.0</ele><time>2026-04-11T13:17:39.955Z</time></trkpt><trkpt lat="45.4565256" lon="7.720292"><ele>908.0000000000001</ele><time>2026-04-11T13:17:40.957Z</time></trkpt><trkpt lat="45.4564658" lon="7.7203633"><ele>908.0</ele><time>2026-04-11T13:17:41.949Z</time></trkpt><trkpt lat="45.456412" lon="7.7204261"><ele>906.5000000000001</ele><time>2026-04-11T13:17:43.04Z</time></trkpt><trkpt lat="45.456358" lon="7.7204837"><ele>905.0</ele><time>2026-04-11T13:17:44.032Z</time></trkpt><trkpt lat="45.4562954" lon="7.7205305"><ele>903.5</ele><time>2026-04-11T13:17:44.975Z</time></trkpt><trkpt lat="45.4562153" lon="7.7205706"><ele>902.0</ele><time>2026-04-11T13:17:46.029Z</time></trkpt><trkpt lat="45.4561276" lon="7.7206055"><ele>900.5000000000001</ele><time>2026-04-11T13:17:46.976Z</time></trkpt><trkpt lat="45.4560441" lon="7.7206368"><ele>899.0</ele><time>2026-04-11T13:17:47.977Z</time></trkpt><trkpt lat="45.4559568" lon="7.7206668"><ele>899.0000000000001</ele><time>2026-04-11T13:17:49.033Z</time></trkpt><trkpt lat="45.4558787" lon="7.720691"><ele>899.0</ele><time>2026-04-11T13:17:49.961Z</time></trkpt><trkpt lat="45.4558029" lon="7.7207126"><ele>899.0</ele><time>2026-04-11T13:17:50.963Z</time></trkpt><trkpt lat="45.4557256" lon="7.7207436"><ele>899.0</ele><time>2026-04-11T13:17:51.977Z</time></trkpt><trkpt lat="45.4556432" lon="7.7207719"><ele>899.0000000000001</ele><time>2026-04-11T13:17:53.022Z</time></trkpt><trkpt lat="45.4555667" lon="7.7208088"><ele>899.0</ele><time>2026-04-11T13:17:53.978Z</time></trkpt><trkpt lat="45.4554923" lon="7.7208359"><ele>900.0000000000001</ele><time>2026-04-11T13:17:54.955Z</time></trkpt><trkpt lat="45.455417" lon="7.7208677"><ele>901.0</ele><time>2026-04-11T13:17:55.958Z</time></trkpt><trkpt lat="45.4553398" lon="7.7208968"><ele>902.0</ele><time>2026-04-11T13:17:57.002Z</time></trkpt><trkpt lat="45.4552588" lon="7.7209226"><ele>903.0</ele><time>2026-04-11T13:17:57.992Z</time></trkpt><trkpt lat="45.4551771" lon="7.7209421"><ele>904.0000000000001</ele><time>2026-04-11T13:17:58.96Z</time></trkpt><trkpt lat="45.4550997" lon="7.7209544"><ele>905.0</ele><time>2026-04-11T13:17:59.959Z</time></trkpt><trkpt lat="45.4550222" lon="7.7209625"><ele>905.0</ele><time>2026-04-11T13:18:00.954Z</time></trkpt><trkpt lat="45.4549467" lon="7.7209696"><ele>904.9999999999999</ele><time>2026-04-11T13:18:01.957Z</time></trkpt><trkpt lat="45.4548723" lon="7.7209811"><ele>905.0</ele><time>2026-04-11T13:18:02.958Z</time></trkpt><trkpt lat="45.4548025" lon="7.7209914"><ele>905.0</ele><time>2026-04-11T13:18:03.988Z</time></trkpt><trkpt lat="45.4547307" lon="7.7209981"><ele>904.9999999999999</ele><time>2026-04-11T13:18:04.955Z</time></trkpt><trkpt lat="45.4546594" lon="7.7209964"><ele>905.0</ele><time>2026-04-11T13:18:05.96Z</time></trkpt><trkpt lat="45.4545958" lon="7.7209914"><ele>905.0</ele><time>2026-04-11T13:18:06.963Z</time></trkpt><trkpt lat="45.4544844" lon="7.720969"><ele>902.0</ele><time>2026-04-11T13:18:08.956Z</time></trkpt><trkpt lat="45.454383" lon="7.7209251"><ele>899.0</ele><time>2026-04-11T13:18:11.032Z</time></trkpt><trkpt lat="45.4543246" lon="7.7208401"><ele>896.0</ele><time>2026-04-11T13:18:12.953Z</time></trkpt><trkpt lat="45.4542927" lon="7.7207044"><ele>893.0</ele><time>2026-04-11T13:18:14.95Z</time></trkpt><trkpt lat="45.4542678" lon="7.7205676"><ele>890.0</ele><time>2026-04-11T13:18:17.044Z</time></trkpt><trkpt lat="45.4542361" lon="7.7204289"><ele>890.0</ele><time>2026-04-11T13:18:18.964Z</time></trkpt><trkpt lat="45.4541831" lon="7.7203103"><ele>890.0</ele><time>2026-04-11T13:18:20.965Z</time></trkpt><trkpt lat="45.4540857" lon="7.7202898"><ele>890.0</ele><time>2026-04-11T13:18:22.962Z</time></trkpt><trkpt lat="45.4539758" lon="7.7202775"><ele>890.0</ele><time>2026-04-11T13:18:24.963Z</time></trkpt><trkpt lat="45.4538667" lon="7.7202229"><ele>890.0</ele><time>2026-04-11T13:18:26.963Z</time></trkpt><trkpt lat="45.4537651" lon="7.7201801"><ele>889.8333333333334</ele><time>2026-04-11T13:18:28.976Z</time></trkpt><trkpt lat="45.4536651" lon="7.7201403"><ele>889.6666666666667</ele><time>2026-04-11T13:18:30.963Z</time></trkpt><trkpt lat="45.453597" lon="7.7201177"><ele>889.5</ele><time>2026-04-11T13:18:32.962Z</time></trkpt><trkpt lat="45.4535984" lon="7.7200014"><ele>889.3333333333333</ele><time>2026-04-11T13:18:35.954Z</time></trkpt><trkpt lat="45.4536313" lon="7.7198943"><ele>889.1666666666666</ele><time>2026-04-11T13:18:37.963Z</time></trkpt><trkpt lat="45.4537062" lon="7.7198163"><ele>889.0</ele><time>2026-04-11T13:18:39.959Z</time></trkpt><trkpt lat="45.4537718" lon="7.7198"><ele>892.6</ele><time>2026-04-11T13:18:40.958Z</time></trkpt><trkpt lat="45.4538701" lon="7.7197686"><ele>896.2</ele><time>2026-04-11T13:18:42.962Z</time></trkpt><trkpt lat="45.4539643" lon="7.7196919"><ele>899.8000000000001</ele><time>2026-04-11T13:18:43.965Z</time></trkpt><trkpt lat="45.4540761" lon="7.7195953"><ele>903.4000000000001</ele><time>2026-04-11T13:18:44.964Z</time></trkpt><trkpt lat="45.4541677" lon="7.7195126"><ele>907.0</ele><time>2026-04-11T13:18:45.964Z</time></trkpt><trkpt lat="45.4542276" lon="7.7194527"><ele>906.9999999999999</ele><time>2026-04-11T13:18:46.963Z</time></trkpt><trkpt lat="45.4542924" lon="7.7194057"><ele>907.0</ele><time>2026-04-11T13:18:47.961Z</time></trkpt><trkpt lat="45.4543844" lon="7.719317"><ele>907.0</ele><time>2026-04-11T13:18:49.963Z</time></trkpt><trkpt lat="45.4544681" lon="7.7192338"><ele>907.0</ele><time>2026-04-11T13:18:51.968Z</time></trkpt><trkpt lat="45.4545278" lon="7.7191803"><ele>906.9999999999999</ele><time>2026-04-11T13:18:53.97Z</time></trkpt><trkpt lat="45.4545794" lon="7.7191179"><ele>907.0</ele><time>2026-04-11T13:18:55.97Z</time></trkpt><trkpt lat="45.454672" lon="7.7190541"><ele>912.4000000000001</ele><time>2026-04-11T13:18:57.959Z</time></trkpt><trkpt lat="45.4547737" lon="7.719033"><ele>917.8000000000001</ele><time>2026-04-11T13:18:59.962Z</time></trkpt><trkpt lat="45.4548842" lon="7.7190109"><ele>923.2</ele><time>2026-04-11T13:19:01.966Z</time></trkpt><trkpt lat="45.4549972" lon="7.7190246"><ele>928.6</ele><time>2026-04-11T13:19:03.961Z</time></trkpt><trkpt lat="45.4550911" lon="7.7190189"><ele>934.0</ele><time>2026-04-11T13:19:05.964Z</time></trkpt><trkpt lat="45.455153" lon="7.7189288"><ele>933.9999999999999</ele><time>2026-04-11T13:19:07.975Z</time></trkpt><trkpt lat="45.4552067" lon="7.7187961"><ele>934.0</ele><time>2026-04-11T13:19:09.963Z</time></trkpt><trkpt lat="45.4552467" lon="7.7187234"><ele>934.0</ele><time>2026-04-11T13:19:10.969Z</time></trkpt><trkpt lat="45.45529" lon="7.7186396"><ele>934.0</ele><time>2026-04-11T13:19:11.965Z</time></trkpt><trkpt lat="45.4553394" lon="7.7185686"><ele>933.9999999999999</ele><time>2026-04-11T13:19:12.963Z</time></trkpt><trkpt lat="45.4553963" lon="7.7184921"><ele>934.0</ele><time>2026-04-11T13:19:13.965Z</time></trkpt><trkpt lat="45.4554636" lon="7.7184097"><ele>935.3333333333333</ele><time>2026-04-11T13:19:14.973Z</time></trkpt><trkpt lat="45.4555312" lon="7.7183331"><ele>936.6666666666666</ele><time>2026-04-11T13:19:15.964Z</time></trkpt><trkpt lat="45.4555986" lon="7.7182584"><ele>938.0</ele><time>2026-04-11T13:19:16.964Z</time></trkpt><trkpt lat="45.455668" lon="7.7181802"><ele>939.3333333333333</ele><time>2026-04-11T13:19:17.965Z</time></trkpt><trkpt lat="45.4557294" lon="7.7180978"><ele>940.6666666666666</ele><time>2026-04-11T13:19:18.96Z</time></trkpt><trkpt lat="45.4557856" lon="7.7180239"><ele>942.0</ele><time>2026-04-11T13:19:19.959Z</time></trkpt><trkpt lat="45.4558405" lon="7.717954"><ele>942.0</ele><time>2026-04-11T13:19:20.964Z</time></trkpt><trkpt lat="45.4558961" lon="7.7178874"><ele>942.0</ele><time>2026-04-11T13:19:21.959Z</time></trkpt><trkpt lat="45.4559449" lon="7.7178305"><ele>942.0</ele><time>2026-04-11T13:19:22.963Z</time></trkpt><trkpt lat="45.4560224" lon="7.7177022"><ele>942.0</ele><time>2026-04-11T13:19:24.968Z</time></trkpt><trkpt lat="45.4560801" lon="7.7175778"><ele>942.0</ele><time>2026-04-11T13:19:26.973Z</time></trkpt><trkpt lat="45.4560947" lon="7.7174651"><ele>942.0</ele><time>2026-04-11T13:19:28.97Z</time></trkpt><trkpt lat="45.4561227" lon="7.717339"><ele>942.4285714285716</ele><time>2026-04-11T13:22:48.966Z</time></trkpt><trkpt lat="45.4561186" lon="7.7172423"><ele>942.8571428571429</ele><time>2026-04-11T13:23:12.964Z</time></trkpt><trkpt lat="45.4561363" lon="7.7171525"><ele>943.2857142857143</ele><time>2026-04-11T13:23:18.968Z</time></trkpt><trkpt lat="45.4561341" lon="7.7172525"><ele>943.7142857142858</ele><time>2026-04-11T13:23:42.967Z</time></trkpt><trkpt lat="45.4561138" lon="7.7173409"><ele>944.1428571428571</ele><time>2026-04-11T13:24:08.955Z</time></trkpt><trkpt lat="45.4560997" lon="7.7172232"><ele>944.5714285714286</ele><time>2026-04-11T13:27:12.035Z</time></trkpt><trkpt lat="45.4560851" lon="7.7171174"><ele>945.0</ele><time>2026-04-11T13:27:13.023Z</time></trkpt><trkpt lat="45.4560712" lon="7.7170033"><ele>944.1666666666666</ele><time>2026-04-11T13:27:13.968Z</time></trkpt><trkpt lat="45.4560574" lon="7.7168781"><ele>943.3333333333333</ele><time>2026-04-11T13:27:14.963Z</time></trkpt><trkpt lat="45.4560491" lon="7.7167443"><ele>942.5</ele><time>2026-04-11T13:27:15.968Z</time></trkpt><trkpt lat="45.4560457" lon="7.7166204"><ele>941.6666666666666</ele><time>2026-04-11T13:27:16.967Z</time></trkpt><trkpt lat="45.456046" lon="7.7165052"><ele>940.8333333333333</ele><time>2026-04-11T13:27:17.967Z</time></trkpt><trkpt lat="45.4560501" lon="7.7163972"><ele>940.0</ele><time>2026-04-11T13:27:18.969Z</time></trkpt><trkpt lat="45.4560544" lon="7.7162968"><ele>940.0</ele><time>2026-04-11T13:27:19.965Z</time></trkpt><trkpt lat="45.4560557" lon="7.7161953"><ele>939.9999999999999</ele><time>2026-04-11T13:27:20.976Z</time></trkpt><trkpt lat="45.4560591" lon="7.7160988"><ele>940.0</ele><time>2026-04-11T13:27:21.98Z</time></trkpt><trkpt lat="45.4560609" lon="7.7160012"><ele>940.0</ele><time>2026-04-11T13:27:22.97Z</time></trkpt><trkpt lat="45.4560588" lon="7.7159034"><ele>939.9999999999999</ele><time>2026-04-11T13:27:23.969Z</time></trkpt><trkpt lat="45.4560542" lon="7.7158118"><ele>940.0</ele><time>2026-04-11T13:27:24.967Z</time></trkpt><trkpt lat="45.4560502" lon="7.7157122"><ele>940.0</ele><time>2026-04-11T13:27:25.964Z</time></trkpt><trkpt lat="45.4560483" lon="7.7156038"><ele>939.2</ele><time>2026-04-11T13:27:26.964Z</time></trkpt><trkpt lat="45.456048" lon="7.7154765"><ele>938.4</ele><time>2026-04-11T13:27:28.032Z</time></trkpt><trkpt lat="45.4560461" lon="7.7153442"><ele>937.5999999999999</ele><time>2026-04-11T13:27:28.965Z</time></trkpt><trkpt lat="45.4560469" lon="7.7152035"><ele>936.8</ele><time>2026-04-11T13:27:29.965Z</time></trkpt><trkpt lat="45.4560465" lon="7.7150709"><ele>936.0</ele><time>2026-04-11T13:27:31Z</time></trkpt><trkpt lat="45.4560425" lon="7.7149432"><ele>936.0</ele><time>2026-04-11T13:27:32.029Z</time></trkpt><trkpt lat="45.4560396" lon="7.714826"><ele>936.0</ele><time>2026-04-11T13:27:32.959Z</time></trkpt><trkpt lat="45.4560354" lon="7.7147065"><ele>936.0</ele><time>2026-04-11T13:27:33.97Z</time></trkpt><trkpt lat="45.456031" lon="7.7145892"><ele>936.0</ele><time>2026-04-11T13:27:34.97Z</time></trkpt><trkpt lat="45.4560287" lon="7.7144713"><ele>936.0</ele><time>2026-04-11T13:27:36.038Z</time></trkpt><trkpt lat="45.4560249" lon="7.7143596"><ele>936.0</ele><time>2026-04-11T13:27:36.974Z</time></trkpt><trkpt lat="45.4560261" lon="7.7142481"><ele>936.7142857142858</ele><time>2026-04-11T13:27:37.967Z</time></trkpt><trkpt lat="45.4560161" lon="7.7141391"><ele>937.4285714285716</ele><time>2026-04-11T13:27:38.964Z</time></trkpt><trkpt lat="45.4559964" lon="7.7140382"><ele>938.1428571428571</ele><time>2026-04-11T13:27:39.963Z</time></trkpt><trkpt lat="45.4559714" lon="7.7139398"><ele>938.8571428571429</ele><time>2026-04-11T13:27:41.048Z</time></trkpt><trkpt lat="45.4559344" lon="7.7138599"><ele>939.5714285714286</ele><time>2026-04-11T13:27:41.964Z</time></trkpt><trkpt lat="45.455886" lon="7.7137837"><ele>940.2857142857142</ele><time>2026-04-11T13:27:43.027Z</time></trkpt><trkpt lat="45.4558357" lon="7.7137092"><ele>940.9999999999999</ele><time>2026-04-11T13:27:43.962Z</time></trkpt><trkpt lat="45.4557837" lon="7.713619"><ele>941.3333333333334</ele><time>2026-04-11T13:27:44.967Z</time></trkpt><trkpt lat="45.4557397" lon="7.7135136"><ele>941.6666666666667</ele><time>2026-04-11T13:27:45.967Z</time></trkpt><trkpt lat="45.4556925" lon="7.7134069"><ele>942.0</ele><time>2026-04-11T13:27:47.03Z</time></trkpt><trkpt lat="45.455645" lon="7.7132982"><ele>942.3333333333333</ele><time>2026-04-11T13:27:48.025Z</time></trkpt><trkpt lat="45.4555948" lon="7.7131902"><ele>942.6666666666666</ele><time>2026-04-11T13:27:48.967Z</time></trkpt><trkpt lat="45.4555478" lon="7.7130779"><ele>943.0</ele><time>2026-04-11T13:27:49.967Z</time></trkpt><trkpt lat="45.4555059" lon="7.7129671"><ele>942.9999999999999</ele><time>2026-04-11T13:27:50.988Z</time></trkpt><trkpt lat="45.4554696" lon="7.7128538"><ele>943.0</ele><time>2026-04-11T13:27:52.034Z</time></trkpt><trkpt lat="45.455437" lon="7.7127412"><ele>943.0</ele><time>2026-04-11T13:27:53.034Z</time></trkpt><trkpt lat="45.4554018" lon="7.7126399"><ele>943.0</ele><time>2026-04-11T13:27:53.966Z</time></trkpt><trkpt lat="45.4553592" lon="7.7125483"><ele>942.9999999999999</ele><time>2026-04-11T13:27:54.975Z</time></trkpt><trkpt lat="45.4553067" lon="7.7124811"><ele>943.0</ele><time>2026-04-11T13:27:55.974Z</time></trkpt><trkpt lat="45.455246" lon="7.7124321"><ele>943.3333333333333</ele><time>2026-04-11T13:27:56.968Z</time></trkpt><trkpt lat="45.4551749" lon="7.7123864"><ele>943.6666666666666</ele><time>2026-04-11T13:27:57.965Z</time></trkpt><trkpt lat="45.455108" lon="7.7123521"><ele>944.0</ele><time>2026-04-11T13:27:58.971Z</time></trkpt><trkpt lat="45.455005" lon="7.7123444"><ele>944.3333333333333</ele><time>2026-04-11T13:28:01.029Z</time></trkpt><trkpt lat="45.4549197" lon="7.7123289"><ele>944.6666666666666</ele><time>2026-04-11T13:28:02.975Z</time></trkpt><trkpt lat="45.454825" lon="7.7122889"><ele>945.0</ele><time>2026-04-11T13:28:04.964Z</time></trkpt><trkpt lat="45.4547141" lon="7.7121978"><ele>945.0</ele><time>2026-04-11T13:28:06.971Z</time></trkpt><trkpt lat="45.4546643" lon="7.7121167"><ele>945.0</ele><time>2026-04-11T13:28:07.969Z</time></trkpt><trkpt lat="45.4546145" lon="7.7120249"><ele>945.0</ele><time>2026-04-11T13:28:08.974Z</time></trkpt><trkpt lat="45.4545679" lon="7.711932"><ele>945.0</ele><time>2026-04-11T13:28:10.03Z</time></trkpt><trkpt lat="45.4545255" lon="7.7118469"><ele>945.0</ele><time>2026-04-11T13:28:11.031Z</time></trkpt><trkpt lat="45.4544969" lon="7.7117644"><ele>945.0</ele><time>2026-04-11T13:28:11.971Z</time></trkpt><trkpt lat="45.4544756" lon="7.7116751"><ele>945.0</ele><time>2026-04-11T13:28:12.955Z</time></trkpt><trkpt lat="45.454454" lon="7.7115731"><ele>945.1666666666666</ele><time>2026-04-11T13:28:13.974Z</time></trkpt><trkpt lat="45.4544339" lon="7.711485"><ele>945.3333333333333</ele><time>2026-04-11T13:28:14.968Z</time></trkpt><trkpt lat="45.4543797" lon="7.7113756"><ele>945.5</ele><time>2026-04-11T13:28:16.969Z</time></trkpt><trkpt lat="45.4543201" lon="7.7112741"><ele>945.6666666666666</ele><time>2026-04-11T13:28:18.975Z</time></trkpt><trkpt lat="45.4542876" lon="7.7111779"><ele>945.8333333333333</ele><time>2026-04-11T13:28:20.972Z</time></trkpt><trkpt lat="45.4542844" lon="7.7110651"><ele>946.0</ele><time>2026-04-11T13:28:22.969Z</time></trkpt><trkpt lat="45.4542857" lon="7.7109511"><ele>946.8333333333333</ele><time>2026-04-11T13:28:24.976Z</time></trkpt><trkpt lat="45.4542739" lon="7.7108466"><ele>947.6666666666666</ele><time>2026-04-11T13:28:26.973Z</time></trkpt><trkpt lat="45.4542513" lon="7.7107352"><ele>948.5</ele><time>2026-04-11T13:28:28.967Z</time></trkpt><trkpt lat="45.4542145" lon="7.7106151"><ele>949.3333333333333</ele><time>2026-04-11T13:28:30.959Z</time></trkpt><trkpt lat="45.4541797" lon="7.7105398"><ele>950.1666666666666</ele><time>2026-04-11T13:28:31.975Z</time></trkpt><trkpt lat="45.4541496" lon="7.7104593"><ele>951.0</ele><time>2026-04-11T13:28:32.968Z</time></trkpt><trkpt lat="45.4541028" lon="7.7103064"><ele>951.8</ele><time>2026-04-11T13:28:34.967Z</time></trkpt><trkpt lat="45.454055" lon="7.7101603"><ele>952.5999999999999</ele><time>2026-04-11T13:28:36.964Z</time></trkpt><trkpt lat="45.4539905" lon="7.7100533"><ele>953.4</ele><time>2026-04-11T13:28:38.963Z</time></trkpt><trkpt lat="45.4538984" lon="7.7099658"><ele>954.2</ele><time>2026-04-11T13:28:40.975Z</time></trkpt><trkpt lat="45.4538046" lon="7.7099074"><ele>955.0</ele><time>2026-04-11T13:28:42.973Z</time></trkpt><trkpt lat="45.4537315" lon="7.7098174"><ele>954.25</ele><time>2026-04-11T13:28:44.969Z</time></trkpt><trkpt lat="45.4536582" lon="7.7096802"><ele>953.5</ele><time>2026-04-11T13:28:46.973Z</time></trkpt><trkpt lat="45.453598" lon="7.7095277"><ele>952.75</ele><time>2026-04-11T13:28:48.961Z</time></trkpt><trkpt lat="45.4535506" lon="7.7093833"><ele>952.0</ele><time>2026-04-11T13:28:51.032Z</time></trkpt><trkpt lat="45.4535133" lon="7.7092332"><ele>952.0</ele><time>2026-04-11T13:28:52.967Z</time></trkpt><trkpt lat="45.4534646" lon="7.7090897"><ele>952.0</ele><time>2026-04-11T13:28:54.975Z</time></trkpt><trkpt lat="45.4533945" lon="7.7089627"><ele>952.0</ele><time>2026-04-11T13:28:56.976Z</time></trkpt><trkpt lat="45.4533427" lon="7.7088194"><ele>952.0</ele><time>2026-04-11T13:28:58.969Z</time></trkpt><trkpt lat="45.4533026" lon="7.7086879"><ele>952.0</ele><time>2026-04-11T13:29:00.976Z</time></trkpt><trkpt lat="45.4532604" lon="7.7085548"><ele>952.2</ele><time>2026-04-11T13:29:02.968Z</time></trkpt><trkpt lat="45.4532031" lon="7.7084269"><ele>952.4000000000001</ele><time>2026-04-11T13:29:04.97Z</time></trkpt><trkpt lat="45.453143" lon="7.7083023"><ele>952.5999999999999</ele><time>2026-04-11T13:29:07.042Z</time></trkpt><trkpt lat="45.4530788" lon="7.7082047"><ele>952.8</ele><time>2026-04-11T13:29:08.964Z</time></trkpt><trkpt lat="45.4529922" lon="7.7081955"><ele>953.0</ele><time>2026-04-11T13:29:10.955Z</time></trkpt><trkpt lat="45.4528951" lon="7.708253"><ele>953.0</ele><time>2026-04-11T13:29:13.022Z</time></trkpt><trkpt lat="45.4527894" lon="7.7083021"><ele>953.0</ele><time>2026-04-11T13:29:14.96Z</time></trkpt><trkpt lat="45.4526972" lon="7.7083522"><ele>953.0</ele><time>2026-04-11T13:29:16.96Z</time></trkpt><trkpt lat="45.4525988" lon="7.7083793"><ele>953.0</ele><time>2026-04-11T13:29:18.958Z</time></trkpt><trkpt lat="45.4525021" lon="7.7083603"><ele>953.0</ele><time>2026-04-11T13:29:20.961Z</time></trkpt><trkpt lat="45.4524299" lon="7.7082691"><ele>953.0000000000001</ele><time>2026-04-11T13:29:22.954Z</time></trkpt><trkpt lat="45.4523991" lon="7.7081561"><ele>953.0</ele><time>2026-04-11T13:29:24.954Z</time></trkpt><trkpt lat="45.4523717" lon="7.7080339"><ele>953.0</ele><time>2026-04-11T13:29:26.96Z</time></trkpt><trkpt lat="45.4523327" lon="7.7079328"><ele>953.0</ele><time>2026-04-11T13:29:28.959Z</time></trkpt><trkpt lat="45.4522254" lon="7.7079168"><ele>953.0000000000001</ele><time>2026-04-11T13:29:31.959Z</time></trkpt><trkpt lat="45.4521593" lon="7.7079314"><ele>953.0</ele><time>2026-04-11T13:29:32.961Z</time></trkpt><trkpt lat="45.452092" lon="7.707944"><ele>951.8</ele><time>2026-04-11T13:29:33.956Z</time></trkpt><trkpt lat="45.4520272" lon="7.707964"><ele>950.5999999999999</ele><time>2026-04-11T13:29:34.956Z</time></trkpt><trkpt lat="45.4519233" lon="7.7079987"><ele>949.4000000000001</ele><time>2026-04-11T13:29:36.968Z</time></trkpt><trkpt lat="45.4518348" lon="7.7079941"><ele>948.2</ele><time>2026-04-11T13:29:38.966Z</time></trkpt><trkpt lat="45.4517299" lon="7.7079604"><ele>947.0</ele><time>2026-04-11T13:29:40.963Z</time></trkpt><trkpt lat="45.4516062" lon="7.7079372"><ele>947.0</ele><time>2026-04-11T13:29:43.046Z</time></trkpt><trkpt lat="45.4514978" lon="7.707849"><ele>947.0</ele><time>2026-04-11T13:29:44.951Z</time></trkpt><trkpt lat="45.4514193" lon="7.707746"><ele>947.0</ele><time>2026-04-11T13:29:46.945Z</time></trkpt><trkpt lat="45.4513467" lon="7.7076073"><ele>947.0</ele><time>2026-04-11T13:29:48.942Z</time></trkpt><trkpt lat="45.451309" lon="7.7075182"><ele>947.0</ele><time>2026-04-11T13:29:49.956Z</time></trkpt><trkpt lat="45.4512466" lon="7.7073797"><ele>946.0</ele><time>2026-04-11T13:29:52.033Z</time></trkpt><trkpt lat="45.4511591" lon="7.7072623"><ele>945.0</ele><time>2026-04-11T13:29:53.973Z</time></trkpt><trkpt lat="45.4510729" lon="7.7071452"><ele>944.0</ele><time>2026-04-11T13:29:56.039Z</time></trkpt><trkpt lat="45.4509781" lon="7.7070408"><ele>943.0</ele><time>2026-04-11T13:29:58.03Z</time></trkpt><trkpt lat="45.45092" lon="7.706987"><ele>942.0</ele><time>2026-04-11T13:29:58.953Z</time></trkpt><trkpt lat="45.4508247" lon="7.7069139"><ele>941.8</ele><time>2026-04-11T13:30:00.956Z</time></trkpt><trkpt lat="45.4507383" lon="7.7068648"><ele>941.6</ele><time>2026-04-11T13:30:02.951Z</time></trkpt><trkpt lat="45.4506493" lon="7.7068338"><ele>941.3999999999999</ele><time>2026-04-11T13:30:04.947Z</time></trkpt><trkpt lat="45.450552" lon="7.7067899"><ele>941.1999999999999</ele><time>2026-04-11T13:30:06.963Z</time></trkpt><trkpt lat="45.4504873" lon="7.706748"><ele>941.0</ele><time>2026-04-11T13:30:07.961Z</time></trkpt><trkpt lat="45.4503975" lon="7.7066656"><ele>941.0</ele><time>2026-04-11T13:30:09.961Z</time></trkpt><trkpt lat="45.4503758" lon="7.7065649"><ele>940.9999999999999</ele><time>2026-04-11T13:30:12.96Z</time></trkpt><trkpt lat="45.4504206" lon="7.7064928"><ele>940.9999999999999</ele><time>2026-04-11T13:30:14.959Z</time></trkpt><trkpt lat="45.4504951" lon="7.7064189"><ele>941.0</ele><time>2026-04-11T13:30:17.029Z</time></trkpt><trkpt lat="45.4505731" lon="7.7063336"><ele>941.0</ele><time>2026-04-11T13:30:18.962Z</time></trkpt><trkpt lat="45.4506538" lon="7.7061997"><ele>946.1666666666667</ele><time>2026-04-11T13:30:20.949Z</time></trkpt><trkpt lat="45.4507329" lon="7.7060729"><ele>951.3333333333334</ele><time>2026-04-11T13:30:22.962Z</time></trkpt><trkpt lat="45.4507759" lon="7.7060047"><ele>956.5</ele><time>2026-04-11T13:30:23.959Z</time></trkpt><trkpt lat="45.4508539" lon="7.7058563"><ele>961.6666666666667</ele><time>2026-04-11T13:30:26.029Z</time></trkpt><trkpt lat="45.4508917" lon="7.7057827"><ele>966.8333333333334</ele><time>2026-04-11T13:30:27.031Z</time></trkpt><trkpt lat="45.4509342" lon="7.705709"><ele>972.0</ele><time>2026-04-11T13:30:27.954Z</time></trkpt><trkpt lat="45.4510131" lon="7.7055923"><ele>972.0</ele><time>2026-04-11T13:30:29.954Z</time></trkpt><trkpt lat="45.4510962" lon="7.7054568"><ele>972.0</ele><time>2026-04-11T13:30:31.957Z</time></trkpt><trkpt lat="45.4511481" lon="7.7053714"><ele>972.0</ele><time>2026-04-11T13:30:33.039Z</time></trkpt><trkpt lat="45.451215" lon="7.7052916"><ele>972.0</ele><time>2026-04-11T13:30:33.97Z</time></trkpt><trkpt lat="45.4512873" lon="7.7052268"><ele>972.0</ele><time>2026-04-11T13:30:34.966Z</time></trkpt><trkpt lat="45.4513556" lon="7.7051768"><ele>976.3333333333334</ele><time>2026-04-11T13:30:35.967Z</time></trkpt><trkpt lat="45.4514159" lon="7.7051248"><ele>980.6666666666667</ele><time>2026-04-11T13:30:37.038Z</time></trkpt><trkpt lat="45.4514755" lon="7.705067"><ele>985.0</ele><time>2026-04-11T13:30:38.039Z</time></trkpt><trkpt lat="45.4515411" lon="7.7050007"><ele>989.3333333333334</ele><time>2026-04-11T13:30:38.961Z</time></trkpt><trkpt lat="45.4515999" lon="7.7049267"><ele>993.6666666666667</ele><time>2026-04-11T13:30:40.037Z</time></trkpt><trkpt lat="45.4516495" lon="7.7048596"><ele>998.0</ele><time>2026-04-11T13:30:41.032Z</time></trkpt><trkpt lat="45.4517373" lon="7.7047459"><ele>998.0</ele><time>2026-04-11T13:30:42.995Z</time></trkpt><trkpt lat="45.4518343" lon="7.704658"><ele>998.0</ele><time>2026-04-11T13:30:45.033Z</time></trkpt><trkpt lat="45.4519101" lon="7.7045421"><ele>998.0</ele><time>2026-04-11T13:30:46.95Z</time></trkpt><trkpt lat="45.4519829" lon="7.7044263"><ele>998.0</ele><time>2026-04-11T13:30:48.969Z</time></trkpt><trkpt lat="45.4520673" lon="7.7043145"><ele>999.0</ele><time>2026-04-11T13:30:51.056Z</time></trkpt><trkpt lat="45.452117" lon="7.7042535"><ele>1000.0</ele><time>2026-04-11T13:30:51.996Z</time></trkpt><trkpt lat="45.4522016" lon="7.7041344"><ele>1001.0</ele><time>2026-04-11T13:30:53.968Z</time></trkpt><trkpt lat="45.4522657" lon="7.7039997"><ele>1002.0</ele><time>2026-04-11T13:30:55.981Z</time></trkpt><trkpt lat="45.4523115" lon="7.7038697"><ele>1003.0</ele><time>2026-04-11T13:30:58.039Z</time></trkpt><trkpt lat="45.4523734" lon="7.7037691"><ele>1003.4999999999999</ele><time>2026-04-11T13:30:59.958Z</time></trkpt><trkpt lat="45.4524369" lon="7.7036781"><ele>1004.0</ele><time>2026-04-11T13:31:01.95Z</time></trkpt><trkpt lat="45.4525105" lon="7.7035796"><ele>1004.5</ele><time>2026-04-11T13:31:03.041Z</time></trkpt><trkpt lat="45.4525662" lon="7.7034838"><ele>1005.0</ele><time>2026-04-11T13:31:06.027Z</time></trkpt><trkpt lat="45.4526594" lon="7.7034871"><ele>1005.4999999999999</ele><time>2026-04-11T13:31:08.939Z</time></trkpt><trkpt lat="45.4527131" lon="7.7034195"><ele>1006.0</ele><time>2026-04-11T13:31:10.943Z</time></trkpt><trkpt lat="45.4527663" lon="7.7032744"><ele>1006.8333333333333</ele><time>2026-04-11T13:31:12.943Z</time></trkpt><trkpt lat="45.4528154" lon="7.7030965"><ele>1007.6666666666666</ele><time>2026-04-11T13:31:15.027Z</time></trkpt><trkpt lat="45.4528448" lon="7.7030109"><ele>1008.5</ele><time>2026-04-11T13:31:16.008Z</time></trkpt><trkpt lat="45.4528848" lon="7.7029286"><ele>1009.3333333333333</ele><time>2026-04-11T13:31:16.925Z</time></trkpt><trkpt lat="45.45293" lon="7.7028519"><ele>1010.1666666666666</ele><time>2026-04-11T13:31:17.932Z</time></trkpt><trkpt lat="45.4529812" lon="7.7027818"><ele>1011.0</ele><time>2026-04-11T13:31:18.941Z</time></trkpt><trkpt lat="45.4530398" lon="7.7026612"><ele>1015.5</ele><time>2026-04-11T13:31:20.941Z</time></trkpt><trkpt lat="45.4530106" lon="7.7025171"><ele>1020.0</ele><time>2026-04-11T13:31:22.8Z</time></trkpt><trkpt lat="45.4529919" lon="7.7023359"><ele>1024.5</ele><time>2026-04-11T13:31:24.846Z</time></trkpt><trkpt lat="45.4530107" lon="7.7021045"><ele>1029.0</ele><time>2026-04-11T13:31:27.563Z</time></trkpt><trkpt lat="45.4530053" lon="7.7019251"><ele>1031.2</ele><time>2026-04-11T13:31:30.302Z</time></trkpt><trkpt lat="45.452935" lon="7.7018266"><ele>1033.4</ele><time>2026-04-11T13:31:32.307Z</time></trkpt><trkpt lat="45.4528275" lon="7.7017096"><ele>1035.6</ele><time>2026-04-11T13:31:34.376Z</time></trkpt><trkpt lat="45.4527666" lon="7.7016502"><ele>1037.8</ele><time>2026-04-11T13:31:35.373Z</time></trkpt><trkpt lat="45.4527011" lon="7.7015858"><ele>1040.0</ele><time>2026-04-11T13:31:36.309Z</time></trkpt><trkpt lat="45.4526314" lon="7.7015157"><ele>1040.0</ele><time>2026-04-11T13:31:37.31Z</time></trkpt><trkpt lat="45.4525642" lon="7.701442"><ele>1040.0</ele><time>2026-04-11T13:31:38.306Z</time></trkpt><trkpt lat="45.4525068" lon="7.7013752"><ele>1040.0</ele><time>2026-04-11T13:31:39.316Z</time></trkpt><trkpt lat="45.4524477" lon="7.7013182"><ele>1040.0</ele><time>2026-04-11T13:31:40.314Z</time></trkpt><trkpt lat="45.4523855" lon="7.7012742"><ele>1040.0</ele><time>2026-04-11T13:31:41.324Z</time></trkpt><trkpt lat="45.4523179" lon="7.7012272"><ele>1040.0</ele><time>2026-04-11T13:31:42.308Z</time></trkpt><trkpt lat="45.4522462" lon="7.7011734"><ele>1040.0</ele><time>2026-04-11T13:31:43.309Z</time></trkpt><trkpt lat="45.4521695" lon="7.7011087"><ele>1040.0</ele><time>2026-04-11T13:31:44.412Z</time></trkpt><trkpt lat="45.4520301" lon="7.7010152"><ele>1040.0</ele><time>2026-04-11T13:31:46.308Z</time></trkpt><trkpt lat="45.4519635" lon="7.7009801"><ele>1040.0</ele><time>2026-04-11T13:31:47.307Z</time></trkpt><trkpt lat="45.451898" lon="7.7009467"><ele>1040.0</ele><time>2026-04-11T13:31:48.311Z</time></trkpt><trkpt lat="45.4518356" lon="7.700912"><ele>1039.1666666666667</ele><time>2026-04-11T13:31:49.308Z</time></trkpt><trkpt lat="45.4517768" lon="7.7008685"><ele>1038.3333333333335</ele><time>2026-04-11T13:31:50.239Z</time></trkpt><trkpt lat="45.4517091" lon="7.7007526"><ele>1037.5</ele><time>2026-04-11T13:31:52.083Z</time></trkpt><trkpt lat="45.4516579" lon="7.7006276"><ele>1036.6666666666667</ele><time>2026-04-11T13:31:54.08Z</time></trkpt><trkpt lat="45.4516345" lon="7.7005328"><ele>1035.8333333333333</ele><time>2026-04-11T13:31:55.094Z</time></trkpt><trkpt lat="45.4516082" lon="7.7004386"><ele>1035.0</ele><time>2026-04-11T13:31:56.081Z</time></trkpt><trkpt lat="45.451572" lon="7.7003524"><ele>1035.0</ele><time>2026-04-11T13:31:57.087Z</time></trkpt><trkpt lat="45.4515355" lon="7.7002638"><ele>1035.0</ele><time>2026-04-11T13:31:58.085Z</time></trkpt><trkpt lat="45.4514933" lon="7.7001934"><ele>1035.0</ele><time>2026-04-11T13:31:59.143Z</time></trkpt><trkpt lat="45.4514494" lon="7.7000965"><ele>1035.0</ele><time>2026-04-11T13:32:00.094Z</time></trkpt><trkpt lat="45.4514136" lon="7.7000019"><ele>1035.0</ele><time>2026-04-11T13:32:01.078Z</time></trkpt><trkpt lat="45.4513719" lon="7.6999246"><ele>1035.0</ele><time>2026-04-11T13:32:02.089Z</time></trkpt><trkpt lat="45.4513218" lon="7.6998514"><ele>1035.0</ele><time>2026-04-11T13:32:03.087Z</time></trkpt><trkpt lat="45.4512717" lon="7.6997841"><ele>1035.6</ele><time>2026-04-11T13:32:04.078Z</time></trkpt><trkpt lat="45.4511458" lon="7.6997325"><ele>1036.2</ele><time>2026-04-11T13:32:06.087Z</time></trkpt><trkpt lat="45.4510731" lon="7.6997256"><ele>1036.8</ele><time>2026-04-11T13:32:07.092Z</time></trkpt><trkpt lat="45.4509973" lon="7.6997143"><ele>1037.4</ele><time>2026-04-11T13:32:08.095Z</time></trkpt><trkpt lat="45.4509012" lon="7.6996864"><ele>1038.0</ele><time>2026-04-11T13:32:10.081Z</time></trkpt><trkpt lat="45.4508504" lon="7.6996078"><ele>1038.0</ele><time>2026-04-11T13:32:12.077Z</time></trkpt><trkpt lat="45.4507889" lon="7.6996608"><ele>1038.0</ele><time>2026-04-11T13:32:16.083Z</time></trkpt><trkpt lat="45.4506787" lon="7.6997204"><ele>1038.0</ele><time>2026-04-11T13:32:18.09Z</time></trkpt><trkpt lat="45.4506119" lon="7.6997363"><ele>1038.0</ele><time>2026-04-11T13:32:19.077Z</time></trkpt><trkpt lat="45.4505457" lon="7.6997559"><ele>1038.0</ele><time>2026-04-11T13:32:20.082Z</time></trkpt><trkpt lat="45.4504761" lon="7.6997582"><ele>1038.0</ele><time>2026-04-11T13:32:21.082Z</time></trkpt><trkpt lat="45.4504039" lon="7.699769"><ele>1038.5</ele><time>2026-04-11T13:32:22.075Z</time></trkpt><trkpt lat="45.4503249" lon="7.6997803"><ele>1039.0</ele><time>2026-04-11T13:32:23.084Z</time></trkpt><trkpt lat="45.450246" lon="7.6997916"><ele>1039.5</ele><time>2026-04-11T13:32:24.106Z</time></trkpt><trkpt lat="45.4501744" lon="7.6998048"><ele>1040.0</ele><time>2026-04-11T13:32:25.074Z</time></trkpt><trkpt lat="45.4501094" lon="7.699812"><ele>1040.5</ele><time>2026-04-11T13:32:26.078Z</time></trkpt><trkpt lat="45.4500048" lon="7.6997876"><ele>1041.0</ele><time>2026-04-11T13:32:28.079Z</time></trkpt><trkpt lat="45.4499189" lon="7.6997522"><ele>1041.0</ele><time>2026-04-11T13:32:30.074Z</time></trkpt><trkpt lat="45.4498301" lon="7.6996764"><ele>1041.0</ele><time>2026-04-11T13:32:32.087Z</time></trkpt><trkpt lat="45.4497699" lon="7.6995826"><ele>1041.0</ele><time>2026-04-11T13:32:34.088Z</time></trkpt><trkpt lat="45.4497146" lon="7.6994975"><ele>1041.0</ele><time>2026-04-11T13:32:35.083Z</time></trkpt><trkpt lat="45.4496767" lon="7.6994147"><ele>1041.0</ele><time>2026-04-11T13:32:36.083Z</time></trkpt><trkpt lat="45.4496452" lon="7.6993288"><ele>1041.0</ele><time>2026-04-11T13:32:37.088Z</time></trkpt><trkpt lat="45.4496401" lon="7.6992345"><ele>1039.6666666666667</ele><time>2026-04-11T13:32:38.084Z</time></trkpt><trkpt lat="45.4496326" lon="7.6991419"><ele>1038.3333333333333</ele><time>2026-04-11T13:32:39.162Z</time></trkpt><trkpt lat="45.4496214" lon="7.6989648"><ele>1037.0</ele><time>2026-04-11T13:32:41.12Z</time></trkpt><trkpt lat="45.4496217" lon="7.6988706"><ele>1035.6666666666665</ele><time>2026-04-11T13:32:42.084Z</time></trkpt><trkpt lat="45.4496328" lon="7.6987819"><ele>1034.3333333333333</ele><time>2026-04-11T13:32:43.071Z</time></trkpt><trkpt lat="45.4496595" lon="7.6987004"><ele>1033.0</ele><time>2026-04-11T13:32:44.12Z</time></trkpt><trkpt lat="45.4496946" lon="7.698616"><ele>1038.4</ele><time>2026-04-11T13:32:45.079Z</time></trkpt><trkpt lat="45.4497371" lon="7.6985357"><ele>1043.8</ele><time>2026-04-11T13:32:46.08Z</time></trkpt><trkpt lat="45.4497701" lon="7.6984542"><ele>1049.2</ele><time>2026-04-11T13:32:47.082Z</time></trkpt><trkpt lat="45.4498242" lon="7.6983039"><ele>1054.6</ele><time>2026-04-11T13:32:49.089Z</time></trkpt><trkpt lat="45.4498971" lon="7.6981713"><ele>1060.0</ele><time>2026-04-11T13:32:51.079Z</time></trkpt><trkpt lat="45.4499715" lon="7.6980464"><ele>1060.0</ele><time>2026-04-11T13:32:53.082Z</time></trkpt><trkpt lat="45.4500235" lon="7.6979647"><ele>1060.0</ele><time>2026-04-11T13:32:55.083Z</time></trkpt><trkpt lat="45.4499955" lon="7.6978409"><ele>1060.0</ele><time>2026-04-11T13:32:58.082Z</time></trkpt><trkpt lat="45.449963" lon="7.6977337"><ele>1060.0</ele><time>2026-04-11T13:33:00.084Z</time></trkpt><trkpt lat="45.4499451" lon="7.697627"><ele>1060.0</ele><time>2026-04-11T13:33:02.088Z</time></trkpt><trkpt lat="45.4499536" lon="7.6974776"><ele>1060.0</ele><time>2026-04-11T13:33:04.073Z</time></trkpt><trkpt lat="45.4499515" lon="7.6973218"><ele>1060.8</ele><time>2026-04-11T13:33:06.072Z</time></trkpt><trkpt lat="45.4499396" lon="7.6971627"><ele>1061.6</ele><time>2026-04-11T13:33:08.081Z</time></trkpt><trkpt lat="45.4499274" lon="7.6970005"><ele>1062.4</ele><time>2026-04-11T13:33:10.079Z</time></trkpt><trkpt lat="45.4499352" lon="7.6968242"><ele>1063.2</ele><time>2026-04-11T13:33:12.078Z</time></trkpt><trkpt lat="45.4499351" lon="7.6967338"><ele>1064.0</ele><time>2026-04-11T13:33:13.076Z</time></trkpt><trkpt lat="45.4499346" lon="7.6966249"><ele>1064.6000000000001</ele><time>2026-04-11T13:33:14.035Z</time></trkpt><trkpt lat="45.4499361" lon="7.6964932"><ele>1065.2</ele><time>2026-04-11T13:33:15.033Z</time></trkpt><trkpt lat="45.4499493" lon="7.6963751"><ele>1065.8000000000002</ele><time>2026-04-11T13:33:16.069Z</time></trkpt><trkpt lat="45.4500204" lon="7.6961414"><ele>1066.4</ele><time>2026-04-11T13:33:17.954Z</time></trkpt><trkpt lat="45.4500726" lon="7.6960484"><ele>1067.0</ele><time>2026-04-11T13:33:18.948Z</time></trkpt><trkpt lat="45.4501285" lon="7.695967"><ele>1068.0</ele><time>2026-04-11T13:33:19.953Z</time></trkpt><trkpt lat="45.4501916" lon="7.6958878"><ele>1069.0</ele><time>2026-04-11T13:33:20.958Z</time></trkpt><trkpt lat="45.4502517" lon="7.6958096"><ele>1070.0</ele><time>2026-04-11T13:33:21.953Z</time></trkpt><trkpt lat="45.4503063" lon="7.6957479"><ele>1071.0</ele><time>2026-04-11T13:33:23.03Z</time></trkpt><trkpt lat="45.4503551" lon="7.6956841"><ele>1072.0</ele><time>2026-04-11T13:33:24.04Z</time></trkpt><trkpt lat="45.4504446" lon="7.6955944"><ele>1073.0</ele><time>2026-04-11T13:33:25.953Z</time></trkpt><trkpt lat="45.4505475" lon="7.6955122"><ele>1073.0</ele><time>2026-04-11T13:33:27.943Z</time></trkpt><trkpt lat="45.4506568" lon="7.6954803"><ele>1073.0</ele><time>2026-04-11T13:33:29.959Z</time></trkpt><trkpt lat="45.4507579" lon="7.6954022"><ele>1073.0</ele><time>2026-04-11T13:33:31.955Z</time></trkpt><trkpt lat="45.4508771" lon="7.6953127"><ele>1073.0</ele><time>2026-04-11T13:33:33.985Z</time></trkpt><trkpt lat="45.4509822" lon="7.6952737"><ele>1071.6666666666667</ele><time>2026-04-11T13:33:34.953Z</time></trkpt><trkpt lat="45.4511192" lon="7.6952326"><ele>1070.3333333333333</ele><time>2026-04-11T13:33:36.03Z</time></trkpt><trkpt lat="45.4512801" lon="7.6951944"><ele>1069.0</ele><time>2026-04-11T13:33:36.955Z</time></trkpt><trkpt lat="45.4514486" lon="7.6951313"><ele>1069.0</ele><time>2026-04-11T13:33:37.954Z</time></trkpt><trkpt lat="45.4516102" lon="7.6950607"><ele>1069.0</ele><time>2026-04-11T13:33:38.972Z</time></trkpt><trkpt lat="45.4517582" lon="7.6949903"><ele>1069.0</ele><time>2026-04-11T13:33:40.037Z</time></trkpt><trkpt lat="45.4518963" lon="7.6949291"><ele>1069.0</ele><time>2026-04-11T13:33:41.047Z</time></trkpt><trkpt lat="45.4520264" lon="7.6948891"><ele>1069.0</ele><time>2026-04-11T13:33:41.96Z</time></trkpt><trkpt lat="45.4521559" lon="7.6948593"><ele>1069.0</ele><time>2026-04-11T13:33:42.964Z</time></trkpt><trkpt lat="45.4522804" lon="7.694823"><ele>1069.0</ele><time>2026-04-11T13:33:43.99Z</time></trkpt><trkpt lat="45.4524007" lon="7.6947708"><ele>1067.75</ele><time>2026-04-11T13:33:45.028Z</time></trkpt><trkpt lat="45.4525182" lon="7.6947008"><ele>1066.5</ele><time>2026-04-11T13:33:46.021Z</time></trkpt><trkpt lat="45.4526309" lon="7.6946135"><ele>1065.25</ele><time>2026-04-11T13:33:46.953Z</time></trkpt><trkpt lat="45.4527287" lon="7.6945043"><ele>1064.0</ele><time>2026-04-11T13:33:47.958Z</time></trkpt><trkpt lat="45.4528201" lon="7.6943911"><ele>1064.0</ele><time>2026-04-11T13:33:48.991Z</time></trkpt><trkpt lat="45.4528908" lon="7.6942644"><ele>1064.0</ele><time>2026-04-11T13:33:49.962Z</time></trkpt><trkpt lat="45.45295" lon="7.6941256"><ele>1064.0</ele><time>2026-04-11T13:33:51.043Z</time></trkpt><trkpt lat="45.4530133" lon="7.6939904"><ele>1064.0</ele><time>2026-04-11T13:33:51.946Z</time></trkpt><trkpt lat="45.4530886" lon="7.693868"><ele>1066.3333333333335</ele><time>2026-04-11T13:33:52.958Z</time></trkpt><trkpt lat="45.453173" lon="7.6937569"><ele>1068.6666666666667</ele><time>2026-04-11T13:33:53.968Z</time></trkpt><trkpt lat="45.453249" lon="7.6936659"><ele>1071.0</ele><time>2026-04-11T13:33:55.044Z</time></trkpt><trkpt lat="45.4533182" lon="7.6935869"><ele>1073.3333333333333</ele><time>2026-04-11T13:33:56.036Z</time></trkpt><trkpt lat="45.4533795" lon="7.6935411"><ele>1075.6666666666665</ele><time>2026-04-11T13:33:56.96Z</time></trkpt><trkpt lat="45.4534433" lon="7.6935081"><ele>1078.0</ele><time>2026-04-11T13:33:57.951Z</time></trkpt><trkpt lat="45.453516" lon="7.6935034"><ele>1078.0</ele><time>2026-04-11T13:33:58.965Z</time></trkpt><trkpt lat="45.4535826" lon="7.6935155"><ele>1078.0</ele><time>2026-04-11T13:33:59.958Z</time></trkpt><trkpt lat="45.4536918" lon="7.6934685"><ele>1078.0</ele><time>2026-04-11T13:34:01.948Z</time></trkpt><trkpt lat="45.4537495" lon="7.6933131"><ele>1078.0</ele><time>2026-04-11T13:34:03.952Z</time></trkpt><trkpt lat="45.4537669" lon="7.693201"><ele>1078.0</ele><time>2026-04-11T13:34:04.946Z</time></trkpt><trkpt lat="45.4537766" lon="7.6930608"><ele>1078.0</ele><time>2026-04-11T13:34:06.031Z</time></trkpt><trkpt lat="45.4537862" lon="7.6929332"><ele>1078.0</ele><time>2026-04-11T13:34:06.963Z</time></trkpt><trkpt lat="45.4538056" lon="7.6928284"><ele>1078.0</ele><time>2026-04-11T13:34:07.961Z</time></trkpt><trkpt lat="45.4538609" lon="7.6927235"><ele>1078.0</ele><time>2026-04-11T13:34:08.968Z</time></trkpt><trkpt lat="45.4539461" lon="7.6926267"><ele>1078.0</ele><time>2026-04-11T13:34:09.959Z</time></trkpt><trkpt lat="45.4540447" lon="7.6925237"><ele>1081.8</ele><time>2026-04-11T13:34:10.96Z</time></trkpt><trkpt lat="45.454138" lon="7.6924242"><ele>1085.6</ele><time>2026-04-11T13:34:11.965Z</time></trkpt><trkpt lat="45.4542125" lon="7.6923272"><ele>1089.4</ele><time>2026-04-11T13:34:13.03Z</time></trkpt><trkpt lat="45.4542614" lon="7.6922112"><ele>1093.2</ele><time>2026-04-11T13:34:14.029Z</time></trkpt><trkpt lat="45.4542966" lon="7.6920832"><ele>1097.0</ele><time>2026-04-11T13:34:15.032Z</time></trkpt><trkpt lat="45.4543279" lon="7.6919484"><ele>1095.5</ele><time>2026-04-11T13:34:15.968Z</time></trkpt><trkpt lat="45.4543656" lon="7.6918096"><ele>1094.0</ele><time>2026-04-11T13:34:16.966Z</time></trkpt><trkpt lat="45.4544266" lon="7.6916664"><ele>1092.5</ele><time>2026-04-11T13:34:17.973Z</time></trkpt><trkpt lat="45.4545012" lon="7.6915273"><ele>1091.0</ele><time>2026-04-11T13:34:18.968Z</time></trkpt><trkpt lat="45.4545685" lon="7.6914087"><ele>1097.0</ele><time>2026-04-11T13:34:19.964Z</time></trkpt><trkpt lat="45.4546219" lon="7.6912846"><ele>1103.0</ele><time>2026-04-11T13:34:21.027Z</time></trkpt><trkpt lat="45.4546531" lon="7.6911622"><ele>1109.0</ele><time>2026-04-11T13:34:21.961Z</time></trkpt><trkpt lat="45.4546715" lon="7.6910303"><ele>1115.0</ele><time>2026-04-11T13:34:22.963Z</time></trkpt><trkpt lat="45.4546857" lon="7.6908927"><ele>1121.0</ele><time>2026-04-11T13:34:23.99Z</time></trkpt><trkpt lat="45.4546918" lon="7.6907609"><ele>1121.0</ele><time>2026-04-11T13:34:24.969Z</time></trkpt><trkpt lat="45.454711" lon="7.6906376"><ele>1121.0</ele><time>2026-04-11T13:34:26.041Z</time></trkpt><trkpt lat="45.4547538" lon="7.6905179"><ele>1121.0</ele><time>2026-04-11T13:34:26.953Z</time></trkpt><trkpt lat="45.4548097" lon="7.6904133"><ele>1121.0</ele><time>2026-04-11T13:34:27.952Z</time></trkpt><trkpt lat="45.4548781" lon="7.6903084"><ele>1121.0</ele><time>2026-04-11T13:34:28.963Z</time></trkpt><trkpt lat="45.4549517" lon="7.6902263"><ele>1118.6</ele><time>2026-04-11T13:34:30.047Z</time></trkpt><trkpt lat="45.4550254" lon="7.690169"><ele>1116.1999999999998</ele><time>2026-04-11T13:34:31.036Z</time></trkpt><trkpt lat="45.4551068" lon="7.69014"><ele>1113.8000000000002</ele><time>2026-04-11T13:34:31.949Z</time></trkpt><trkpt lat="45.4551956" lon="7.690131"><ele>1111.4</ele><time>2026-04-11T13:34:32.959Z</time></trkpt><trkpt lat="45.4553086" lon="7.6901284"><ele>1109.0</ele><time>2026-04-11T13:34:33.993Z</time></trkpt><trkpt lat="45.4554294" lon="7.6901201"><ele>1113.0</ele><time>2026-04-11T13:34:35.038Z</time></trkpt><trkpt lat="45.4555423" lon="7.6900759"><ele>1117.0</ele><time>2026-04-11T13:34:36.029Z</time></trkpt><trkpt lat="45.4556398" lon="7.6900068"><ele>1121.0</ele><time>2026-04-11T13:34:36.947Z</time></trkpt><trkpt lat="45.4557322" lon="7.6899241"><ele>1125.0</ele><time>2026-04-11T13:34:38.051Z</time></trkpt><trkpt lat="45.4558252" lon="7.6898432"><ele>1129.0</ele><time>2026-04-11T13:34:39.033Z</time></trkpt><trkpt lat="45.4559297" lon="7.6897709"><ele>1129.0</ele><time>2026-04-11T13:34:40.028Z</time></trkpt><trkpt lat="45.4560524" lon="7.6897017"><ele>1129.0</ele><time>2026-04-11T13:34:41.033Z</time></trkpt><trkpt lat="45.4561935" lon="7.6896333"><ele>1129.0</ele><time>2026-04-11T13:34:41.958Z</time></trkpt><trkpt lat="45.4563484" lon="7.6895552"><ele>1129.0</ele><time>2026-04-11T13:34:42.945Z</time></trkpt><trkpt lat="45.4565224" lon="7.6894751"><ele>1125.3333333333333</ele><time>2026-04-11T13:34:43.971Z</time></trkpt><trkpt lat="45.4566927" lon="7.6893933"><ele>1121.6666666666667</ele><time>2026-04-11T13:34:45.038Z</time></trkpt><trkpt lat="45.456839" lon="7.6893219"><ele>1118.0</ele><time>2026-04-11T13:34:46.028Z</time></trkpt><trkpt lat="45.4569595" lon="7.6892529"><ele>1118.0</ele><time>2026-04-11T13:34:46.958Z</time></trkpt><trkpt lat="45.4570598" lon="7.6892027"><ele>1118.0</ele><time>2026-04-11T13:34:47.958Z</time></trkpt><trkpt lat="45.4571561" lon="7.689166"><ele>1118.0</ele><time>2026-04-11T13:34:48.995Z</time></trkpt><trkpt lat="45.4572617" lon="7.6891437"><ele>1118.0</ele><time>2026-04-11T13:34:50.004Z</time></trkpt><trkpt lat="45.4573932" lon="7.6891563"><ele>1118.0</ele><time>2026-04-11T13:34:50.958Z</time></trkpt><trkpt lat="45.4575433" lon="7.6891745"><ele>1121.3333333333335</ele><time>2026-04-11T13:34:51.959Z</time></trkpt><trkpt lat="45.4577092" lon="7.6891967"><ele>1124.6666666666667</ele><time>2026-04-11T13:34:52.96Z</time></trkpt><trkpt lat="45.4578593" lon="7.689216"><ele>1128.0</ele><time>2026-04-11T13:34:54.03Z</time></trkpt><trkpt lat="45.4579991" lon="7.6892183"><ele>1131.6666666666667</ele><time>2026-04-11T13:34:55.031Z</time></trkpt><trkpt lat="45.458141" lon="7.6892095"><ele>1135.3333333333335</ele><time>2026-04-11T13:34:56.034Z</time></trkpt><trkpt lat="45.4582911" lon="7.6891734"><ele>1139.0</ele><time>2026-04-11T13:34:56.944Z</time></trkpt><trkpt lat="45.4584491" lon="7.6891381"><ele>1139.0</ele><time>2026-04-11T13:34:57.941Z</time></trkpt><trkpt lat="45.4585894" lon="7.6890933"><ele>1139.0</ele><time>2026-04-11T13:34:58.942Z</time></trkpt><trkpt lat="45.4587178" lon="7.6890307"><ele>1139.0</ele><time>2026-04-11T13:34:59.948Z</time></trkpt><trkpt lat="45.4588312" lon="7.688942"><ele>1139.0</ele><time>2026-04-11T13:35:00.946Z</time></trkpt><trkpt lat="45.4589507" lon="7.6888585"><ele>1144.5</ele><time>2026-04-11T13:35:01.946Z</time></trkpt><trkpt lat="45.4590745" lon="7.6887772"><ele>1150.0</ele><time>2026-04-11T13:35:03.037Z</time></trkpt><trkpt lat="45.4592006" lon="7.6887259"><ele>1155.5</ele><time>2026-04-11T13:35:04.03Z</time></trkpt><trkpt lat="45.4593246" lon="7.6887002"><ele>1161.0</ele><time>2026-04-11T13:35:05.02Z</time></trkpt><trkpt lat="45.4594468" lon="7.6886954"><ele>1161.0</ele><time>2026-04-11T13:35:05.948Z</time></trkpt><trkpt lat="45.4595675" lon="7.6887052"><ele>1161.0</ele><time>2026-04-11T13:35:06.944Z</time></trkpt><trkpt lat="45.4596836" lon="7.688736"><ele>1161.0</ele><time>2026-04-11T13:35:07.95Z</time></trkpt><trkpt lat="45.4597911" lon="7.6887577"><ele>1161.0</ele><time>2026-04-11T13:35:08.95Z</time></trkpt><trkpt lat="45.4599004" lon="7.6887333"><ele>1159.25</ele><time>2026-04-11T13:35:09.95Z</time></trkpt><trkpt lat="45.4600208" lon="7.6886853"><ele>1157.5</ele><time>2026-04-11T13:35:11.018Z</time></trkpt><trkpt lat="45.4601459" lon="7.6886357"><ele>1155.75</ele><time>2026-04-11T13:35:11.947Z</time></trkpt><trkpt lat="45.4602753" lon="7.688595"><ele>1154.0</ele><time>2026-04-11T13:35:12.956Z</time></trkpt><trkpt lat="45.4603936" lon="7.6885518"><ele>1157.2</ele><time>2026-04-11T13:35:13.97Z</time></trkpt><trkpt lat="45.4604925" lon="7.6884877"><ele>1160.4</ele><time>2026-04-11T13:35:15.007Z</time></trkpt><trkpt lat="45.4605777" lon="7.6884016"><ele>1163.6</ele><time>2026-04-11T13:35:15.952Z</time></trkpt><trkpt lat="45.4606467" lon="7.6883011"><ele>1166.8</ele><time>2026-04-11T13:35:16.953Z</time></trkpt><trkpt lat="45.4607121" lon="7.688212"><ele>1170.0</ele><time>2026-04-11T13:35:17.941Z</time></trkpt><trkpt lat="45.4607906" lon="7.6881497"><ele>1170.0</ele><time>2026-04-11T13:35:19.024Z</time></trkpt><trkpt lat="45.4608886" lon="7.6881253"><ele>1170.0</ele><time>2026-04-11T13:35:20.029Z</time></trkpt><trkpt lat="45.4609911" lon="7.688124"><ele>1170.0</ele><time>2026-04-11T13:35:21.032Z</time></trkpt><trkpt lat="45.4610933" lon="7.688137"><ele>1170.0</ele><time>2026-04-11T13:35:21.954Z</time></trkpt><trkpt lat="45.4611972" lon="7.6881649"><ele>1170.0</ele><time>2026-04-11T13:35:22.957Z</time></trkpt><trkpt lat="45.4613047" lon="7.6882247"><ele>1171.0</ele><time>2026-04-11T13:35:23.984Z</time></trkpt><trkpt lat="45.4614161" lon="7.6883081"><ele>1172.0</ele><time>2026-04-11T13:35:25.039Z</time></trkpt><trkpt lat="45.4615306" lon="7.6884034"><ele>1173.0</ele><time>2026-04-11T13:35:26.041Z</time></trkpt><trkpt lat="45.4616422" lon="7.688507"><ele>1174.0</ele><time>2026-04-11T13:35:26.966Z</time></trkpt><trkpt lat="45.4617493" lon="7.6886159"><ele>1177.5</ele><time>2026-04-11T13:35:27.962Z</time></trkpt><trkpt lat="45.4618509" lon="7.6887225"><ele>1181.0</ele><time>2026-04-11T13:35:28.98Z</time></trkpt><trkpt lat="45.4619498" lon="7.6888295"><ele>1184.5</ele><time>2026-04-11T13:35:29.979Z</time></trkpt><trkpt lat="45.4620491" lon="7.6889297"><ele>1188.0</ele><time>2026-04-11T13:35:30.97Z</time></trkpt><trkpt lat="45.462148" lon="7.6890379"><ele>1188.0</ele><time>2026-04-11T13:35:31.966Z</time></trkpt><trkpt lat="45.4622377" lon="7.689154"><ele>1188.0</ele><time>2026-04-11T13:35:32.964Z</time></trkpt><trkpt lat="45.4623267" lon="7.6892738"><ele>1188.0</ele><time>2026-04-11T13:35:34.032Z</time></trkpt><trkpt lat="45.4624173" lon="7.6893909"><ele>1188.0</ele><time>2026-04-11T13:35:35.021Z</time></trkpt><trkpt lat="45.4625108" lon="7.6894942"><ele>1193.25</ele><time>2026-04-11T13:35:36.032Z</time></trkpt><trkpt lat="45.4626074" lon="7.6895918"><ele>1198.5</ele><time>2026-04-11T13:35:36.952Z</time></trkpt><trkpt lat="45.4627124" lon="7.6896764"><ele>1203.75</ele><time>2026-04-11T13:35:37.953Z</time></trkpt><trkpt lat="45.4628191" lon="7.6897671"><ele>1209.0</ele><time>2026-04-11T13:35:38.943Z</time></trkpt><trkpt lat="45.462922" lon="7.6898801"><ele>1207.8</ele><time>2026-04-11T13:35:39.955Z</time></trkpt><trkpt lat="45.4630142" lon="7.6899805"><ele>1206.6000000000001</ele><time>2026-04-11T13:35:40.951Z</time></trkpt><trkpt lat="45.4631024" lon="7.6900611"><ele>1205.4</ele><time>2026-04-11T13:35:41.943Z</time></trkpt><trkpt lat="45.4631965" lon="7.6901171"><ele>1204.2</ele><time>2026-04-11T13:35:42.946Z</time></trkpt><trkpt lat="45.463289" lon="7.6901472"><ele>1203.0</ele><time>2026-04-11T13:35:44.04Z</time></trkpt><trkpt lat="45.4633838" lon="7.690153"><ele>1203.0</ele><time>2026-04-11T13:35:45.042Z</time></trkpt><trkpt lat="45.4634856" lon="7.6901367"><ele>1203.0</ele><time>2026-04-11T13:35:46.033Z</time></trkpt><trkpt lat="45.4636064" lon="7.6901389"><ele>1203.0</ele><time>2026-04-11T13:35:46.947Z</time></trkpt><trkpt lat="45.463745" lon="7.6901579"><ele>1203.0</ele><time>2026-04-11T13:35:47.951Z</time></trkpt><trkpt lat="45.4638974" lon="7.6901673"><ele>1204.25</ele><time>2026-04-11T13:35:48.951Z</time></trkpt><trkpt lat="45.4640502" lon="7.6901596"><ele>1205.5</ele><time>2026-04-11T13:35:49.947Z</time></trkpt><trkpt lat="45.4641846" lon="7.6901489"><ele>1206.75</ele><time>2026-04-11T13:35:50.947Z</time></trkpt><trkpt lat="45.4643097" lon="7.6901625"><ele>1208.0</ele><time>2026-04-11T13:35:51.957Z</time></trkpt><trkpt lat="45.4644373" lon="7.6901657"><ele>1208.0</ele><time>2026-04-11T13:35:53.036Z</time></trkpt><trkpt lat="45.46457" lon="7.6901484"><ele>1208.0</ele><time>2026-04-11T13:35:54.029Z</time></trkpt><trkpt lat="45.4647042" lon="7.6901103"><ele>1208.0</ele><time>2026-04-11T13:35:54.957Z</time></trkpt><trkpt lat="45.4648232" lon="7.6900663"><ele>1208.0</ele><time>2026-04-11T13:35:55.952Z</time></trkpt><trkpt lat="45.4649231" lon="7.6900237"><ele>1211.3333333333335</ele><time>2026-04-11T13:35:56.949Z</time></trkpt><trkpt lat="45.465" lon="7.6899913"><ele>1214.6666666666667</ele><time>2026-04-11T13:35:57.948Z</time></trkpt><trkpt lat="45.4650789" lon="7.6900217"><ele>1218.0</ele><time>2026-04-11T13:35:59.944Z</time></trkpt><trkpt lat="45.4650593" lon="7.6901402"><ele>1221.3333333333333</ele><time>2026-04-11T13:36:01.945Z</time></trkpt><trkpt lat="45.4650029" lon="7.6902063"><ele>1224.6666666666665</ele><time>2026-04-11T13:36:02.953Z</time></trkpt><trkpt lat="45.4649033" lon="7.6902902"><ele>1228.0</ele><time>2026-04-11T13:36:03.952Z</time></trkpt><trkpt lat="45.4647856" lon="7.6903997"><ele>1228.75</ele><time>2026-04-11T13:36:05.033Z</time></trkpt><trkpt lat="45.464672" lon="7.6905131"><ele>1229.5</ele><time>2026-04-11T13:36:05.964Z</time></trkpt><trkpt lat="45.4645628" lon="7.6906276"><ele>1230.25</ele><time>2026-04-11T13:36:06.964Z</time></trkpt><trkpt lat="45.464454" lon="7.6907679"><ele>1231.0</ele><time>2026-04-11T13:36:08.041Z</time></trkpt><trkpt lat="45.4643604" lon="7.690908"><ele>1231.0</ele><time>2026-04-11T13:36:08.958Z</time></trkpt><trkpt lat="45.4642878" lon="7.6910297"><ele>1231.0</ele><time>2026-04-11T13:36:10.035Z</time></trkpt><trkpt lat="45.4642192" lon="7.6911253"><ele>1231.0</ele><time>2026-04-11T13:36:10.948Z</time></trkpt><trkpt lat="45.4641788" lon="7.6912014"><ele>1231.0</ele><time>2026-04-11T13:36:11.96Z</time></trkpt><trkpt lat="45.4641753" lon="7.6913193"><ele>1231.0</ele><time>2026-04-11T13:36:14.015Z</time></trkpt><trkpt lat="45.4642699" lon="7.6913727"><ele>1234.75</ele><time>2026-04-11T13:36:16.031Z</time></trkpt><trkpt lat="45.4643843" lon="7.6912756"><ele>1238.5</ele><time>2026-04-11T13:36:17.956Z</time></trkpt><trkpt lat="45.4644651" lon="7.6911851"><ele>1242.25</ele><time>2026-04-11T13:36:19.063Z</time></trkpt><trkpt lat="45.4645628" lon="7.6910965"><ele>1246.0</ele><time>2026-04-11T13:36:20.016Z</time></trkpt><trkpt lat="45.4646775" lon="7.6910374"><ele>1246.0</ele><time>2026-04-11T13:36:21.019Z</time></trkpt><trkpt lat="45.4648095" lon="7.6909857"><ele>1246.0</ele><time>2026-04-11T13:36:21.951Z</time></trkpt><trkpt lat="45.4649461" lon="7.6909436"><ele>1246.0</ele><time>2026-04-11T13:36:23.033Z</time></trkpt><trkpt lat="45.4651029" lon="7.6908988"><ele>1246.0</ele><time>2026-04-11T13:36:24.028Z</time></trkpt><trkpt lat="45.4652597" lon="7.6908416"><ele>1246.0</ele><time>2026-04-11T13:36:25.008Z</time></trkpt><trkpt lat="45.4654022" lon="7.6907823"><ele>1246.0</ele><time>2026-04-11T13:36:26.048Z</time></trkpt><trkpt lat="45.4655194" lon="7.690722"><ele>1246.0</ele><time>2026-04-11T13:36:26.951Z</time></trkpt><trkpt lat="45.4656097" lon="7.6906789"><ele>1246.0</ele><time>2026-04-11T13:36:27.946Z</time></trkpt><trkpt lat="45.465681" lon="7.6906019"><ele>1249.5</ele><time>2026-04-11T13:36:28.965Z</time></trkpt><trkpt lat="45.4657414" lon="7.6904939"><ele>1253.0</ele><time>2026-04-11T13:36:29.946Z</time></trkpt><trkpt lat="45.4657889" lon="7.6903527"><ele>1256.5</ele><time>2026-04-11T13:36:30.953Z</time></trkpt><trkpt lat="45.4658396" lon="7.6901985"><ele>1260.0</ele><time>2026-04-11T13:36:31.954Z</time></trkpt><trkpt lat="45.4658998" lon="7.6900243"><ele>1260.0</ele><time>2026-04-11T13:36:33.026Z</time></trkpt><trkpt lat="45.4659795" lon="7.6898517"><ele>1260.0</ele><time>2026-04-11T13:36:34.029Z</time></trkpt><trkpt lat="45.4660579" lon="7.6896969"><ele>1260.0</ele><time>2026-04-11T13:36:34.973Z</time></trkpt><trkpt lat="45.4661176" lon="7.6895594"><ele>1260.0</ele><time>2026-04-11T13:36:36.041Z</time></trkpt><trkpt lat="45.4661618" lon="7.6894358"><ele>1259.5</ele><time>2026-04-11T13:36:36.971Z</time></trkpt><trkpt lat="45.4661813" lon="7.6893003"><ele>1259.0</ele><time>2026-04-11T13:36:37.966Z</time></trkpt><trkpt lat="45.4661698" lon="7.6891889"><ele>1258.5</ele><time>2026-04-11T13:36:38.967Z</time></trkpt><trkpt lat="45.4661451" lon="7.6890935"><ele>1258.0</ele><time>2026-04-11T13:36:39.962Z</time></trkpt><trkpt lat="45.4661532" lon="7.6889667"><ele>1257.5</ele><time>2026-04-11T13:36:41.964Z</time></trkpt><trkpt lat="45.466215" lon="7.6889955"><ele>1257.0</ele><time>2026-04-11T13:36:43.96Z</time></trkpt><trkpt lat="45.4662644" lon="7.6891612"><ele>1257.0</ele><time>2026-04-11T13:36:45.962Z</time></trkpt><trkpt lat="45.4662606" lon="7.6893124"><ele>1257.0</ele><time>2026-04-11T13:36:46.962Z</time></trkpt><trkpt lat="45.46626" lon="7.6894958"><ele>1257.0</ele><time>2026-04-11T13:36:47.967Z</time></trkpt><trkpt lat="45.4662544" lon="7.6896774"><ele>1257.0</ele><time>2026-04-11T13:36:48.988Z</time></trkpt><trkpt lat="45.4662228" lon="7.6898466"><ele>1257.6</ele><time>2026-04-11T13:36:49.964Z</time></trkpt><trkpt lat="45.4661958" lon="7.6900001"><ele>1258.2</ele><time>2026-04-11T13:36:51.026Z</time></trkpt><trkpt lat="45.4661836" lon="7.690139"><ele>1258.8</ele><time>2026-04-11T13:36:51.961Z</time></trkpt><trkpt lat="45.4661974" lon="7.6902701"><ele>1259.4</ele><time>2026-04-11T13:36:52.967Z</time></trkpt><trkpt lat="45.466224" lon="7.6903853"><ele>1260.0</ele><time>2026-04-11T13:36:53.974Z</time></trkpt><trkpt lat="45.4662734" lon="7.690488"><ele>1264.6</ele><time>2026-04-11T13:36:54.955Z</time></trkpt><trkpt lat="45.4663419" lon="7.6905744"><ele>1269.2</ele><time>2026-04-11T13:36:56.036Z</time></trkpt><trkpt lat="45.4664225" lon="7.6906445"><ele>1273.8000000000002</ele><time>2026-04-11T13:36:56.962Z</time></trkpt><trkpt lat="45.4665102" lon="7.6907013"><ele>1278.4</ele><time>2026-04-11T13:36:57.965Z</time></trkpt><trkpt lat="45.4666003" lon="7.6907579"><ele>1283.0</ele><time>2026-04-11T13:36:58.998Z</time></trkpt><trkpt lat="45.466684" lon="7.6908218"><ele>1283.0</ele><time>2026-04-11T13:37:00.041Z</time></trkpt><trkpt lat="45.4667711" lon="7.6908918"><ele>1283.0</ele><time>2026-04-11T13:37:01.044Z</time></trkpt><trkpt lat="45.4668589" lon="7.6909654"><ele>1283.0</ele><time>2026-04-11T13:37:01.965Z</time></trkpt><trkpt lat="45.4669507" lon="7.6910193"><ele>1283.0</ele><time>2026-04-11T13:37:02.956Z</time></trkpt><trkpt lat="45.467051" lon="7.6910495"><ele>1283.0</ele><time>2026-04-11T13:37:03.995Z</time></trkpt><trkpt lat="45.4671554" lon="7.6910745"><ele>1283.75</ele><time>2026-04-11T13:37:05.033Z</time></trkpt><trkpt lat="45.467251" lon="7.6911054"><ele>1284.5</ele><time>2026-04-11T13:37:06.031Z</time></trkpt><trkpt lat="45.4673403" lon="7.6911765"><ele>1285.25</ele><time>2026-04-11T13:37:06.951Z</time></trkpt><trkpt lat="45.4674393" lon="7.6912669"><ele>1286.0</ele><time>2026-04-11T13:37:07.953Z</time></trkpt><trkpt lat="45.4675549" lon="7.6913658"><ele>1286.0</ele><time>2026-04-11T13:37:08.969Z</time></trkpt><trkpt lat="45.4676901" lon="7.6914824"><ele>1286.0</ele><time>2026-04-11T13:37:09.977Z</time></trkpt><trkpt lat="45.4678449" lon="7.6916173"><ele>1286.0</ele><time>2026-04-11T13:37:11.017Z</time></trkpt><trkpt lat="45.4679997" lon="7.6917448"><ele>1287.75</ele><time>2026-04-11T13:37:11.953Z</time></trkpt><trkpt lat="45.4681212" lon="7.6918497"><ele>1289.5</ele><time>2026-04-11T13:37:13.043Z</time></trkpt><trkpt lat="45.4682245" lon="7.6919285"><ele>1291.25</ele><time>2026-04-11T13:37:13.954Z</time></trkpt><trkpt lat="45.4683282" lon="7.6920017"><ele>1293.0</ele><time>2026-04-11T13:37:14.955Z</time></trkpt><trkpt lat="45.4684294" lon="7.6920785"><ele>1293.0</ele><time>2026-04-11T13:37:15.95Z</time></trkpt><trkpt lat="45.4685386" lon="7.6921473"><ele>1293.0</ele><time>2026-04-11T13:37:16.951Z</time></trkpt><trkpt lat="45.4686553" lon="7.6922089"><ele>1293.0</ele><time>2026-04-11T13:37:17.951Z</time></trkpt><trkpt lat="45.4687777" lon="7.6922597"><ele>1293.0</ele><time>2026-04-11T13:37:18.958Z</time></trkpt><trkpt lat="45.4689159" lon="7.6923262"><ele>1298.3333333333333</ele><time>2026-04-11T13:37:20.017Z</time></trkpt><trkpt lat="45.4690906" lon="7.6924235"><ele>1303.6666666666665</ele><time>2026-04-11T13:37:21.028Z</time></trkpt><trkpt lat="45.4692635" lon="7.6925152"><ele>1309.0</ele><time>2026-04-11T13:37:21.954Z</time></trkpt><trkpt lat="45.4694226" lon="7.6926001"><ele>1309.0</ele><time>2026-04-11T13:37:22.953Z</time></trkpt><trkpt lat="45.4695681" lon="7.6926794"><ele>1309.0</ele><time>2026-04-11T13:37:23.974Z</time></trkpt><trkpt lat="45.4697033" lon="7.6927604"><ele>1309.0</ele><time>2026-04-11T13:37:24.959Z</time></trkpt><trkpt lat="45.4698266" lon="7.6928544"><ele>1309.0</ele><time>2026-04-11T13:37:25.955Z</time></trkpt><trkpt lat="45.4699416" lon="7.6929609"><ele>1309.75</ele><time>2026-04-11T13:37:26.956Z</time></trkpt><trkpt lat="45.4700562" lon="7.6930688"><ele>1310.5</ele><time>2026-04-11T13:37:28.023Z</time></trkpt><trkpt lat="45.4701723" lon="7.6931712"><ele>1311.25</ele><time>2026-04-11T13:37:29.029Z</time></trkpt><trkpt lat="45.4702924" lon="7.693273"><ele>1312.0</ele><time>2026-04-11T13:37:29.955Z</time></trkpt><trkpt lat="45.4704112" lon="7.6933785"><ele>1315.5</ele><time>2026-04-11T13:37:30.955Z</time></trkpt><trkpt lat="45.4705213" lon="7.6934894"><ele>1319.0</ele><time>2026-04-11T13:37:31.963Z</time></trkpt><trkpt lat="45.4706221" lon="7.6936147"><ele>1322.5</ele><time>2026-04-11T13:37:32.956Z</time></trkpt><trkpt lat="45.4707161" lon="7.6937328"><ele>1326.0</ele><time>2026-04-11T13:37:33.958Z</time></trkpt><trkpt lat="45.4708019" lon="7.6938394"><ele>1326.0</ele><time>2026-04-11T13:37:34.958Z</time></trkpt><trkpt lat="45.4708863" lon="7.6939369"><ele>1326.0</ele><time>2026-04-11T13:37:35.951Z</time></trkpt><trkpt lat="45.4709686" lon="7.6940197"><ele>1326.0</ele><time>2026-04-11T13:37:36.986Z</time></trkpt><trkpt lat="45.4710467" lon="7.6940961"><ele>1326.0</ele><time>2026-04-11T13:37:37.962Z</time></trkpt><trkpt lat="45.4711254" lon="7.6941628"><ele>1326.0</ele><time>2026-04-11T13:37:39.045Z</time></trkpt><trkpt lat="45.4711971" lon="7.694213"><ele>1326.0</ele><time>2026-04-11T13:37:40.058Z</time></trkpt><trkpt lat="45.4712622" lon="7.6942461"><ele>1326.0</ele><time>2026-04-11T13:37:41.037Z</time></trkpt><trkpt lat="45.471363" lon="7.6942738"><ele>1326.0</ele><time>2026-04-11T13:37:42.959Z</time></trkpt><trkpt lat="45.471436" lon="7.6943168"><ele>1326.0</ele><time>2026-04-11T13:37:44.949Z</time></trkpt><trkpt lat="45.471501" lon="7.6943636"><ele>1326.0</ele><time>2026-04-11T13:37:48.029Z</time></trkpt><trkpt lat="45.4714557" lon="7.6942513"><ele>1326.0</ele><time>2026-04-11T13:38:35.966Z</time></trkpt><trkpt lat="45.4714355" lon="7.6941004"><ele>1327.5</ele><time>2026-04-11T13:38:38.042Z</time></trkpt><trkpt lat="45.4714525" lon="7.6939781"><ele>1329.0</ele><time>2026-04-11T13:38:39.031Z</time></trkpt><trkpt lat="45.4714944" lon="7.6938034"><ele>1330.5</ele><time>2026-04-11T13:38:39.962Z</time></trkpt><trkpt lat="45.471532" lon="7.6935927"><ele>1332.0</ele><time>2026-04-11T13:38:40.967Z</time></trkpt><trkpt lat="45.4715729" lon="7.6933651"><ele>1333.0</ele><time>2026-04-11T13:38:41.962Z</time></trkpt><trkpt lat="45.4716135" lon="7.6931211"><ele>1334.0</ele><time>2026-04-11T13:38:42.967Z</time></trkpt><trkpt lat="45.4716471" lon="7.6928784"><ele>1335.0</ele><time>2026-04-11T13:38:43.971Z</time></trkpt><trkpt lat="45.471674" lon="7.6926583"><ele>1337.0</ele><time>2026-04-11T13:38:45.004Z</time></trkpt><trkpt lat="45.4716979" lon="7.6924416"><ele>1339.0</ele><time>2026-04-11T13:38:46.034Z</time></trkpt><trkpt lat="45.4717191" lon="7.6921806"><ele>1341.0</ele><time>2026-04-11T13:38:46.965Z</time></trkpt><trkpt lat="45.4717438" lon="7.691891"><ele>1344.6666666666667</ele><time>2026-04-11T13:38:47.961Z</time></trkpt><trkpt lat="45.4717661" lon="7.6916084"><ele>1348.3333333333335</ele><time>2026-04-11T13:38:48.967Z</time></trkpt><trkpt lat="45.4717882" lon="7.6913845"><ele>1352.0</ele><time>2026-04-11T13:38:49.964Z</time></trkpt><trkpt lat="45.471803" lon="7.6911814"><ele>1353.1999999999998</ele><time>2026-04-11T13:38:50.967Z</time></trkpt><trkpt lat="45.4718103" lon="7.6909944"><ele>1354.4</ele><time>2026-04-11T13:38:51.963Z</time></trkpt><trkpt lat="45.4718169" lon="7.690837"><ele>1355.6</ele><time>2026-04-11T13:38:52.967Z</time></trkpt><trkpt lat="45.4718132" lon="7.6907334"><ele>1356.8000000000002</ele><time>2026-04-11T13:38:54.038Z</time></trkpt><trkpt lat="45.471767" lon="7.6906112"><ele>1358.0</ele><time>2026-04-11T13:38:56.046Z</time></trkpt><trkpt lat="45.4716652" lon="7.6906544"><ele>1358.0</ele><time>2026-04-11T13:38:57.957Z</time></trkpt><trkpt lat="45.471596" lon="7.690748"><ele>1358.0</ele><time>2026-04-11T13:38:58.961Z</time></trkpt><trkpt lat="45.4715292" lon="7.690839"><ele>1358.0</ele><time>2026-04-11T13:38:59.962Z</time></trkpt><trkpt lat="45.4714432" lon="7.6908457"><ele>1358.0</ele><time>2026-04-11T13:39:02.001Z</time></trkpt><trkpt lat="45.4714096" lon="7.6907304"><ele>1358.0</ele><time>2026-04-11T13:39:03.955Z</time></trkpt><trkpt lat="45.4714178" lon="7.690594"><ele>1358.0</ele><time>2026-04-11T13:39:04.961Z</time></trkpt><trkpt lat="45.4714294" lon="7.6904148"><ele>1358.0</ele><time>2026-04-11T13:39:06.029Z</time></trkpt><trkpt lat="45.4714262" lon="7.6901842"><ele>1358.0</ele><time>2026-04-11T13:39:06.972Z</time></trkpt><trkpt lat="45.4714252" lon="7.6899504"><ele>1359.0</ele><time>2026-04-11T13:39:08.029Z</time></trkpt><trkpt lat="45.4714332" lon="7.6897657"><ele>1360.0</ele><time>2026-04-11T13:39:08.964Z</time></trkpt><trkpt lat="45.4714369" lon="7.6896254"><ele>1361.0</ele><time>2026-04-11T13:39:09.968Z</time></trkpt><trkpt lat="45.4714312" lon="7.6894954"><ele>1362.0</ele><time>2026-04-11T13:39:10.954Z</time></trkpt><trkpt lat="45.4714204" lon="7.6893739"><ele>1363.0</ele><time>2026-04-11T13:39:11.966Z</time></trkpt><trkpt lat="45.471399" lon="7.6892809"><ele>1364.4</ele><time>2026-04-11T13:39:12.96Z</time></trkpt><trkpt lat="45.4713699" lon="7.6891447"><ele>1365.8000000000002</ele><time>2026-04-11T13:39:15.049Z</time></trkpt><trkpt lat="45.4713199" lon="7.6889664"><ele>1367.2</ele><time>2026-04-11T13:39:16.966Z</time></trkpt><trkpt lat="45.471281" lon="7.6888553"><ele>1368.6</ele><time>2026-04-11T13:39:17.96Z</time></trkpt><trkpt lat="45.4712389" lon="7.6887203"><ele>1370.0</ele><time>2026-04-11T13:39:18.964Z</time></trkpt><trkpt lat="45.4711915" lon="7.6885678"><ele>1377.75</ele><time>2026-04-11T13:39:20.029Z</time></trkpt><trkpt lat="45.4711386" lon="7.6884155"><ele>1385.5</ele><time>2026-04-11T13:39:21.039Z</time></trkpt><trkpt lat="45.4710823" lon="7.6882542"><ele>1393.25</ele><time>2026-04-11T13:39:21.968Z</time></trkpt><trkpt lat="45.4710286" lon="7.6880813"><ele>1401.0</ele><time>2026-04-11T13:39:22.967Z</time></trkpt><trkpt lat="45.4709939" lon="7.6879253"><ele>1401.0</ele><time>2026-04-11T13:39:23.967Z</time></trkpt><trkpt lat="45.470985" lon="7.6877988"><ele>1401.0</ele><time>2026-04-11T13:39:24.968Z</time></trkpt><trkpt lat="45.4709872" lon="7.6876678"><ele>1401.0</ele><time>2026-04-11T13:39:25.962Z</time></trkpt><trkpt lat="45.4709846" lon="7.6875573"><ele>1401.0</ele><time>2026-04-11T13:39:26.976Z</time></trkpt><trkpt lat="45.4709697" lon="7.6874383"><ele>1401.0</ele><time>2026-04-11T13:39:29.026Z</time></trkpt><trkpt lat="45.4710007" lon="7.6873394"><ele>1401.0</ele><time>2026-04-11T13:39:30.965Z</time></trkpt><trkpt lat="45.4710706" lon="7.6872238"><ele>1402.6666666666667</ele><time>2026-04-11T13:39:32.964Z</time></trkpt><trkpt lat="45.4711292" lon="7.6870916"><ele>1404.3333333333333</ele><time>2026-04-11T13:39:35.033Z</time></trkpt><trkpt lat="45.4711705" lon="7.6870202"><ele>1406.0</ele><time>2026-04-11T13:39:35.968Z</time></trkpt><trkpt lat="45.471207" lon="7.6869416"><ele>1407.6666666666665</ele><time>2026-04-11T13:39:36.96Z</time></trkpt><trkpt lat="45.471218" lon="7.6868491"><ele>1409.3333333333333</ele><time>2026-04-11T13:39:37.968Z</time></trkpt><trkpt lat="45.4712112" lon="7.6867314"><ele>1411.0</ele><time>2026-04-11T13:39:38.961Z</time></trkpt><trkpt lat="45.4712038" lon="7.6866166"><ele>1411.1666666666665</ele><time>2026-04-11T13:39:39.968Z</time></trkpt><trkpt lat="45.4712185" lon="7.6865095"><ele>1411.3333333333333</ele><time>2026-04-11T13:39:40.959Z</time></trkpt><trkpt lat="45.4712386" lon="7.6864005"><ele>1411.5</ele><time>2026-04-11T13:39:41.966Z</time></trkpt><trkpt lat="45.4712663" lon="7.6863039"><ele>1411.6666666666667</ele><time>2026-04-11T13:39:42.963Z</time></trkpt><trkpt lat="45.471298" lon="7.6862193"><ele>1411.8333333333335</ele><time>2026-04-11T13:39:43.994Z</time></trkpt><trkpt lat="45.4713627" lon="7.6861082"><ele>1412.0</ele><time>2026-04-11T13:39:44.964Z</time></trkpt><trkpt lat="45.4714296" lon="7.686002"><ele>1415.5</ele><time>2026-04-11T13:39:45.965Z</time></trkpt><trkpt lat="45.4714779" lon="7.6858999"><ele>1419.0</ele><time>2026-04-11T13:39:46.956Z</time></trkpt><trkpt lat="45.4715351" lon="7.6857579"><ele>1422.5</ele><time>2026-04-11T13:39:47.963Z</time></trkpt><trkpt lat="45.4716043" lon="7.6855792"><ele>1426.0</ele><time>2026-04-11T13:39:48.963Z</time></trkpt><trkpt lat="45.4716881" lon="7.685366"><ele>1428.75</ele><time>2026-04-11T13:39:50.031Z</time></trkpt><trkpt lat="45.4717714" lon="7.6851633"><ele>1431.5</ele><time>2026-04-11T13:39:51.035Z</time></trkpt><trkpt lat="45.47185" lon="7.6850285"><ele>1434.25</ele><time>2026-04-11T13:39:51.962Z</time></trkpt><trkpt lat="45.4719077" lon="7.6849134"><ele>1437.0</ele><time>2026-04-11T13:39:52.968Z</time></trkpt><trkpt lat="45.4719597" lon="7.6848019"><ele>1437.0</ele><time>2026-04-11T13:39:53.981Z</time></trkpt><trkpt lat="45.4720021" lon="7.6846692"><ele>1437.0</ele><time>2026-04-11T13:39:54.963Z</time></trkpt><trkpt lat="45.4720535" lon="7.6845281"><ele>1437.0</ele><time>2026-04-11T13:39:55.966Z</time></trkpt><trkpt lat="45.4720967" lon="7.6844211"><ele>1437.0</ele><time>2026-04-11T13:39:56.967Z</time></trkpt><trkpt lat="45.472145" lon="7.684336"><ele>1437.0</ele><time>2026-04-11T13:39:57.976Z</time></trkpt><trkpt lat="45.472197" lon="7.6842811"><ele>1437.0</ele><time>2026-04-11T13:39:58.975Z</time></trkpt><trkpt lat="45.4722597" lon="7.6842309"><ele>1440.0</ele><time>2026-04-11T13:39:59.969Z</time></trkpt><trkpt lat="45.4723402" lon="7.6841667"><ele>1443.0</ele><time>2026-04-11T13:40:01.042Z</time></trkpt><trkpt lat="45.4724246" lon="7.6841003"><ele>1446.0</ele><time>2026-04-11T13:40:01.962Z</time></trkpt><trkpt lat="45.4725168" lon="7.6840423"><ele>1449.0</ele><time>2026-04-11T13:40:02.967Z</time></trkpt><trkpt lat="45.4725946" lon="7.6839926"><ele>1452.0</ele><time>2026-04-11T13:40:03.968Z</time></trkpt><trkpt lat="45.472657" lon="7.6839509"><ele>1455.0</ele><time>2026-04-11T13:40:04.966Z</time></trkpt><trkpt lat="45.4727309" lon="7.6838673"><ele>1455.0</ele><time>2026-04-11T13:40:06.967Z</time></trkpt><trkpt lat="45.4726997" lon="7.6837688"><ele>1455.0</ele><time>2026-04-11T13:40:08.966Z</time></trkpt><trkpt lat="45.4725868" lon="7.6837553"><ele>1455.0</ele><time>2026-04-11T13:40:10.962Z</time></trkpt><trkpt lat="45.4725049" lon="7.6838001"><ele>1455.0</ele><time>2026-04-11T13:40:11.957Z</time></trkpt><trkpt lat="45.4724202" lon="7.6838346"><ele>1455.0</ele><time>2026-04-11T13:40:12.961Z</time></trkpt><trkpt lat="45.4723243" lon="7.6838442"><ele>1455.0</ele><time>2026-04-11T13:40:13.97Z</time></trkpt><trkpt lat="45.4722524" lon="7.6838161"><ele>1455.0</ele><time>2026-04-11T13:40:14.968Z</time></trkpt><trkpt lat="45.4721986" lon="7.6837527"><ele>1455.0</ele><time>2026-04-11T13:40:15.967Z</time></trkpt><trkpt lat="45.4721689" lon="7.6836475"><ele>1455.0</ele><time>2026-04-11T13:40:16.963Z</time></trkpt><trkpt lat="45.4721446" lon="7.6834944"><ele>1455.0</ele><time>2026-04-11T13:40:17.955Z</time></trkpt><trkpt lat="45.4721073" lon="7.6833022"><ele>1454.75</ele><time>2026-04-11T13:40:18.957Z</time></trkpt><trkpt lat="45.4720641" lon="7.6831218"><ele>1454.5</ele><time>2026-04-11T13:40:20.057Z</time></trkpt><trkpt lat="45.4720312" lon="7.6829688"><ele>1454.25</ele><time>2026-04-11T13:40:21.027Z</time></trkpt><trkpt lat="45.4720144" lon="7.6828131"><ele>1454.0</ele><time>2026-04-11T13:40:21.952Z</time></trkpt><trkpt lat="45.4720053" lon="7.6826398"><ele>1456.5</ele><time>2026-04-11T13:40:22.952Z</time></trkpt><trkpt lat="45.4719942" lon="7.6824346"><ele>1459.0</ele><time>2026-04-11T13:40:23.952Z</time></trkpt><trkpt lat="45.471979" lon="7.6822427"><ele>1461.5</ele><time>2026-04-11T13:40:24.949Z</time></trkpt><trkpt lat="45.4719698" lon="7.6820668"><ele>1464.0</ele><time>2026-04-11T13:40:25.951Z</time></trkpt><trkpt lat="45.4719576" lon="7.6818853"><ele>1466.4</ele><time>2026-04-11T13:40:26.952Z</time></trkpt><trkpt lat="45.4719424" lon="7.6817012"><ele>1468.8000000000002</ele><time>2026-04-11T13:40:28.038Z</time></trkpt><trkpt lat="45.4719233" lon="7.6815445"><ele>1471.1999999999998</ele><time>2026-04-11T13:40:28.948Z</time></trkpt><trkpt lat="45.471899" lon="7.6814201"><ele>1473.6</ele><time>2026-04-11T13:40:30.014Z</time></trkpt><trkpt lat="45.4718762" lon="7.6813131"><ele>1476.0</ele><time>2026-04-11T13:40:30.96Z</time></trkpt><trkpt lat="45.4718657" lon="7.6812044"><ele>1477.6</ele><time>2026-04-11T13:40:31.956Z</time></trkpt><trkpt lat="45.471868" lon="7.6810625"><ele>1479.1999999999998</ele><time>2026-04-11T13:40:32.957Z</time></trkpt><trkpt lat="45.4718734" lon="7.6809002"><ele>1480.8000000000002</ele><time>2026-04-11T13:40:33.951Z</time></trkpt><trkpt lat="45.4718711" lon="7.6807395"><ele>1482.4</ele><time>2026-04-11T13:40:34.955Z</time></trkpt><trkpt lat="45.4718595" lon="7.6806069"><ele>1484.0</ele><time>2026-04-11T13:40:35.966Z</time></trkpt><trkpt lat="45.4718591" lon="7.6804763"><ele>1484.0</ele><time>2026-04-11T13:40:36.974Z</time></trkpt><trkpt lat="45.4718734" lon="7.6803207"><ele>1484.0</ele><time>2026-04-11T13:40:37.987Z</time></trkpt><trkpt lat="45.4718901" lon="7.6801712"><ele>1484.0</ele><time>2026-04-11T13:40:38.946Z</time></trkpt><trkpt lat="45.4719072" lon="7.680052"><ele>1484.0</ele><time>2026-04-11T13:40:39.958Z</time></trkpt><trkpt lat="45.4719265" lon="7.6799412"><ele>1484.0</ele><time>2026-04-11T13:40:40.952Z</time></trkpt><trkpt lat="45.4719615" lon="7.6798304"><ele>1485.5</ele><time>2026-04-11T13:40:41.956Z</time></trkpt><trkpt lat="45.472002" lon="7.6796868"><ele>1487.0</ele><time>2026-04-11T13:40:42.949Z</time></trkpt><trkpt lat="45.4720481" lon="7.6795107"><ele>1488.5</ele><time>2026-04-11T13:40:43.957Z</time></trkpt><trkpt lat="45.4720778" lon="7.6793487"><ele>1490.0</ele><time>2026-04-11T13:40:45.021Z</time></trkpt><trkpt lat="45.4720959" lon="7.6792166"><ele>1495.3333333333335</ele><time>2026-04-11T13:40:46.021Z</time></trkpt><trkpt lat="45.472107" lon="7.6791046"><ele>1500.6666666666667</ele><time>2026-04-11T13:40:46.96Z</time></trkpt><trkpt lat="45.4721167" lon="7.6790054"><ele>1506.0</ele><time>2026-04-11T13:40:47.945Z</time></trkpt><trkpt lat="45.4721424" lon="7.6788715"><ele>1511.3333333333333</ele><time>2026-04-11T13:40:49.958Z</time></trkpt><trkpt lat="45.4722032" lon="7.6788052"><ele>1516.6666666666665</ele><time>2026-04-11T13:40:51.958Z</time></trkpt><trkpt lat="45.4722878" lon="7.6788204"><ele>1522.0</ele><time>2026-04-11T13:40:53.971Z</time></trkpt><trkpt lat="45.4723731" lon="7.6789289"><ele>1522.0</ele><time>2026-04-11T13:40:55.945Z</time></trkpt><trkpt lat="45.4724246" lon="7.6790402"><ele>1522.0</ele><time>2026-04-11T13:40:56.957Z</time></trkpt><trkpt lat="45.4724716" lon="7.679175"><ele>1522.0</ele><time>2026-04-11T13:40:57.949Z</time></trkpt><trkpt lat="45.4725309" lon="7.6793191"><ele>1522.0</ele><time>2026-04-11T13:40:58.954Z</time></trkpt><trkpt lat="45.4726088" lon="7.679474"><ele>1521.0</ele><time>2026-04-11T13:40:59.945Z</time></trkpt><trkpt lat="45.4726839" lon="7.6796249"><ele>1520.0</ele><time>2026-04-11T13:41:00.951Z</time></trkpt><trkpt lat="45.4727367" lon="7.6797539"><ele>1519.0</ele><time>2026-04-11T13:41:01.95Z</time></trkpt><trkpt lat="45.4727692" lon="7.6798728"><ele>1518.0</ele><time>2026-04-11T13:41:02.95Z</time></trkpt><trkpt lat="45.4727888" lon="7.6799889"><ele>1517.0</ele><time>2026-04-11T13:41:03.954Z</time></trkpt><trkpt lat="45.4728002" lon="7.6800837"><ele>1517.0</ele><time>2026-04-11T13:41:04.952Z</time></trkpt><trkpt lat="45.4728354" lon="7.6802228"><ele>1517.0</ele><time>2026-04-11T13:41:06.951Z</time></trkpt><trkpt lat="45.4729031" lon="7.6802519"><ele>1517.0</ele><time>2026-04-11T13:41:08.952Z</time></trkpt><trkpt lat="45.4729425" lon="7.6801505"><ele>1517.0</ele><time>2026-04-11T13:41:10.951Z</time></trkpt><trkpt lat="45.4729456" lon="7.6800587"><ele>1517.0</ele><time>2026-04-11T13:41:11.953Z</time></trkpt><trkpt lat="45.4729338" lon="7.6799253"><ele>1517.0</ele><time>2026-04-11T13:41:12.942Z</time></trkpt><trkpt lat="45.4729256" lon="7.679783"><ele>1517.0</ele><time>2026-04-11T13:41:13.955Z</time></trkpt><trkpt lat="45.4729311" lon="7.6796714"><ele>1517.0</ele><time>2026-04-11T13:41:14.954Z</time></trkpt><trkpt lat="45.4729206" lon="7.6795089"><ele>1517.0</ele><time>2026-04-11T13:41:16.951Z</time></trkpt><trkpt lat="45.4728957" lon="7.6794078"><ele>1517.0</ele><time>2026-04-11T13:41:17.952Z</time></trkpt><trkpt lat="45.4728766" lon="7.6792785"><ele>1517.0</ele><time>2026-04-11T13:41:18.952Z</time></trkpt><trkpt lat="45.4728676" lon="7.6791312"><ele>1518.0</ele><time>2026-04-11T13:41:19.957Z</time></trkpt><trkpt lat="45.4728641" lon="7.6789679"><ele>1519.0</ele><time>2026-04-11T13:41:20.953Z</time></trkpt><trkpt lat="45.4728554" lon="7.6788233"><ele>1520.0</ele><time>2026-04-11T13:41:21.953Z</time></trkpt><trkpt lat="45.4728421" lon="7.6786923"><ele>1521.0</ele><time>2026-04-11T13:41:22.942Z</time></trkpt><trkpt lat="45.4728191" lon="7.678563"><ele>1522.0</ele><time>2026-04-11T13:41:23.954Z</time></trkpt><trkpt lat="45.4727932" lon="7.6784418"><ele>1523.0</ele><time>2026-04-11T13:41:24.95Z</time></trkpt><trkpt lat="45.4727763" lon="7.6783385"><ele>1524.0</ele><time>2026-04-11T13:41:25.956Z</time></trkpt><trkpt lat="45.4727683" lon="7.6782341"><ele>1525.0</ele><time>2026-04-11T13:41:26.952Z</time></trkpt><trkpt lat="45.4727618" lon="7.6781141"><ele>1526.0</ele><time>2026-04-11T13:41:28.018Z</time></trkpt><trkpt lat="45.4727595" lon="7.6779666"><ele>1527.0</ele><time>2026-04-11T13:41:28.944Z</time></trkpt><trkpt lat="45.4727525" lon="7.6778081"><ele>1528.0</ele><time>2026-04-11T13:41:30.016Z</time></trkpt><trkpt lat="45.4727378" lon="7.6776371"><ele>1529.6000000000001</ele><time>2026-04-11T13:41:30.955Z</time></trkpt><trkpt lat="45.4727152" lon="7.6774522"><ele>1531.2</ele><time>2026-04-11T13:41:31.955Z</time></trkpt><trkpt lat="45.4726984" lon="7.6772745"><ele>1532.8</ele><time>2026-04-11T13:41:32.961Z</time></trkpt><trkpt lat="45.4726871" lon="7.6771283"><ele>1534.4</ele><time>2026-04-11T13:41:33.946Z</time></trkpt><trkpt lat="45.4726822" lon="7.6770077"><ele>1536.0</ele><time>2026-04-11T13:41:34.957Z</time></trkpt><trkpt lat="45.4726796" lon="7.6769047"><ele>1536.8333333333333</ele><time>2026-04-11T13:41:35.956Z</time></trkpt><trkpt lat="45.4726872" lon="7.6767995"><ele>1537.6666666666665</ele><time>2026-04-11T13:41:36.954Z</time></trkpt><trkpt lat="45.4727043" lon="7.6766885"><ele>1538.5</ele><time>2026-04-11T13:41:38.026Z</time></trkpt><trkpt lat="45.4727237" lon="7.6765635"><ele>1539.3333333333333</ele><time>2026-04-11T13:41:38.952Z</time></trkpt><trkpt lat="45.4727385" lon="7.6764307"><ele>1540.1666666666665</ele><time>2026-04-11T13:41:39.952Z</time></trkpt><trkpt lat="45.4727455" lon="7.6763017"><ele>1541.0</ele><time>2026-04-11T13:41:40.953Z</time></trkpt><trkpt lat="45.4727513" lon="7.6761689"><ele>1541.1999999999998</ele><time>2026-04-11T13:41:41.956Z</time></trkpt><trkpt lat="45.4727608" lon="7.6760378"><ele>1541.3999999999999</ele><time>2026-04-11T13:41:42.949Z</time></trkpt><trkpt lat="45.4727714" lon="7.6759052"><ele>1541.6</ele><time>2026-04-11T13:41:43.955Z</time></trkpt><trkpt lat="45.4727845" lon="7.6757619"><ele>1541.8</ele><time>2026-04-11T13:41:45.054Z</time></trkpt><trkpt lat="45.4728018" lon="7.6755678"><ele>1542.0</ele><time>2026-04-11T13:41:46.022Z</time></trkpt><trkpt lat="45.4728273" lon="7.6753625"><ele>1542.75</ele><time>2026-04-11T13:41:46.956Z</time></trkpt><trkpt lat="45.472858" lon="7.6751673"><ele>1543.5</ele><time>2026-04-11T13:41:47.949Z</time></trkpt><trkpt lat="45.4728981" lon="7.6749938"><ele>1544.25</ele><time>2026-04-11T13:41:48.953Z</time></trkpt><trkpt lat="45.4729275" lon="7.6748454"><ele>1545.0</ele><time>2026-04-11T13:41:49.957Z</time></trkpt><trkpt lat="45.4729464" lon="7.6746977"><ele>1546.3333333333333</ele><time>2026-04-11T13:41:50.943Z</time></trkpt><trkpt lat="45.4729607" lon="7.6745696"><ele>1547.6666666666665</ele><time>2026-04-11T13:41:51.948Z</time></trkpt><trkpt lat="45.4729641" lon="7.6744685"><ele>1549.0</ele><time>2026-04-11T13:41:53.01Z</time></trkpt><trkpt lat="45.4729577" lon="7.6743689"><ele>1550.3333333333333</ele><time>2026-04-11T13:41:54.025Z</time></trkpt><trkpt lat="45.4729422" lon="7.6742585"><ele>1551.6666666666665</ele><time>2026-04-11T13:41:55.031Z</time></trkpt><trkpt lat="45.4729202" lon="7.6741311"><ele>1553.0</ele><time>2026-04-11T13:41:55.941Z</time></trkpt><trkpt lat="45.472904" lon="7.6740148"><ele>1552.9999999999998</ele><time>2026-04-11T13:41:56.952Z</time></trkpt><trkpt lat="45.472901" lon="7.6739193"><ele>1553.0</ele><time>2026-04-11T13:41:57.95Z</time></trkpt><trkpt lat="45.472914" lon="7.673813"><ele>1553.0</ele><time>2026-04-11T13:41:58.949Z</time></trkpt><trkpt lat="45.4729323" lon="7.6736998"><ele>1553.0</ele><time>2026-04-11T13:41:59.954Z</time></trkpt><trkpt lat="45.4729302" lon="7.6735842"><ele>1552.9999999999998</ele><time>2026-04-11T13:42:01.002Z</time></trkpt><trkpt lat="45.4729185" lon="7.6734625"><ele>1553.0</ele><time>2026-04-11T13:42:01.956Z</time></trkpt><trkpt lat="45.4729119" lon="7.6733423"><ele>1555.8333333333333</ele><time>2026-04-11T13:42:02.956Z</time></trkpt><trkpt lat="45.4729068" lon="7.6732457"><ele>1558.6666666666665</ele><time>2026-04-11T13:42:03.972Z</time></trkpt><trkpt lat="45.4728851" lon="7.6731585"><ele>1561.5</ele><time>2026-04-11T13:42:04.956Z</time></trkpt><trkpt lat="45.4728161" lon="7.6730345"><ele>1564.3333333333335</ele><time>2026-04-11T13:42:06.953Z</time></trkpt><trkpt lat="45.4728543" lon="7.6729388"><ele>1567.1666666666667</ele><time>2026-04-11T13:42:09.948Z</time></trkpt><trkpt lat="45.4729203" lon="7.6729884"><ele>1570.0</ele><time>2026-04-11T13:42:11.948Z</time></trkpt><trkpt lat="45.4730007" lon="7.6731439"><ele>1578.25</ele><time>2026-04-11T13:42:13.949Z</time></trkpt><trkpt lat="45.4730568" lon="7.6732775"><ele>1586.5</ele><time>2026-04-11T13:42:14.951Z</time></trkpt><trkpt lat="45.4731221" lon="7.6734448"><ele>1594.75</ele><time>2026-04-11T13:42:15.957Z</time></trkpt><trkpt lat="45.4731764" lon="7.6735962"><ele>1603.0</ele><time>2026-04-11T13:42:16.957Z</time></trkpt><trkpt lat="45.4732059" lon="7.6737129"><ele>1603.0</ele><time>2026-04-11T13:42:17.944Z</time></trkpt><trkpt lat="45.4732487" lon="7.6738411"><ele>1603.0</ele><time>2026-04-11T13:42:20.019Z</time></trkpt><trkpt lat="45.4733097" lon="7.6737903"><ele>1603.0</ele><time>2026-04-11T13:42:21.951Z</time></trkpt><trkpt lat="45.4733097" lon="7.6736205"><ele>1603.0</ele><time>2026-04-11T13:42:23.949Z</time></trkpt><trkpt lat="45.4733026" lon="7.6734767"><ele>1603.0</ele><time>2026-04-11T13:42:24.956Z</time></trkpt><trkpt lat="45.4732977" lon="7.6733293"><ele>1604.6000000000001</ele><time>2026-04-11T13:42:26.021Z</time></trkpt><trkpt lat="45.473293" lon="7.6731919"><ele>1606.2</ele><time>2026-04-11T13:42:26.951Z</time></trkpt><trkpt lat="45.4732843" lon="7.6730399"><ele>1607.8</ele><time>2026-04-11T13:42:27.954Z</time></trkpt><trkpt lat="45.4732749" lon="7.6728865"><ele>1609.4</ele><time>2026-04-11T13:42:28.954Z</time></trkpt><trkpt lat="45.4732593" lon="7.6727518"><ele>1611.0</ele><time>2026-04-11T13:42:29.953Z</time></trkpt><trkpt lat="45.4732372" lon="7.6726369"><ele>1612.5714285714287</ele><time>2026-04-11T13:42:30.952Z</time></trkpt><trkpt lat="45.473213" lon="7.6725435"><ele>1614.1428571428573</ele><time>2026-04-11T13:42:31.957Z</time></trkpt><trkpt lat="45.473176" lon="7.6724542"><ele>1615.7142857142858</ele><time>2026-04-11T13:42:32.951Z</time></trkpt><trkpt lat="45.4731304" lon="7.6723632"><ele>1617.2857142857142</ele><time>2026-04-11T13:42:34.011Z</time></trkpt><trkpt lat="45.4730781" lon="7.6722944"><ele>1618.857142857143</ele><time>2026-04-11T13:42:35.025Z</time></trkpt><trkpt lat="45.4730145" lon="7.6722436"><ele>1620.4285714285713</ele><time>2026-04-11T13:42:36.023Z</time></trkpt><trkpt lat="45.472948" lon="7.6722118"><ele>1622.0</ele><time>2026-04-11T13:42:36.951Z</time></trkpt><trkpt lat="45.4728653" lon="7.6721262"><ele>1622.0</ele><time>2026-04-11T13:42:38.946Z</time></trkpt><trkpt lat="45.4728613" lon="7.6720286"><ele>1622.0</ele><time>2026-04-11T13:42:40.951Z</time></trkpt><trkpt lat="45.4729324" lon="7.6719854"><ele>1622.0</ele><time>2026-04-11T13:42:42.946Z</time></trkpt><trkpt lat="45.4730496" lon="7.672045"><ele>1622.0</ele><time>2026-04-11T13:42:44.956Z</time></trkpt><trkpt lat="45.47314" lon="7.6721265"><ele>1622.0</ele><time>2026-04-11T13:42:45.954Z</time></trkpt><trkpt lat="45.4732443" lon="7.6722082"><ele>1622.0</ele><time>2026-04-11T13:42:46.947Z</time></trkpt><trkpt lat="45.4733385" lon="7.6722895"><ele>1622.0</ele><time>2026-04-11T13:42:47.952Z</time></trkpt><trkpt lat="45.4734054" lon="7.672358"><ele>1622.0</ele><time>2026-04-11T13:42:48.955Z</time></trkpt><trkpt lat="45.4734839" lon="7.6724814"><ele>1622.0</ele><time>2026-04-11T13:42:51.017Z</time></trkpt><trkpt lat="45.4735176" lon="7.672565"><ele>1622.0</ele><time>2026-04-11T13:42:51.95Z</time></trkpt><trkpt lat="45.473551" lon="7.672662"><ele>1621.9999999999998</ele><time>2026-04-11T13:42:52.953Z</time></trkpt><trkpt lat="45.4735835" lon="7.6727621"><ele>1622.0</ele><time>2026-04-11T13:42:53.964Z</time></trkpt><trkpt lat="45.4736119" lon="7.6728626"><ele>1622.0</ele><time>2026-04-11T13:42:54.952Z</time></trkpt><trkpt lat="45.4736663" lon="7.6729433"><ele>1622.0</ele><time>2026-04-11T13:42:56.953Z</time></trkpt><trkpt lat="45.4737195" lon="7.6728227"><ele>1621.9999999999998</ele><time>2026-04-11T13:42:59.953Z</time></trkpt><trkpt lat="45.4737079" lon="7.6727129"><ele>1622.0</ele><time>2026-04-11T13:43:00.946Z</time></trkpt><trkpt lat="45.4736992" lon="7.6725824"><ele>1622.0</ele><time>2026-04-11T13:43:01.955Z</time></trkpt><trkpt lat="45.4736897" lon="7.6724437"><ele>1622.0</ele><time>2026-04-11T13:43:02.95Z</time></trkpt><trkpt lat="45.4736801" lon="7.6722975"><ele>1622.0</ele><time>2026-04-11T13:43:03.947Z</time></trkpt><trkpt lat="45.4736561" lon="7.6721447"><ele>1622.0</ele><time>2026-04-11T13:43:04.954Z</time></trkpt><trkpt lat="45.4736217" lon="7.6720227"><ele>1622.0</ele><time>2026-04-11T13:43:05.948Z</time></trkpt><trkpt lat="45.4735955" lon="7.671936"><ele>1623.8333333333333</ele><time>2026-04-11T13:43:06.945Z</time></trkpt><trkpt lat="45.4735976" lon="7.6718423"><ele>1625.6666666666665</ele><time>2026-04-11T13:43:08.953Z</time></trkpt><trkpt lat="45.4736703" lon="7.6718058"><ele>1627.5</ele><time>2026-04-11T13:43:10.952Z</time></trkpt><trkpt lat="45.4737418" lon="7.6718664"><ele>1629.3333333333335</ele><time>2026-04-11T13:43:12.955Z</time></trkpt><trkpt lat="45.4737894" lon="7.6720343"><ele>1631.1666666666667</ele><time>2026-04-11T13:43:14.951Z</time></trkpt><trkpt lat="45.4738114" lon="7.6721555"><ele>1633.0</ele><time>2026-04-11T13:43:15.95Z</time></trkpt><trkpt lat="45.4738429" lon="7.6722848"><ele>1638.1666666666667</ele><time>2026-04-11T13:43:16.949Z</time></trkpt><trkpt lat="45.4738814" lon="7.6724062"><ele>1643.3333333333335</ele><time>2026-04-11T13:43:17.945Z</time></trkpt><trkpt lat="45.4739105" lon="7.6725361"><ele>1648.5</ele><time>2026-04-11T13:43:18.954Z</time></trkpt><trkpt lat="45.4739369" lon="7.6726383"><ele>1653.6666666666665</ele><time>2026-04-11T13:43:19.97Z</time></trkpt><trkpt lat="45.4739725" lon="7.6727388"><ele>1658.8333333333333</ele><time>2026-04-11T13:43:21.952Z</time></trkpt><trkpt lat="45.4740492" lon="7.6727165"><ele>1664.0</ele><time>2026-04-11T13:43:24.956Z</time></trkpt><trkpt lat="45.4740365" lon="7.6726033"><ele>1664.0</ele><time>2026-04-11T13:43:26.952Z</time></trkpt><trkpt lat="45.4740212" lon="7.6724332"><ele>1664.0</ele><time>2026-04-11T13:43:28.956Z</time></trkpt><trkpt lat="45.4740367" lon="7.6722299"><ele>1664.0</ele><time>2026-04-11T13:43:30.951Z</time></trkpt><trkpt lat="45.4740476" lon="7.6720761"><ele>1664.0</ele><time>2026-04-11T13:43:31.958Z</time></trkpt><trkpt lat="45.4740571" lon="7.6719024"><ele>1665.4</ele><time>2026-04-11T13:43:32.953Z</time></trkpt><trkpt lat="45.474058" lon="7.6717369"><ele>1666.8000000000002</ele><time>2026-04-11T13:43:33.935Z</time></trkpt><trkpt lat="45.4740518" lon="7.6715909"><ele>1668.1999999999998</ele><time>2026-04-11T13:43:34.952Z</time></trkpt><trkpt lat="45.4740312" lon="7.6714613"><ele>1669.6</ele><time>2026-04-11T13:43:35.961Z</time></trkpt><trkpt lat="45.4740029" lon="7.6713493"><ele>1671.0</ele><time>2026-04-11T13:43:36.945Z</time></trkpt><trkpt lat="45.4739745" lon="7.671256"><ele>1671.0</ele><time>2026-04-11T13:43:37.947Z</time></trkpt><trkpt lat="45.4739616" lon="7.6711279"><ele>1671.0</ele><time>2026-04-11T13:43:39.949Z</time></trkpt><trkpt lat="45.4740107" lon="7.6710648"><ele>1671.0</ele><time>2026-04-11T13:43:41.952Z</time></trkpt><trkpt lat="45.4741051" lon="7.6711221"><ele>1671.0</ele><time>2026-04-11T13:43:43.941Z</time></trkpt><trkpt lat="45.4741743" lon="7.6712818"><ele>1671.0</ele><time>2026-04-11T13:43:45.955Z</time></trkpt><trkpt lat="45.4742247" lon="7.6714149"><ele>1671.0</ele><time>2026-04-11T13:43:46.953Z</time></trkpt><trkpt lat="45.4742707" lon="7.6715541"><ele>1671.0</ele><time>2026-04-11T13:43:47.954Z</time></trkpt><trkpt lat="45.4742946" lon="7.6716645"><ele>1671.0</ele><time>2026-04-11T13:43:48.953Z</time></trkpt><trkpt lat="45.4743441" lon="7.6717745"><ele>1671.0</ele><time>2026-04-11T13:43:50.945Z</time></trkpt><trkpt lat="45.4744089" lon="7.6717246"><ele>1671.0</ele><time>2026-04-11T13:43:52.949Z</time></trkpt><trkpt lat="45.4744121" lon="7.6716137"><ele>1671.0</ele><time>2026-04-11T13:43:54.945Z</time></trkpt><trkpt lat="45.4743734" lon="7.6714936"><ele>1671.0</ele><time>2026-04-11T13:43:57.955Z</time></trkpt><trkpt lat="45.47435" lon="7.6713903"><ele>1671.0</ele><time>2026-04-11T13:43:59.951Z</time></trkpt><trkpt lat="45.4743201" lon="7.6712084"><ele>1671.0</ele><time>2026-04-11T13:44:01.96Z</time></trkpt><trkpt lat="45.4743073" lon="7.6711094"><ele>1671.0</ele><time>2026-04-11T13:44:02.939Z</time></trkpt><trkpt lat="45.4742984" lon="7.6710125"><ele>1671.0</ele><time>2026-04-11T13:44:04.017Z</time></trkpt><trkpt lat="45.4742659" lon="7.6708714"><ele>1674.0</ele><time>2026-04-11T13:44:05.95Z</time></trkpt><trkpt lat="45.4742323" lon="7.6707662"><ele>1677.0</ele><time>2026-04-11T13:44:07.948Z</time></trkpt><trkpt lat="45.4741714" lon="7.6706517"><ele>1680.0</ele><time>2026-04-11T13:44:09.958Z</time></trkpt><trkpt lat="45.4741393" lon="7.6705554"><ele>1683.0</ele><time>2026-04-11T13:44:10.956Z</time></trkpt><trkpt lat="45.4741122" lon="7.6704421"><ele>1686.0</ele><time>2026-04-11T13:44:11.952Z</time></trkpt><trkpt lat="45.4741052" lon="7.670285"><ele>1687.8</ele><time>2026-04-11T13:44:13.949Z</time></trkpt><trkpt lat="45.4741391" lon="7.670113"><ele>1689.6</ele><time>2026-04-11T13:44:15.951Z</time></trkpt><trkpt lat="45.474162" lon="7.6700047"><ele>1691.4</ele><time>2026-04-11T13:44:16.956Z</time></trkpt><trkpt lat="45.4742" lon="7.6698834"><ele>1693.2</ele><time>2026-04-11T13:44:17.952Z</time></trkpt><trkpt lat="45.474246" lon="7.6697412"><ele>1695.0</ele><time>2026-04-11T13:44:18.982Z</time></trkpt><trkpt lat="45.4743052" lon="7.6695665"><ele>1695.6</ele><time>2026-04-11T13:44:19.951Z</time></trkpt><trkpt lat="45.4743663" lon="7.6693856"><ele>1696.2</ele><time>2026-04-11T13:44:20.956Z</time></trkpt><trkpt lat="45.4744094" lon="7.6692251"><ele>1696.8000000000002</ele><time>2026-04-11T13:44:21.952Z</time></trkpt><trkpt lat="45.474434" lon="7.6690826"><ele>1697.4</ele><time>2026-04-11T13:44:22.952Z</time></trkpt><trkpt lat="45.4744421" lon="7.6689703"><ele>1698.0</ele><time>2026-04-11T13:44:23.951Z</time></trkpt><trkpt lat="45.474457" lon="7.6688553"><ele>1698.0</ele><time>2026-04-11T13:44:26.034Z</time></trkpt><trkpt lat="45.4745561" lon="7.6688559"><ele>1698.0</ele><time>2026-04-11T13:44:28.956Z</time></trkpt><trkpt lat="45.4746012" lon="7.6689811"><ele>1698.0</ele><time>2026-04-11T13:44:31.95Z</time></trkpt><trkpt lat="45.4745932" lon="7.669079"><ele>1698.0</ele><time>2026-04-11T13:44:32.948Z</time></trkpt><trkpt lat="45.4745791" lon="7.6692454"><ele>1698.0</ele><time>2026-04-11T13:44:34.947Z</time></trkpt><trkpt lat="45.4745989" lon="7.6694237"><ele>1705.8000000000002</ele><time>2026-04-11T13:44:36.936Z</time></trkpt><trkpt lat="45.4746158" lon="7.6695811"><ele>1713.6</ele><time>2026-04-11T13:44:37.944Z</time></trkpt><trkpt lat="45.4746265" lon="7.66975"><ele>1721.3999999999999</ele><time>2026-04-11T13:44:38.943Z</time></trkpt><trkpt lat="45.4746162" lon="7.6698878"><ele>1729.1999999999998</ele><time>2026-04-11T13:44:39.938Z</time></trkpt><trkpt lat="45.474621" lon="7.6699775"><ele>1737.0</ele><time>2026-04-11T13:44:40.938Z</time></trkpt><trkpt lat="45.4746451" lon="7.6700654"><ele>1737.0</ele><time>2026-04-11T13:44:42.942Z</time></trkpt><trkpt lat="45.4747174" lon="7.6700148"><ele>1736.9999999999998</ele><time>2026-04-11T13:44:45.951Z</time></trkpt><trkpt lat="45.4747298" lon="7.6698661"><ele>1736.9999999999998</ele><time>2026-04-11T13:44:47.948Z</time></trkpt><trkpt lat="45.4747388" lon="7.669701"><ele>1737.0</ele><time>2026-04-11T13:44:49.949Z</time></trkpt><trkpt lat="45.4747501" lon="7.6695839"><ele>1737.0</ele><time>2026-04-11T13:44:51.958Z</time></trkpt><trkpt lat="45.4747901" lon="7.6694442"><ele>1737.0</ele><time>2026-04-11T13:44:53.955Z</time></trkpt><trkpt lat="45.4748081" lon="7.6693572"><ele>1737.0</ele><time>2026-04-11T13:44:54.953Z</time></trkpt><trkpt lat="45.4748556" lon="7.669203"><ele>1737.0</ele><time>2026-04-11T13:44:56.943Z</time></trkpt><trkpt lat="45.4749161" lon="7.6690523"><ele>1737.0</ele><time>2026-04-11T13:44:58.951Z</time></trkpt><trkpt lat="45.47495" lon="7.6689663"><ele>1737.0</ele><time>2026-04-11T13:44:59.947Z</time></trkpt><trkpt lat="45.4749836" lon="7.6688898"><ele>1737.0</ele><time>2026-04-11T13:45:00.947Z</time></trkpt><trkpt lat="45.4750338" lon="7.6687569"><ele>1737.0</ele><time>2026-04-11T13:45:02.952Z</time></trkpt><trkpt lat="45.4750783" lon="7.6686417"><ele>1737.0</ele><time>2026-04-11T13:45:04.953Z</time></trkpt><trkpt lat="45.4751245" lon="7.6685211"><ele>1737.0</ele><time>2026-04-11T13:45:06.956Z</time></trkpt><trkpt lat="45.4751721" lon="7.6683902"><ele>1737.0</ele><time>2026-04-11T13:45:09.015Z</time></trkpt><trkpt lat="45.4752148" lon="7.6682929"><ele>1737.0</ele><time>2026-04-11T13:45:10.954Z</time></trkpt><trkpt lat="45.4752892" lon="7.6682725"><ele>1737.0</ele><time>2026-04-11T13:45:21.948Z</time></trkpt><trkpt lat="45.4753317" lon="7.6683492"><ele>1737.0</ele><time>2026-04-11T13:45:28.951Z</time></trkpt><trkpt lat="45.4753276" lon="7.6684402"><ele>1737.0</ele><time>2026-04-11T13:45:32.95Z</time></trkpt><trkpt lat="45.4753148" lon="7.6685396"><ele>1737.0</ele><time>2026-04-11T13:45:49.948Z</time></trkpt><trkpt lat="45.4752815" lon="7.6686341"><ele>1737.0</ele><time>2026-04-11T13:45:55.95Z</time></trkpt><trkpt lat="45.4752649" lon="7.6687489"><ele>1737.0</ele><time>2026-04-11T13:45:59.044Z</time></trkpt><trkpt lat="45.4752448" lon="7.6689108"><ele>1737.0</ele><time>2026-04-11T13:46:01.017Z</time></trkpt><trkpt lat="45.4752415" lon="7.6690006"><ele>1737.0</ele><time>2026-04-11T13:46:01.955Z</time></trkpt><trkpt lat="45.475241" lon="7.669159"><ele>1736.9999999999998</ele><time>2026-04-11T13:46:03.952Z</time></trkpt><trkpt lat="45.4752365" lon="7.6693186"><ele>1736.9999999999998</ele><time>2026-04-11T13:46:05.946Z</time></trkpt><trkpt lat="45.4752366" lon="7.6694577"><ele>1737.0</ele><time>2026-04-11T13:46:08.036Z</time></trkpt><trkpt lat="45.4752667" lon="7.6695577"><ele>1737.0</ele><time>2026-04-11T13:46:09.952Z</time></trkpt><trkpt lat="45.4753296" lon="7.669553"><ele>1737.0</ele><time>2026-04-11T13:46:22.952Z</time></trkpt><trkpt lat="45.4753957" lon="7.6695117"><ele>1737.0</ele><time>2026-04-11T13:48:51.941Z</time></trkpt><trkpt lat="45.4754337" lon="7.6694127"><ele>1737.0</ele><time>2026-04-11T14:14:52.943Z</time></trkpt><trkpt lat="45.4754094" lon="7.6694973"><ele>1737.0</ele><time>2026-04-11T14:16:01.936Z</time></trkpt><trkpt lat="45.4753526" lon="7.6695448"><ele>1737.0</ele><time>2026-04-11T14:19:33.951Z</time></trkpt><trkpt lat="45.4754004" lon="7.6694829"><ele>1737.0</ele><time>2026-04-11T14:22:47.953Z</time></trkpt><trkpt lat="45.4753611" lon="7.6695626"><ele>1737.0</ele><time>2026-04-11T14:24:48.952Z</time></trkpt><trkpt lat="45.4752945" lon="7.6695827"><ele>1737.0</ele><time>2026-04-11T14:24:53.949Z</time></trkpt><trkpt lat="45.4752419" lon="7.6695172"><ele>1737.0</ele><time>2026-04-11T14:25:22.946Z</time></trkpt><trkpt lat="45.475215" lon="7.669416"><ele>1737.0</ele><time>2026-04-11T14:27:03.956Z</time></trkpt><trkpt lat="45.4752119" lon="7.6693241"><ele>1737.0</ele><time>2026-04-11T14:27:05.957Z</time></trkpt><trkpt lat="45.475212" lon="7.6692188"><ele>1737.0</ele><time>2026-04-11T14:27:07.958Z</time></trkpt><trkpt lat="45.4752112" lon="7.6691198"><ele>1737.0</ele><time>2026-04-11T14:27:09.954Z</time></trkpt><trkpt lat="45.4752097" lon="7.6690148"><ele>1737.0</ele><time>2026-04-11T14:27:11.957Z</time></trkpt><trkpt lat="45.4752174" lon="7.6689122"><ele>1737.0</ele><time>2026-04-11T14:27:13.946Z</time></trkpt><trkpt lat="45.4752291" lon="7.6688133"><ele>1737.0</ele><time>2026-04-11T14:27:15.95Z</time></trkpt><trkpt lat="45.4752428" lon="7.6687144"><ele>1737.0</ele><time>2026-04-11T14:27:17.952Z</time></trkpt><trkpt lat="45.4752684" lon="7.6686054"><ele>1737.0</ele><time>2026-04-11T14:27:19.938Z</time></trkpt><trkpt lat="45.475297" lon="7.6685205"><ele>1737.0</ele><time>2026-04-11T14:27:29.945Z</time></trkpt><trkpt lat="45.4753321" lon="7.668418"><ele>1737.0</ele><time>2026-04-11T14:27:56.952Z</time></trkpt><trkpt lat="45.475309" lon="7.6683138"><ele>1737.0</ele><time>2026-04-11T14:28:01.01Z</time></trkpt><trkpt lat="45.4752495" lon="7.6682754"><ele>1737.0</ele><time>2026-04-11T14:28:03.952Z</time></trkpt><trkpt lat="45.4751843" lon="7.6683181"><ele>1737.0</ele><time>2026-04-11T14:28:09.956Z</time></trkpt><trkpt lat="45.4751481" lon="7.6684116"><ele>1737.0</ele><time>2026-04-11T14:28:13.947Z</time></trkpt><trkpt lat="45.4751068" lon="7.6685283"><ele>1737.0</ele><time>2026-04-11T14:28:16.945Z</time></trkpt><trkpt lat="45.4750585" lon="7.6686348"><ele>1737.0</ele><time>2026-04-11T14:28:20.015Z</time></trkpt><trkpt lat="45.4750151" lon="7.6687526"><ele>1737.0</ele><time>2026-04-11T14:28:22.957Z</time></trkpt><trkpt lat="45.4749844" lon="7.6688365"><ele>1737.0</ele><time>2026-04-11T14:28:24.952Z</time></trkpt><trkpt lat="45.4749516" lon="7.6689286"><ele>1737.0</ele><time>2026-04-11T14:28:26.948Z</time></trkpt><trkpt lat="45.47491" lon="7.6690219"><ele>1737.0</ele><time>2026-04-11T14:28:28.951Z</time></trkpt><trkpt lat="45.4748706" lon="7.6691084"><ele>1737.0</ele><time>2026-04-11T14:28:31.011Z</time></trkpt><trkpt lat="45.4748321" lon="7.6692082"><ele>1737.0</ele><time>2026-04-11T14:28:32.95Z</time></trkpt><trkpt lat="45.4747932" lon="7.6692985"><ele>1737.0</ele><time>2026-04-11T14:28:34.94Z</time></trkpt><trkpt lat="45.4747697" lon="7.6694064"><ele>1737.0</ele><time>2026-04-11T14:28:36.948Z</time></trkpt><trkpt lat="45.4747498" lon="7.6695099"><ele>1737.0</ele><time>2026-04-11T14:28:39.017Z</time></trkpt><trkpt lat="45.4747401" lon="7.6696149"><ele>1737.0</ele><time>2026-04-11T14:28:41.026Z</time></trkpt><trkpt lat="45.474722" lon="7.66971"><ele>1737.0</ele><time>2026-04-11T14:28:42.952Z</time></trkpt><trkpt lat="45.4747084" lon="7.6697997"><ele>1737.0</ele><time>2026-04-11T14:28:44.959Z</time></trkpt><trkpt lat="45.4747063" lon="7.6699062"><ele>1737.0</ele><time>2026-04-11T14:28:46.941Z</time></trkpt><trkpt lat="45.474702" lon="7.670015"><ele>1737.0</ele><time>2026-04-11T14:28:48.952Z</time></trkpt><trkpt lat="45.4746479" lon="7.6700897"><ele>1730.5</ele><time>2026-04-11T14:28:52.015Z</time></trkpt><trkpt lat="45.4746023" lon="7.6700096"><ele>1724.0</ele><time>2026-04-11T14:28:54.957Z</time></trkpt><trkpt lat="45.4745986" lon="7.6698877"><ele>1717.5</ele><time>2026-04-11T14:28:56.957Z</time></trkpt><trkpt lat="45.4745969" lon="7.6697791"><ele>1711.0</ele><time>2026-04-11T14:28:59.02Z</time></trkpt><trkpt lat="45.4745921" lon="7.6696471"><ele>1704.5</ele><time>2026-04-11T14:29:01.022Z</time></trkpt><trkpt lat="45.4745891" lon="7.6695071"><ele>1698.0</ele><time>2026-04-11T14:29:02.949Z</time></trkpt><trkpt lat="45.4745781" lon="7.6693752"><ele>1698.0</ele><time>2026-04-11T14:29:04.949Z</time></trkpt><trkpt lat="45.4745637" lon="7.6692579"><ele>1698.0</ele><time>2026-04-11T14:29:06.951Z</time></trkpt><trkpt lat="45.4745692" lon="7.6691513"><ele>1698.0</ele><time>2026-04-11T14:29:08.948Z</time></trkpt><trkpt lat="45.4745821" lon="7.669042"><ele>1698.0</ele><time>2026-04-11T14:29:11.021Z</time></trkpt><trkpt lat="45.4745839" lon="7.6689148"><ele>1698.0</ele><time>2026-04-11T14:29:12.957Z</time></trkpt><trkpt lat="45.4745409" lon="7.6688315"><ele>1698.0</ele><time>2026-04-11T14:29:14.951Z</time></trkpt><trkpt lat="45.4744677" lon="7.6688514"><ele>1698.0</ele><time>2026-04-11T14:29:16.947Z</time></trkpt><trkpt lat="45.4744275" lon="7.6689319"><ele>1698.0</ele><time>2026-04-11T14:29:18.95Z</time></trkpt><trkpt lat="45.4744204" lon="7.6690431"><ele>1698.0</ele><time>2026-04-11T14:29:20.962Z</time></trkpt><trkpt lat="45.4744049" lon="7.6691905"><ele>1698.0</ele><time>2026-04-11T14:29:22.943Z</time></trkpt><trkpt lat="45.4743679" lon="7.6693348"><ele>1698.0</ele><time>2026-04-11T14:29:24.948Z</time></trkpt><trkpt lat="45.4743127" lon="7.6694687"><ele>1697.4</ele><time>2026-04-11T14:29:26.949Z</time></trkpt><trkpt lat="45.4742629" lon="7.6696096"><ele>1696.8000000000002</ele><time>2026-04-11T14:29:28.952Z</time></trkpt><trkpt lat="45.4742145" lon="7.6697612"><ele>1696.2</ele><time>2026-04-11T14:29:30.953Z</time></trkpt><trkpt lat="45.4741733" lon="7.669889"><ele>1695.6</ele><time>2026-04-11T14:29:32.951Z</time></trkpt><trkpt lat="45.4741392" lon="7.6700154"><ele>1695.0</ele><time>2026-04-11T14:29:35.016Z</time></trkpt><trkpt lat="45.4741134" lon="7.6701451"><ele>1695.0</ele><time>2026-04-11T14:29:37.026Z</time></trkpt><trkpt lat="45.4740881" lon="7.6702658"><ele>1695.0</ele><time>2026-04-11T14:29:38.955Z</time></trkpt><trkpt lat="45.4740817" lon="7.6703761"><ele>1695.0</ele><time>2026-04-11T14:29:40.959Z</time></trkpt><trkpt lat="45.4740956" lon="7.6705069"><ele>1695.0</ele><time>2026-04-11T14:29:42.957Z</time></trkpt><trkpt lat="45.4741322" lon="7.6706289"><ele>1695.0</ele><time>2026-04-11T14:29:45.032Z</time></trkpt><trkpt lat="45.4741744" lon="7.6707198"><ele>1695.0</ele><time>2026-04-11T14:29:46.952Z</time></trkpt><trkpt lat="45.4742163" lon="7.6708245"><ele>1693.5</ele><time>2026-04-11T14:29:50.038Z</time></trkpt><trkpt lat="45.4742619" lon="7.6709536"><ele>1692.0</ele><time>2026-04-11T14:29:52.967Z</time></trkpt><trkpt lat="45.4742864" lon="7.6710553"><ele>1690.5</ele><time>2026-04-11T14:29:54.961Z</time></trkpt><trkpt lat="45.4742988" lon="7.6711685"><ele>1689.0</ele><time>2026-04-11T14:29:56.969Z</time></trkpt><trkpt lat="45.4743171" lon="7.6712871"><ele>1687.5</ele><time>2026-04-11T14:29:59.03Z</time></trkpt><trkpt lat="45.4743322" lon="7.6713953"><ele>1686.0</ele><time>2026-04-11T14:30:01.969Z</time></trkpt><trkpt lat="45.4743635" lon="7.6714909"><ele>1683.5</ele><time>2026-04-11T14:30:05.962Z</time></trkpt><trkpt lat="45.4743964" lon="7.6716176"><ele>1681.0</ele><time>2026-04-11T14:30:09.045Z</time></trkpt><trkpt lat="45.4743647" lon="7.6717372"><ele>1678.5</ele><time>2026-04-11T14:30:10.97Z</time></trkpt><trkpt lat="45.4743012" lon="7.6717504"><ele>1676.0</ele><time>2026-04-11T14:30:12.969Z</time></trkpt><trkpt lat="45.4742672" lon="7.6716671"><ele>1673.5</ele><time>2026-04-11T14:30:14.962Z</time></trkpt><trkpt lat="45.4742401" lon="7.6715451"><ele>1671.0</ele><time>2026-04-11T14:30:16.956Z</time></trkpt><trkpt lat="45.4742063" lon="7.6714215"><ele>1671.0</ele><time>2026-04-11T14:30:19.021Z</time></trkpt><trkpt lat="45.4741679" lon="7.6712982"><ele>1671.0</ele><time>2026-04-11T14:30:20.973Z</time></trkpt><trkpt lat="45.4741221" lon="7.6711887"><ele>1671.0</ele><time>2026-04-11T14:30:22.964Z</time></trkpt><trkpt lat="45.4740682" lon="7.6711112"><ele>1671.0</ele><time>2026-04-11T14:30:24.967Z</time></trkpt><trkpt lat="45.4739753" lon="7.6711053"><ele>1671.0</ele><time>2026-04-11T14:30:27.964Z</time></trkpt><trkpt lat="45.473948" lon="7.6712212"><ele>1671.0</ele><time>2026-04-11T14:30:30.969Z</time></trkpt><trkpt lat="45.4739931" lon="7.6713809"><ele>1671.0</ele><time>2026-04-11T14:30:32.964Z</time></trkpt><trkpt lat="45.4740182" lon="7.6714929"><ele>1671.0</ele><time>2026-04-11T14:30:33.967Z</time></trkpt><trkpt lat="45.4740296" lon="7.6715878"><ele>1671.0</ele><time>2026-04-11T14:30:35.026Z</time></trkpt><trkpt lat="45.4740429" lon="7.6716759"><ele>1671.0</ele><time>2026-04-11T14:30:36.029Z</time></trkpt><trkpt lat="45.4740519" lon="7.6718509"><ele>1671.0</ele><time>2026-04-11T14:30:37.969Z</time></trkpt><trkpt lat="45.4740399" lon="7.6720144"><ele>1669.6</ele><time>2026-04-11T14:30:39.981Z</time></trkpt><trkpt lat="45.4740199" lon="7.6721748"><ele>1668.1999999999998</ele><time>2026-04-11T14:30:42.027Z</time></trkpt><trkpt lat="45.4740081" lon="7.6723078"><ele>1666.8000000000002</ele><time>2026-04-11T14:30:44.024Z</time></trkpt><trkpt lat="45.4739968" lon="7.6724273"><ele>1665.4</ele><time>2026-04-11T14:30:46.025Z</time></trkpt><trkpt lat="45.4740062" lon="7.6725473"><ele>1664.0</ele><time>2026-04-11T14:30:47.966Z</time></trkpt><trkpt lat="45.4740252" lon="7.6726671"><ele>1663.9999999999998</ele><time>2026-04-11T14:30:49.97Z</time></trkpt><trkpt lat="45.4740166" lon="7.6727561"><ele>1664.0</ele><time>2026-04-11T14:30:51.97Z</time></trkpt><trkpt lat="45.4739478" lon="7.672723"><ele>1664.0</ele><time>2026-04-11T14:30:54.962Z</time></trkpt><trkpt lat="45.4739081" lon="7.6726286"><ele>1664.0</ele><time>2026-04-11T14:30:56.958Z</time></trkpt><trkpt lat="45.4738851" lon="7.6725278"><ele>1663.9999999999998</ele><time>2026-04-11T14:30:58.973Z</time></trkpt><trkpt lat="45.4738609" lon="7.6724081"><ele>1664.0</ele><time>2026-04-11T14:31:00.969Z</time></trkpt><trkpt lat="45.4738325" lon="7.6722936"><ele>1663.9999999999998</ele><time>2026-04-11T14:31:02.958Z</time></trkpt><trkpt lat="45.4738011" lon="7.6721669"><ele>1664.0</ele><time>2026-04-11T14:31:04.964Z</time></trkpt><trkpt lat="45.4737716" lon="7.6720437"><ele>1664.0</ele><time>2026-04-11T14:31:06.962Z</time></trkpt><trkpt lat="45.4737505" lon="7.6719334"><ele>1664.0</ele><time>2026-04-11T14:31:09.034Z</time></trkpt><trkpt lat="45.473711" lon="7.671854"><ele>1663.9999999999998</ele><time>2026-04-11T14:31:11.033Z</time></trkpt><trkpt lat="45.4736406" lon="7.6718184"><ele>1664.0</ele><time>2026-04-11T14:31:12.967Z</time></trkpt><trkpt lat="45.473581" lon="7.6718723"><ele>1656.9999999999998</ele><time>2026-04-11T14:31:14.965Z</time></trkpt><trkpt lat="45.4735864" lon="7.6719724"><ele>1650.0</ele><time>2026-04-11T14:31:16.96Z</time></trkpt><trkpt lat="45.4736239" lon="7.6720884"><ele>1643.0</ele><time>2026-04-11T14:31:18.968Z</time></trkpt><trkpt lat="45.473649" lon="7.6722104"><ele>1636.0</ele><time>2026-04-11T14:31:20.966Z</time></trkpt><trkpt lat="45.4736574" lon="7.6723348"><ele>1628.9999999999998</ele><time>2026-04-11T14:31:22.968Z</time></trkpt><trkpt lat="45.4736668" lon="7.6724567"><ele>1622.0</ele><time>2026-04-11T14:31:24.964Z</time></trkpt><trkpt lat="45.4736668" lon="7.6725844"><ele>1621.9999999999998</ele><time>2026-04-11T14:31:26.97Z</time></trkpt><trkpt lat="45.4736793" lon="7.6727044"><ele>1622.0</ele><time>2026-04-11T14:31:28.963Z</time></trkpt><trkpt lat="45.4736886" lon="7.6728289"><ele>1622.0</ele><time>2026-04-11T14:31:30.971Z</time></trkpt><trkpt lat="45.4736835" lon="7.6729269"><ele>1622.0</ele><time>2026-04-11T14:31:32.966Z</time></trkpt><trkpt lat="45.4736144" lon="7.6729046"><ele>1621.9999999999998</ele><time>2026-04-11T14:31:35.97Z</time></trkpt><trkpt lat="45.4735814" lon="7.6727979"><ele>1622.0</ele><time>2026-04-11T14:31:37.973Z</time></trkpt><trkpt lat="45.4735441" lon="7.6726584"><ele>1622.0</ele><time>2026-04-11T14:31:39.966Z</time></trkpt><trkpt lat="45.4734909" lon="7.6725217"><ele>1622.0</ele><time>2026-04-11T14:31:41.96Z</time></trkpt><trkpt lat="45.4734322" lon="7.6723919"><ele>1622.0</ele><time>2026-04-11T14:31:43.964Z</time></trkpt><trkpt lat="45.4733469" lon="7.6723089"><ele>1622.0</ele><time>2026-04-11T14:31:45.973Z</time></trkpt><trkpt lat="45.4732883" lon="7.6722529"><ele>1622.0</ele><time>2026-04-11T14:31:46.969Z</time></trkpt><trkpt lat="45.4732287" lon="7.6721996"><ele>1621.9999999999998</ele><time>2026-04-11T14:31:47.967Z</time></trkpt><trkpt lat="45.4731727" lon="7.6721528"><ele>1622.0</ele><time>2026-04-11T14:31:48.969Z</time></trkpt><trkpt lat="45.4730729" lon="7.6720829"><ele>1622.0</ele><time>2026-04-11T14:31:50.969Z</time></trkpt><trkpt lat="45.4729903" lon="7.672021"><ele>1622.0</ele><time>2026-04-11T14:31:52.966Z</time></trkpt><trkpt lat="45.4729105" lon="7.6719972"><ele>1621.9999999999998</ele><time>2026-04-11T14:31:54.965Z</time></trkpt><trkpt lat="45.4728518" lon="7.6720336"><ele>1622.0</ele><time>2026-04-11T14:31:56.967Z</time></trkpt><trkpt lat="45.4728622" lon="7.6721607"><ele>1621.9999999999998</ele><time>2026-04-11T14:32:00.039Z</time></trkpt><trkpt lat="45.4729351" lon="7.6722185"><ele>1622.0</ele><time>2026-04-11T14:32:01.962Z</time></trkpt><trkpt lat="45.4730221" lon="7.6722576"><ele>1622.0</ele><time>2026-04-11T14:32:03.96Z</time></trkpt><trkpt lat="45.4731007" lon="7.6723394"><ele>1622.0</ele><time>2026-04-11T14:32:05.979Z</time></trkpt><trkpt lat="45.4731525" lon="7.67244"><ele>1621.9999999999998</ele><time>2026-04-11T14:32:07.967Z</time></trkpt><trkpt lat="45.4731874" lon="7.6725498"><ele>1622.0</ele><time>2026-04-11T14:32:09.972Z</time></trkpt><trkpt lat="45.4732213" lon="7.6726678"><ele>1620.1666666666665</ele><time>2026-04-11T14:32:12.033Z</time></trkpt><trkpt lat="45.4732412" lon="7.6727804"><ele>1618.3333333333333</ele><time>2026-04-11T14:32:13.958Z</time></trkpt><trkpt lat="45.4732533" lon="7.6729096"><ele>1616.5</ele><time>2026-04-11T14:32:15.964Z</time></trkpt><trkpt lat="45.473264" lon="7.6730414"><ele>1614.6666666666665</ele><time>2026-04-11T14:32:17.97Z</time></trkpt><trkpt lat="45.4732642" lon="7.6731631"><ele>1612.8333333333333</ele><time>2026-04-11T14:32:19.969Z</time></trkpt><trkpt lat="45.4732714" lon="7.6732971"><ele>1611.0</ele><time>2026-04-11T14:32:21.971Z</time></trkpt><trkpt lat="45.4732798" lon="7.6734525"><ele>1611.0</ele><time>2026-04-11T14:32:24.023Z</time></trkpt><trkpt lat="45.473285" lon="7.6735984"><ele>1611.0</ele><time>2026-04-11T14:32:25.967Z</time></trkpt><trkpt lat="45.4732906" lon="7.6737405"><ele>1611.0</ele><time>2026-04-11T14:32:27.963Z</time></trkpt><trkpt lat="45.4732552" lon="7.6738252"><ele>1611.0</ele><time>2026-04-11T14:32:29.963Z</time></trkpt><trkpt lat="45.4731821" lon="7.6737423"><ele>1611.0</ele><time>2026-04-11T14:32:32.962Z</time></trkpt><trkpt lat="45.4731671" lon="7.6736157"><ele>1611.0</ele><time>2026-04-11T14:32:34.96Z</time></trkpt><trkpt lat="45.4731382" lon="7.6734873"><ele>1611.0</ele><time>2026-04-11T14:32:36.961Z</time></trkpt><trkpt lat="45.4730865" lon="7.6733728"><ele>1611.0</ele><time>2026-04-11T14:32:38.964Z</time></trkpt><trkpt lat="45.4730407" lon="7.6732563"><ele>1611.0</ele><time>2026-04-11T14:32:41.038Z</time></trkpt><trkpt lat="45.4730002" lon="7.67315"><ele>1611.0</ele><time>2026-04-11T14:32:42.965Z</time></trkpt><trkpt lat="45.4729547" lon="7.6730534"><ele>1604.1666666666667</ele><time>2026-04-11T14:32:44.962Z</time></trkpt><trkpt lat="45.4729007" lon="7.6729785"><ele>1597.3333333333335</ele><time>2026-04-11T14:32:47.052Z</time></trkpt><trkpt lat="45.472818" lon="7.672965"><ele>1590.5</ele><time>2026-04-11T14:32:49.993Z</time></trkpt><trkpt lat="45.4727894" lon="7.6730496"><ele>1583.6666666666667</ele><time>2026-04-11T14:32:53.984Z</time></trkpt><trkpt lat="45.4728403" lon="7.67319"><ele>1576.8333333333335</ele><time>2026-04-11T14:33:37.967Z</time></trkpt><trkpt lat="45.4728786" lon="7.6733196"><ele>1570.0</ele><time>2026-04-11T14:33:39.957Z</time></trkpt><trkpt lat="45.4728985" lon="7.673472"><ele>1566.6</ele><time>2026-04-11T14:33:41.966Z</time></trkpt><trkpt lat="45.4729165" lon="7.6736142"><ele>1563.2</ele><time>2026-04-11T14:33:43.963Z</time></trkpt><trkpt lat="45.4729126" lon="7.6737534"><ele>1559.8000000000002</ele><time>2026-04-11T14:33:45.961Z</time></trkpt><trkpt lat="45.4728911" lon="7.6738952"><ele>1556.4</ele><time>2026-04-11T14:33:47.971Z</time></trkpt><trkpt lat="45.4728932" lon="7.6740424"><ele>1553.0</ele><time>2026-04-11T14:33:49.988Z</time></trkpt><trkpt lat="45.4729219" lon="7.6741862"><ele>1551.4</ele><time>2026-04-11T14:33:52.045Z</time></trkpt><trkpt lat="45.4729478" lon="7.674342"><ele>1549.8000000000002</ele><time>2026-04-11T14:33:53.961Z</time></trkpt><trkpt lat="45.4729594" lon="7.6744941"><ele>1548.2</ele><time>2026-04-11T14:33:55.969Z</time></trkpt><trkpt lat="45.4729391" lon="7.6746859"><ele>1546.6</ele><time>2026-04-11T14:33:57.97Z</time></trkpt><trkpt lat="45.472922" lon="7.6747866"><ele>1545.0</ele><time>2026-04-11T14:33:58.985Z</time></trkpt><trkpt lat="45.472904" lon="7.6748822"><ele>1545.0</ele><time>2026-04-11T14:34:00.007Z</time></trkpt><trkpt lat="45.472882" lon="7.6749834"><ele>1545.0</ele><time>2026-04-11T14:34:01.031Z</time></trkpt><trkpt lat="45.4728536" lon="7.6750814"><ele>1545.0</ele><time>2026-04-11T14:34:02.035Z</time></trkpt><trkpt lat="45.4728345" lon="7.6751827"><ele>1545.0</ele><time>2026-04-11T14:34:02.974Z</time></trkpt><trkpt lat="45.472815" lon="7.675299"><ele>1545.0</ele><time>2026-04-11T14:34:03.976Z</time></trkpt><trkpt lat="45.4728017" lon="7.6754073"><ele>1545.0</ele><time>2026-04-11T14:34:04.987Z</time></trkpt><trkpt lat="45.4727919" lon="7.67552"><ele>1544.5</ele><time>2026-04-11T14:34:06.026Z</time></trkpt><trkpt lat="45.4727757" lon="7.6756362"><ele>1544.0</ele><time>2026-04-11T14:34:07.03Z</time></trkpt><trkpt lat="45.4727597" lon="7.67575"><ele>1543.5</ele><time>2026-04-11T14:34:07.966Z</time></trkpt><trkpt lat="45.4727439" lon="7.6758595"><ele>1543.0</ele><time>2026-04-11T14:34:08.974Z</time></trkpt><trkpt lat="45.4727329" lon="7.6759533"><ele>1542.5</ele><time>2026-04-11T14:34:09.985Z</time></trkpt><trkpt lat="45.4727232" lon="7.6761334"><ele>1542.0</ele><time>2026-04-11T14:34:12.03Z</time></trkpt><trkpt lat="45.472718" lon="7.6763063"><ele>1541.75</ele><time>2026-04-11T14:34:13.946Z</time></trkpt><trkpt lat="45.4727158" lon="7.6764791"><ele>1541.5</ele><time>2026-04-11T14:34:16.029Z</time></trkpt><trkpt lat="45.4727035" lon="7.6766441"><ele>1541.25</ele><time>2026-04-11T14:34:17.951Z</time></trkpt><trkpt lat="45.4726843" lon="7.6768111"><ele>1541.0</ele><time>2026-04-11T14:34:19.956Z</time></trkpt><trkpt lat="45.4726621" lon="7.6769754"><ele>1539.75</ele><time>2026-04-11T14:34:22.036Z</time></trkpt><trkpt lat="45.4726771" lon="7.6771377"><ele>1538.5</ele><time>2026-04-11T14:34:23.966Z</time></trkpt><trkpt lat="45.4726865" lon="7.6772999"><ele>1537.25</ele><time>2026-04-11T14:34:25.965Z</time></trkpt><trkpt lat="45.4727003" lon="7.6774719"><ele>1536.0</ele><time>2026-04-11T14:34:27.973Z</time></trkpt><trkpt lat="45.4727246" lon="7.6776356"><ele>1534.0</ele><time>2026-04-11T14:34:29.962Z</time></trkpt><trkpt lat="45.4727463" lon="7.6777861"><ele>1532.0</ele><time>2026-04-11T14:34:32.026Z</time></trkpt><trkpt lat="45.4727676" lon="7.6779565"><ele>1530.0</ele><time>2026-04-11T14:34:33.957Z</time></trkpt><trkpt lat="45.4727674" lon="7.6781281"><ele>1528.0</ele><time>2026-04-11T14:34:35.965Z</time></trkpt><trkpt lat="45.472771" lon="7.6782929"><ele>1528.0</ele><time>2026-04-11T14:34:37.966Z</time></trkpt><trkpt lat="45.4727918" lon="7.6784442"><ele>1528.0</ele><time>2026-04-11T14:34:40.028Z</time></trkpt><trkpt lat="45.4728218" lon="7.6786122"><ele>1528.0</ele><time>2026-04-11T14:34:42.026Z</time></trkpt><trkpt lat="45.4728367" lon="7.6787013"><ele>1528.0</ele><time>2026-04-11T14:34:42.963Z</time></trkpt><trkpt lat="45.4728508" lon="7.6787918"><ele>1528.0</ele><time>2026-04-11T14:34:43.964Z</time></trkpt><trkpt lat="45.4728644" lon="7.6789634"><ele>1527.0</ele><time>2026-04-11T14:34:46.027Z</time></trkpt><trkpt lat="45.4728684" lon="7.6791368"><ele>1526.0</ele><time>2026-04-11T14:34:47.96Z</time></trkpt><trkpt lat="45.4728699" lon="7.6792284"><ele>1525.0</ele><time>2026-04-11T14:34:48.951Z</time></trkpt><trkpt lat="45.4728753" lon="7.6793185"><ele>1524.0</ele><time>2026-04-11T14:34:49.977Z</time></trkpt><trkpt lat="45.4728866" lon="7.6794103"><ele>1523.0</ele><time>2026-04-11T14:34:51.026Z</time></trkpt><trkpt lat="45.472903" lon="7.6794987"><ele>1522.0</ele><time>2026-04-11T14:34:52.021Z</time></trkpt><trkpt lat="45.4729232" lon="7.6796596"><ele>1521.0</ele><time>2026-04-11T14:34:53.961Z</time></trkpt><trkpt lat="45.4729224" lon="7.6798173"><ele>1520.0</ele><time>2026-04-11T14:34:56.043Z</time></trkpt><trkpt lat="45.4729296" lon="7.6799743"><ele>1519.0</ele><time>2026-04-11T14:34:57.971Z</time></trkpt><trkpt lat="45.4729422" lon="7.6801072"><ele>1518.0</ele><time>2026-04-11T14:34:59.948Z</time></trkpt><trkpt lat="45.4729237" lon="7.6802123"><ele>1517.0</ele><time>2026-04-11T14:35:01.962Z</time></trkpt><trkpt lat="45.4728826" lon="7.6802929"><ele>1517.0</ele><time>2026-04-11T14:35:03.962Z</time></trkpt><trkpt lat="45.472799" lon="7.6802877"><ele>1517.0</ele><time>2026-04-11T14:38:28.973Z</time></trkpt><trkpt lat="45.4727771" lon="7.6801579"><ele>1517.0</ele><time>2026-04-11T14:38:30.969Z</time></trkpt><trkpt lat="45.4727639" lon="7.6799998"><ele>1517.0</ele><time>2026-04-11T14:38:32.958Z</time></trkpt><trkpt lat="45.4727445" lon="7.6798583"><ele>1517.0</ele><time>2026-04-11T14:38:34.966Z</time></trkpt><trkpt lat="45.4727235" lon="7.6797178"><ele>1517.0</ele><time>2026-04-11T14:38:36.972Z</time></trkpt><trkpt lat="45.4726738" lon="7.6795827"><ele>1517.0</ele><time>2026-04-11T14:38:39.03Z</time></trkpt><trkpt lat="45.4726005" lon="7.6794583"><ele>1517.0</ele><time>2026-04-11T14:38:41.042Z</time></trkpt><trkpt lat="45.4725299" lon="7.6793361"><ele>1517.0</ele><time>2026-04-11T14:38:42.972Z</time></trkpt><trkpt lat="45.472478" lon="7.6791972"><ele>1517.0</ele><time>2026-04-11T14:38:44.967Z</time></trkpt><trkpt lat="45.4724317" lon="7.6790751"><ele>1518.0</ele><time>2026-04-11T14:38:47.039Z</time></trkpt><trkpt lat="45.4723834" lon="7.6789472"><ele>1519.0</ele><time>2026-04-11T14:38:48.966Z</time></trkpt><trkpt lat="45.4723179" lon="7.6788489"><ele>1520.0</ele><time>2026-04-11T14:38:51.042Z</time></trkpt><trkpt lat="45.4722298" lon="7.6788241"><ele>1521.0</ele><time>2026-04-11T14:38:52.968Z</time></trkpt><trkpt lat="45.4721535" lon="7.6788657"><ele>1522.0</ele><time>2026-04-11T14:38:54.97Z</time></trkpt><trkpt lat="45.4721266" lon="7.6789813"><ele>1522.0</ele><time>2026-04-11T14:38:57.04Z</time></trkpt><trkpt lat="45.4721125" lon="7.6791395"><ele>1522.0</ele><time>2026-04-11T14:38:58.973Z</time></trkpt><trkpt lat="45.4720943" lon="7.6793004"><ele>1522.0</ele><time>2026-04-11T14:39:00.972Z</time></trkpt><trkpt lat="45.4720824" lon="7.6793908"><ele>1522.0</ele><time>2026-04-11T14:39:01.972Z</time></trkpt><trkpt lat="45.4720499" lon="7.6795541"><ele>1522.0</ele><time>2026-04-11T14:39:03.979Z</time></trkpt><trkpt lat="45.4720057" lon="7.6797013"><ele>1515.6</ele><time>2026-04-11T14:39:05.968Z</time></trkpt><trkpt lat="45.4719553" lon="7.6798496"><ele>1509.1999999999998</ele><time>2026-04-11T14:39:07.969Z</time></trkpt><trkpt lat="45.4719162" lon="7.679988"><ele>1502.8</ele><time>2026-04-11T14:39:09.972Z</time></trkpt><trkpt lat="45.4718901" lon="7.6801382"><ele>1496.4</ele><time>2026-04-11T14:39:11.972Z</time></trkpt><trkpt lat="45.4718808" lon="7.6802895"><ele>1490.0</ele><time>2026-04-11T14:39:13.967Z</time></trkpt><trkpt lat="45.4718717" lon="7.6804597"><ele>1488.5</ele><time>2026-04-11T14:39:16.028Z</time></trkpt><trkpt lat="45.4718678" lon="7.6806301"><ele>1487.0</ele><time>2026-04-11T14:39:17.969Z</time></trkpt><trkpt lat="45.4718753" lon="7.6807908"><ele>1485.5</ele><time>2026-04-11T14:39:19.994Z</time></trkpt><trkpt lat="45.4718766" lon="7.6809643"><ele>1484.0</ele><time>2026-04-11T14:39:22.034Z</time></trkpt><trkpt lat="45.4718684" lon="7.6811333"><ele>1482.0</ele><time>2026-04-11T14:39:23.963Z</time></trkpt><trkpt lat="45.4718763" lon="7.6812949"><ele>1480.0</ele><time>2026-04-11T14:39:26.032Z</time></trkpt><trkpt lat="45.4719046" lon="7.6814398"><ele>1478.0</ele><time>2026-04-11T14:39:27.967Z</time></trkpt><trkpt lat="45.4719234" lon="7.6816107"><ele>1476.0</ele><time>2026-04-11T14:39:30.069Z</time></trkpt><trkpt lat="45.4719377" lon="7.6817822"><ele>1473.6</ele><time>2026-04-11T14:39:32.038Z</time></trkpt><trkpt lat="45.4719506" lon="7.6819516"><ele>1471.1999999999998</ele><time>2026-04-11T14:39:33.973Z</time></trkpt><trkpt lat="45.471961" lon="7.6821103"><ele>1468.8000000000002</ele><time>2026-04-11T14:39:35.988Z</time></trkpt><trkpt lat="45.4719649" lon="7.682278"><ele>1466.4</ele><time>2026-04-11T14:39:37.966Z</time></trkpt><trkpt lat="45.4719783" lon="7.6824184"><ele>1464.0</ele><time>2026-04-11T14:39:39.972Z</time></trkpt><trkpt lat="45.4719908" lon="7.682553"><ele>1464.0</ele><time>2026-04-11T14:39:41.974Z</time></trkpt><trkpt lat="45.4719981" lon="7.6826852"><ele>1464.0</ele><time>2026-04-11T14:39:43.963Z</time></trkpt><trkpt lat="45.4719975" lon="7.6828037"><ele>1464.0</ele><time>2026-04-11T14:39:45.966Z</time></trkpt><trkpt lat="45.4720028" lon="7.6829223"><ele>1464.0</ele><time>2026-04-11T14:39:48.978Z</time></trkpt><trkpt lat="45.4720284" lon="7.6830523"><ele>1464.0</ele><time>2026-04-11T14:40:08.966Z</time></trkpt><trkpt lat="45.4720643" lon="7.6831962"><ele>1462.2</ele><time>2026-04-11T14:40:10.967Z</time></trkpt><trkpt lat="45.472097" lon="7.6833332"><ele>1460.4</ele><time>2026-04-11T14:40:12.966Z</time></trkpt><trkpt lat="45.4721289" lon="7.6834762"><ele>1458.6</ele><time>2026-04-11T14:40:14.965Z</time></trkpt><trkpt lat="45.4721613" lon="7.6836084"><ele>1456.8</ele><time>2026-04-11T14:40:16.955Z</time></trkpt><trkpt lat="45.4721982" lon="7.6837346"><ele>1455.0</ele><time>2026-04-11T14:40:18.951Z</time></trkpt><trkpt lat="45.472266" lon="7.683824"><ele>1455.0</ele><time>2026-04-11T14:40:20.952Z</time></trkpt><trkpt lat="45.4723516" lon="7.683842"><ele>1455.0</ele><time>2026-04-11T14:40:22.957Z</time></trkpt><trkpt lat="45.4724496" lon="7.6838219"><ele>1455.0</ele><time>2026-04-11T14:40:25.027Z</time></trkpt><trkpt lat="45.4725463" lon="7.6837895"><ele>1455.0</ele><time>2026-04-11T14:40:27.017Z</time></trkpt><trkpt lat="45.472633" lon="7.6837528"><ele>1455.0</ele><time>2026-04-11T14:40:28.961Z</time></trkpt><trkpt lat="45.4727012" lon="7.6837735"><ele>1455.0</ele><time>2026-04-11T14:40:30.958Z</time></trkpt><trkpt lat="45.472744" lon="7.6838402"><ele>1455.0</ele><time>2026-04-11T14:40:32.951Z</time></trkpt><trkpt lat="45.4726949" lon="7.6839282"><ele>1455.0</ele><time>2026-04-11T14:40:35.959Z</time></trkpt><trkpt lat="45.4726272" lon="7.6839629"><ele>1455.0</ele><time>2026-04-11T14:40:37.96Z</time></trkpt><trkpt lat="45.4725455" lon="7.684017"><ele>1455.0</ele><time>2026-04-11T14:40:39.956Z</time></trkpt><trkpt lat="45.4724501" lon="7.6840845"><ele>1455.0</ele><time>2026-04-11T14:40:42.022Z</time></trkpt><trkpt lat="45.4723492" lon="7.6841561"><ele>1455.0</ele><time>2026-04-11T14:40:43.951Z</time></trkpt><trkpt lat="45.4722414" lon="7.6842257"><ele>1455.0</ele><time>2026-04-11T14:40:45.96Z</time></trkpt><trkpt lat="45.4721477" lon="7.6843124"><ele>1455.0</ele><time>2026-04-11T14:40:47.957Z</time></trkpt><trkpt lat="45.4720645" lon="7.6844267"><ele>1455.0</ele><time>2026-04-11T14:40:50.033Z</time></trkpt><trkpt lat="45.4720181" lon="7.6845719"><ele>1451.4</ele><time>2026-04-11T14:40:52.039Z</time></trkpt><trkpt lat="45.4719679" lon="7.6847239"><ele>1447.8</ele><time>2026-04-11T14:40:53.957Z</time></trkpt><trkpt lat="45.4719248" lon="7.6848658"><ele>1444.1999999999998</ele><time>2026-04-11T14:40:56.014Z</time></trkpt><trkpt lat="45.4718492" lon="7.685004"><ele>1440.6</ele><time>2026-04-11T14:40:57.962Z</time></trkpt><trkpt lat="45.471804" lon="7.6850729"><ele>1437.0</ele><time>2026-04-11T14:40:58.955Z</time></trkpt><trkpt lat="45.4717667" lon="7.6851469"><ele>1437.0</ele><time>2026-04-11T14:40:59.968Z</time></trkpt><trkpt lat="45.4717384" lon="7.6852279"><ele>1437.0</ele><time>2026-04-11T14:41:00.952Z</time></trkpt><trkpt lat="45.471705" lon="7.6853073"><ele>1437.0</ele><time>2026-04-11T14:41:01.955Z</time></trkpt><trkpt lat="45.4716713" lon="7.685387"><ele>1437.0</ele><time>2026-04-11T14:41:02.957Z</time></trkpt><trkpt lat="45.4716377" lon="7.6854674"><ele>1437.0</ele><time>2026-04-11T14:41:03.96Z</time></trkpt><trkpt lat="45.4716054" lon="7.6855477"><ele>1437.0</ele><time>2026-04-11T14:41:05.047Z</time></trkpt><trkpt lat="45.471574" lon="7.6856271"><ele>1437.0</ele><time>2026-04-11T14:41:06.027Z</time></trkpt><trkpt lat="45.4715438" lon="7.685707"><ele>1435.4285714285716</ele><time>2026-04-11T14:41:06.952Z</time></trkpt><trkpt lat="45.4715119" lon="7.6857921"><ele>1433.8571428571427</ele><time>2026-04-11T14:41:07.955Z</time></trkpt><trkpt lat="45.4714787" lon="7.6858811"><ele>1432.2857142857142</ele><time>2026-04-11T14:41:08.952Z</time></trkpt><trkpt lat="45.4714542" lon="7.6859691"><ele>1430.7142857142858</ele><time>2026-04-11T14:41:09.949Z</time></trkpt><trkpt lat="45.4714157" lon="7.6860437"><ele>1429.1428571428573</ele><time>2026-04-11T14:41:11.034Z</time></trkpt><trkpt lat="45.4713673" lon="7.6861064"><ele>1427.5714285714284</ele><time>2026-04-11T14:41:11.945Z</time></trkpt><trkpt lat="45.4713212" lon="7.6861705"><ele>1426.0</ele><time>2026-04-11T14:41:12.955Z</time></trkpt><trkpt lat="45.4712852" lon="7.6862454"><ele>1423.1999999999998</ele><time>2026-04-11T14:41:13.953Z</time></trkpt><trkpt lat="45.4712557" lon="7.6863278"><ele>1420.3999999999999</ele><time>2026-04-11T14:41:14.958Z</time></trkpt><trkpt lat="45.4712321" lon="7.6864132"><ele>1417.6</ele><time>2026-04-11T14:41:16.034Z</time></trkpt><trkpt lat="45.4711911" lon="7.6865852"><ele>1414.8</ele><time>2026-04-11T14:41:17.958Z</time></trkpt><trkpt lat="45.4712021" lon="7.686762"><ele>1412.0</ele><time>2026-04-11T14:41:19.963Z</time></trkpt><trkpt lat="45.4712143" lon="7.6869213"><ele>1412.0</ele><time>2026-04-11T14:41:21.961Z</time></trkpt><trkpt lat="45.4711634" lon="7.6870191"><ele>1412.0</ele><time>2026-04-11T14:41:23.965Z</time></trkpt><trkpt lat="45.4710885" lon="7.6870164"><ele>1412.0</ele><time>2026-04-11T14:41:25.964Z</time></trkpt><trkpt lat="45.4710486" lon="7.686938"><ele>1412.0</ele><time>2026-04-11T14:41:27.961Z</time></trkpt><trkpt lat="45.4710543" lon="7.6868016"><ele>1412.0</ele><time>2026-04-11T14:41:29.963Z</time></trkpt><trkpt lat="45.4710522" lon="7.6866492"><ele>1412.0</ele><time>2026-04-11T14:41:31.96Z</time></trkpt><trkpt lat="45.4710242" lon="7.6865228"><ele>1412.0</ele><time>2026-04-11T14:41:33.958Z</time></trkpt><trkpt lat="45.4709587" lon="7.6864713"><ele>1412.0</ele><time>2026-04-11T14:41:35.955Z</time></trkpt><trkpt lat="45.4709042" lon="7.6865544"><ele>1412.0</ele><time>2026-04-11T14:41:37.965Z</time></trkpt><trkpt lat="45.470869" lon="7.6867064"><ele>1412.0</ele><time>2026-04-11T14:41:39.964Z</time></trkpt><trkpt lat="45.4708444" lon="7.6867958"><ele>1412.0</ele><time>2026-04-11T14:41:40.966Z</time></trkpt><trkpt lat="45.4708128" lon="7.6868847"><ele>1412.0</ele><time>2026-04-11T14:41:41.962Z</time></trkpt><trkpt lat="45.4707877" lon="7.6869737"><ele>1411.857142857143</ele><time>2026-04-11T14:41:42.959Z</time></trkpt><trkpt lat="45.4707588" lon="7.6870578"><ele>1411.7142857142858</ele><time>2026-04-11T14:41:43.96Z</time></trkpt><trkpt lat="45.4707267" lon="7.6871388"><ele>1411.5714285714287</ele><time>2026-04-11T14:41:44.961Z</time></trkpt><trkpt lat="45.4706947" lon="7.68722"><ele>1411.4285714285716</ele><time>2026-04-11T14:41:46.035Z</time></trkpt><trkpt lat="45.4706648" lon="7.6873025"><ele>1411.2857142857142</ele><time>2026-04-11T14:41:46.956Z</time></trkpt><trkpt lat="45.4706298" lon="7.6873809"><ele>1411.1428571428573</ele><time>2026-04-11T14:41:47.957Z</time></trkpt><trkpt lat="45.4705955" lon="7.6874607"><ele>1411.0</ele><time>2026-04-11T14:41:48.95Z</time></trkpt><trkpt lat="45.4705648" lon="7.6875436"><ele>1411.0</ele><time>2026-04-11T14:41:49.959Z</time></trkpt><trkpt lat="45.4705252" lon="7.6876236"><ele>1411.0</ele><time>2026-04-11T14:41:50.957Z</time></trkpt><trkpt lat="45.4704826" lon="7.6877005"><ele>1411.0</ele><time>2026-04-11T14:41:51.962Z</time></trkpt><trkpt lat="45.4704207" lon="7.6878569"><ele>1411.0</ele><time>2026-04-11T14:41:54.029Z</time></trkpt><trkpt lat="45.4703849" lon="7.6879365"><ele>1411.0</ele><time>2026-04-11T14:41:55.046Z</time></trkpt><trkpt lat="45.470339" lon="7.6880108"><ele>1411.0</ele><time>2026-04-11T14:41:55.958Z</time></trkpt><trkpt lat="45.4702959" lon="7.6880854"><ele>1409.3333333333333</ele><time>2026-04-11T14:41:56.961Z</time></trkpt><trkpt lat="45.4702536" lon="7.6881547"><ele>1407.6666666666665</ele><time>2026-04-11T14:41:57.956Z</time></trkpt><trkpt lat="45.4702186" lon="7.6882753"><ele>1406.0</ele><time>2026-04-11T14:41:59.959Z</time></trkpt><trkpt lat="45.4702676" lon="7.688371"><ele>1404.3333333333333</ele><time>2026-04-11T14:42:01.955Z</time></trkpt><trkpt lat="45.4703555" lon="7.6883853"><ele>1402.6666666666667</ele><time>2026-04-11T14:42:03.965Z</time></trkpt><trkpt lat="45.4704691" lon="7.6883773"><ele>1401.0</ele><time>2026-04-11T14:42:05.959Z</time></trkpt><trkpt lat="45.4705558" lon="7.6883962"><ele>1401.0</ele><time>2026-04-11T14:42:07.958Z</time></trkpt><trkpt lat="45.4705992" lon="7.6884745"><ele>1401.0</ele><time>2026-04-11T14:42:09.956Z</time></trkpt><trkpt lat="45.4705626" lon="7.6885544"><ele>1401.0</ele><time>2026-04-11T14:42:11.956Z</time></trkpt><trkpt lat="45.4704702" lon="7.6885685"><ele>1401.0</ele><time>2026-04-11T14:42:14.027Z</time></trkpt><trkpt lat="45.4703515" lon="7.6885899"><ele>1401.0</ele><time>2026-04-11T14:42:15.955Z</time></trkpt><trkpt lat="45.4702365" lon="7.6886169"><ele>1397.4</ele><time>2026-04-11T14:42:17.963Z</time></trkpt><trkpt lat="45.4701337" lon="7.6886205"><ele>1393.8</ele><time>2026-04-11T14:42:19.954Z</time></trkpt><trkpt lat="45.4701076" lon="7.6887499"><ele>1390.2</ele><time>2026-04-11T14:42:22.956Z</time></trkpt><trkpt lat="45.4701852" lon="7.6887853"><ele>1386.6000000000001</ele><time>2026-04-11T14:42:24.958Z</time></trkpt><trkpt lat="45.4702992" lon="7.688795"><ele>1383.0</ele><time>2026-04-11T14:42:26.954Z</time></trkpt><trkpt lat="45.4703977" lon="7.6888175"><ele>1383.6000000000001</ele><time>2026-04-11T14:42:28.963Z</time></trkpt><trkpt lat="45.4705043" lon="7.6888475"><ele>1384.2</ele><time>2026-04-11T14:42:30.959Z</time></trkpt><trkpt lat="45.4706254" lon="7.6888791"><ele>1384.8</ele><time>2026-04-11T14:42:32.955Z</time></trkpt><trkpt lat="45.470743" lon="7.6889107"><ele>1385.4</ele><time>2026-04-11T14:42:34.964Z</time></trkpt><trkpt lat="45.4708045" lon="7.6889362"><ele>1386.0</ele><time>2026-04-11T14:42:35.959Z</time></trkpt><trkpt lat="45.4709191" lon="7.688982"><ele>1386.0</ele><time>2026-04-11T14:42:37.956Z</time></trkpt><trkpt lat="45.4710257" lon="7.6890392"><ele>1386.0</ele><time>2026-04-11T14:42:39.983Z</time></trkpt><trkpt lat="45.4711428" lon="7.6891004"><ele>1386.0</ele><time>2026-04-11T14:42:42.023Z</time></trkpt><trkpt lat="45.4712039" lon="7.6891314"><ele>1386.0</ele><time>2026-04-11T14:42:42.959Z</time></trkpt><trkpt lat="45.4713009" lon="7.6891878"><ele>1386.0</ele><time>2026-04-11T14:42:44.963Z</time></trkpt><trkpt lat="45.471365" lon="7.6892716"><ele>1382.8</ele><time>2026-04-11T14:42:46.961Z</time></trkpt><trkpt lat="45.4714058" lon="7.6894087"><ele>1379.6</ele><time>2026-04-11T14:42:48.947Z</time></trkpt><trkpt lat="45.4714258" lon="7.6895702"><ele>1376.4</ele><time>2026-04-11T14:42:51.025Z</time></trkpt><trkpt lat="45.4714388" lon="7.6897334"><ele>1373.2</ele><time>2026-04-11T14:42:52.959Z</time></trkpt><trkpt lat="45.4714329" lon="7.6898887"><ele>1370.0</ele><time>2026-04-11T14:42:54.954Z</time></trkpt><trkpt lat="45.4714272" lon="7.6900542"><ele>1368.6</ele><time>2026-04-11T14:42:56.958Z</time></trkpt><trkpt lat="45.4714287" lon="7.6902149"><ele>1367.2</ele><time>2026-04-11T14:42:59.023Z</time></trkpt><trkpt lat="45.4714171" lon="7.6903712"><ele>1365.8000000000002</ele><time>2026-04-11T14:43:01.043Z</time></trkpt><trkpt lat="45.4714157" lon="7.690534"><ele>1364.4</ele><time>2026-04-11T14:43:02.954Z</time></trkpt><trkpt lat="45.4714102" lon="7.6906852"><ele>1363.0</ele><time>2026-04-11T14:43:04.961Z</time></trkpt><trkpt lat="45.4714235" lon="7.6908027"><ele>1362.1666666666665</ele><time>2026-04-11T14:43:07.026Z</time></trkpt><trkpt lat="45.4714902" lon="7.6908428"><ele>1361.3333333333333</ele><time>2026-04-11T14:43:08.953Z</time></trkpt><trkpt lat="45.4715567" lon="7.6907887"><ele>1360.5</ele><time>2026-04-11T14:43:10.953Z</time></trkpt><trkpt lat="45.4716101" lon="7.6906946"><ele>1359.6666666666667</ele><time>2026-04-11T14:43:12.954Z</time></trkpt><trkpt lat="45.4716825" lon="7.6906167"><ele>1358.8333333333335</ele><time>2026-04-11T14:43:14.956Z</time></trkpt><trkpt lat="45.4717551" lon="7.6906158"><ele>1358.0</ele><time>2026-04-11T14:43:16.955Z</time></trkpt><trkpt lat="45.4717933" lon="7.6906985"><ele>1358.0</ele><time>2026-04-11T14:43:18.95Z</time></trkpt><trkpt lat="45.4718061" lon="7.6908008"><ele>1358.0</ele><time>2026-04-11T14:43:20.956Z</time></trkpt><trkpt lat="45.4718007" lon="7.6909234"><ele>1358.0</ele><time>2026-04-11T14:43:22.961Z</time></trkpt><trkpt lat="45.4717977" lon="7.6910506"><ele>1358.0</ele><time>2026-04-11T14:43:24.945Z</time></trkpt><trkpt lat="45.4718033" lon="7.6911832"><ele>1358.0</ele><time>2026-04-11T14:43:26.957Z</time></trkpt><trkpt lat="45.4717927" lon="7.691348"><ele>1356.8000000000002</ele><time>2026-04-11T14:43:28.942Z</time></trkpt><trkpt lat="45.4717678" lon="7.6915225"><ele>1355.6</ele><time>2026-04-11T14:43:30.951Z</time></trkpt><trkpt lat="45.4717585" lon="7.6916185"><ele>1354.4</ele><time>2026-04-11T14:43:31.943Z</time></trkpt><trkpt lat="45.4717467" lon="7.6917871"><ele>1353.1999999999998</ele><time>2026-04-11T14:43:33.946Z</time></trkpt><trkpt lat="45.4717242" lon="7.6919568"><ele>1352.0</ele><time>2026-04-11T14:43:35.958Z</time></trkpt><trkpt lat="45.4717213" lon="7.6920466"><ele>1349.8</ele><time>2026-04-11T14:43:36.959Z</time></trkpt><trkpt lat="45.4717086" lon="7.6922206"><ele>1347.6</ele><time>2026-04-11T14:43:38.954Z</time></trkpt><trkpt lat="45.4716923" lon="7.6923952"><ele>1345.3999999999999</ele><time>2026-04-11T14:43:40.952Z</time></trkpt><trkpt lat="45.4716799" lon="7.6925739"><ele>1343.1999999999998</ele><time>2026-04-11T14:43:42.959Z</time></trkpt><trkpt lat="45.4716703" lon="7.6926664"><ele>1341.0</ele><time>2026-04-11T14:43:43.953Z</time></trkpt><trkpt lat="45.4716552" lon="7.692755"><ele>1340.0</ele><time>2026-04-11T14:43:44.959Z</time></trkpt><trkpt lat="45.4716331" lon="7.6928433"><ele>1339.0</ele><time>2026-04-11T14:43:45.951Z</time></trkpt><trkpt lat="45.4716193" lon="7.6929314"><ele>1338.0</ele><time>2026-04-11T14:43:46.958Z</time></trkpt><trkpt lat="45.4715939" lon="7.6931121"><ele>1337.0</ele><time>2026-04-11T14:43:48.961Z</time></trkpt><trkpt lat="45.4715837" lon="7.6932022"><ele>1336.0</ele><time>2026-04-11T14:43:49.956Z</time></trkpt><trkpt lat="45.4715598" lon="7.6933743"><ele>1335.0</ele><time>2026-04-11T14:43:51.953Z</time></trkpt><trkpt lat="45.4715348" lon="7.6935395"><ele>1334.25</ele><time>2026-04-11T14:43:53.95Z</time></trkpt><trkpt lat="45.4715016" lon="7.6937084"><ele>1333.5</ele><time>2026-04-11T14:43:55.959Z</time></trkpt><trkpt lat="45.4714779" lon="7.6938694"><ele>1332.75</ele><time>2026-04-11T14:43:57.966Z</time></trkpt><trkpt lat="45.4714487" lon="7.694031"><ele>1332.0</ele><time>2026-04-11T14:43:59.944Z</time></trkpt><trkpt lat="45.4714393" lon="7.6942066"><ele>1332.0</ele><time>2026-04-11T14:44:01.951Z</time></trkpt><trkpt lat="45.4714506" lon="7.6942977"><ele>1332.0</ele><time>2026-04-11T14:44:02.94Z</time></trkpt><trkpt lat="45.4714674" lon="7.6943936"><ele>1332.0</ele><time>2026-04-11T14:44:03.937Z</time></trkpt><trkpt lat="45.4714871" lon="7.6944918"><ele>1332.0</ele><time>2026-04-11T14:44:04.941Z</time></trkpt><trkpt lat="45.4715071" lon="7.6945905"><ele>1332.0</ele><time>2026-04-11T14:44:05.941Z</time></trkpt><trkpt lat="45.4715262" lon="7.6946879"><ele>1332.0</ele><time>2026-04-11T14:44:06.953Z</time></trkpt><trkpt lat="45.4715514" lon="7.6948496"><ele>1331.6666666666667</ele><time>2026-04-11T14:44:08.952Z</time></trkpt><trkpt lat="45.4715651" lon="7.6949594"><ele>1331.3333333333333</ele><time>2026-04-11T14:44:10.939Z</time></trkpt><trkpt lat="45.4716148" lon="7.6950425"><ele>1331.0</ele><time>2026-04-11T14:44:13.944Z</time></trkpt><trkpt lat="45.4716708" lon="7.6949904"><ele>1330.6666666666665</ele><time>2026-04-11T15:03:55.967Z</time></trkpt><trkpt lat="45.4716333" lon="7.6948633"><ele>1330.3333333333333</ele><time>2026-04-11T15:05:02.969Z</time></trkpt><trkpt lat="45.4715637" lon="7.6947604"><ele>1330.0</ele><time>2026-04-11T15:05:04.959Z</time></trkpt><trkpt lat="45.4715049" lon="7.6946297"><ele>1330.0</ele><time>2026-04-11T15:05:06.969Z</time></trkpt><trkpt lat="45.4714664" lon="7.6944641"><ele>1330.0</ele><time>2026-04-11T15:05:08.974Z</time></trkpt><trkpt lat="45.4714207" lon="7.6943238"><ele>1330.0</ele><time>2026-04-11T15:05:10.967Z</time></trkpt><trkpt lat="45.4713331" lon="7.6942486"><ele>1330.0</ele><time>2026-04-11T15:05:12.971Z</time></trkpt><trkpt lat="45.4712158" lon="7.6942202"><ele>1329.3333333333333</ele><time>2026-04-11T15:05:14.969Z</time></trkpt><trkpt lat="45.4711518" lon="7.6941873"><ele>1328.6666666666665</ele><time>2026-04-11T15:05:15.962Z</time></trkpt><trkpt lat="45.4710817" lon="7.6941334"><ele>1328.0</ele><time>2026-04-11T15:05:16.967Z</time></trkpt><trkpt lat="45.4710131" lon="7.694073"><ele>1327.3333333333333</ele><time>2026-04-11T15:05:17.969Z</time></trkpt><trkpt lat="45.4709415" lon="7.6940068"><ele>1326.6666666666667</ele><time>2026-04-11T15:05:18.965Z</time></trkpt><trkpt lat="45.4708655" lon="7.6939385"><ele>1326.0</ele><time>2026-04-11T15:05:19.964Z</time></trkpt><trkpt lat="45.4707924" lon="7.6938567"><ele>1326.0</ele><time>2026-04-11T15:05:20.955Z</time></trkpt><trkpt lat="45.4707237" lon="7.6937736"><ele>1326.0</ele><time>2026-04-11T15:05:21.967Z</time></trkpt><trkpt lat="45.4706531" lon="7.6936891"><ele>1326.0</ele><time>2026-04-11T15:05:22.973Z</time></trkpt><trkpt lat="45.4705842" lon="7.693598"><ele>1326.0</ele><time>2026-04-11T15:05:23.967Z</time></trkpt><trkpt lat="45.4705148" lon="7.6935196"><ele>1326.0</ele><time>2026-04-11T15:05:24.964Z</time></trkpt><trkpt lat="45.4704385" lon="7.6934386"><ele>1323.1999999999998</ele><time>2026-04-11T15:05:25.966Z</time></trkpt><trkpt lat="45.4703605" lon="7.6933623"><ele>1320.3999999999999</ele><time>2026-04-11T15:05:26.964Z</time></trkpt><trkpt lat="45.4702792" lon="7.6932914"><ele>1317.6</ele><time>2026-04-11T15:05:27.958Z</time></trkpt><trkpt lat="45.4701939" lon="7.6932236"><ele>1314.8</ele><time>2026-04-11T15:05:28.959Z</time></trkpt><trkpt lat="45.4701082" lon="7.6931541"><ele>1312.0</ele><time>2026-04-11T15:05:29.961Z</time></trkpt><trkpt lat="45.470025" lon="7.6930768"><ele>1312.0</ele><time>2026-04-11T15:05:31.026Z</time></trkpt><trkpt lat="45.4699431" lon="7.6929977"><ele>1312.0</ele><time>2026-04-11T15:05:32.03Z</time></trkpt><trkpt lat="45.4698587" lon="7.6929091"><ele>1312.0</ele><time>2026-04-11T15:05:32.961Z</time></trkpt><trkpt lat="45.4697744" lon="7.6928286"><ele>1312.0</ele><time>2026-04-11T15:05:33.967Z</time></trkpt><trkpt lat="45.4696861" lon="7.6927552"><ele>1312.0</ele><time>2026-04-11T15:05:34.967Z</time></trkpt><trkpt lat="45.4695967" lon="7.6926943"><ele>1311.3999999999999</ele><time>2026-04-11T15:05:36.03Z</time></trkpt><trkpt lat="45.4695032" lon="7.6926535"><ele>1310.8</ele><time>2026-04-11T15:05:37.032Z</time></trkpt><trkpt lat="45.4694055" lon="7.6926036"><ele>1310.2</ele><time>2026-04-11T15:05:37.965Z</time></trkpt><trkpt lat="45.4693081" lon="7.6925644"><ele>1309.6</ele><time>2026-04-11T15:05:38.968Z</time></trkpt><trkpt lat="45.4692111" lon="7.6925198"><ele>1309.0</ele><time>2026-04-11T15:05:40.032Z</time></trkpt><trkpt lat="45.4691194" lon="7.692465"><ele>1309.0</ele><time>2026-04-11T15:05:41.035Z</time></trkpt><trkpt lat="45.4690323" lon="7.6924011"><ele>1309.0</ele><time>2026-04-11T15:05:42.038Z</time></trkpt><trkpt lat="45.4689432" lon="7.6923441"><ele>1309.0</ele><time>2026-04-11T15:05:42.946Z</time></trkpt><trkpt lat="45.4688501" lon="7.6923062"><ele>1309.0</ele><time>2026-04-11T15:05:43.956Z</time></trkpt><trkpt lat="45.4687501" lon="7.6922734"><ele>1309.0</ele><time>2026-04-11T15:05:44.997Z</time></trkpt><trkpt lat="45.4686544" lon="7.6922337"><ele>1305.8000000000002</ele><time>2026-04-11T15:05:46.026Z</time></trkpt><trkpt lat="45.4685622" lon="7.6921916"><ele>1302.6000000000001</ele><time>2026-04-11T15:05:46.946Z</time></trkpt><trkpt lat="45.4684726" lon="7.6921295"><ele>1299.4</ele><time>2026-04-11T15:05:47.944Z</time></trkpt><trkpt lat="45.4683878" lon="7.6920693"><ele>1296.2</ele><time>2026-04-11T15:05:48.953Z</time></trkpt><trkpt lat="45.4683039" lon="7.6920098"><ele>1293.0</ele><time>2026-04-11T15:05:50.029Z</time></trkpt><trkpt lat="45.4682229" lon="7.6919466"><ele>1291.6000000000001</ele><time>2026-04-11T15:05:50.953Z</time></trkpt><trkpt lat="45.4681352" lon="7.6918819"><ele>1290.2</ele><time>2026-04-11T15:05:51.954Z</time></trkpt><trkpt lat="45.468046" lon="7.6918116"><ele>1288.8</ele><time>2026-04-11T15:05:52.945Z</time></trkpt><trkpt lat="45.4679589" lon="7.6917372"><ele>1287.4</ele><time>2026-04-11T15:05:53.962Z</time></trkpt><trkpt lat="45.4678754" lon="7.6916585"><ele>1286.0</ele><time>2026-04-11T15:05:55.033Z</time></trkpt><trkpt lat="45.4677863" lon="7.6915821"><ele>1286.0</ele><time>2026-04-11T15:05:56.039Z</time></trkpt><trkpt lat="45.4676946" lon="7.6915106"><ele>1286.0</ele><time>2026-04-11T15:05:57.031Z</time></trkpt><trkpt lat="45.467605" lon="7.6914357"><ele>1286.0</ele><time>2026-04-11T15:05:57.962Z</time></trkpt><trkpt lat="45.4675212" lon="7.6913597"><ele>1286.0</ele><time>2026-04-11T15:05:58.947Z</time></trkpt><trkpt lat="45.4674401" lon="7.6912871"><ele>1286.0</ele><time>2026-04-11T15:05:59.96Z</time></trkpt><trkpt lat="45.4673581" lon="7.6912083"><ele>1286.0</ele><time>2026-04-11T15:06:00.956Z</time></trkpt><trkpt lat="45.4672699" lon="7.6911409"><ele>1286.0</ele><time>2026-04-11T15:06:01.963Z</time></trkpt><trkpt lat="45.4671794" lon="7.6910874"><ele>1286.0</ele><time>2026-04-11T15:06:02.959Z</time></trkpt><trkpt lat="45.4670895" lon="7.6910519"><ele>1286.0</ele><time>2026-04-11T15:06:04.028Z</time></trkpt><trkpt lat="45.4669974" lon="7.6910278"><ele>1286.0</ele><time>2026-04-11T15:06:05.027Z</time></trkpt><trkpt lat="45.466906" lon="7.6909966"><ele>1285.4</ele><time>2026-04-11T15:06:05.956Z</time></trkpt><trkpt lat="45.4668213" lon="7.690952"><ele>1284.8</ele><time>2026-04-11T15:06:06.959Z</time></trkpt><trkpt lat="45.4667376" lon="7.6908866"><ele>1284.2</ele><time>2026-04-11T15:06:07.963Z</time></trkpt><trkpt lat="45.4666543" lon="7.6908223"><ele>1283.6000000000001</ele><time>2026-04-11T15:06:08.959Z</time></trkpt><trkpt lat="45.4665695" lon="7.6907567"><ele>1283.0</ele><time>2026-04-11T15:06:09.956Z</time></trkpt><trkpt lat="45.4664803" lon="7.6907008"><ele>1283.0</ele><time>2026-04-11T15:06:10.962Z</time></trkpt><trkpt lat="45.4663972" lon="7.6906412"><ele>1283.0</ele><time>2026-04-11T15:06:11.95Z</time></trkpt><trkpt lat="45.4663268" lon="7.6905737"><ele>1283.0</ele><time>2026-04-11T15:06:12.961Z</time></trkpt><trkpt lat="45.4662688" lon="7.6904902"><ele>1283.0</ele><time>2026-04-11T15:06:13.961Z</time></trkpt><trkpt lat="45.46623" lon="7.6903972"><ele>1283.0</ele><time>2026-04-11T15:06:14.96Z</time></trkpt><trkpt lat="45.4662045" lon="7.690289"><ele>1283.0</ele><time>2026-04-11T15:06:15.957Z</time></trkpt><trkpt lat="45.4661912" lon="7.690174"><ele>1279.1666666666667</ele><time>2026-04-11T15:06:16.957Z</time></trkpt><trkpt lat="45.4661997" lon="7.6900664"><ele>1275.3333333333335</ele><time>2026-04-11T15:06:17.957Z</time></trkpt><trkpt lat="45.4662092" lon="7.6899502"><ele>1271.5</ele><time>2026-04-11T15:06:18.96Z</time></trkpt><trkpt lat="45.4662265" lon="7.6898309"><ele>1267.6666666666667</ele><time>2026-04-11T15:06:20.027Z</time></trkpt><trkpt lat="45.4662421" lon="7.689715"><ele>1263.8333333333333</ele><time>2026-04-11T15:06:21.027Z</time></trkpt><trkpt lat="45.4662545" lon="7.6896017"><ele>1260.0</ele><time>2026-04-11T15:06:22.02Z</time></trkpt><trkpt lat="45.4662663" lon="7.6894799"><ele>1259.5</ele><time>2026-04-11T15:06:22.955Z</time></trkpt><trkpt lat="45.4662682" lon="7.6893586"><ele>1259.0</ele><time>2026-04-11T15:06:23.961Z</time></trkpt><trkpt lat="45.4662587" lon="7.6892444"><ele>1258.5</ele><time>2026-04-11T15:06:24.979Z</time></trkpt><trkpt lat="45.4662538" lon="7.6891437"><ele>1258.0</ele><time>2026-04-11T15:06:26.016Z</time></trkpt><trkpt lat="45.4662324" lon="7.6890201"><ele>1257.5</ele><time>2026-04-11T15:06:27.96Z</time></trkpt><trkpt lat="45.4661712" lon="7.68896"><ele>1257.0</ele><time>2026-04-11T15:06:30.957Z</time></trkpt><trkpt lat="45.4661298" lon="7.6891112"><ele>1257.0</ele><time>2026-04-11T15:06:33.958Z</time></trkpt><trkpt lat="45.4661472" lon="7.6892894"><ele>1257.0</ele><time>2026-04-11T15:06:35.954Z</time></trkpt><trkpt lat="45.4661444" lon="7.689408"><ele>1257.0</ele><time>2026-04-11T15:06:36.961Z</time></trkpt><trkpt lat="45.4661112" lon="7.6895323"><ele>1257.0</ele><time>2026-04-11T15:06:37.963Z</time></trkpt><trkpt lat="45.4660601" lon="7.6896534"><ele>1257.0</ele><time>2026-04-11T15:06:38.96Z</time></trkpt><trkpt lat="45.4659974" lon="7.6897773"><ele>1257.6</ele><time>2026-04-11T15:06:39.996Z</time></trkpt><trkpt lat="45.4659398" lon="7.6899002"><ele>1258.2</ele><time>2026-04-11T15:06:40.964Z</time></trkpt><trkpt lat="45.4658829" lon="7.6900217"><ele>1258.8</ele><time>2026-04-11T15:06:41.958Z</time></trkpt><trkpt lat="45.4658233" lon="7.6901524"><ele>1259.4</ele><time>2026-04-11T15:06:42.959Z</time></trkpt><trkpt lat="45.465777" lon="7.6902846"><ele>1260.0</ele><time>2026-04-11T15:06:43.961Z</time></trkpt><trkpt lat="45.4657362" lon="7.6904161"><ele>1261.4</ele><time>2026-04-11T15:06:44.958Z</time></trkpt><trkpt lat="45.4656889" lon="7.690535"><ele>1262.8</ele><time>2026-04-11T15:06:45.963Z</time></trkpt><trkpt lat="45.4656382" lon="7.6906362"><ele>1264.2</ele><time>2026-04-11T15:06:46.956Z</time></trkpt><trkpt lat="45.4655679" lon="7.6907066"><ele>1265.6</ele><time>2026-04-11T15:06:47.96Z</time></trkpt><trkpt lat="45.4654734" lon="7.690745"><ele>1267.0</ele><time>2026-04-11T15:06:49.031Z</time></trkpt><trkpt lat="45.4653702" lon="7.6907697"><ele>1261.75</ele><time>2026-04-11T15:06:50.038Z</time></trkpt><trkpt lat="45.4652632" lon="7.6908127"><ele>1256.5</ele><time>2026-04-11T15:06:51.027Z</time></trkpt><trkpt lat="45.4651562" lon="7.6908598"><ele>1251.25</ele><time>2026-04-11T15:06:51.936Z</time></trkpt><trkpt lat="45.4650401" lon="7.6908971"><ele>1246.0</ele><time>2026-04-11T15:06:52.949Z</time></trkpt><trkpt lat="45.4649308" lon="7.6909363"><ele>1246.0</ele><time>2026-04-11T15:06:53.953Z</time></trkpt><trkpt lat="45.4648218" lon="7.6909675"><ele>1246.0</ele><time>2026-04-11T15:06:55.025Z</time></trkpt><trkpt lat="45.4647204" lon="7.6910148"><ele>1246.0</ele><time>2026-04-11T15:06:55.954Z</time></trkpt><trkpt lat="45.4646195" lon="7.6910605"><ele>1246.0</ele><time>2026-04-11T15:06:56.994Z</time></trkpt><trkpt lat="45.4645207" lon="7.6911251"><ele>1246.0</ele><time>2026-04-11T15:06:57.957Z</time></trkpt><trkpt lat="45.4644417" lon="7.6911996"><ele>1246.3999999999999</ele><time>2026-04-11T15:06:58.987Z</time></trkpt><trkpt lat="45.4643803" lon="7.6912737"><ele>1246.8</ele><time>2026-04-11T15:06:59.964Z</time></trkpt><trkpt lat="45.4643288" lon="7.6913403"><ele>1247.1999999999998</ele><time>2026-04-11T15:07:00.955Z</time></trkpt><trkpt lat="45.4642242" lon="7.6913866"><ele>1247.6</ele><time>2026-04-11T15:07:02.95Z</time></trkpt><trkpt lat="45.4641802" lon="7.6912947"><ele>1248.0</ele><time>2026-04-11T15:07:04.944Z</time></trkpt><trkpt lat="45.464231" lon="7.6911264"><ele>1244.6</ele><time>2026-04-11T15:07:07.036Z</time></trkpt><trkpt lat="45.4642915" lon="7.691025"><ele>1241.1999999999998</ele><time>2026-04-11T15:07:07.958Z</time></trkpt><trkpt lat="45.4643594" lon="7.6909054"><ele>1237.8</ele><time>2026-04-11T15:07:08.954Z</time></trkpt><trkpt lat="45.4644374" lon="7.6907775"><ele>1234.3999999999999</ele><time>2026-04-11T15:07:09.944Z</time></trkpt><trkpt lat="45.4645143" lon="7.6906509"><ele>1231.0</ele><time>2026-04-11T15:07:10.943Z</time></trkpt><trkpt lat="45.4645904" lon="7.6905518"><ele>1230.3999999999999</ele><time>2026-04-11T15:07:11.95Z</time></trkpt><trkpt lat="45.4646738" lon="7.6904584"><ele>1229.8</ele><time>2026-04-11T15:07:12.951Z</time></trkpt><trkpt lat="45.4647574" lon="7.6903598"><ele>1229.1999999999998</ele><time>2026-04-11T15:07:13.956Z</time></trkpt><trkpt lat="45.4648422" lon="7.6902798"><ele>1228.6</ele><time>2026-04-11T15:07:14.979Z</time></trkpt><trkpt lat="45.4649167" lon="7.6902042"><ele>1228.0</ele><time>2026-04-11T15:07:16.021Z</time></trkpt><trkpt lat="45.4649725" lon="7.6901388"><ele>1228.0</ele><time>2026-04-11T15:07:17.018Z</time></trkpt><trkpt lat="45.4650455" lon="7.6900399"><ele>1228.0</ele><time>2026-04-11T15:07:18.956Z</time></trkpt><trkpt lat="45.4649591" lon="7.6900089"><ele>1228.0</ele><time>2026-04-11T15:07:21.963Z</time></trkpt><trkpt lat="45.4648608" lon="7.6900548"><ele>1228.0</ele><time>2026-04-11T15:07:22.951Z</time></trkpt><trkpt lat="45.4647452" lon="7.6900992"><ele>1228.0</ele><time>2026-04-11T15:07:23.972Z</time></trkpt><trkpt lat="45.4646291" lon="7.6901375"><ele>1223.0</ele><time>2026-04-11T15:07:25.046Z</time></trkpt><trkpt lat="45.4645138" lon="7.6901761"><ele>1218.0</ele><time>2026-04-11T15:07:26.029Z</time></trkpt><trkpt lat="45.4643943" lon="7.6901977"><ele>1213.0</ele><time>2026-04-11T15:07:26.958Z</time></trkpt><trkpt lat="45.4642804" lon="7.6901951"><ele>1208.0</ele><time>2026-04-11T15:07:27.968Z</time></trkpt><trkpt lat="45.4641673" lon="7.6901729"><ele>1208.0</ele><time>2026-04-11T15:07:28.958Z</time></trkpt><trkpt lat="45.464046" lon="7.6901574"><ele>1208.0</ele><time>2026-04-11T15:07:29.948Z</time></trkpt><trkpt lat="45.463923" lon="7.6901729"><ele>1208.0</ele><time>2026-04-11T15:07:31.044Z</time></trkpt><trkpt lat="45.4638033" lon="7.6901775"><ele>1208.0</ele><time>2026-04-11T15:07:32.027Z</time></trkpt><trkpt lat="45.463678" lon="7.6901824"><ele>1207.0</ele><time>2026-04-11T15:07:32.953Z</time></trkpt><trkpt lat="45.4635553" lon="7.6901842"><ele>1206.0</ele><time>2026-04-11T15:07:33.963Z</time></trkpt><trkpt lat="45.4634437" lon="7.6901853"><ele>1205.0</ele><time>2026-04-11T15:07:34.976Z</time></trkpt><trkpt lat="45.4633378" lon="7.6901935"><ele>1204.0</ele><time>2026-04-11T15:07:36.03Z</time></trkpt><trkpt lat="45.4632398" lon="7.6901882"><ele>1203.0</ele><time>2026-04-11T15:07:37.02Z</time></trkpt><trkpt lat="45.4631444" lon="7.6901515"><ele>1203.0</ele><time>2026-04-11T15:07:37.954Z</time></trkpt><trkpt lat="45.463046" lon="7.690077"><ele>1203.0</ele><time>2026-04-11T15:07:38.955Z</time></trkpt><trkpt lat="45.4629689" lon="7.6899854"><ele>1203.0</ele><time>2026-04-11T15:07:39.966Z</time></trkpt><trkpt lat="45.4628929" lon="7.6898944"><ele>1203.0</ele><time>2026-04-11T15:07:41.036Z</time></trkpt><trkpt lat="45.4628133" lon="7.6897999"><ele>1203.0</ele><time>2026-04-11T15:07:42.085Z</time></trkpt><trkpt lat="45.4626426" lon="7.6896424"><ele>1204.2</ele><time>2026-04-11T15:07:43.947Z</time></trkpt><trkpt lat="45.4625501" lon="7.6895724"><ele>1205.4</ele><time>2026-04-11T15:07:44.954Z</time></trkpt><trkpt lat="45.4624647" lon="7.6894897"><ele>1206.6000000000001</ele><time>2026-04-11T15:07:45.945Z</time></trkpt><trkpt lat="45.4623866" lon="7.6894086"><ele>1207.8</ele><time>2026-04-11T15:07:47.016Z</time></trkpt><trkpt lat="45.462316" lon="7.6893217"><ele>1209.0</ele><time>2026-04-11T15:07:47.958Z</time></trkpt><trkpt lat="45.4622557" lon="7.6892267"><ele>1206.4</ele><time>2026-04-11T15:07:49.021Z</time></trkpt><trkpt lat="45.4621949" lon="7.6891426"><ele>1203.8000000000002</ele><time>2026-04-11T15:07:50.03Z</time></trkpt><trkpt lat="45.4621269" lon="7.6890617"><ele>1201.1999999999998</ele><time>2026-04-11T15:07:50.957Z</time></trkpt><trkpt lat="45.4620484" lon="7.6889717"><ele>1198.6</ele><time>2026-04-11T15:07:51.957Z</time></trkpt><trkpt lat="45.4619473" lon="7.6888504"><ele>1196.0</ele><time>2026-04-11T15:07:52.948Z</time></trkpt><trkpt lat="45.4618124" lon="7.6887097"><ele>1188.6666666666667</ele><time>2026-04-11T15:07:53.958Z</time></trkpt><trkpt lat="45.461678" lon="7.688579"><ele>1181.3333333333333</ele><time>2026-04-11T15:07:54.968Z</time></trkpt><trkpt lat="45.4615459" lon="7.6884652"><ele>1174.0</ele><time>2026-04-11T15:07:55.995Z</time></trkpt><trkpt lat="45.4614254" lon="7.6883607"><ele>1174.0</ele><time>2026-04-11T15:07:56.955Z</time></trkpt><trkpt lat="45.4613076" lon="7.6882682"><ele>1174.0</ele><time>2026-04-11T15:07:57.959Z</time></trkpt><trkpt lat="45.4611981" lon="7.6881854"><ele>1174.0</ele><time>2026-04-11T15:07:58.954Z</time></trkpt><trkpt lat="45.4610973" lon="7.6881238"><ele>1174.0</ele><time>2026-04-11T15:07:59.96Z</time></trkpt><trkpt lat="45.4609911" lon="7.688079"><ele>1173.2</ele><time>2026-04-11T15:08:00.963Z</time></trkpt><trkpt lat="45.4608895" lon="7.6880569"><ele>1172.4</ele><time>2026-04-11T15:08:01.965Z</time></trkpt><trkpt lat="45.460794" lon="7.6880654"><ele>1171.6</ele><time>2026-04-11T15:08:02.96Z</time></trkpt><trkpt lat="45.4607048" lon="7.6881449"><ele>1170.8</ele><time>2026-04-11T15:08:03.954Z</time></trkpt><trkpt lat="45.4606335" lon="7.6882458"><ele>1170.0</ele><time>2026-04-11T15:08:05.048Z</time></trkpt><trkpt lat="45.4605629" lon="7.6883576"><ele>1170.0</ele><time>2026-04-11T15:08:06.028Z</time></trkpt><trkpt lat="45.4604905" lon="7.6884704"><ele>1170.0</ele><time>2026-04-11T15:08:07.037Z</time></trkpt><trkpt lat="45.4603951" lon="7.6885557"><ele>1170.0</ele><time>2026-04-11T15:08:07.961Z</time></trkpt><trkpt lat="45.4602841" lon="7.6886241"><ele>1170.0</ele><time>2026-04-11T15:08:08.951Z</time></trkpt><trkpt lat="45.4601446" lon="7.6886677"><ele>1171.25</ele><time>2026-04-11T15:08:09.956Z</time></trkpt><trkpt lat="45.4600083" lon="7.6887049"><ele>1172.5</ele><time>2026-04-11T15:08:10.949Z</time></trkpt><trkpt lat="45.4598812" lon="7.6887452"><ele>1173.75</ele><time>2026-04-11T15:08:11.951Z</time></trkpt><trkpt lat="45.4597622" lon="7.6887764"><ele>1175.0</ele><time>2026-04-11T15:08:12.978Z</time></trkpt><trkpt lat="45.4596513" lon="7.6887602"><ele>1171.5</ele><time>2026-04-11T15:08:13.973Z</time></trkpt><trkpt lat="45.4595428" lon="7.6887303"><ele>1168.0</ele><time>2026-04-11T15:08:14.947Z</time></trkpt><trkpt lat="45.459428" lon="7.6887134"><ele>1164.5</ele><time>2026-04-11T15:08:16.013Z</time></trkpt><trkpt lat="45.4593062" lon="7.6887174"><ele>1161.0</ele><time>2026-04-11T15:08:17.015Z</time></trkpt><trkpt lat="45.4591837" lon="7.688736"><ele>1161.0</ele><time>2026-04-11T15:08:17.95Z</time></trkpt><trkpt lat="45.4590708" lon="7.6887751"><ele>1161.0</ele><time>2026-04-11T15:08:18.948Z</time></trkpt><trkpt lat="45.4589625" lon="7.6888208"><ele>1161.0</ele><time>2026-04-11T15:08:19.953Z</time></trkpt><trkpt lat="45.4588528" lon="7.6888837"><ele>1161.0</ele><time>2026-04-11T15:08:21.016Z</time></trkpt><trkpt lat="45.4587488" lon="7.6889583"><ele>1155.5</ele><time>2026-04-11T15:08:22.014Z</time></trkpt><trkpt lat="45.458647" lon="7.6890366"><ele>1150.0</ele><time>2026-04-11T15:08:22.95Z</time></trkpt><trkpt lat="45.4585457" lon="7.6890971"><ele>1144.5</ele><time>2026-04-11T15:08:23.961Z</time></trkpt><trkpt lat="45.458435" lon="7.6891372"><ele>1139.0</ele><time>2026-04-11T15:08:24.95Z</time></trkpt><trkpt lat="45.4583173" lon="7.6891742"><ele>1139.0</ele><time>2026-04-11T15:08:26.012Z</time></trkpt><trkpt lat="45.4581905" lon="7.6892037"><ele>1139.0</ele><time>2026-04-11T15:08:26.951Z</time></trkpt><trkpt lat="45.4580527" lon="7.689215"><ele>1139.0</ele><time>2026-04-11T15:08:27.954Z</time></trkpt><trkpt lat="45.457908" lon="7.6892229"><ele>1139.0</ele><time>2026-04-11T15:08:29.03Z</time></trkpt><trkpt lat="45.4577732" lon="7.6892122"><ele>1136.25</ele><time>2026-04-11T15:08:29.96Z</time></trkpt><trkpt lat="45.457638" lon="7.689194"><ele>1133.5</ele><time>2026-04-11T15:08:31.033Z</time></trkpt><trkpt lat="45.4575097" lon="7.6891809"><ele>1130.75</ele><time>2026-04-11T15:08:31.955Z</time></trkpt><trkpt lat="45.45739" lon="7.689168"><ele>1128.0</ele><time>2026-04-11T15:08:32.943Z</time></trkpt><trkpt lat="45.4572737" lon="7.6891609"><ele>1128.0</ele><time>2026-04-11T15:08:34.031Z</time></trkpt><trkpt lat="45.4571632" lon="7.689169"><ele>1128.0</ele><time>2026-04-11T15:08:35.033Z</time></trkpt><trkpt lat="45.4570563" lon="7.6891985"><ele>1128.0</ele><time>2026-04-11T15:08:36.008Z</time></trkpt><trkpt lat="45.4569399" lon="7.6892443"><ele>1128.0</ele><time>2026-04-11T15:08:37.025Z</time></trkpt><trkpt lat="45.4568134" lon="7.6893268"><ele>1124.6666666666667</ele><time>2026-04-11T15:08:37.949Z</time></trkpt><trkpt lat="45.4566742" lon="7.6893974"><ele>1121.3333333333335</ele><time>2026-04-11T15:08:38.951Z</time></trkpt><trkpt lat="45.4565162" lon="7.6894699"><ele>1118.0</ele><time>2026-04-11T15:08:39.956Z</time></trkpt><trkpt lat="45.4563711" lon="7.6895298"><ele>1120.75</ele><time>2026-04-11T15:08:40.951Z</time></trkpt><trkpt lat="45.456228" lon="7.6895898"><ele>1123.5</ele><time>2026-04-11T15:08:41.954Z</time></trkpt><trkpt lat="45.4560839" lon="7.6896535"><ele>1126.25</ele><time>2026-04-11T15:08:42.948Z</time></trkpt><trkpt lat="45.4559542" lon="7.6897284"><ele>1129.0</ele><time>2026-04-11T15:08:43.95Z</time></trkpt><trkpt lat="45.455838" lon="7.6897955"><ele>1129.0</ele><time>2026-04-11T15:08:44.948Z</time></trkpt><trkpt lat="45.4557311" lon="7.6898844"><ele>1129.0</ele><time>2026-04-11T15:08:45.948Z</time></trkpt><trkpt lat="45.4556198" lon="7.6899786"><ele>1129.0</ele><time>2026-04-11T15:08:46.952Z</time></trkpt><trkpt lat="45.4555109" lon="7.6900501"><ele>1129.0</ele><time>2026-04-11T15:08:47.948Z</time></trkpt><trkpt lat="45.4554032" lon="7.6900952"><ele>1125.0</ele><time>2026-04-11T15:08:48.945Z</time></trkpt><trkpt lat="45.4552904" lon="7.6901234"><ele>1121.0</ele><time>2026-04-11T15:08:49.955Z</time></trkpt><trkpt lat="45.4551864" lon="7.6901252"><ele>1117.0</ele><time>2026-04-11T15:08:50.948Z</time></trkpt><trkpt lat="45.4550843" lon="7.6901321"><ele>1113.0</ele><time>2026-04-11T15:08:51.953Z</time></trkpt><trkpt lat="45.4549879" lon="7.6901564"><ele>1109.0</ele><time>2026-04-11T15:08:52.943Z</time></trkpt><trkpt lat="45.4549083" lon="7.6901988"><ele>1111.4</ele><time>2026-04-11T15:08:53.948Z</time></trkpt><trkpt lat="45.4548327" lon="7.6902705"><ele>1113.8000000000002</ele><time>2026-04-11T15:08:55.04Z</time></trkpt><trkpt lat="45.4547573" lon="7.6903613"><ele>1116.1999999999998</ele><time>2026-04-11T15:08:55.964Z</time></trkpt><trkpt lat="45.4547058" lon="7.6904884"><ele>1118.6</ele><time>2026-04-11T15:08:56.964Z</time></trkpt><trkpt lat="45.4546664" lon="7.6906107"><ele>1121.0</ele><time>2026-04-11T15:08:57.964Z</time></trkpt><trkpt lat="45.4546376" lon="7.6907432"><ele>1121.0</ele><time>2026-04-11T15:08:58.963Z</time></trkpt><trkpt lat="45.4546348" lon="7.690889"><ele>1121.0</ele><time>2026-04-11T15:08:59.963Z</time></trkpt><trkpt lat="45.4546346" lon="7.691046"><ele>1121.0</ele><time>2026-04-11T15:09:00.963Z</time></trkpt><trkpt lat="45.4546292" lon="7.6911901"><ele>1121.0</ele><time>2026-04-11T15:09:01.962Z</time></trkpt><trkpt lat="45.4546063" lon="7.6913192"><ele>1121.0</ele><time>2026-04-11T15:09:02.961Z</time></trkpt><trkpt lat="45.4545489" lon="7.6914366"><ele>1115.0</ele><time>2026-04-11T15:09:03.968Z</time></trkpt><trkpt lat="45.4544719" lon="7.6915583"><ele>1109.0</ele><time>2026-04-11T15:09:04.964Z</time></trkpt><trkpt lat="45.4544002" lon="7.6916924"><ele>1103.0</ele><time>2026-04-11T15:09:06.027Z</time></trkpt><trkpt lat="45.4543503" lon="7.6918401"><ele>1097.0</ele><time>2026-04-11T15:09:07.032Z</time></trkpt><trkpt lat="45.4543175" lon="7.6919921"><ele>1097.0</ele><time>2026-04-11T15:09:07.948Z</time></trkpt><trkpt lat="45.4542851" lon="7.6921367"><ele>1097.0</ele><time>2026-04-11T15:09:08.955Z</time></trkpt><trkpt lat="45.454252" lon="7.6922745"><ele>1097.0</ele><time>2026-04-11T15:09:09.982Z</time></trkpt><trkpt lat="45.4541966" lon="7.6923802"><ele>1097.0</ele><time>2026-04-11T15:09:11.056Z</time></trkpt><trkpt lat="45.4541187" lon="7.6924714"><ele>1097.0</ele><time>2026-04-11T15:09:12.036Z</time></trkpt><trkpt lat="45.4540291" lon="7.692562"><ele>1097.0</ele><time>2026-04-11T15:09:12.944Z</time></trkpt><trkpt lat="45.4539288" lon="7.6926312"><ele>1097.0</ele><time>2026-04-11T15:09:13.945Z</time></trkpt><trkpt lat="45.4538558" lon="7.6926988"><ele>1097.0</ele><time>2026-04-11T15:09:15.006Z</time></trkpt><trkpt lat="45.4538071" lon="7.6927765"><ele>1097.0</ele><time>2026-04-11T15:09:16.032Z</time></trkpt><trkpt lat="45.4537736" lon="7.69287"><ele>1097.0</ele><time>2026-04-11T15:09:17.037Z</time></trkpt><trkpt lat="45.4537609" lon="7.6929958"><ele>1097.0</ele><time>2026-04-11T15:09:17.955Z</time></trkpt><trkpt lat="45.4537573" lon="7.6931443"><ele>1093.8333333333335</ele><time>2026-04-11T15:09:18.953Z</time></trkpt><trkpt lat="45.4537439" lon="7.6932864"><ele>1090.6666666666667</ele><time>2026-04-11T15:09:19.992Z</time></trkpt><trkpt lat="45.4537403" lon="7.6934064"><ele>1087.5</ele><time>2026-04-11T15:09:21.031Z</time></trkpt><trkpt lat="45.4536551" lon="7.6935107"><ele>1084.3333333333333</ele><time>2026-04-11T15:09:22.957Z</time></trkpt><trkpt lat="45.4535893" lon="7.6935258"><ele>1081.1666666666665</ele><time>2026-04-11T15:09:23.955Z</time></trkpt><trkpt lat="45.4535165" lon="7.6935131"><ele>1078.0</ele><time>2026-04-11T15:09:24.97Z</time></trkpt><trkpt lat="45.4534357" lon="7.693489"><ele>1078.0</ele><time>2026-04-11T15:09:26.029Z</time></trkpt><trkpt lat="45.4533607" lon="7.6934994"><ele>1078.0</ele><time>2026-04-11T15:09:27.035Z</time></trkpt><trkpt lat="45.4533023" lon="7.6935451"><ele>1078.0</ele><time>2026-04-11T15:09:27.972Z</time></trkpt><trkpt lat="45.4532237" lon="7.6936429"><ele>1078.0</ele><time>2026-04-11T15:09:28.973Z</time></trkpt><trkpt lat="45.4531456" lon="7.6937593"><ele>1078.0</ele><time>2026-04-11T15:09:29.969Z</time></trkpt><trkpt lat="45.4530628" lon="7.6938592"><ele>1079.0</ele><time>2026-04-11T15:09:30.973Z</time></trkpt><trkpt lat="45.4529946" lon="7.6939844"><ele>1080.0</ele><time>2026-04-11T15:09:31.974Z</time></trkpt><trkpt lat="45.4529333" lon="7.6941381"><ele>1081.0</ele><time>2026-04-11T15:09:32.973Z</time></trkpt><trkpt lat="45.4528697" lon="7.6942995"><ele>1082.0</ele><time>2026-04-11T15:09:33.978Z</time></trkpt><trkpt lat="45.4528055" lon="7.694446"><ele>1082.0</ele><time>2026-04-11T15:09:34.968Z</time></trkpt><trkpt lat="45.4527174" lon="7.6945702"><ele>1082.0</ele><time>2026-04-11T15:09:36.031Z</time></trkpt><trkpt lat="45.4526123" lon="7.6946685"><ele>1082.0</ele><time>2026-04-11T15:09:36.981Z</time></trkpt><trkpt lat="45.4525063" lon="7.6947548"><ele>1082.0</ele><time>2026-04-11T15:09:37.95Z</time></trkpt><trkpt lat="45.4524001" lon="7.6948235"><ele>1082.0</ele><time>2026-04-11T15:09:38.955Z</time></trkpt><trkpt lat="45.4522866" lon="7.694877"><ele>1082.0</ele><time>2026-04-11T15:09:39.949Z</time></trkpt><trkpt lat="45.452159" lon="7.6949178"><ele>1082.0</ele><time>2026-04-11T15:09:40.946Z</time></trkpt><trkpt lat="45.4520112" lon="7.6949689"><ele>1082.0</ele><time>2026-04-11T15:09:41.954Z</time></trkpt><trkpt lat="45.4518437" lon="7.6950334"><ele>1077.6666666666667</ele><time>2026-04-11T15:09:42.949Z</time></trkpt><trkpt lat="45.451668" lon="7.6950961"><ele>1073.3333333333333</ele><time>2026-04-11T15:09:43.946Z</time></trkpt><trkpt lat="45.4514843" lon="7.6951706"><ele>1069.0</ele><time>2026-04-11T15:09:45.013Z</time></trkpt><trkpt lat="45.4513157" lon="7.6952327"><ele>1070.3333333333333</ele><time>2026-04-11T15:09:45.951Z</time></trkpt><trkpt lat="45.4511455" lon="7.6952808"><ele>1071.6666666666667</ele><time>2026-04-11T15:09:47.02Z</time></trkpt><trkpt lat="45.4509801" lon="7.6953224"><ele>1073.0</ele><time>2026-04-11T15:09:47.949Z</time></trkpt><trkpt lat="45.4508229" lon="7.6953722"><ele>1073.0</ele><time>2026-04-11T15:09:48.949Z</time></trkpt><trkpt lat="45.4506677" lon="7.6954238"><ele>1073.0</ele><time>2026-04-11T15:09:49.947Z</time></trkpt><trkpt lat="45.4505162" lon="7.6954699"><ele>1073.0</ele><time>2026-04-11T15:09:51.02Z</time></trkpt><trkpt lat="45.4503653" lon="7.6955152"><ele>1069.0</ele><time>2026-04-11T15:09:52.032Z</time></trkpt><trkpt lat="45.450222" lon="7.6955447"><ele>1065.0</ele><time>2026-04-11T15:09:52.955Z</time></trkpt><trkpt lat="45.4500977" lon="7.6955654"><ele>1061.0</ele><time>2026-04-11T15:09:53.961Z</time></trkpt><trkpt lat="45.4499755" lon="7.6955918"><ele>1057.0</ele><time>2026-04-11T15:09:54.97Z</time></trkpt><trkpt lat="45.4498528" lon="7.6955928"><ele>1057.0</ele><time>2026-04-11T15:09:56.03Z</time></trkpt><trkpt lat="45.4497428" lon="7.6955676"><ele>1057.0</ele><time>2026-04-11T15:09:57.037Z</time></trkpt><trkpt lat="45.4496484" lon="7.6955136"><ele>1057.0</ele><time>2026-04-11T15:09:57.96Z</time></trkpt><trkpt lat="45.4495631" lon="7.6954239"><ele>1057.0</ele><time>2026-04-11T15:09:58.956Z</time></trkpt><trkpt lat="45.4494963" lon="7.6953295"><ele>1057.0</ele><time>2026-04-11T15:09:59.948Z</time></trkpt><trkpt lat="45.4494341" lon="7.6952287"><ele>1053.25</ele><time>2026-04-11T15:10:00.947Z</time></trkpt><trkpt lat="45.4493985" lon="7.6951386"><ele>1049.5</ele><time>2026-04-11T15:10:01.948Z</time></trkpt><trkpt lat="45.4493698" lon="7.6949148"><ele>1045.75</ele><time>2026-04-11T15:10:04.953Z</time></trkpt><trkpt lat="45.4492755" lon="7.6949998"><ele>1042.0</ele><time>2026-04-11T15:10:08.961Z</time></trkpt><trkpt lat="45.4491928" lon="7.6951633"><ele>1041.75</ele><time>2026-04-11T15:10:09.945Z</time></trkpt><trkpt lat="45.4491119" lon="7.6953161"><ele>1041.5</ele><time>2026-04-11T15:10:10.957Z</time></trkpt><trkpt lat="45.4490375" lon="7.69547"><ele>1041.25</ele><time>2026-04-11T15:10:11.958Z</time></trkpt><trkpt lat="45.4490136" lon="7.6956554"><ele>1041.0</ele><time>2026-04-11T15:10:12.967Z</time></trkpt><trkpt lat="45.4490039" lon="7.6958441"><ele>1041.0</ele><time>2026-04-11T15:10:13.969Z</time></trkpt><trkpt lat="45.4489901" lon="7.6960332"><ele>1041.0</ele><time>2026-04-11T15:10:14.974Z</time></trkpt><trkpt lat="45.4489809" lon="7.6962116"><ele>1041.0</ele><time>2026-04-11T15:10:15.965Z</time></trkpt><trkpt lat="45.4489593" lon="7.6963682"><ele>1041.0</ele><time>2026-04-11T15:10:16.953Z</time></trkpt><trkpt lat="45.44893" lon="7.6965185"><ele>1040.25</ele><time>2026-04-11T15:10:17.961Z</time></trkpt><trkpt lat="45.4488922" lon="7.6966675"><ele>1039.5</ele><time>2026-04-11T15:10:18.953Z</time></trkpt><trkpt lat="45.4488427" lon="7.6968151"><ele>1038.75</ele><time>2026-04-11T15:10:19.969Z</time></trkpt><trkpt lat="45.448785" lon="7.6969704"><ele>1038.0</ele><time>2026-04-11T15:10:20.961Z</time></trkpt><trkpt lat="45.4487244" lon="7.6971207"><ele>1032.8</ele><time>2026-04-11T15:10:21.954Z</time></trkpt><trkpt lat="45.4486551" lon="7.6972448"><ele>1027.6</ele><time>2026-04-11T15:10:22.951Z</time></trkpt><trkpt lat="45.4485882" lon="7.6973499"><ele>1022.4000000000001</ele><time>2026-04-11T15:10:23.945Z</time></trkpt><trkpt lat="45.448527" lon="7.6974629"><ele>1017.2</ele><time>2026-04-11T15:10:24.946Z</time></trkpt><trkpt lat="45.4484774" lon="7.6975776"><ele>1012.0</ele><time>2026-04-11T15:10:25.945Z</time></trkpt><trkpt lat="45.4484428" lon="7.6976945"><ele>1011.4000000000001</ele><time>2026-04-11T15:10:26.957Z</time></trkpt><trkpt lat="45.4484172" lon="7.6977853"><ele>1010.8000000000001</ele><time>2026-04-11T15:10:27.956Z</time></trkpt><trkpt lat="45.4484403" lon="7.6978948"><ele>1010.2</ele><time>2026-04-11T15:10:29.95Z</time></trkpt><trkpt lat="45.4485358" lon="7.6979916"><ele>1009.6</ele><time>2026-04-11T15:10:31.946Z</time></trkpt><trkpt lat="45.4485867" lon="7.6980468"><ele>1009.0</ele><time>2026-04-11T15:10:32.948Z</time></trkpt><trkpt lat="45.448625" lon="7.6982097"><ele>1009.0</ele><time>2026-04-11T15:10:34.962Z</time></trkpt><trkpt lat="45.4486275" lon="7.6983201"><ele>1009.0000000000001</ele><time>2026-04-11T15:10:36.019Z</time></trkpt><trkpt lat="45.4486007" lon="7.6984267"><ele>1009.0000000000001</ele><time>2026-04-11T15:10:37.023Z</time></trkpt><trkpt lat="45.4485397" lon="7.6985352"><ele>1009.0</ele><time>2026-04-11T15:10:37.953Z</time></trkpt><trkpt lat="45.4484698" lon="7.6986357"><ele>1009.0</ele><time>2026-04-11T15:10:38.96Z</time></trkpt><trkpt lat="45.4484043" lon="7.6987659"><ele>1008.75</ele><time>2026-04-11T15:10:39.991Z</time></trkpt><trkpt lat="45.4483349" lon="7.6989376"><ele>1008.5</ele><time>2026-04-11T15:10:40.954Z</time></trkpt><trkpt lat="45.4482655" lon="7.6991255"><ele>1008.25</ele><time>2026-04-11T15:10:41.958Z</time></trkpt><trkpt lat="45.4482013" lon="7.699299"><ele>1008.0</ele><time>2026-04-11T15:10:42.955Z</time></trkpt><trkpt lat="45.4481362" lon="7.6994531"><ele>1010.75</ele><time>2026-04-11T15:10:43.956Z</time></trkpt><trkpt lat="45.4480713" lon="7.6995855"><ele>1013.5</ele><time>2026-04-11T15:10:44.965Z</time></trkpt><trkpt lat="45.4479869" lon="7.6997127"><ele>1016.25</ele><time>2026-04-11T15:10:45.964Z</time></trkpt><trkpt lat="45.4478783" lon="7.6998263"><ele>1019.0</ele><time>2026-04-11T15:10:46.959Z</time></trkpt><trkpt lat="45.4477696" lon="7.699924"><ele>1015.2</ele><time>2026-04-11T15:10:47.961Z</time></trkpt><trkpt lat="45.4476646" lon="7.7000103"><ele>1011.4000000000001</ele><time>2026-04-11T15:10:48.963Z</time></trkpt><trkpt lat="45.44757" lon="7.700082"><ele>1007.6</ele><time>2026-04-11T15:10:50.021Z</time></trkpt><trkpt lat="45.4475038" lon="7.7001468"><ele>1003.8</ele><time>2026-04-11T15:10:51.035Z</time></trkpt><trkpt lat="45.4474564" lon="7.7002213"><ele>1000.0</ele><time>2026-04-11T15:10:52.022Z</time></trkpt><trkpt lat="45.4474153" lon="7.7003128"><ele>1000.0</ele><time>2026-04-11T15:10:53.018Z</time></trkpt><trkpt lat="45.4473822" lon="7.7004229"><ele>1000.0</ele><time>2026-04-11T15:10:53.959Z</time></trkpt><trkpt lat="45.4473591" lon="7.7005658"><ele>1000.0</ele><time>2026-04-11T15:10:54.949Z</time></trkpt><trkpt lat="45.4473291" lon="7.7007305"><ele>1000.0</ele><time>2026-04-11T15:10:55.964Z</time></trkpt><trkpt lat="45.4473044" lon="7.7008906"><ele>1000.0</ele><time>2026-04-11T15:10:56.959Z</time></trkpt><trkpt lat="45.4472958" lon="7.7010229"><ele>999.0</ele><time>2026-04-11T15:10:57.966Z</time></trkpt><trkpt lat="45.4473018" lon="7.7011528"><ele>998.0</ele><time>2026-04-11T15:10:59.045Z</time></trkpt><trkpt lat="45.4473128" lon="7.7012674"><ele>997.0</ele><time>2026-04-11T15:11:00.036Z</time></trkpt><trkpt lat="45.4472987" lon="7.7013773"><ele>996.0</ele><time>2026-04-11T15:11:01.034Z</time></trkpt><trkpt lat="45.4472393" lon="7.7015056"><ele>995.0</ele><time>2026-04-11T15:11:01.962Z</time></trkpt><trkpt lat="45.4471597" lon="7.7016211"><ele>989.0</ele><time>2026-04-11T15:11:02.977Z</time></trkpt><trkpt lat="45.4470337" lon="7.7017688"><ele>983.0</ele><time>2026-04-11T15:11:03.965Z</time></trkpt><trkpt lat="45.4468818" lon="7.7019135"><ele>977.0</ele><time>2026-04-11T15:11:04.965Z</time></trkpt><trkpt lat="45.4467425" lon="7.7020219"><ele>977.0</ele><time>2026-04-11T15:11:05.974Z</time></trkpt><trkpt lat="45.4466017" lon="7.702134"><ele>977.0</ele><time>2026-04-11T15:11:06.961Z</time></trkpt><trkpt lat="45.4464694" lon="7.7022523"><ele>977.0</ele><time>2026-04-11T15:11:07.968Z</time></trkpt><trkpt lat="45.4463431" lon="7.7023601"><ele>973.5</ele><time>2026-04-11T15:11:08.969Z</time></trkpt><trkpt lat="45.4462265" lon="7.7024653"><ele>970.0</ele><time>2026-04-11T15:11:10.081Z</time></trkpt><trkpt lat="45.4460453" lon="7.7026238"><ele>966.5</ele><time>2026-04-11T15:11:12.031Z</time></trkpt><trkpt lat="45.445954" lon="7.702656"><ele>963.0</ele><time>2026-04-11T15:11:12.951Z</time></trkpt><trkpt lat="45.445847" lon="7.7026541"><ele>963.0</ele><time>2026-04-11T15:11:13.949Z</time></trkpt><trkpt lat="45.4457227" lon="7.7026277"><ele>963.0</ele><time>2026-04-11T15:11:14.985Z</time></trkpt><trkpt lat="45.4455879" lon="7.7026"><ele>963.0</ele><time>2026-04-11T15:11:16.031Z</time></trkpt><trkpt lat="45.4454557" lon="7.7025778"><ele>963.0</ele><time>2026-04-11T15:11:17.037Z</time></trkpt><trkpt lat="45.4453193" lon="7.7025559"><ele>959.75</ele><time>2026-04-11T15:11:17.963Z</time></trkpt><trkpt lat="45.4451871" lon="7.7025452"><ele>956.5</ele><time>2026-04-11T15:11:18.964Z</time></trkpt><trkpt lat="45.4450614" lon="7.7025347"><ele>953.25</ele><time>2026-04-11T15:11:19.992Z</time></trkpt><trkpt lat="45.4449368" lon="7.7025247"><ele>950.0</ele><time>2026-04-11T15:11:21.005Z</time></trkpt><trkpt lat="45.4448289" lon="7.7025234"><ele>950.0000000000001</ele><time>2026-04-11T15:11:21.99Z</time></trkpt><trkpt lat="45.4447232" lon="7.7025296"><ele>950.0</ele><time>2026-04-11T15:11:22.965Z</time></trkpt><trkpt lat="45.4446388" lon="7.702571"><ele>950.0</ele><time>2026-04-11T15:11:24.038Z</time></trkpt><trkpt lat="45.4445705" lon="7.7025984"><ele>950.0</ele><time>2026-04-11T15:11:25.029Z</time></trkpt><trkpt lat="45.4444811" lon="7.7025823"><ele>950.0000000000001</ele><time>2026-04-11T15:11:27.032Z</time></trkpt><trkpt lat="45.4444953" lon="7.7024871"><ele>950.0</ele><time>2026-04-11T15:11:28.966Z</time></trkpt><trkpt lat="45.4445491" lon="7.7024232"><ele>950.0</ele><time>2026-04-11T15:11:29.96Z</time></trkpt><trkpt lat="45.4446267" lon="7.7023337"><ele>950.0</ele><time>2026-04-11T15:11:31.029Z</time></trkpt><trkpt lat="45.4447139" lon="7.7022146"><ele>950.0</ele><time>2026-04-11T15:11:32.055Z</time></trkpt><trkpt lat="45.4448026" lon="7.7020605"><ele>950.0</ele><time>2026-04-11T15:11:32.959Z</time></trkpt><trkpt lat="45.4448815" lon="7.701907"><ele>947.8</ele><time>2026-04-11T15:11:33.967Z</time></trkpt><trkpt lat="45.4449413" lon="7.7017382"><ele>945.6</ele><time>2026-04-11T15:11:34.975Z</time></trkpt><trkpt lat="45.4449842" lon="7.7015775"><ele>943.4000000000001</ele><time>2026-04-11T15:11:35.956Z</time></trkpt><trkpt lat="45.4450278" lon="7.7014391"><ele>941.2</ele><time>2026-04-11T15:11:36.959Z</time></trkpt><trkpt lat="45.4450838" lon="7.7013429"><ele>939.0</ele><time>2026-04-11T15:11:37.96Z</time></trkpt><trkpt lat="45.4451362" lon="7.7012781"><ele>939.0</ele><time>2026-04-11T15:11:38.961Z</time></trkpt><trkpt lat="45.4451873" lon="7.7011735"><ele>939.0</ele><time>2026-04-11T15:11:41.031Z</time></trkpt><trkpt lat="45.4451159" lon="7.7010575"><ele>939.0</ele><time>2026-04-11T15:11:42.959Z</time></trkpt><trkpt lat="45.4450366" lon="7.7010189"><ele>939.0</ele><time>2026-04-11T15:11:43.96Z</time></trkpt><trkpt lat="45.4449652" lon="7.7009615"><ele>939.0</ele><time>2026-04-11T15:11:44.986Z</time></trkpt><trkpt lat="45.4449076" lon="7.7008896"><ele>939.0</ele><time>2026-04-11T15:11:46.032Z</time></trkpt><trkpt lat="45.4448561" lon="7.7008128"><ele>939.0</ele><time>2026-04-11T15:11:47.039Z</time></trkpt><trkpt lat="45.4448035" lon="7.700722"><ele>939.0000000000001</ele><time>2026-04-11T15:11:47.956Z</time></trkpt><trkpt lat="45.4447527" lon="7.7005882"><ele>939.0000000000001</ele><time>2026-04-11T15:11:48.956Z</time></trkpt><trkpt lat="45.4447137" lon="7.7004614"><ele>939.0</ele><time>2026-04-11T15:11:49.977Z</time></trkpt><trkpt lat="45.4446712" lon="7.7003427"><ele>939.0</ele><time>2026-04-11T15:11:51.029Z</time></trkpt><trkpt lat="45.4446443" lon="7.700249"><ele>938.6</ele><time>2026-04-11T15:11:51.945Z</time></trkpt><trkpt lat="45.4446349" lon="7.7001468"><ele>938.2</ele><time>2026-04-11T15:11:52.966Z</time></trkpt><trkpt lat="45.4446453" lon="7.7000381"><ele>937.8000000000001</ele><time>2026-04-11T15:11:53.964Z</time></trkpt><trkpt lat="45.4446875" lon="7.6999157"><ele>937.4000000000001</ele><time>2026-04-11T15:11:55.071Z</time></trkpt><trkpt lat="45.4447438" lon="7.6997967"><ele>937.0</ele><time>2026-04-11T15:11:56.036Z</time></trkpt><trkpt lat="45.4448158" lon="7.6996724"><ele>937.0</ele><time>2026-04-11T15:11:56.95Z</time></trkpt><trkpt lat="45.4448881" lon="7.6995769"><ele>937.0</ele><time>2026-04-11T15:11:57.959Z</time></trkpt><trkpt lat="45.4449456" lon="7.699481"><ele>937.0</ele><time>2026-04-11T15:11:58.955Z</time></trkpt><trkpt lat="45.4449683" lon="7.6993196"><ele>937.0</ele><time>2026-04-11T15:12:01.028Z</time></trkpt><trkpt lat="45.444943" lon="7.6992364"><ele>937.0</ele><time>2026-04-11T15:12:02.042Z</time></trkpt><trkpt lat="45.4448802" lon="7.699144"><ele>936.75</ele><time>2026-04-11T15:12:02.947Z</time></trkpt><trkpt lat="45.44481" lon="7.6990332"><ele>936.5</ele><time>2026-04-11T15:12:03.957Z</time></trkpt><trkpt lat="45.44473" lon="7.6989057"><ele>936.25</ele><time>2026-04-11T15:12:04.964Z</time></trkpt><trkpt lat="45.4446591" lon="7.6987678"><ele>936.0</ele><time>2026-04-11T15:12:06.01Z</time></trkpt><trkpt lat="45.4445948" lon="7.6986485"><ele>932.5999999999999</ele><time>2026-04-11T15:12:07.016Z</time></trkpt><trkpt lat="45.444535" lon="7.6985472"><ele>929.1999999999999</ele><time>2026-04-11T15:12:07.948Z</time></trkpt><trkpt lat="45.4444927" lon="7.6984461"><ele>925.8000000000001</ele><time>2026-04-11T15:12:08.951Z</time></trkpt><trkpt lat="45.4444608" lon="7.698335"><ele>922.4000000000001</ele><time>2026-04-11T15:12:09.967Z</time></trkpt><trkpt lat="45.4444297" lon="7.6982404"><ele>919.0</ele><time>2026-04-11T15:12:11.073Z</time></trkpt><trkpt lat="45.4443281" lon="7.6981228"><ele>919.0</ele><time>2026-04-11T15:12:12.951Z</time></trkpt><trkpt lat="45.4442492" lon="7.6980897"><ele>919.0000000000001</ele><time>2026-04-11T15:12:13.952Z</time></trkpt><trkpt lat="45.4441608" lon="7.698051"><ele>919.0000000000001</ele><time>2026-04-11T15:12:14.952Z</time></trkpt><trkpt lat="45.4440706" lon="7.6980234"><ele>919.0</ele><time>2026-04-11T15:12:15.955Z</time></trkpt><trkpt lat="45.4439849" lon="7.6979711"><ele>919.0</ele><time>2026-04-11T15:12:16.956Z</time></trkpt><trkpt lat="45.4439029" lon="7.6979131"><ele>919.0</ele><time>2026-04-11T15:12:17.961Z</time></trkpt><trkpt lat="45.4438235" lon="7.6978115"><ele>919.0</ele><time>2026-04-11T15:12:18.954Z</time></trkpt><trkpt lat="45.4437439" lon="7.6976831"><ele>919.0</ele><time>2026-04-11T15:12:20.041Z</time></trkpt><trkpt lat="45.4436376" lon="7.6975447"><ele>919.0</ele><time>2026-04-11T15:12:20.948Z</time></trkpt><trkpt lat="45.4435253" lon="7.6974168"><ele>915.5</ele><time>2026-04-11T15:12:21.96Z</time></trkpt><trkpt lat="45.4434026" lon="7.6972873"><ele>912.0</ele><time>2026-04-11T15:12:22.938Z</time></trkpt><trkpt lat="45.4432882" lon="7.697175"><ele>908.5</ele><time>2026-04-11T15:12:23.952Z</time></trkpt><trkpt lat="45.4431692" lon="7.6970772"><ele>905.0</ele><time>2026-04-11T15:12:24.951Z</time></trkpt><trkpt lat="45.4430544" lon="7.6969859"><ele>901.75</ele><time>2026-04-11T15:12:26.031Z</time></trkpt><trkpt lat="45.4429388" lon="7.6969101"><ele>898.5</ele><time>2026-04-11T15:12:27.034Z</time></trkpt><trkpt lat="45.4428272" lon="7.6968452"><ele>895.25</ele><time>2026-04-11T15:12:27.955Z</time></trkpt><trkpt lat="45.4427152" lon="7.6967995"><ele>892.0</ele><time>2026-04-11T15:12:28.955Z</time></trkpt><trkpt lat="45.4426059" lon="7.696757"><ele>892.0</ele><time>2026-04-11T15:12:29.961Z</time></trkpt><trkpt lat="45.4424917" lon="7.6967177"><ele>892.0</ele><time>2026-04-11T15:12:30.951Z</time></trkpt><trkpt lat="45.4423859" lon="7.6966826"><ele>892.0</ele><time>2026-04-11T15:12:31.953Z</time></trkpt><trkpt lat="45.4422858" lon="7.6966592"><ele>892.0</ele><time>2026-04-11T15:12:32.951Z</time></trkpt><trkpt lat="45.4422082" lon="7.696657"><ele>892.0</ele><time>2026-04-11T15:12:33.96Z</time></trkpt><trkpt lat="45.4421402" lon="7.6967014"><ele>889.6</ele><time>2026-04-11T15:12:34.952Z</time></trkpt><trkpt lat="45.442071" lon="7.6967879"><ele>887.2</ele><time>2026-04-11T15:12:36.011Z</time></trkpt><trkpt lat="45.442007" lon="7.6968685"><ele>884.8</ele><time>2026-04-11T15:12:37.009Z</time></trkpt><trkpt lat="45.4419478" lon="7.6969449"><ele>882.4</ele><time>2026-04-11T15:12:37.952Z</time></trkpt><trkpt lat="45.441835" lon="7.6969798"><ele>880.0</ele><time>2026-04-11T15:12:39.969Z</time></trkpt><trkpt lat="45.4417735" lon="7.6968571"><ele>879.9999999999999</ele><time>2026-04-11T15:12:42.016Z</time></trkpt><trkpt lat="45.441747" lon="7.6967615"><ele>880.0</ele><time>2026-04-11T15:12:42.948Z</time></trkpt><trkpt lat="45.4417264" lon="7.6966403"><ele>880.0</ele><time>2026-04-11T15:12:43.953Z</time></trkpt><trkpt lat="45.4417054" lon="7.6965086"><ele>880.0</ele><time>2026-04-11T15:12:44.957Z</time></trkpt><trkpt lat="45.4416783" lon="7.6964073"><ele>879.9999999999999</ele><time>2026-04-11T15:12:46.008Z</time></trkpt><trkpt lat="45.4416274" lon="7.6963385"><ele>880.0</ele><time>2026-04-11T15:12:47.022Z</time></trkpt><trkpt lat="45.441551" lon="7.6962952"><ele>880.0</ele><time>2026-04-11T15:12:47.942Z</time></trkpt><trkpt lat="45.4414638" lon="7.6962566"><ele>880.0</ele><time>2026-04-11T15:12:48.949Z</time></trkpt><trkpt lat="45.4413741" lon="7.696223"><ele>880.0</ele><time>2026-04-11T15:12:49.961Z</time></trkpt><trkpt lat="45.4412828" lon="7.6962129"><ele>880.0</ele><time>2026-04-11T15:12:50.955Z</time></trkpt><trkpt lat="45.4412152" lon="7.6962067"><ele>880.0</ele><time>2026-04-11T15:12:52.03Z</time></trkpt><trkpt lat="45.441108" lon="7.6962373"><ele>875.6</ele><time>2026-04-11T15:12:53.954Z</time></trkpt><trkpt lat="45.4410469" lon="7.696409"><ele>871.2</ele><time>2026-04-11T15:12:55.969Z</time></trkpt><trkpt lat="45.4410171" lon="7.6965596"><ele>866.8</ele><time>2026-04-11T15:12:56.986Z</time></trkpt><trkpt lat="45.4410117" lon="7.6967148"><ele>862.4</ele><time>2026-04-11T15:12:57.953Z</time></trkpt><trkpt lat="45.4410105" lon="7.6968423"><ele>858.0</ele><time>2026-04-11T15:12:59.018Z</time></trkpt><trkpt lat="45.44102" lon="7.6969569"><ele>856.3333333333334</ele><time>2026-04-11T15:12:59.961Z</time></trkpt><trkpt lat="45.4410278" lon="7.6970537"><ele>854.6666666666667</ele><time>2026-04-11T15:13:01.03Z</time></trkpt><trkpt lat="45.441054" lon="7.6971376"><ele>853.0</ele><time>2026-04-11T15:13:01.957Z</time></trkpt><trkpt lat="45.4411135" lon="7.6972786"><ele>851.3333333333334</ele><time>2026-04-11T15:13:03.955Z</time></trkpt><trkpt lat="45.4411558" lon="7.6973691"><ele>849.6666666666667</ele><time>2026-04-11T15:13:05.965Z</time></trkpt><trkpt lat="45.4410493" lon="7.6973936"><ele>848.0</ele><time>2026-04-11T15:13:07.956Z</time></trkpt><trkpt lat="45.4409685" lon="7.6973669"><ele>848.0</ele><time>2026-04-11T15:13:08.952Z</time></trkpt><trkpt lat="45.4408935" lon="7.6973219"><ele>848.0</ele><time>2026-04-11T15:13:09.948Z</time></trkpt><trkpt lat="45.4408215" lon="7.6972605"><ele>848.0</ele><time>2026-04-11T15:13:10.953Z</time></trkpt><trkpt lat="45.4407385" lon="7.6971656"><ele>848.0</ele><time>2026-04-11T15:13:11.955Z</time></trkpt><trkpt lat="45.4406755" lon="7.6970579"><ele>848.0</ele><time>2026-04-11T15:13:12.956Z</time></trkpt><trkpt lat="45.4406175" lon="7.6969546"><ele>849.6666666666667</ele><time>2026-04-11T15:13:13.957Z</time></trkpt><trkpt lat="45.440552" lon="7.6968718"><ele>851.3333333333334</ele><time>2026-04-11T15:13:14.956Z</time></trkpt><trkpt lat="45.4404758" lon="7.6968045"><ele>853.0</ele><time>2026-04-11T15:13:16.02Z</time></trkpt><trkpt lat="45.4404126" lon="7.69676"><ele>854.6666666666667</ele><time>2026-04-11T15:13:17.022Z</time></trkpt><trkpt lat="45.4403484" lon="7.6967387"><ele>856.3333333333334</ele><time>2026-04-11T15:13:17.954Z</time></trkpt><trkpt lat="45.4402855" lon="7.6966971"><ele>858.0</ele><time>2026-04-11T15:13:18.96Z</time></trkpt><trkpt lat="45.4402117" lon="7.6966411"><ele>853.8</ele><time>2026-04-11T15:13:19.972Z</time></trkpt><trkpt lat="45.4401405" lon="7.6965696"><ele>849.5999999999999</ele><time>2026-04-11T15:13:20.951Z</time></trkpt><trkpt lat="45.4400874" lon="7.6964909"><ele>845.4000000000001</ele><time>2026-04-11T15:13:21.957Z</time></trkpt><trkpt lat="45.4400329" lon="7.6963945"><ele>841.2</ele><time>2026-04-11T15:13:22.954Z</time></trkpt><trkpt lat="45.4399892" lon="7.6962694"><ele>837.0</ele><time>2026-04-11T15:13:24.021Z</time></trkpt><trkpt lat="45.4399424" lon="7.6961388"><ele>837.6666666666666</ele><time>2026-04-11T15:13:25.025Z</time></trkpt><trkpt lat="45.4399035" lon="7.6960178"><ele>838.3333333333333</ele><time>2026-04-11T15:13:26.02Z</time></trkpt><trkpt lat="45.4398737" lon="7.6959036"><ele>839.0</ele><time>2026-04-11T15:13:27.015Z</time></trkpt><trkpt lat="45.4398572" lon="7.695803"><ele>839.6666666666666</ele><time>2026-04-11T15:13:27.959Z</time></trkpt><trkpt lat="45.4398452" lon="7.6956936"><ele>840.3333333333333</ele><time>2026-04-11T15:13:28.957Z</time></trkpt><trkpt lat="45.439828" lon="7.6955776"><ele>841.0</ele><time>2026-04-11T15:13:29.971Z</time></trkpt><trkpt lat="45.4397992" lon="7.6954784"><ele>840.9999999999999</ele><time>2026-04-11T15:13:31.029Z</time></trkpt><trkpt lat="45.4397786" lon="7.6953867"><ele>841.0</ele><time>2026-04-11T15:13:32.015Z</time></trkpt><trkpt lat="45.4397716" lon="7.6952816"><ele>841.0</ele><time>2026-04-11T15:13:32.958Z</time></trkpt><trkpt lat="45.4397725" lon="7.6951811"><ele>841.0</ele><time>2026-04-11T15:13:33.962Z</time></trkpt><trkpt lat="45.4397862" lon="7.6950329"><ele>840.9999999999999</ele><time>2026-04-11T15:13:36.011Z</time></trkpt><trkpt lat="45.4398323" lon="7.6948756"><ele>841.0</ele><time>2026-04-11T15:13:37.947Z</time></trkpt><trkpt lat="45.4398645" lon="7.6947423"><ele>840.4</ele><time>2026-04-11T15:13:38.955Z</time></trkpt><trkpt lat="45.4399056" lon="7.694598"><ele>839.8</ele><time>2026-04-11T15:13:39.98Z</time></trkpt><trkpt lat="45.4399443" lon="7.6944614"><ele>839.1999999999999</ele><time>2026-04-11T15:13:41.037Z</time></trkpt><trkpt lat="45.4399945" lon="7.694344"><ele>838.5999999999999</ele><time>2026-04-11T15:13:42.033Z</time></trkpt><trkpt lat="45.4400457" lon="7.6942593"><ele>838.0</ele><time>2026-04-11T15:13:42.968Z</time></trkpt><trkpt lat="45.4401047" lon="7.6941957"><ele>837.2</ele><time>2026-04-11T15:13:43.976Z</time></trkpt><trkpt lat="45.4401652" lon="7.6941438"><ele>836.4</ele><time>2026-04-11T15:13:44.99Z</time></trkpt><trkpt lat="45.4402407" lon="7.6941088"><ele>835.6</ele><time>2026-04-11T15:13:46.034Z</time></trkpt><trkpt lat="45.4403401" lon="7.6940717"><ele>834.8000000000001</ele><time>2026-04-11T15:13:47.028Z</time></trkpt><trkpt lat="45.4404423" lon="7.6940456"><ele>834.0</ele><time>2026-04-11T15:13:47.956Z</time></trkpt><trkpt lat="45.4405494" lon="7.6940356"><ele>834.0</ele><time>2026-04-11T15:13:48.943Z</time></trkpt><trkpt lat="45.4406612" lon="7.6940371"><ele>834.0</ele><time>2026-04-11T15:13:49.955Z</time></trkpt><trkpt lat="45.4407729" lon="7.6940468"><ele>834.0</ele><time>2026-04-11T15:13:51.031Z</time></trkpt><trkpt lat="45.4408854" lon="7.6940347"><ele>834.0</ele><time>2026-04-11T15:13:51.957Z</time></trkpt><trkpt lat="45.4409907" lon="7.6940038"><ele>834.0</ele><time>2026-04-11T15:13:52.958Z</time></trkpt><trkpt lat="45.4410977" lon="7.6939727"><ele>834.0</ele><time>2026-04-11T15:13:53.961Z</time></trkpt><trkpt lat="45.4411993" lon="7.6939419"><ele>834.0</ele><time>2026-04-11T15:13:54.959Z</time></trkpt><trkpt lat="45.4412974" lon="7.6939223"><ele>834.0</ele><time>2026-04-11T15:13:55.954Z</time></trkpt><trkpt lat="45.4414002" lon="7.6939257"><ele>834.0</ele><time>2026-04-11T15:13:56.987Z</time></trkpt><trkpt lat="45.4415132" lon="7.6939396"><ele>834.0</ele><time>2026-04-11T15:13:57.961Z</time></trkpt><trkpt lat="45.4416472" lon="7.6939594"><ele>833.25</ele><time>2026-04-11T15:13:58.957Z</time></trkpt><trkpt lat="45.441784" lon="7.6939762"><ele>832.5</ele><time>2026-04-11T15:13:59.989Z</time></trkpt><trkpt lat="45.441915" lon="7.6939761"><ele>831.75</ele><time>2026-04-11T15:14:00.959Z</time></trkpt><trkpt lat="45.4420466" lon="7.6939786"><ele>831.0</ele><time>2026-04-11T15:14:01.956Z</time></trkpt><trkpt lat="45.4421761" lon="7.6939834"><ele>830.1999999999999</ele><time>2026-04-11T15:14:02.945Z</time></trkpt><trkpt lat="45.4422977" lon="7.693991"><ele>829.4</ele><time>2026-04-11T15:14:03.952Z</time></trkpt><trkpt lat="45.4424113" lon="7.6939964"><ele>828.6</ele><time>2026-04-11T15:14:04.956Z</time></trkpt><trkpt lat="45.4425097" lon="7.6940077"><ele>827.8</ele><time>2026-04-11T15:14:06.032Z</time></trkpt><trkpt lat="45.4425937" lon="7.6940078"><ele>827.0</ele><time>2026-04-11T15:14:07.031Z</time></trkpt><trkpt lat="45.4426572" lon="7.6939919"><ele>827.0</ele><time>2026-04-11T15:14:07.949Z</time></trkpt><trkpt lat="45.4427359" lon="7.6939375"><ele>827.0</ele><time>2026-04-11T15:14:09.973Z</time></trkpt><trkpt lat="45.442754" lon="7.6938378"><ele>827.0</ele><time>2026-04-11T15:14:11.952Z</time></trkpt><trkpt lat="45.4426858" lon="7.6937497"><ele>827.0</ele><time>2026-04-11T15:14:13.961Z</time></trkpt><trkpt lat="45.4425926" lon="7.6936196"><ele>827.0</ele><time>2026-04-11T15:14:15.96Z</time></trkpt><trkpt lat="45.4425579" lon="7.6934991"><ele>823.75</ele><time>2026-04-11T15:14:17.002Z</time></trkpt><trkpt lat="45.4425186" lon="7.6933577"><ele>820.5</ele><time>2026-04-11T15:14:17.954Z</time></trkpt><trkpt lat="45.4424663" lon="7.6931875"><ele>817.25</ele><time>2026-04-11T15:14:18.948Z</time></trkpt><trkpt lat="45.4424254" lon="7.6930189"><ele>814.0</ele><time>2026-04-11T15:14:19.959Z</time></trkpt><trkpt lat="45.4423913" lon="7.6928697"><ele>813.8000000000001</ele><time>2026-04-11T15:14:20.957Z</time></trkpt><trkpt lat="45.4423651" lon="7.6927361"><ele>813.6</ele><time>2026-04-11T15:14:21.955Z</time></trkpt><trkpt lat="45.4423498" lon="7.6926294"><ele>813.4</ele><time>2026-04-11T15:14:22.958Z</time></trkpt><trkpt lat="45.4423497" lon="7.6924525"><ele>813.2</ele><time>2026-04-11T15:14:25.036Z</time></trkpt><trkpt lat="45.4423772" lon="7.6923557"><ele>813.0</ele><time>2026-04-11T15:14:26.014Z</time></trkpt><trkpt lat="45.442419" lon="7.6922589"><ele>813.0</ele><time>2026-04-11T15:14:27.035Z</time></trkpt><trkpt lat="45.4424768" lon="7.6921734"><ele>813.0</ele><time>2026-04-11T15:14:27.952Z</time></trkpt><trkpt lat="45.4425505" lon="7.6920894"><ele>813.0</ele><time>2026-04-11T15:14:28.956Z</time></trkpt><trkpt lat="45.4426052" lon="7.6920114"><ele>813.0</ele><time>2026-04-11T15:14:29.956Z</time></trkpt><trkpt lat="45.4426335" lon="7.6918834"><ele>813.0</ele><time>2026-04-11T15:14:31.955Z</time></trkpt><trkpt lat="45.442611" lon="7.6917984"><ele>813.0</ele><time>2026-04-11T15:14:32.956Z</time></trkpt><trkpt lat="45.4425784" lon="7.6916892"><ele>813.5999999999999</ele><time>2026-04-11T15:14:33.956Z</time></trkpt><trkpt lat="45.4425358" lon="7.6915762"><ele>814.1999999999999</ele><time>2026-04-11T15:14:34.939Z</time></trkpt><trkpt lat="45.4424682" lon="7.6914491"><ele>814.8</ele><time>2026-04-11T15:14:35.952Z</time></trkpt><trkpt lat="45.4423851" lon="7.6913304"><ele>815.4</ele><time>2026-04-11T15:14:37.032Z</time></trkpt><trkpt lat="45.4423094" lon="7.6912204"><ele>816.0</ele><time>2026-04-11T15:14:37.965Z</time></trkpt><trkpt lat="45.4422324" lon="7.6910947"><ele>818.5999999999999</ele><time>2026-04-11T15:14:38.956Z</time></trkpt><trkpt lat="45.4421569" lon="7.6909628"><ele>821.2</ele><time>2026-04-11T15:14:39.975Z</time></trkpt><trkpt lat="45.4420835" lon="7.6908421"><ele>823.8</ele><time>2026-04-11T15:14:40.971Z</time></trkpt><trkpt lat="45.4420122" lon="7.6907354"><ele>826.4000000000001</ele><time>2026-04-11T15:14:41.968Z</time></trkpt><trkpt lat="45.441947" lon="7.690613"><ele>829.0</ele><time>2026-04-11T15:14:42.958Z</time></trkpt><trkpt lat="45.4418983" lon="7.6904789"><ele>826.1666666666666</ele><time>2026-04-11T15:14:44.032Z</time></trkpt><trkpt lat="45.4418556" lon="7.6903491"><ele>823.3333333333333</ele><time>2026-04-11T15:14:45.046Z</time></trkpt><trkpt lat="45.4418127" lon="7.6902369"><ele>820.5</ele><time>2026-04-11T15:14:46.042Z</time></trkpt><trkpt lat="45.441762" lon="7.6901405"><ele>817.6666666666667</ele><time>2026-04-11T15:14:47.042Z</time></trkpt><trkpt lat="45.4417039" lon="7.6900574"><ele>814.8333333333334</ele><time>2026-04-11T15:14:47.969Z</time></trkpt><trkpt lat="45.4416319" lon="7.6899902"><ele>812.0</ele><time>2026-04-11T15:14:48.956Z</time></trkpt><trkpt lat="45.4415512" lon="7.68995"><ele>812.0000000000001</ele><time>2026-04-11T15:14:49.981Z</time></trkpt><trkpt lat="45.4414817" lon="7.6899143"><ele>812.0</ele><time>2026-04-11T15:14:51.034Z</time></trkpt><trkpt lat="45.4414235" lon="7.6898581"><ele>812.0</ele><time>2026-04-11T15:14:52.033Z</time></trkpt><trkpt lat="45.441375" lon="7.6897746"><ele>812.0</ele><time>2026-04-11T15:14:52.967Z</time></trkpt><trkpt lat="45.4413351" lon="7.6896801"><ele>812.0000000000001</ele><time>2026-04-11T15:14:53.96Z</time></trkpt><trkpt lat="45.441306" lon="7.6895734"><ele>812.0</ele><time>2026-04-11T15:14:54.981Z</time></trkpt><trkpt lat="45.4412864" lon="7.6894529"><ele>812.8</ele><time>2026-04-11T15:14:56.037Z</time></trkpt><trkpt lat="45.4412782" lon="7.6893429"><ele>813.6</ele><time>2026-04-11T15:14:57.031Z</time></trkpt><trkpt lat="45.4412717" lon="7.6892352"><ele>814.4</ele><time>2026-04-11T15:14:57.959Z</time></trkpt><trkpt lat="45.4412825" lon="7.6891448"><ele>815.1999999999999</ele><time>2026-04-11T15:14:58.958Z</time></trkpt><trkpt lat="45.4413342" lon="7.688986"><ele>816.0</ele><time>2026-04-11T15:15:00.958Z</time></trkpt><trkpt lat="45.4414334" lon="7.6888682"><ele>816.0</ele><time>2026-04-11T15:15:02.949Z</time></trkpt><trkpt lat="45.441501" lon="7.6888168"><ele>816.0</ele><time>2026-04-11T15:15:03.961Z</time></trkpt><trkpt lat="45.441582" lon="7.6887743"><ele>816.0</ele><time>2026-04-11T15:15:04.953Z</time></trkpt><trkpt lat="45.4416963" lon="7.6887523"><ele>816.0</ele><time>2026-04-11T15:15:05.961Z</time></trkpt><trkpt lat="45.4418159" lon="7.6887391"><ele>816.0</ele><time>2026-04-11T15:15:07.037Z</time></trkpt><trkpt lat="45.4419367" lon="7.6887302"><ele>816.0</ele><time>2026-04-11T15:15:07.986Z</time></trkpt><trkpt lat="45.4420486" lon="7.6887258"><ele>816.0</ele><time>2026-04-11T15:15:08.973Z</time></trkpt><trkpt lat="45.4421686" lon="7.6887116"><ele>816.0</ele><time>2026-04-11T15:15:09.958Z</time></trkpt><trkpt lat="45.4422876" lon="7.688678"><ele>816.0</ele><time>2026-04-11T15:15:10.968Z</time></trkpt><trkpt lat="45.4424304" lon="7.6886231"><ele>808.3333333333333</ele><time>2026-04-11T15:15:11.953Z</time></trkpt><trkpt lat="45.4425905" lon="7.6885709"><ele>800.6666666666666</ele><time>2026-04-11T15:15:12.954Z</time></trkpt><trkpt lat="45.4427536" lon="7.688534"><ele>793.0</ele><time>2026-04-11T15:15:13.981Z</time></trkpt><trkpt lat="45.4429119" lon="7.6885072"><ele>793.5</ele><time>2026-04-11T15:15:14.954Z</time></trkpt><trkpt lat="45.4430536" lon="7.6884805"><ele>794.0</ele><time>2026-04-11T15:15:15.948Z</time></trkpt><trkpt lat="45.4431844" lon="7.6884657"><ele>794.5</ele><time>2026-04-11T15:15:16.96Z</time></trkpt><trkpt lat="45.443306" lon="7.6884377"><ele>795.0</ele><time>2026-04-11T15:15:17.957Z</time></trkpt><trkpt lat="45.4434291" lon="7.6884068"><ele>795.0</ele><time>2026-04-11T15:15:18.951Z</time></trkpt><trkpt lat="45.4435493" lon="7.6883763"><ele>795.0</ele><time>2026-04-11T15:15:19.95Z</time></trkpt><trkpt lat="45.4436688" lon="7.6883556"><ele>795.0</ele><time>2026-04-11T15:15:20.952Z</time></trkpt><trkpt lat="45.443786" lon="7.6883312"><ele>795.0</ele><time>2026-04-11T15:15:21.97Z</time></trkpt><trkpt lat="45.4438969" lon="7.6883016"><ele>794.6666666666666</ele><time>2026-04-11T15:15:22.951Z</time></trkpt><trkpt lat="45.4439983" lon="7.688274"><ele>794.3333333333333</ele><time>2026-04-11T15:15:23.946Z</time></trkpt><trkpt lat="45.4440926" lon="7.6882596"><ele>794.0</ele><time>2026-04-11T15:15:24.946Z</time></trkpt><trkpt lat="45.444187" lon="7.6882721"><ele>793.6666666666666</ele><time>2026-04-11T15:15:25.966Z</time></trkpt><trkpt lat="45.4442688" lon="7.6882914"><ele>793.3333333333333</ele><time>2026-04-11T15:15:26.942Z</time></trkpt><trkpt lat="45.4443394" lon="7.6883168"><ele>793.0</ele><time>2026-04-11T15:15:27.949Z</time></trkpt><trkpt lat="45.4444106" lon="7.6883293"><ele>793.0</ele><time>2026-04-11T15:15:29.035Z</time></trkpt><trkpt lat="45.4444887" lon="7.6883484"><ele>793.0</ele><time>2026-04-11T15:15:29.998Z</time></trkpt><trkpt lat="45.4445851" lon="7.6883823"><ele>793.0</ele><time>2026-04-11T15:15:30.956Z</time></trkpt><trkpt lat="45.4446966" lon="7.6884056"><ele>793.0</ele><time>2026-04-11T15:15:32.021Z</time></trkpt><trkpt lat="45.4448382" lon="7.688426"><ele>793.0</ele><time>2026-04-11T15:15:32.954Z</time></trkpt><trkpt lat="45.4449821" lon="7.6884533"><ele>789.5</ele><time>2026-04-11T15:15:33.952Z</time></trkpt><trkpt lat="45.44512" lon="7.6884963"><ele>786.0</ele><time>2026-04-11T15:15:34.975Z</time></trkpt><trkpt lat="45.4452488" lon="7.688553"><ele>782.5</ele><time>2026-04-11T15:15:35.944Z</time></trkpt><trkpt lat="45.4453936" lon="7.6886043"><ele>779.0</ele><time>2026-04-11T15:15:36.958Z</time></trkpt><trkpt lat="45.4455636" lon="7.6886455"><ele>789.3333333333334</ele><time>2026-04-11T15:15:37.953Z</time></trkpt><trkpt lat="45.4457366" lon="7.6886737"><ele>799.6666666666667</ele><time>2026-04-11T15:15:39.02Z</time></trkpt><trkpt lat="45.4458939" lon="7.6887044"><ele>810.0</ele><time>2026-04-11T15:15:40.016Z</time></trkpt><trkpt lat="45.446042" lon="7.688721"><ele>810.0</ele><time>2026-04-11T15:15:41.014Z</time></trkpt><trkpt lat="45.446181" lon="7.6887346"><ele>810.0</ele><time>2026-04-11T15:15:42.014Z</time></trkpt><trkpt lat="45.4463078" lon="7.6887377"><ele>810.0</ele><time>2026-04-11T15:15:42.946Z</time></trkpt><trkpt lat="45.4464251" lon="7.6887548"><ele>810.0</ele><time>2026-04-11T15:15:43.949Z</time></trkpt><trkpt lat="45.4465237" lon="7.68877"><ele>810.0</ele><time>2026-04-11T15:15:44.94Z</time></trkpt><trkpt lat="45.4466067" lon="7.6887857"><ele>810.0</ele><time>2026-04-11T15:15:46.011Z</time></trkpt><trkpt lat="45.4466707" lon="7.6887914"><ele>810.0</ele><time>2026-04-11T15:15:47.016Z</time></trkpt><trkpt lat="45.4467341" lon="7.6887443"><ele>810.0</ele><time>2026-04-11T15:15:48.949Z</time></trkpt><trkpt lat="45.4467791" lon="7.688635"><ele>810.0</ele><time>2026-04-11T15:15:50.952Z</time></trkpt><trkpt lat="45.4468099" lon="7.6884768"><ele>810.0</ele><time>2026-04-11T15:15:52.955Z</time></trkpt><trkpt lat="45.4468108" lon="7.6883468"><ele>806.6</ele><time>2026-04-11T15:15:53.956Z</time></trkpt><trkpt lat="45.4467923" lon="7.6881822"><ele>803.2</ele><time>2026-04-11T15:15:54.955Z</time></trkpt><trkpt lat="45.4467673" lon="7.688014"><ele>799.8</ele><time>2026-04-11T15:15:55.957Z</time></trkpt><trkpt lat="45.4467286" lon="7.6878869"><ele>796.4</ele><time>2026-04-11T15:15:56.954Z</time></trkpt><trkpt lat="45.4466714" lon="7.6877716"><ele>793.0</ele><time>2026-04-11T15:15:57.953Z</time></trkpt><trkpt lat="45.4466087" lon="7.6876684"><ele>792.9999999999999</ele><time>2026-04-11T15:15:58.955Z</time></trkpt><trkpt lat="45.4465505" lon="7.6875712"><ele>793.0</ele><time>2026-04-11T15:15:59.956Z</time></trkpt><trkpt lat="45.4464894" lon="7.6874739"><ele>793.0</ele><time>2026-04-11T15:16:00.946Z</time></trkpt><trkpt lat="45.4464342" lon="7.6873944"><ele>793.0</ele><time>2026-04-11T15:16:01.957Z</time></trkpt><trkpt lat="45.4463888" lon="7.6873187"><ele>792.9999999999999</ele><time>2026-04-11T15:16:02.958Z</time></trkpt><trkpt lat="45.44635" lon="7.6872468"><ele>793.0</ele><time>2026-04-11T15:16:04.954Z</time></trkpt><trkpt lat="45.4463027" lon="7.6871681"><ele>792.5</ele><time>2026-04-11T15:16:13.948Z</time></trkpt><trkpt lat="45.4461908" lon="7.6870395"><ele>792.0</ele><time>2026-04-11T15:16:15.948Z</time></trkpt><trkpt lat="45.4461125" lon="7.686967"><ele>791.5</ele><time>2026-04-11T15:16:16.952Z</time></trkpt><trkpt lat="45.4460154" lon="7.6868514"><ele>791.0</ele><time>2026-04-11T15:16:17.95Z</time></trkpt><trkpt lat="45.4459365" lon="7.686761"><ele>791.0</ele><time>2026-04-11T15:16:18.952Z</time></trkpt><trkpt lat="45.4458905" lon="7.686679"><ele>791.0</ele><time>2026-04-11T15:16:19.96Z</time></trkpt><trkpt lat="45.4458507" lon="7.6865313"><ele>791.0</ele><time>2026-04-11T15:16:21.953Z</time></trkpt><trkpt lat="45.445893" lon="7.6864063"><ele>791.0</ele><time>2026-04-11T15:16:23.953Z</time></trkpt><trkpt lat="45.4459606" lon="7.6863551"><ele>791.0</ele><time>2026-04-11T15:16:25.018Z</time></trkpt><trkpt lat="45.4460561" lon="7.686331"><ele>791.0</ele><time>2026-04-11T15:16:26.026Z</time></trkpt><trkpt lat="45.446212" lon="7.6863738"><ele>791.0</ele><time>2026-04-11T15:16:27.032Z</time></trkpt><trkpt lat="45.4463804" lon="7.6864139"><ele>791.0</ele><time>2026-04-11T15:16:27.953Z</time></trkpt><trkpt lat="45.4465261" lon="7.686457"><ele>795.25</ele><time>2026-04-11T15:16:28.944Z</time></trkpt><trkpt lat="45.4466637" lon="7.6864949"><ele>799.5</ele><time>2026-04-11T15:16:29.952Z</time></trkpt><trkpt lat="45.4468021" lon="7.6865267"><ele>803.75</ele><time>2026-04-11T15:16:30.949Z</time></trkpt><trkpt lat="45.4469337" lon="7.686564"><ele>808.0</ele><time>2026-04-11T15:16:31.952Z</time></trkpt><trkpt lat="45.4470486" lon="7.6866303"><ele>810.5999999999999</ele><time>2026-04-11T15:16:32.992Z</time></trkpt><trkpt lat="45.4471567" lon="7.6866997"><ele>813.1999999999999</ele><time>2026-04-11T15:16:34.01Z</time></trkpt><trkpt lat="45.4472587" lon="7.6867446"><ele>815.8</ele><time>2026-04-11T15:16:35.023Z</time></trkpt><trkpt lat="45.4473576" lon="7.6867891"><ele>818.4</ele><time>2026-04-11T15:16:36.016Z</time></trkpt><trkpt lat="45.4474602" lon="7.6868064"><ele>821.0</ele><time>2026-04-11T15:16:37.014Z</time></trkpt><trkpt lat="45.4475638" lon="7.6868096"><ele>821.0</ele><time>2026-04-11T15:16:37.958Z</time></trkpt><trkpt lat="45.4476621" lon="7.6867897"><ele>821.0</ele><time>2026-04-11T15:16:38.952Z</time></trkpt><trkpt lat="45.4477586" lon="7.6867303"><ele>821.0</ele><time>2026-04-11T15:16:39.963Z</time></trkpt><trkpt lat="45.4478433" lon="7.6866578"><ele>821.0</ele><time>2026-04-11T15:16:41.01Z</time></trkpt><trkpt lat="45.4479274" lon="7.6865567"><ele>821.0</ele><time>2026-04-11T15:16:42.014Z</time></trkpt><trkpt lat="45.4480131" lon="7.6864356"><ele>822.0000000000001</ele><time>2026-04-11T15:16:42.947Z</time></trkpt><trkpt lat="45.4480957" lon="7.686334"><ele>823.0</ele><time>2026-04-11T15:16:43.946Z</time></trkpt><trkpt lat="45.4481723" lon="7.6862521"><ele>824.0</ele><time>2026-04-11T15:16:44.965Z</time></trkpt><trkpt lat="45.4482453" lon="7.6862124"><ele>825.0</ele><time>2026-04-11T15:16:46.03Z</time></trkpt><trkpt lat="45.4483147" lon="7.6862148"><ele>826.0000000000001</ele><time>2026-04-11T15:16:47.029Z</time></trkpt><trkpt lat="45.4483815" lon="7.686276"><ele>827.0</ele><time>2026-04-11T15:16:47.959Z</time></trkpt><trkpt lat="45.448462" lon="7.6863879"><ele>827.0</ele><time>2026-04-11T15:16:48.967Z</time></trkpt><trkpt lat="45.4485509" lon="7.6864989"><ele>827.0</ele><time>2026-04-11T15:16:49.978Z</time></trkpt><trkpt lat="45.4486389" lon="7.6865935"><ele>827.0</ele><time>2026-04-11T15:16:51.032Z</time></trkpt><trkpt lat="45.4487238" lon="7.6866674"><ele>827.0</ele><time>2026-04-11T15:16:52.027Z</time></trkpt><trkpt lat="45.4488026" lon="7.6867183"><ele>827.0</ele><time>2026-04-11T15:16:52.961Z</time></trkpt><trkpt lat="45.4488673" lon="7.6867538"><ele>829.5</ele><time>2026-04-11T15:16:53.969Z</time></trkpt><trkpt lat="45.4489981" lon="7.6867209"><ele>832.0</ele><time>2026-04-11T15:16:56.031Z</time></trkpt><trkpt lat="45.4490855" lon="7.6866515"><ele>834.5</ele><time>2026-04-11T15:16:57.032Z</time></trkpt><trkpt lat="45.4492111" lon="7.6865676"><ele>837.0</ele><time>2026-04-11T15:16:57.957Z</time></trkpt><trkpt lat="45.449351" lon="7.6864902"><ele>837.0</ele><time>2026-04-11T15:16:58.946Z</time></trkpt><trkpt lat="45.4494814" lon="7.6864176"><ele>837.0</ele><time>2026-04-11T15:16:59.982Z</time></trkpt><trkpt lat="45.4495964" lon="7.6863455"><ele>837.0</ele><time>2026-04-11T15:17:00.957Z</time></trkpt><trkpt lat="45.4496935" lon="7.6862658"><ele>837.0</ele><time>2026-04-11T15:17:01.957Z</time></trkpt><trkpt lat="45.449771" lon="7.686192"><ele>839.0</ele><time>2026-04-11T15:17:02.955Z</time></trkpt><trkpt lat="45.4498285" lon="7.6861269"><ele>841.0</ele><time>2026-04-11T15:17:03.956Z</time></trkpt><trkpt lat="45.4498633" lon="7.6859779"><ele>843.0</ele><time>2026-04-11T15:17:05.959Z</time></trkpt><trkpt lat="45.4497961" lon="7.6858447"><ele>845.0</ele><time>2026-04-11T15:17:07.955Z</time></trkpt><trkpt lat="45.4497157" lon="7.6857931"><ele>847.0</ele><time>2026-04-11T15:17:08.954Z</time></trkpt><trkpt lat="45.4496142" lon="7.6857566"><ele>847.6</ele><time>2026-04-11T15:17:09.972Z</time></trkpt><trkpt lat="45.4494953" lon="7.6857232"><ele>848.2</ele><time>2026-04-11T15:17:10.948Z</time></trkpt><trkpt lat="45.4493846" lon="7.6856845"><ele>848.8</ele><time>2026-04-11T15:17:11.955Z</time></trkpt><trkpt lat="45.44929" lon="7.6856503"><ele>849.4</ele><time>2026-04-11T15:17:12.955Z</time></trkpt><trkpt lat="45.4492208" lon="7.6856059"><ele>850.0</ele><time>2026-04-11T15:17:13.949Z</time></trkpt><trkpt lat="45.449181" lon="7.6855321"><ele>850.0</ele><time>2026-04-11T15:17:15.022Z</time></trkpt><trkpt lat="45.4491596" lon="7.6854364"><ele>850.0</ele><time>2026-04-11T15:17:16.029Z</time></trkpt><trkpt lat="45.4491524" lon="7.685308"><ele>850.0</ele><time>2026-04-11T15:17:17.026Z</time></trkpt><trkpt lat="45.4491534" lon="7.6851471"><ele>850.0</ele><time>2026-04-11T15:17:17.952Z</time></trkpt><trkpt lat="45.4491594" lon="7.6850058"><ele>850.0</ele><time>2026-04-11T15:17:18.955Z</time></trkpt><trkpt lat="45.449171" lon="7.6848932"><ele>851.5</ele><time>2026-04-11T15:17:19.96Z</time></trkpt><trkpt lat="45.4492423" lon="7.6847511"><ele>853.0</ele><time>2026-04-11T15:17:21.958Z</time></trkpt><trkpt lat="45.4494028" lon="7.6846929"><ele>854.5</ele><time>2026-04-11T15:17:23.96Z</time></trkpt><trkpt lat="45.4495489" lon="7.6847074"><ele>856.0</ele><time>2026-04-11T15:17:24.968Z</time></trkpt><trkpt lat="45.4496872" lon="7.6847304"><ele>858.3333333333333</ele><time>2026-04-11T15:17:25.984Z</time></trkpt><trkpt lat="45.4497991" lon="7.6847399"><ele>860.6666666666666</ele><time>2026-04-11T15:17:26.944Z</time></trkpt><trkpt lat="45.4498937" lon="7.684739"><ele>863.0</ele><time>2026-04-11T15:17:27.955Z</time></trkpt><trkpt lat="45.4499733" lon="7.6847344"><ele>865.3333333333333</ele><time>2026-04-11T15:17:28.963Z</time></trkpt><trkpt lat="45.4500444" lon="7.6847432"><ele>867.6666666666666</ele><time>2026-04-11T15:17:29.955Z</time></trkpt><trkpt lat="45.4501127" lon="7.6847741"><ele>870.0</ele><time>2026-04-11T15:17:30.949Z</time></trkpt><trkpt lat="45.4501826" lon="7.6848367"><ele>870.0</ele><time>2026-04-11T15:17:32.074Z</time></trkpt><trkpt lat="45.4503313" lon="7.6849809"><ele>870.0</ele><time>2026-04-11T15:17:33.959Z</time></trkpt><trkpt lat="45.4504092" lon="7.6850387"><ele>870.0</ele><time>2026-04-11T15:17:34.968Z</time></trkpt><trkpt lat="45.450481" lon="7.6850809"><ele>870.0</ele><time>2026-04-11T15:17:36.034Z</time></trkpt><trkpt lat="45.4505686" lon="7.6850833"><ele>870.0</ele><time>2026-04-11T15:17:36.95Z</time></trkpt><trkpt lat="45.4506588" lon="7.6850654"><ele>873.0</ele><time>2026-04-11T15:17:37.949Z</time></trkpt><trkpt lat="45.450766" lon="7.6850411"><ele>876.0</ele><time>2026-04-11T15:17:38.952Z</time></trkpt><trkpt lat="45.4508847" lon="7.6850213"><ele>879.0</ele><time>2026-04-11T15:17:40.051Z</time></trkpt><trkpt lat="45.4510143" lon="7.6849982"><ele>882.0</ele><time>2026-04-11T15:17:41.014Z</time></trkpt><trkpt lat="45.4511464" lon="7.6849739"><ele>882.0</ele><time>2026-04-11T15:17:42.022Z</time></trkpt><trkpt lat="45.451284" lon="7.6849559"><ele>882.0</ele><time>2026-04-11T15:17:42.941Z</time></trkpt><trkpt lat="45.4514201" lon="7.6849421"><ele>882.0</ele><time>2026-04-11T15:17:43.954Z</time></trkpt><trkpt lat="45.4515401" lon="7.6849327"><ele>882.0</ele><time>2026-04-11T15:17:44.99Z</time></trkpt><trkpt lat="45.4516411" lon="7.6849172"><ele>883.6</ele><time>2026-04-11T15:17:45.949Z</time></trkpt><trkpt lat="45.4517399" lon="7.6848988"><ele>885.2</ele><time>2026-04-11T15:17:47.041Z</time></trkpt><trkpt lat="45.4518327" lon="7.6848711"><ele>886.8</ele><time>2026-04-11T15:17:47.946Z</time></trkpt><trkpt lat="45.4518945" lon="7.6848199"><ele>888.4</ele><time>2026-04-11T15:17:49.017Z</time></trkpt><trkpt lat="45.4519475" lon="7.6846974"><ele>890.0</ele><time>2026-04-11T15:17:50.946Z</time></trkpt><trkpt lat="45.4519079" lon="7.6845659"><ele>890.0</ele><time>2026-04-11T15:17:52.943Z</time></trkpt><trkpt lat="45.4518399" lon="7.6845055"><ele>890.0</ele><time>2026-04-11T15:17:53.951Z</time></trkpt><trkpt lat="45.4517529" lon="7.6844401"><ele>890.0</ele><time>2026-04-11T15:17:54.946Z</time></trkpt><trkpt lat="45.4516528" lon="7.6843759"><ele>890.0</ele><time>2026-04-11T15:17:56.018Z</time></trkpt><trkpt lat="45.4515547" lon="7.6843098"><ele>890.0</ele><time>2026-04-11T15:17:57.01Z</time></trkpt><trkpt lat="45.4514704" lon="7.6842399"><ele>891.0000000000001</ele><time>2026-04-11T15:17:57.952Z</time></trkpt><trkpt lat="45.4513889" lon="7.6841858"><ele>892.0</ele><time>2026-04-11T15:17:58.946Z</time></trkpt><trkpt lat="45.4513019" lon="7.6841334"><ele>893.0</ele><time>2026-04-11T15:17:59.956Z</time></trkpt><trkpt lat="45.4512223" lon="7.6840791"><ele>894.0</ele><time>2026-04-11T15:18:00.946Z</time></trkpt><trkpt lat="45.4511587" lon="7.6840131"><ele>895.0000000000001</ele><time>2026-04-11T15:18:01.95Z</time></trkpt><trkpt lat="45.4511051" lon="7.6839387"><ele>896.0</ele><time>2026-04-11T15:18:02.955Z</time></trkpt><trkpt lat="45.4510748" lon="7.683855"><ele>896.0</ele><time>2026-04-11T15:18:03.978Z</time></trkpt><trkpt lat="45.4510699" lon="7.6837086"><ele>895.9999999999999</ele><time>2026-04-11T15:18:05.952Z</time></trkpt><trkpt lat="45.4511227" lon="7.6836028"><ele>895.9999999999999</ele><time>2026-04-11T15:18:07.937Z</time></trkpt><trkpt lat="45.4511874" lon="7.6835669"><ele>896.0</ele><time>2026-04-11T15:18:08.95Z</time></trkpt><trkpt lat="45.451305" lon="7.6835185"><ele>896.0</ele><time>2026-04-11T15:18:09.978Z</time></trkpt><trkpt lat="45.4514403" lon="7.6834546"><ele>901.75</ele><time>2026-04-11T15:18:11.018Z</time></trkpt><trkpt lat="45.4515733" lon="7.6833969"><ele>907.5</ele><time>2026-04-11T15:18:12.012Z</time></trkpt><trkpt lat="45.4516958" lon="7.6833386"><ele>913.25</ele><time>2026-04-11T15:18:12.954Z</time></trkpt><trkpt lat="45.4518086" lon="7.683271"><ele>919.0</ele><time>2026-04-11T15:18:13.955Z</time></trkpt><trkpt lat="45.4519177" lon="7.6831923"><ele>918.9999999999999</ele><time>2026-04-11T15:18:14.946Z</time></trkpt><trkpt lat="45.4520106" lon="7.6831235"><ele>919.0</ele><time>2026-04-11T15:18:15.945Z</time></trkpt><trkpt lat="45.4520888" lon="7.6830596"><ele>919.0</ele><time>2026-04-11T15:18:16.947Z</time></trkpt><trkpt lat="45.4521566" lon="7.6829814"><ele>919.0</ele><time>2026-04-11T15:18:17.949Z</time></trkpt><trkpt lat="45.452203" lon="7.6828956"><ele>918.9999999999999</ele><time>2026-04-11T15:18:18.945Z</time></trkpt><trkpt lat="45.4522268" lon="7.6827996"><ele>919.0</ele><time>2026-04-11T15:18:19.969Z</time></trkpt><trkpt lat="45.4522494" lon="7.6826349"><ele>919.6666666666666</ele><time>2026-04-11T15:18:21.947Z</time></trkpt><trkpt lat="45.452322" lon="7.6825062"><ele>920.3333333333333</ele><time>2026-04-11T15:18:24.02Z</time></trkpt><trkpt lat="45.4523012" lon="7.6825965"><ele>921.0</ele><time>2026-04-11T15:18:41.945Z</time></trkpt><trkpt lat="45.452282" lon="7.6826895"><ele>921.6666666666667</ele><time>2026-04-11T15:18:42.952Z</time></trkpt><trkpt lat="45.4522652" lon="7.6827898"><ele>922.3333333333334</ele><time>2026-04-11T15:18:43.949Z</time></trkpt><trkpt lat="45.4522463" lon="7.6828932"><ele>923.0</ele><time>2026-04-11T15:18:44.945Z</time></trkpt><trkpt lat="45.4522069" lon="7.6829919"><ele>923.0</ele><time>2026-04-11T15:18:46.012Z</time></trkpt><trkpt lat="45.4521372" lon="7.6830762"><ele>923.0</ele><time>2026-04-11T15:18:47.013Z</time></trkpt><trkpt lat="45.452053" lon="7.6831368"><ele>923.0</ele><time>2026-04-11T15:18:47.954Z</time></trkpt><trkpt lat="45.451968" lon="7.6831974"><ele>923.0</ele><time>2026-04-11T15:18:48.937Z</time></trkpt><trkpt lat="45.4518826" lon="7.6832537"><ele>923.0</ele><time>2026-04-11T15:18:49.963Z</time></trkpt><trkpt lat="45.4517953" lon="7.683319"><ele>922.2</ele><time>2026-04-11T15:18:50.941Z</time></trkpt><trkpt lat="45.451699" lon="7.683378"><ele>921.4</ele><time>2026-04-11T15:18:52.041Z</time></trkpt><trkpt lat="45.4516018" lon="7.6834258"><ele>920.6000000000001</ele><time>2026-04-11T15:18:52.96Z</time></trkpt><trkpt lat="45.4515019" lon="7.6834712"><ele>919.8000000000001</ele><time>2026-04-11T15:18:53.96Z</time></trkpt><trkpt lat="45.4514026" lon="7.6835195"><ele>919.0</ele><time>2026-04-11T15:18:54.98Z</time></trkpt><trkpt lat="45.4513153" lon="7.6835642"><ele>915.1666666666666</ele><time>2026-04-11T15:18:55.966Z</time></trkpt><trkpt lat="45.4512414" lon="7.6836019"><ele>911.3333333333333</ele><time>2026-04-11T15:18:56.973Z</time></trkpt><trkpt lat="45.451181" lon="7.6836387"><ele>907.5</ele><time>2026-04-11T15:18:57.965Z</time></trkpt><trkpt lat="45.4510867" lon="7.683697"><ele>903.6666666666667</ele><time>2026-04-11T15:19:00.034Z</time></trkpt><trkpt lat="45.4510882" lon="7.6838222"><ele>899.8333333333334</ele><time>2026-04-11T15:19:02.033Z</time></trkpt><trkpt lat="45.4511604" lon="7.6839424"><ele>896.0</ele><time>2026-04-11T15:19:03.968Z</time></trkpt><trkpt lat="45.4512311" lon="7.6840121"><ele>898.0</ele><time>2026-04-11T15:19:04.981Z</time></trkpt><trkpt lat="45.4513113" lon="7.6840982"><ele>899.9999999999999</ele><time>2026-04-11T15:19:06.032Z</time></trkpt><trkpt lat="45.4514025" lon="7.6841705"><ele>901.9999999999999</ele><time>2026-04-11T15:19:07.037Z</time></trkpt><trkpt lat="45.4514859" lon="7.6842329"><ele>904.0</ele><time>2026-04-11T15:19:07.964Z</time></trkpt><trkpt lat="45.4515704" lon="7.6842991"><ele>906.0</ele><time>2026-04-11T15:19:08.967Z</time></trkpt><trkpt lat="45.4516679" lon="7.684358"><ele>906.0</ele><time>2026-04-11T15:19:09.965Z</time></trkpt><trkpt lat="45.4517611" lon="7.6844228"><ele>905.9999999999999</ele><time>2026-04-11T15:19:11.034Z</time></trkpt><trkpt lat="45.4518488" lon="7.6844764"><ele>905.9999999999999</ele><time>2026-04-11T15:19:12.039Z</time></trkpt><trkpt lat="45.4519021" lon="7.6845402"><ele>906.0</ele><time>2026-04-11T15:19:12.967Z</time></trkpt><trkpt lat="45.4519371" lon="7.684689"><ele>906.0</ele><time>2026-04-11T15:19:14.968Z</time></trkpt><trkpt lat="45.4518789" lon="7.6848438"><ele>902.8</ele><time>2026-04-11T15:19:16.967Z</time></trkpt><trkpt lat="45.4518108" lon="7.6848898"><ele>899.5999999999999</ele><time>2026-04-11T15:19:17.967Z</time></trkpt><trkpt lat="45.4517171" lon="7.6849247"><ele>896.4</ele><time>2026-04-11T15:19:18.962Z</time></trkpt><trkpt lat="45.4516131" lon="7.6849508"><ele>893.2</ele><time>2026-04-11T15:19:20.031Z</time></trkpt><trkpt lat="45.4515001" lon="7.6849708"><ele>890.0</ele><time>2026-04-11T15:19:21.033Z</time></trkpt><trkpt lat="45.4513847" lon="7.6849852"><ele>888.0</ele><time>2026-04-11T15:19:21.965Z</time></trkpt><trkpt lat="45.4512633" lon="7.6850062"><ele>886.0</ele><time>2026-04-11T15:19:22.967Z</time></trkpt><trkpt lat="45.4511455" lon="7.685027"><ele>884.0</ele><time>2026-04-11T15:19:23.964Z</time></trkpt><trkpt lat="45.4510248" lon="7.6850458"><ele>882.0</ele><time>2026-04-11T15:19:24.969Z</time></trkpt><trkpt lat="45.4509016" lon="7.6850641"><ele>882.0</ele><time>2026-04-11T15:19:25.964Z</time></trkpt><trkpt lat="45.4507826" lon="7.6850932"><ele>882.0</ele><time>2026-04-11T15:19:27.034Z</time></trkpt><trkpt lat="45.4506649" lon="7.6851171"><ele>882.0</ele><time>2026-04-11T15:19:27.969Z</time></trkpt><trkpt lat="45.4505726" lon="7.6851154"><ele>882.0</ele><time>2026-04-11T15:19:28.962Z</time></trkpt><trkpt lat="45.4504863" lon="7.685104"><ele>882.0</ele><time>2026-04-11T15:19:29.991Z</time></trkpt><trkpt lat="45.450396" lon="7.6850661"><ele>880.0</ele><time>2026-04-11T15:19:31.025Z</time></trkpt><trkpt lat="45.4503104" lon="7.6850029"><ele>878.0</ele><time>2026-04-11T15:19:32.027Z</time></trkpt><trkpt lat="45.4502325" lon="7.6849203"><ele>876.0</ele><time>2026-04-11T15:19:32.967Z</time></trkpt><trkpt lat="45.4501582" lon="7.6848502"><ele>874.0</ele><time>2026-04-11T15:19:33.972Z</time></trkpt><trkpt lat="45.4500855" lon="7.6847917"><ele>872.0</ele><time>2026-04-11T15:19:34.981Z</time></trkpt><trkpt lat="45.4500137" lon="7.6847591"><ele>870.0</ele><time>2026-04-11T15:19:36.034Z</time></trkpt><trkpt lat="45.4499248" lon="7.6847472"><ele>870.0</ele><time>2026-04-11T15:19:36.968Z</time></trkpt><trkpt lat="45.4498216" lon="7.6847567"><ele>870.0</ele><time>2026-04-11T15:19:37.969Z</time></trkpt><trkpt lat="45.4497102" lon="7.684763"><ele>870.0</ele><time>2026-04-11T15:19:38.966Z</time></trkpt><trkpt lat="45.4496006" lon="7.6847811"><ele>870.0</ele><time>2026-04-11T15:19:39.966Z</time></trkpt><trkpt lat="45.4494891" lon="7.6847882"><ele>870.0</ele><time>2026-04-11T15:19:40.964Z</time></trkpt><trkpt lat="45.4493845" lon="7.6847903"><ele>867.2</ele><time>2026-04-11T15:19:41.968Z</time></trkpt><trkpt lat="45.4492964" lon="7.6847991"><ele>864.4</ele><time>2026-04-11T15:19:42.961Z</time></trkpt><trkpt lat="45.4492287" lon="7.6848195"><ele>861.5999999999999</ele><time>2026-04-11T15:19:43.962Z</time></trkpt><trkpt lat="45.4491373" lon="7.684879"><ele>858.8</ele><time>2026-04-11T15:19:46.025Z</time></trkpt><trkpt lat="45.449121" lon="7.685053"><ele>856.0</ele><time>2026-04-11T15:19:47.971Z</time></trkpt><trkpt lat="45.4491229" lon="7.6851857"><ele>854.9999999999999</ele><time>2026-04-11T15:19:48.964Z</time></trkpt><trkpt lat="45.4491214" lon="7.6853161"><ele>854.0</ele><time>2026-04-11T15:19:50.025Z</time></trkpt><trkpt lat="45.4491337" lon="7.6854232"><ele>853.0</ele><time>2026-04-11T15:19:51.036Z</time></trkpt><trkpt lat="45.4491971" lon="7.6855498"><ele>852.0</ele><time>2026-04-11T15:19:52.971Z</time></trkpt><trkpt lat="45.4492519" lon="7.6855984"><ele>850.9999999999999</ele><time>2026-04-11T15:19:53.976Z</time></trkpt><trkpt lat="45.449336" lon="7.6856546"><ele>850.0</ele><time>2026-04-11T15:19:54.978Z</time></trkpt><trkpt lat="45.4494288" lon="7.6856873"><ele>849.9999999999999</ele><time>2026-04-11T15:19:55.973Z</time></trkpt><trkpt lat="45.4495363" lon="7.6857318"><ele>850.0</ele><time>2026-04-11T15:19:56.965Z</time></trkpt><trkpt lat="45.4496405" lon="7.6857791"><ele>850.0</ele><time>2026-04-11T15:19:57.968Z</time></trkpt><trkpt lat="45.4497264" lon="7.6858128"><ele>850.0</ele><time>2026-04-11T15:19:58.978Z</time></trkpt><trkpt lat="45.4497943" lon="7.685855"><ele>849.9999999999999</ele><time>2026-04-11T15:19:59.983Z</time></trkpt><trkpt lat="45.4498486" lon="7.6859026"><ele>850.0</ele><time>2026-04-11T15:20:00.968Z</time></trkpt><trkpt lat="45.449862" lon="7.6860304"><ele>849.25</ele><time>2026-04-11T15:20:02.966Z</time></trkpt><trkpt lat="45.4498261" lon="7.6861108"><ele>848.5</ele><time>2026-04-11T15:20:03.97Z</time></trkpt><trkpt lat="45.4496453" lon="7.6862989"><ele>847.75</ele><time>2026-04-11T15:20:05.966Z</time></trkpt><trkpt lat="45.4495295" lon="7.6863802"><ele>847.0</ele><time>2026-04-11T15:20:07.035Z</time></trkpt><trkpt lat="45.4494089" lon="7.6864517"><ele>845.0</ele><time>2026-04-11T15:20:07.967Z</time></trkpt><trkpt lat="45.4492991" lon="7.686526"><ele>843.0</ele><time>2026-04-11T15:20:08.972Z</time></trkpt><trkpt lat="45.4491881" lon="7.6865919"><ele>841.0</ele><time>2026-04-11T15:20:09.962Z</time></trkpt><trkpt lat="45.4490831" lon="7.6866503"><ele>839.0</ele><time>2026-04-11T15:20:10.959Z</time></trkpt><trkpt lat="45.4489973" lon="7.6866994"><ele>837.0</ele><time>2026-04-11T15:20:11.966Z</time></trkpt><trkpt lat="45.4489206" lon="7.6867377"><ele>837.0</ele><time>2026-04-11T15:20:12.968Z</time></trkpt><trkpt lat="45.4488494" lon="7.6867355"><ele>837.0</ele><time>2026-04-11T15:20:13.971Z</time></trkpt><trkpt lat="45.4487754" lon="7.6867142"><ele>837.0</ele><time>2026-04-11T15:20:14.995Z</time></trkpt><trkpt lat="45.4486851" lon="7.6866882"><ele>837.0</ele><time>2026-04-11T15:20:15.991Z</time></trkpt><trkpt lat="45.4485923" lon="7.6866107"><ele>837.0</ele><time>2026-04-11T15:20:16.962Z</time></trkpt><trkpt lat="45.4485086" lon="7.6865205"><ele>835.0</ele><time>2026-04-11T15:20:17.963Z</time></trkpt><trkpt lat="45.44843" lon="7.6864198"><ele>833.0</ele><time>2026-04-11T15:20:18.97Z</time></trkpt><trkpt lat="45.4483597" lon="7.6863279"><ele>831.0</ele><time>2026-04-11T15:20:19.974Z</time></trkpt><trkpt lat="45.4482941" lon="7.6862616"><ele>829.0</ele><time>2026-04-11T15:20:20.969Z</time></trkpt><trkpt lat="45.4482377" lon="7.6862174"><ele>827.0</ele><time>2026-04-11T15:20:22.048Z</time></trkpt><trkpt lat="45.4481348" lon="7.6862846"><ele>827.0</ele><time>2026-04-11T15:20:23.962Z</time></trkpt><trkpt lat="45.4480693" lon="7.6863724"><ele>827.0</ele><time>2026-04-11T15:20:25.005Z</time></trkpt><trkpt lat="45.4479983" lon="7.6864718"><ele>827.0</ele><time>2026-04-11T15:20:26.031Z</time></trkpt><trkpt lat="45.4479189" lon="7.6865704"><ele>827.0</ele><time>2026-04-11T15:20:27.031Z</time></trkpt><trkpt lat="45.447837" lon="7.6866628"><ele>827.0</ele><time>2026-04-11T15:20:27.969Z</time></trkpt><trkpt lat="45.4477544" lon="7.6867393"><ele>825.8</ele><time>2026-04-11T15:20:28.969Z</time></trkpt><trkpt lat="45.4476674" lon="7.6867886"><ele>824.6</ele><time>2026-04-11T15:20:29.998Z</time></trkpt><trkpt lat="45.4475671" lon="7.6868231"><ele>823.4</ele><time>2026-04-11T15:20:31.024Z</time></trkpt><trkpt lat="45.4474626" lon="7.6868537"><ele>822.1999999999999</ele><time>2026-04-11T15:20:32.042Z</time></trkpt><trkpt lat="45.4473613" lon="7.6868556"><ele>821.0</ele><time>2026-04-11T15:20:32.968Z</time></trkpt><trkpt lat="45.4472511" lon="7.6868271"><ele>821.0</ele><time>2026-04-11T15:20:33.964Z</time></trkpt><trkpt lat="45.4471382" lon="7.6867758"><ele>821.0</ele><time>2026-04-11T15:20:34.998Z</time></trkpt><trkpt lat="45.4470257" lon="7.6867189"><ele>821.0</ele><time>2026-04-11T15:20:36.035Z</time></trkpt><trkpt lat="45.4469138" lon="7.6866719"><ele>821.0</ele><time>2026-04-11T15:20:37.034Z</time></trkpt><trkpt lat="45.4468063" lon="7.6866343"><ele>818.4</ele><time>2026-04-11T15:20:37.966Z</time></trkpt><trkpt lat="45.4467" lon="7.6866046"><ele>815.8</ele><time>2026-04-11T15:20:38.965Z</time></trkpt><trkpt lat="45.4465944" lon="7.6865759"><ele>813.1999999999999</ele><time>2026-04-11T15:20:39.963Z</time></trkpt><trkpt lat="45.4464858" lon="7.6865588"><ele>810.5999999999999</ele><time>2026-04-11T15:20:40.965Z</time></trkpt><trkpt lat="45.4463869" lon="7.6865407"><ele>808.0</ele><time>2026-04-11T15:20:42.038Z</time></trkpt><trkpt lat="45.4462905" lon="7.6865205"><ele>804.5999999999999</ele><time>2026-04-11T15:20:42.968Z</time></trkpt><trkpt lat="45.4461929" lon="7.6864956"><ele>801.1999999999999</ele><time>2026-04-11T15:20:43.965Z</time></trkpt><trkpt lat="45.4460891" lon="7.6864708"><ele>797.8</ele><time>2026-04-11T15:20:44.973Z</time></trkpt><trkpt lat="45.4459906" lon="7.6864557"><ele>794.4</ele><time>2026-04-11T15:20:45.965Z</time></trkpt><trkpt lat="45.4459056" lon="7.6864618"><ele>791.0</ele><time>2026-04-11T15:20:46.952Z</time></trkpt><trkpt lat="45.445839" lon="7.6864855"><ele>791.0</ele><time>2026-04-11T15:20:47.959Z</time></trkpt><trkpt lat="45.4457708" lon="7.6865661"><ele>791.0</ele><time>2026-04-11T15:20:49.953Z</time></trkpt><trkpt lat="45.4458633" lon="7.6866328"><ele>791.0</ele><time>2026-04-11T15:20:52.97Z</time></trkpt><trkpt lat="45.4459434" lon="7.6866847"><ele>791.0</ele><time>2026-04-11T15:20:53.958Z</time></trkpt><trkpt lat="45.4460354" lon="7.6867598"><ele>791.0</ele><time>2026-04-11T15:20:54.952Z</time></trkpt><trkpt lat="45.4461292" lon="7.6868571"><ele>791.4</ele><time>2026-04-11T15:20:55.955Z</time></trkpt><trkpt lat="45.4462152" lon="7.686956"><ele>791.8</ele><time>2026-04-11T15:20:56.954Z</time></trkpt><trkpt lat="45.446293" lon="7.6870514"><ele>792.1999999999999</ele><time>2026-04-11T15:20:57.957Z</time></trkpt><trkpt lat="45.4463624" lon="7.6871358"><ele>792.5999999999999</ele><time>2026-04-11T15:20:58.965Z</time></trkpt><trkpt lat="45.4464212" lon="7.687197"><ele>793.0</ele><time>2026-04-11T15:20:59.969Z</time></trkpt><trkpt lat="45.4464809" lon="7.6873039"><ele>793.0</ele><time>2026-04-11T15:21:01.966Z</time></trkpt><trkpt lat="45.4464082" lon="7.6873595"><ele>793.0</ele><time>2026-04-11T15:21:05.981Z</time></trkpt><trkpt lat="45.4463267" lon="7.6873071"><ele>793.0</ele><time>2026-04-11T15:21:06.965Z</time></trkpt><trkpt lat="45.4462089" lon="7.6872215"><ele>793.0</ele><time>2026-04-11T15:21:07.957Z</time></trkpt><trkpt lat="45.4460795" lon="7.6871358"><ele>793.0</ele><time>2026-04-11T15:21:08.967Z</time></trkpt><trkpt lat="45.4459407" lon="7.6870514"><ele>792.5</ele><time>2026-04-11T15:21:09.976Z</time></trkpt><trkpt lat="45.4458012" lon="7.6869694"><ele>792.0</ele><time>2026-04-11T15:21:10.96Z</time></trkpt><trkpt lat="45.4456712" lon="7.6869016"><ele>791.5</ele><time>2026-04-11T15:21:11.968Z</time></trkpt><trkpt lat="45.4455526" lon="7.686832"><ele>791.0</ele><time>2026-04-11T15:21:12.962Z</time></trkpt><trkpt lat="45.4454513" lon="7.6867845"><ele>786.1999999999999</ele><time>2026-04-11T15:21:13.966Z</time></trkpt><trkpt lat="45.4453702" lon="7.6867379"><ele>781.4</ele><time>2026-04-11T15:21:14.961Z</time></trkpt><trkpt lat="45.4452885" lon="7.6866401"><ele>776.6</ele><time>2026-04-11T15:21:16.966Z</time></trkpt><trkpt lat="45.4452938" lon="7.6865449"><ele>771.8</ele><time>2026-04-11T15:21:17.964Z</time></trkpt><trkpt lat="45.4453339" lon="7.6864141"><ele>767.0</ele><time>2026-04-11T15:21:18.961Z</time></trkpt><trkpt lat="45.4453774" lon="7.6862691"><ele>767.0</ele><time>2026-04-11T15:21:19.967Z</time></trkpt><trkpt lat="45.4454138" lon="7.6861202"><ele>767.0</ele><time>2026-04-11T15:21:21.035Z</time></trkpt><trkpt lat="45.4454421" lon="7.6859825"><ele>767.0</ele><time>2026-04-11T15:21:22.039Z</time></trkpt><trkpt lat="45.4454686" lon="7.6858526"><ele>767.0</ele><time>2026-04-11T15:21:22.967Z</time></trkpt><trkpt lat="45.4454816" lon="7.6857388"><ele>767.0</ele><time>2026-04-11T15:21:23.971Z</time></trkpt><trkpt lat="45.445477" lon="7.685643"><ele>768.5</ele><time>2026-04-11T15:21:24.97Z</time></trkpt><trkpt lat="45.4454536" lon="7.685546"><ele>770.0</ele><time>2026-04-11T15:21:26.961Z</time></trkpt><trkpt lat="45.4453799" lon="7.6854922"><ele>771.5</ele><time>2026-04-11T15:21:28.968Z</time></trkpt><trkpt lat="45.4453063" lon="7.6854681"><ele>773.0</ele><time>2026-04-11T15:21:29.969Z</time></trkpt><trkpt lat="45.4452219" lon="7.6854388"><ele>774.5000000000001</ele><time>2026-04-11T15:21:30.965Z</time></trkpt><trkpt lat="45.4451449" lon="7.6853904"><ele>776.0</ele><time>2026-04-11T15:21:31.966Z</time></trkpt><trkpt lat="45.4450647" lon="7.6853327"><ele>778.75</ele><time>2026-04-11T15:21:32.967Z</time></trkpt><trkpt lat="45.4449868" lon="7.6852439"><ele>781.5</ele><time>2026-04-11T15:21:33.972Z</time></trkpt><trkpt lat="45.4448893" lon="7.6851233"><ele>784.25</ele><time>2026-04-11T15:21:34.965Z</time></trkpt><trkpt lat="45.4447905" lon="7.6849944"><ele>787.0</ele><time>2026-04-11T15:21:35.968Z</time></trkpt><trkpt lat="45.4447171" lon="7.6848441"><ele>787.0</ele><time>2026-04-11T15:21:36.969Z</time></trkpt><trkpt lat="45.4446539" lon="7.6847164"><ele>787.0</ele><time>2026-04-11T15:21:37.969Z</time></trkpt><trkpt lat="45.4445907" lon="7.6845976"><ele>787.0</ele><time>2026-04-11T15:21:38.973Z</time></trkpt><trkpt lat="45.4445095" lon="7.6844899"><ele>787.0</ele><time>2026-04-11T15:21:39.969Z</time></trkpt><trkpt lat="45.4444207" lon="7.684389"><ele>787.0</ele><time>2026-04-11T15:21:40.966Z</time></trkpt><trkpt lat="45.4443297" lon="7.6843096"><ele>789.2</ele><time>2026-04-11T15:21:41.968Z</time></trkpt><trkpt lat="45.444234" lon="7.6842273"><ele>791.4000000000001</ele><time>2026-04-11T15:21:42.964Z</time></trkpt><trkpt lat="45.4441303" lon="7.6841486"><ele>793.5999999999999</ele><time>2026-04-11T15:21:43.969Z</time></trkpt><trkpt lat="45.4440265" lon="7.6840871"><ele>795.8</ele><time>2026-04-11T15:21:44.97Z</time></trkpt><trkpt lat="45.443924" lon="7.6840418"><ele>798.0</ele><time>2026-04-11T15:21:45.968Z</time></trkpt><trkpt lat="45.4438319" lon="7.6839905"><ele>799.1428571428571</ele><time>2026-04-11T15:21:46.962Z</time></trkpt><trkpt lat="45.4437527" lon="7.68393"><ele>800.2857142857142</ele><time>2026-04-11T15:21:47.967Z</time></trkpt><trkpt lat="45.443682" lon="7.6838669"><ele>801.4285714285714</ele><time>2026-04-11T15:21:48.957Z</time></trkpt><trkpt lat="45.4436249" lon="7.6837992"><ele>802.5714285714286</ele><time>2026-04-11T15:21:49.961Z</time></trkpt><trkpt lat="45.443585" lon="7.683727"><ele>803.7142857142857</ele><time>2026-04-11T15:21:50.959Z</time></trkpt><trkpt lat="45.4435651" lon="7.6836393"><ele>804.8571428571429</ele><time>2026-04-11T15:21:51.96Z</time></trkpt><trkpt lat="45.4435675" lon="7.6835398"><ele>806.0</ele><time>2026-04-11T15:21:52.958Z</time></trkpt><trkpt lat="45.4435831" lon="7.6834096"><ele>806.0</ele><time>2026-04-11T15:21:53.967Z</time></trkpt><trkpt lat="45.4436016" lon="7.6832865"><ele>806.0</ele><time>2026-04-11T15:21:54.96Z</time></trkpt><trkpt lat="45.443559" lon="7.6831241"><ele>806.0</ele><time>2026-04-11T15:21:56.965Z</time></trkpt><trkpt lat="45.4434896" lon="7.6830633"><ele>806.0</ele><time>2026-04-11T15:21:57.969Z</time></trkpt><trkpt lat="45.4433949" lon="7.6830137"><ele>806.0</ele><time>2026-04-11T15:21:58.966Z</time></trkpt><trkpt lat="45.4432715" lon="7.6829498"><ele>806.0</ele><time>2026-04-11T15:22:00.024Z</time></trkpt><trkpt lat="45.4431463" lon="7.6828866"><ele>806.0</ele><time>2026-04-11T15:22:01.039Z</time></trkpt><trkpt lat="45.4430462" lon="7.6828452"><ele>806.0</ele><time>2026-04-11T15:22:02.038Z</time></trkpt><trkpt lat="45.4429802" lon="7.68281"><ele>806.0</ele><time>2026-04-11T15:22:02.953Z</time></trkpt><trkpt lat="45.4429542" lon="7.682682"><ele>806.0</ele><time>2026-04-11T15:22:04.977Z</time></trkpt><trkpt lat="45.4430199" lon="7.682564"><ele>809.5</ele><time>2026-04-11T15:22:06.963Z</time></trkpt><trkpt lat="45.4430823" lon="7.6825002"><ele>813.0</ele><time>2026-04-11T15:22:07.967Z</time></trkpt><trkpt lat="45.4431888" lon="7.682455"><ele>816.5</ele><time>2026-04-11T15:22:09.033Z</time></trkpt><trkpt lat="45.4433244" lon="7.6824085"><ele>820.0</ele><time>2026-04-11T15:22:09.977Z</time></trkpt><trkpt lat="45.4434688" lon="7.6823598"><ele>820.0</ele><time>2026-04-11T15:22:11.031Z</time></trkpt><trkpt lat="45.4436063" lon="7.6823094"><ele>820.0</ele><time>2026-04-11T15:22:11.968Z</time></trkpt><trkpt lat="45.4437372" lon="7.6822723"><ele>820.0</ele><time>2026-04-11T15:22:12.97Z</time></trkpt><trkpt lat="45.4438546" lon="7.6822583"><ele>820.0</ele><time>2026-04-11T15:22:13.968Z</time></trkpt><trkpt lat="45.443965" lon="7.6822663"><ele>821.6</ele><time>2026-04-11T15:22:14.965Z</time></trkpt><trkpt lat="45.4440786" lon="7.6822988"><ele>823.2</ele><time>2026-04-11T15:22:15.972Z</time></trkpt><trkpt lat="45.4441862" lon="7.6823475"><ele>824.8</ele><time>2026-04-11T15:22:16.975Z</time></trkpt><trkpt lat="45.4442884" lon="7.6824035"><ele>826.4</ele><time>2026-04-11T15:22:17.969Z</time></trkpt><trkpt lat="45.4443828" lon="7.6824453"><ele>828.0</ele><time>2026-04-11T15:22:18.972Z</time></trkpt><trkpt lat="45.44448" lon="7.6824755"><ele>828.0</ele><time>2026-04-11T15:22:20.058Z</time></trkpt><trkpt lat="45.4445822" lon="7.6824817"><ele>828.0</ele><time>2026-04-11T15:22:20.994Z</time></trkpt><trkpt lat="45.4446959" lon="7.6824477"><ele>828.0</ele><time>2026-04-11T15:22:21.968Z</time></trkpt><trkpt lat="45.4448088" lon="7.6824047"><ele>828.0</ele><time>2026-04-11T15:22:22.97Z</time></trkpt><trkpt lat="45.4449328" lon="7.6823485"><ele>829.8</ele><time>2026-04-11T15:22:23.965Z</time></trkpt><trkpt lat="45.4450527" lon="7.6823055"><ele>831.5999999999999</ele><time>2026-04-11T15:22:24.966Z</time></trkpt><trkpt lat="45.4451588" lon="7.6822788"><ele>833.4000000000001</ele><time>2026-04-11T15:22:26.066Z</time></trkpt><trkpt lat="45.4452654" lon="7.6822867"><ele>835.2</ele><time>2026-04-11T15:22:26.97Z</time></trkpt><trkpt lat="45.4453655" lon="7.6823067"><ele>837.0</ele><time>2026-04-11T15:22:27.971Z</time></trkpt><trkpt lat="45.4454684" lon="7.6823329"><ele>837.8</ele><time>2026-04-11T15:22:28.97Z</time></trkpt><trkpt lat="45.4455715" lon="7.6823461"><ele>838.6</ele><time>2026-04-11T15:22:29.977Z</time></trkpt><trkpt lat="45.4456685" lon="7.6823518"><ele>839.4</ele><time>2026-04-11T15:22:31.032Z</time></trkpt><trkpt lat="45.4457551" lon="7.6823474"><ele>840.1999999999999</ele><time>2026-04-11T15:22:32.04Z</time></trkpt><trkpt lat="45.4458219" lon="7.682322"><ele>841.0</ele><time>2026-04-11T15:22:32.962Z</time></trkpt><trkpt lat="45.4458941" lon="7.6821984"><ele>841.0</ele><time>2026-04-11T15:22:34.973Z</time></trkpt><trkpt lat="45.4459073" lon="7.6820214"><ele>841.0</ele><time>2026-04-11T15:22:36.978Z</time></trkpt><trkpt lat="45.4458983" lon="7.6819094"><ele>841.0</ele><time>2026-04-11T15:22:37.959Z</time></trkpt><trkpt lat="45.4458711" lon="7.6818096"><ele>841.0</ele><time>2026-04-11T15:22:39.033Z</time></trkpt><trkpt lat="45.4458245" lon="7.6816993"><ele>841.0</ele><time>2026-04-11T15:22:40.036Z</time></trkpt><trkpt lat="45.4457456" lon="7.6815931"><ele>842.25</ele><time>2026-04-11T15:22:41.033Z</time></trkpt><trkpt lat="45.4456496" lon="7.6814934"><ele>843.5</ele><time>2026-04-11T15:22:42.028Z</time></trkpt><trkpt lat="45.4455448" lon="7.6813969"><ele>844.75</ele><time>2026-04-11T15:22:42.953Z</time></trkpt><trkpt lat="45.4454481" lon="7.6812964"><ele>846.0</ele><time>2026-04-11T15:22:43.967Z</time></trkpt><trkpt lat="45.4453604" lon="7.6811854"><ele>848.75</ele><time>2026-04-11T15:22:44.981Z</time></trkpt><trkpt lat="45.4452837" lon="7.6810664"><ele>851.5</ele><time>2026-04-11T15:22:46.039Z</time></trkpt><trkpt lat="45.4452105" lon="7.6809495"><ele>854.25</ele><time>2026-04-11T15:22:47.033Z</time></trkpt><trkpt lat="45.4451288" lon="7.6807958"><ele>857.0</ele><time>2026-04-11T15:22:47.968Z</time></trkpt><trkpt lat="45.4450517" lon="7.6806526"><ele>857.0</ele><time>2026-04-11T15:22:48.974Z</time></trkpt><trkpt lat="45.4449884" lon="7.6805191"><ele>857.0</ele><time>2026-04-11T15:22:49.988Z</time></trkpt><trkpt lat="45.4449386" lon="7.6804001"><ele>857.0</ele><time>2026-04-11T15:22:51.028Z</time></trkpt><trkpt lat="45.4449075" lon="7.680305"><ele>857.0</ele><time>2026-04-11T15:22:52.032Z</time></trkpt><trkpt lat="45.4449071" lon="7.6802113"><ele>857.0</ele><time>2026-04-11T15:22:52.972Z</time></trkpt><trkpt lat="45.4449538" lon="7.6800716"><ele>858.1666666666667</ele><time>2026-04-11T15:22:54.962Z</time></trkpt><trkpt lat="45.445024" lon="7.6800109"><ele>859.3333333333334</ele><time>2026-04-11T15:22:56.972Z</time></trkpt><trkpt lat="45.4451265" lon="7.6800682"><ele>860.5</ele><time>2026-04-11T15:22:59.039Z</time></trkpt><trkpt lat="45.4452003" lon="7.6801424"><ele>861.6666666666667</ele><time>2026-04-11T15:23:00.045Z</time></trkpt><trkpt lat="45.4452723" lon="7.6802038"><ele>862.8333333333334</ele><time>2026-04-11T15:23:01.041Z</time></trkpt><trkpt lat="45.4453362" lon="7.6802497"><ele>864.0</ele><time>2026-04-11T15:23:01.97Z</time></trkpt><trkpt lat="45.4454337" lon="7.6802582"><ele>864.75</ele><time>2026-04-11T15:23:02.967Z</time></trkpt><trkpt lat="45.4455609" lon="7.6802522"><ele>865.5</ele><time>2026-04-11T15:23:03.968Z</time></trkpt><trkpt lat="45.4456966" lon="7.6802425"><ele>866.25</ele><time>2026-04-11T15:23:04.964Z</time></trkpt><trkpt lat="45.4458028" lon="7.6802577"><ele>867.0</ele><time>2026-04-11T15:23:05.97Z</time></trkpt><trkpt lat="45.4459172" lon="7.6802903"><ele>867.0</ele><time>2026-04-11T15:23:07.029Z</time></trkpt><trkpt lat="45.4460351" lon="7.6803349"><ele>867.0</ele><time>2026-04-11T15:23:07.967Z</time></trkpt><trkpt lat="45.4461605" lon="7.680382"><ele>867.0</ele><time>2026-04-11T15:23:08.973Z</time></trkpt><trkpt lat="45.446279" lon="7.680426"><ele>867.0</ele><time>2026-04-11T15:23:09.973Z</time></trkpt><trkpt lat="45.4463806" lon="7.680467"><ele>868.3333333333334</ele><time>2026-04-11T15:23:10.971Z</time></trkpt><trkpt lat="45.4464739" lon="7.6804811"><ele>869.6666666666667</ele><time>2026-04-11T15:23:11.974Z</time></trkpt><trkpt lat="45.4465481" lon="7.6804569"><ele>871.0</ele><time>2026-04-11T15:23:12.968Z</time></trkpt><trkpt lat="45.4466263" lon="7.6804029"><ele>872.3333333333334</ele><time>2026-04-11T15:23:13.975Z</time></trkpt><trkpt lat="45.4467077" lon="7.6803363"><ele>873.6666666666667</ele><time>2026-04-11T15:23:14.977Z</time></trkpt><trkpt lat="45.4467735" lon="7.6802769"><ele>875.0</ele><time>2026-04-11T15:23:15.982Z</time></trkpt><trkpt lat="45.4467523" lon="7.6801321"><ele>880.2</ele><time>2026-04-11T15:23:19.97Z</time></trkpt><trkpt lat="45.4467028" lon="7.6800376"><ele>885.4</ele><time>2026-04-11T15:23:20.97Z</time></trkpt><trkpt lat="45.4466363" lon="7.6799245"><ele>890.5999999999999</ele><time>2026-04-11T15:23:22.039Z</time></trkpt><trkpt lat="45.4465548" lon="7.6798056"><ele>895.8</ele><time>2026-04-11T15:23:22.971Z</time></trkpt><trkpt lat="45.4464536" lon="7.6796927"><ele>901.0</ele><time>2026-04-11T15:23:23.97Z</time></trkpt><trkpt lat="45.4463465" lon="7.6796096"><ele>900.1666666666666</ele><time>2026-04-11T15:23:24.977Z</time></trkpt><trkpt lat="45.4462459" lon="7.6795328"><ele>899.3333333333333</ele><time>2026-04-11T15:23:25.972Z</time></trkpt><trkpt lat="45.4461564" lon="7.6794775"><ele>898.5</ele><time>2026-04-11T15:23:26.97Z</time></trkpt><trkpt lat="45.4460873" lon="7.6794222"><ele>897.6666666666667</ele><time>2026-04-11T15:23:27.972Z</time></trkpt><trkpt lat="45.446045" lon="7.6793527"><ele>896.8333333333334</ele><time>2026-04-11T15:23:28.968Z</time></trkpt><trkpt lat="45.4460345" lon="7.6792554"><ele>896.0</ele><time>2026-04-11T15:23:29.991Z</time></trkpt><trkpt lat="45.4460912" lon="7.6790699"><ele>896.0</ele><time>2026-04-11T15:23:31.972Z</time></trkpt><trkpt lat="45.4461275" lon="7.678947"><ele>895.9999999999999</ele><time>2026-04-11T15:23:32.976Z</time></trkpt><trkpt lat="45.4461522" lon="7.6788348"><ele>895.9999999999999</ele><time>2026-04-11T15:23:33.972Z</time></trkpt><trkpt lat="45.4461588" lon="7.6786959"><ele>896.0</ele><time>2026-04-11T15:23:34.969Z</time></trkpt><trkpt lat="45.4461506" lon="7.6785493"><ele>896.0</ele><time>2026-04-11T15:23:35.979Z</time></trkpt><trkpt lat="45.4461427" lon="7.6783991"><ele>898.1666666666667</ele><time>2026-04-11T15:23:36.97Z</time></trkpt><trkpt lat="45.4461296" lon="7.6782778"><ele>900.3333333333334</ele><time>2026-04-11T15:23:37.967Z</time></trkpt><trkpt lat="45.4461017" lon="7.6781681"><ele>902.5</ele><time>2026-04-11T15:23:39.039Z</time></trkpt><trkpt lat="45.4460612" lon="7.6780745"><ele>904.6666666666667</ele><time>2026-04-11T15:23:40.044Z</time></trkpt><trkpt lat="45.4460283" lon="7.6779769"><ele>906.8333333333334</ele><time>2026-04-11T15:23:41.031Z</time></trkpt><trkpt lat="45.4460185" lon="7.6778745"><ele>909.0</ele><time>2026-04-11T15:23:41.977Z</time></trkpt><trkpt lat="45.4460259" lon="7.6777836"><ele>910.3333333333334</ele><time>2026-04-11T15:23:42.965Z</time></trkpt><trkpt lat="45.4460443" lon="7.6776952"><ele>911.6666666666667</ele><time>2026-04-11T15:23:43.959Z</time></trkpt><trkpt lat="45.4460842" lon="7.6776256"><ele>913.0</ele><time>2026-04-11T15:23:45.033Z</time></trkpt><trkpt lat="45.4461789" lon="7.6776163"><ele>914.3333333333334</ele><time>2026-04-11T15:23:47.022Z</time></trkpt><trkpt lat="45.4462301" lon="7.6776826"><ele>915.6666666666667</ele><time>2026-04-11T15:23:47.963Z</time></trkpt><trkpt lat="45.4463107" lon="7.6777438"><ele>917.0</ele><time>2026-04-11T15:23:49.967Z</time></trkpt><trkpt lat="45.4463759" lon="7.6777796"><ele>917.0</ele><time>2026-04-11T15:23:51.961Z</time></trkpt><trkpt lat="45.4463855" lon="7.6776734"><ele>917.0</ele><time>2026-04-11T15:23:53.964Z</time></trkpt><trkpt lat="45.4463622" lon="7.6775637"><ele>917.0</ele><time>2026-04-11T15:23:55.019Z</time></trkpt><trkpt lat="45.4463179" lon="7.6774335"><ele>917.0</ele><time>2026-04-11T15:23:56.042Z</time></trkpt><trkpt lat="45.446252" lon="7.6772761"><ele>917.0</ele><time>2026-04-11T15:23:57.025Z</time></trkpt><trkpt lat="45.4461871" lon="7.6770823"><ele>918.5</ele><time>2026-04-11T15:23:57.964Z</time></trkpt><trkpt lat="45.4461377" lon="7.6769062"><ele>920.0</ele><time>2026-04-11T15:23:58.963Z</time></trkpt><trkpt lat="45.4460931" lon="7.6767505"><ele>921.5</ele><time>2026-04-11T15:23:59.953Z</time></trkpt><trkpt lat="45.4460566" lon="7.6766025"><ele>923.0</ele><time>2026-04-11T15:24:00.962Z</time></trkpt><trkpt lat="45.4460239" lon="7.67648"><ele>923.0</ele><time>2026-04-11T15:24:01.964Z</time></trkpt><trkpt lat="45.4460096" lon="7.6763778"><ele>923.0</ele><time>2026-04-11T15:24:02.967Z</time></trkpt><trkpt lat="45.4460579" lon="7.6762623"><ele>923.0</ele><time>2026-04-11T15:24:05.027Z</time></trkpt><trkpt lat="45.4461408" lon="7.6763024"><ele>923.0</ele><time>2026-04-11T15:24:06.966Z</time></trkpt><trkpt lat="45.4462371" lon="7.676417"><ele>923.0</ele><time>2026-04-11T15:24:08.969Z</time></trkpt><trkpt lat="45.446316" lon="7.6764877"><ele>929.2</ele><time>2026-04-11T15:24:10.029Z</time></trkpt><trkpt lat="45.4464159" lon="7.6765589"><ele>935.4</ele><time>2026-04-11T15:24:11.033Z</time></trkpt><trkpt lat="45.446516" lon="7.6766322"><ele>941.6000000000001</ele><time>2026-04-11T15:24:11.972Z</time></trkpt><trkpt lat="45.446611" lon="7.6766738"><ele>947.8000000000001</ele><time>2026-04-11T15:24:12.951Z</time></trkpt><trkpt lat="45.4467158" lon="7.676701"><ele>954.0</ele><time>2026-04-11T15:24:13.963Z</time></trkpt><trkpt lat="45.4468432" lon="7.6767286"><ele>954.0</ele><time>2026-04-11T15:24:15.016Z</time></trkpt><trkpt lat="45.4469781" lon="7.6767788"><ele>954.0</ele><time>2026-04-11T15:24:16.031Z</time></trkpt><trkpt lat="45.447114" lon="7.6768347"><ele>954.0</ele><time>2026-04-11T15:24:17.047Z</time></trkpt><trkpt lat="45.4472302" lon="7.6768839"><ele>954.0</ele><time>2026-04-11T15:24:17.95Z</time></trkpt><trkpt lat="45.4473275" lon="7.6769307"><ele>954.4000000000001</ele><time>2026-04-11T15:24:18.957Z</time></trkpt><trkpt lat="45.4474012" lon="7.6769593"><ele>954.8000000000001</ele><time>2026-04-11T15:24:19.969Z</time></trkpt><trkpt lat="45.4474816" lon="7.6769678"><ele>955.1999999999999</ele><time>2026-04-11T15:24:22.018Z</time></trkpt><trkpt lat="45.4474309" lon="7.6768674"><ele>955.5999999999999</ele><time>2026-04-11T15:24:24.958Z</time></trkpt><trkpt lat="45.4473379" lon="7.6767899"><ele>956.0</ele><time>2026-04-11T15:24:25.993Z</time></trkpt><trkpt lat="45.4472522" lon="7.6766889"><ele>955.5999999999999</ele><time>2026-04-11T15:24:27.03Z</time></trkpt><trkpt lat="45.4471793" lon="7.6765783"><ele>955.1999999999999</ele><time>2026-04-11T15:24:27.968Z</time></trkpt><trkpt lat="45.447113" lon="7.6764501"><ele>954.8000000000001</ele><time>2026-04-11T15:24:28.972Z</time></trkpt><trkpt lat="45.4470511" lon="7.6763237"><ele>954.4000000000001</ele><time>2026-04-11T15:24:29.971Z</time></trkpt><trkpt lat="45.4470004" lon="7.6761899"><ele>954.0</ele><time>2026-04-11T15:24:30.959Z</time></trkpt><trkpt lat="45.4469606" lon="7.6760578"><ele>955.2</ele><time>2026-04-11T15:24:31.959Z</time></trkpt><trkpt lat="45.4469376" lon="7.6759426"><ele>956.4000000000001</ele><time>2026-04-11T15:24:32.965Z</time></trkpt><trkpt lat="45.4469304" lon="7.6758295"><ele>957.6</ele><time>2026-04-11T15:24:33.975Z</time></trkpt><trkpt lat="45.4469484" lon="7.6757033"><ele>958.8</ele><time>2026-04-11T15:24:34.988Z</time></trkpt><trkpt lat="45.4469939" lon="7.6755594"><ele>960.0</ele><time>2026-04-11T15:24:35.967Z</time></trkpt><trkpt lat="45.4470451" lon="7.6754231"><ele>960.0</ele><time>2026-04-11T15:24:37.025Z</time></trkpt><trkpt lat="45.4471024" lon="7.67529"><ele>960.0</ele><time>2026-04-11T15:24:37.954Z</time></trkpt><trkpt lat="45.4471433" lon="7.675193"><ele>960.0</ele><time>2026-04-11T15:24:38.955Z</time></trkpt><trkpt lat="45.4471958" lon="7.6750815"><ele>960.0</ele><time>2026-04-11T15:24:40.967Z</time></trkpt><trkpt lat="45.4472724" lon="7.6751474"><ele>960.0</ele><time>2026-04-11T15:24:43.95Z</time></trkpt><trkpt lat="45.4472739" lon="7.6752446"><ele>960.0</ele><time>2026-04-11T15:24:44.954Z</time></trkpt><trkpt lat="45.4472785" lon="7.6753558"><ele>965.8333333333334</ele><time>2026-04-11T15:24:45.957Z</time></trkpt><trkpt lat="45.4472813" lon="7.6754769"><ele>971.6666666666667</ele><time>2026-04-11T15:24:46.954Z</time></trkpt><trkpt lat="45.4472996" lon="7.6756004"><ele>977.5</ele><time>2026-04-11T15:24:47.946Z</time></trkpt><trkpt lat="45.4473346" lon="7.6756861"><ele>983.3333333333334</ele><time>2026-04-11T15:24:48.962Z</time></trkpt><trkpt lat="45.4474257" lon="7.6757903"><ele>989.1666666666667</ele><time>2026-04-11T15:24:50.976Z</time></trkpt><trkpt lat="45.4474925" lon="7.6758078"><ele>995.0</ele><time>2026-04-11T15:24:51.958Z</time></trkpt><trkpt lat="45.447648" lon="7.6758452"><ele>995.0</ele><time>2026-04-11T15:24:53.954Z</time></trkpt><trkpt lat="45.4477764" lon="7.6758933"><ele>995.0</ele><time>2026-04-11T15:24:54.959Z</time></trkpt><trkpt lat="45.447904" lon="7.6759439"><ele>995.0</ele><time>2026-04-11T15:24:55.96Z</time></trkpt><trkpt lat="45.4480307" lon="7.6760025"><ele>995.0</ele><time>2026-04-11T15:24:56.957Z</time></trkpt><trkpt lat="45.4481527" lon="7.6760615"><ele>994.75</ele><time>2026-04-11T15:24:57.958Z</time></trkpt><trkpt lat="45.4482715" lon="7.6761227"><ele>994.5</ele><time>2026-04-11T15:24:58.96Z</time></trkpt><trkpt lat="45.4483862" lon="7.6761797"><ele>994.25</ele><time>2026-04-11T15:24:59.962Z</time></trkpt><trkpt lat="45.4484912" lon="7.6762335"><ele>994.0</ele><time>2026-04-11T15:25:00.946Z</time></trkpt><trkpt lat="45.4485816" lon="7.676311"><ele>993.9999999999999</ele><time>2026-04-11T15:25:01.964Z</time></trkpt><trkpt lat="45.4486365" lon="7.6764183"><ele>994.0</ele><time>2026-04-11T15:25:02.956Z</time></trkpt><trkpt lat="45.4486745" lon="7.6765208"><ele>994.0</ele><time>2026-04-11T15:25:03.954Z</time></trkpt><trkpt lat="45.4487607" lon="7.6766423"><ele>994.0</ele><time>2026-04-11T15:25:05.962Z</time></trkpt><trkpt lat="45.4488235" lon="7.6766881"><ele>993.9999999999999</ele><time>2026-04-11T15:25:06.956Z</time></trkpt><trkpt lat="45.4488981" lon="7.676717"><ele>994.0</ele><time>2026-04-11T15:25:07.958Z</time></trkpt><trkpt lat="45.4489597" lon="7.6767506"><ele>996.6</ele><time>2026-04-11T15:25:08.946Z</time></trkpt><trkpt lat="45.4490327" lon="7.6768078"><ele>999.2</ele><time>2026-04-11T15:25:09.955Z</time></trkpt><trkpt lat="45.449102" lon="7.6768865"><ele>1001.8000000000001</ele><time>2026-04-11T15:25:10.954Z</time></trkpt><trkpt lat="45.4491623" lon="7.6769913"><ele>1004.4000000000001</ele><time>2026-04-11T15:25:11.958Z</time></trkpt><trkpt lat="45.4492097" lon="7.6771385"><ele>1007.0</ele><time>2026-04-11T15:25:12.951Z</time></trkpt><trkpt lat="45.4492459" lon="7.677304"><ele>1007.0000000000001</ele><time>2026-04-11T15:25:13.955Z</time></trkpt><trkpt lat="45.4492811" lon="7.6774511"><ele>1007.0</ele><time>2026-04-11T15:25:14.955Z</time></trkpt><trkpt lat="45.4493068" lon="7.6775907"><ele>1007.0</ele><time>2026-04-11T15:25:16.029Z</time></trkpt><trkpt lat="45.4493121" lon="7.6777094"><ele>1007.0</ele><time>2026-04-11T15:25:17.019Z</time></trkpt><trkpt lat="45.4493152" lon="7.6778281"><ele>1007.0000000000001</ele><time>2026-04-11T15:25:17.965Z</time></trkpt><trkpt lat="45.449331" lon="7.6779184"><ele>1007.0</ele><time>2026-04-11T15:25:18.957Z</time></trkpt><trkpt lat="45.4494176" lon="7.6779482"><ele>1007.4000000000001</ele><time>2026-04-11T15:25:20.946Z</time></trkpt><trkpt lat="45.4495276" lon="7.6778675"><ele>1007.8000000000001</ele><time>2026-04-11T15:25:22.96Z</time></trkpt><trkpt lat="45.4495818" lon="7.6778102"><ele>1008.2</ele><time>2026-04-11T15:25:24.033Z</time></trkpt><trkpt lat="45.4496719" lon="7.6776698"><ele>1008.6</ele><time>2026-04-11T15:25:26.011Z</time></trkpt><trkpt lat="45.4497088" lon="7.6775219"><ele>1009.0</ele><time>2026-04-11T15:25:26.955Z</time></trkpt><trkpt lat="45.4497389" lon="7.6773365"><ele>1009.0</ele><time>2026-04-11T15:25:27.954Z</time></trkpt><trkpt lat="45.4497662" lon="7.6771067"><ele>1009.0</ele><time>2026-04-11T15:25:28.951Z</time></trkpt><trkpt lat="45.4497966" lon="7.6768375"><ele>1009.0</ele><time>2026-04-11T15:25:29.951Z</time></trkpt><trkpt lat="45.4498117" lon="7.676552"><ele>1010.75</ele><time>2026-04-11T15:25:30.946Z</time></trkpt><trkpt lat="45.4498225" lon="7.6763024"><ele>1012.5</ele><time>2026-04-11T15:25:31.974Z</time></trkpt><trkpt lat="45.4498313" lon="7.6761116"><ele>1014.25</ele><time>2026-04-11T15:25:32.953Z</time></trkpt><trkpt lat="45.4498424" lon="7.6759627"><ele>1016.0</ele><time>2026-04-11T15:25:33.951Z</time></trkpt><trkpt lat="45.4498625" lon="7.6758296"><ele>1018.8</ele><time>2026-04-11T15:25:34.988Z</time></trkpt><trkpt lat="45.4499088" lon="7.6757108"><ele>1021.5999999999999</ele><time>2026-04-11T15:25:35.949Z</time></trkpt><trkpt lat="45.4499824" lon="7.6755879"><ele>1024.4</ele><time>2026-04-11T15:25:37.025Z</time></trkpt><trkpt lat="45.4500586" lon="7.6754582"><ele>1027.2</ele><time>2026-04-11T15:25:37.95Z</time></trkpt><trkpt lat="45.4501343" lon="7.6753579"><ele>1030.0</ele><time>2026-04-11T15:25:38.956Z</time></trkpt><trkpt lat="45.4502131" lon="7.6752657"><ele>1032.6</ele><time>2026-04-11T15:25:39.965Z</time></trkpt><trkpt lat="45.4502932" lon="7.675177"><ele>1035.2</ele><time>2026-04-11T15:25:41.016Z</time></trkpt><trkpt lat="45.4503797" lon="7.6750587"><ele>1037.8</ele><time>2026-04-11T15:25:41.943Z</time></trkpt><trkpt lat="45.4504584" lon="7.6749442"><ele>1040.4</ele><time>2026-04-11T15:25:42.951Z</time></trkpt><trkpt lat="45.4505294" lon="7.6748496"><ele>1043.0</ele><time>2026-04-11T15:25:43.933Z</time></trkpt><trkpt lat="45.4505839" lon="7.6747796"><ele>1043.0</ele><time>2026-04-11T15:25:44.937Z</time></trkpt><trkpt lat="45.4505718" lon="7.6746818"><ele>1043.0</ele><time>2026-04-11T15:25:46.938Z</time></trkpt><trkpt lat="45.4504673" lon="7.6746237"><ele>1043.0</ele><time>2026-04-11T15:25:48.94Z</time></trkpt><trkpt lat="45.4503825" lon="7.674606"><ele>1043.0</ele><time>2026-04-11T15:25:49.949Z</time></trkpt><trkpt lat="45.4502763" lon="7.674563"><ele>1043.0</ele><time>2026-04-11T15:25:51.009Z</time></trkpt><trkpt lat="45.4501799" lon="7.6745039"><ele>1048.25</ele><time>2026-04-11T15:25:52.023Z</time></trkpt><trkpt lat="45.4500889" lon="7.6744104"><ele>1053.5</ele><time>2026-04-11T15:25:52.95Z</time></trkpt><trkpt lat="45.4499949" lon="7.6742963"><ele>1058.75</ele><time>2026-04-11T15:25:53.95Z</time></trkpt><trkpt lat="45.4498868" lon="7.6741724"><ele>1064.0</ele><time>2026-04-11T15:25:54.963Z</time></trkpt><trkpt lat="45.4497797" lon="7.6740525"><ele>1064.0</ele><time>2026-04-11T15:25:55.948Z</time></trkpt><trkpt lat="45.4496944" lon="7.6739509"><ele>1064.0</ele><time>2026-04-11T15:25:56.952Z</time></trkpt><trkpt lat="45.4496111" lon="7.6738666"><ele>1064.0</ele><time>2026-04-11T15:25:57.953Z</time></trkpt><trkpt lat="45.4495241" lon="7.6738007"><ele>1064.0</ele><time>2026-04-11T15:25:58.975Z</time></trkpt><trkpt lat="45.4494377" lon="7.6737677"><ele>1064.0</ele><time>2026-04-11T15:25:59.972Z</time></trkpt><trkpt lat="45.4493554" lon="7.6737458"><ele>1063.3333333333335</ele><time>2026-04-11T15:26:00.953Z</time></trkpt><trkpt lat="45.4492846" lon="7.6737115"><ele>1062.6666666666667</ele><time>2026-04-11T15:26:01.956Z</time></trkpt><trkpt lat="45.4492186" lon="7.673662"><ele>1062.0</ele><time>2026-04-11T15:26:02.945Z</time></trkpt><trkpt lat="45.4491718" lon="7.6735894"><ele>1061.3333333333333</ele><time>2026-04-11T15:26:03.954Z</time></trkpt><trkpt lat="45.4491463" lon="7.6735018"><ele>1060.6666666666665</ele><time>2026-04-11T15:26:04.953Z</time></trkpt><trkpt lat="45.4491582" lon="7.6733407"><ele>1060.0</ele><time>2026-04-11T15:26:07.016Z</time></trkpt><trkpt lat="45.4491969" lon="7.6732481"><ele>1060.0</ele><time>2026-04-11T15:26:07.943Z</time></trkpt><trkpt lat="45.4492505" lon="7.673131"><ele>1060.0</ele><time>2026-04-11T15:26:08.947Z</time></trkpt><trkpt lat="45.449316" lon="7.6729832"><ele>1060.0</ele><time>2026-04-11T15:26:09.984Z</time></trkpt><trkpt lat="45.4493922" lon="7.6728182"><ele>1060.0</ele><time>2026-04-11T15:26:11.011Z</time></trkpt><trkpt lat="45.4494641" lon="7.6726349"><ele>1061.0</ele><time>2026-04-11T15:26:12.015Z</time></trkpt><trkpt lat="45.4495194" lon="7.6724861"><ele>1062.0</ele><time>2026-04-11T15:26:12.953Z</time></trkpt><trkpt lat="45.4495492" lon="7.6723684"><ele>1063.0</ele><time>2026-04-11T15:26:13.955Z</time></trkpt><trkpt lat="45.4495679" lon="7.67226"><ele>1064.0</ele><time>2026-04-11T15:26:14.988Z</time></trkpt><trkpt lat="45.4495674" lon="7.6721431"><ele>1065.0</ele><time>2026-04-11T15:26:16.014Z</time></trkpt><trkpt lat="45.449543" lon="7.6720053"><ele>1068.0</ele><time>2026-04-11T15:26:17.031Z</time></trkpt><trkpt lat="45.4494979" lon="7.6718338"><ele>1071.0</ele><time>2026-04-11T15:26:17.954Z</time></trkpt><trkpt lat="45.4494565" lon="7.6716509"><ele>1074.0</ele><time>2026-04-11T15:26:18.95Z</time></trkpt><trkpt lat="45.4494234" lon="7.6714544"><ele>1077.0</ele><time>2026-04-11T15:26:19.962Z</time></trkpt><trkpt lat="45.4493957" lon="7.6712754"><ele>1077.0</ele><time>2026-04-11T15:26:21.011Z</time></trkpt><trkpt lat="45.4493807" lon="7.6711138"><ele>1077.0</ele><time>2026-04-11T15:26:22.021Z</time></trkpt><trkpt lat="45.4493736" lon="7.6709706"><ele>1077.0</ele><time>2026-04-11T15:26:22.95Z</time></trkpt><trkpt lat="45.4493491" lon="7.6708323"><ele>1077.0</ele><time>2026-04-11T15:26:23.951Z</time></trkpt><trkpt lat="45.4493084" lon="7.6707362"><ele>1077.0</ele><time>2026-04-11T15:26:24.966Z</time></trkpt><trkpt lat="45.4492404" lon="7.6706612"><ele>1080.0</ele><time>2026-04-11T15:26:26.007Z</time></trkpt><trkpt lat="45.4491574" lon="7.6705914"><ele>1083.0</ele><time>2026-04-11T15:26:26.949Z</time></trkpt><trkpt lat="45.4490796" lon="7.670503"><ele>1086.0</ele><time>2026-04-11T15:26:27.954Z</time></trkpt><trkpt lat="45.4490163" lon="7.6703923"><ele>1089.0</ele><time>2026-04-11T15:26:28.946Z</time></trkpt><trkpt lat="45.4489624" lon="7.6702592"><ele>1092.0</ele><time>2026-04-11T15:26:29.947Z</time></trkpt><trkpt lat="45.4489187" lon="7.6701127"><ele>1094.2</ele><time>2026-04-11T15:26:30.943Z</time></trkpt><trkpt lat="45.4488818" lon="7.6699708"><ele>1096.4</ele><time>2026-04-11T15:26:32.005Z</time></trkpt><trkpt lat="45.4488475" lon="7.6698226"><ele>1098.6</ele><time>2026-04-11T15:26:32.948Z</time></trkpt><trkpt lat="45.4488108" lon="7.6696794"><ele>1100.8</ele><time>2026-04-11T15:26:33.959Z</time></trkpt><trkpt lat="45.4487733" lon="7.6695453"><ele>1103.0</ele><time>2026-04-11T15:26:34.949Z</time></trkpt><trkpt lat="45.4487389" lon="7.6694266"><ele>1103.0</ele><time>2026-04-11T15:26:35.947Z</time></trkpt><trkpt lat="45.4487144" lon="7.66932"><ele>1103.0</ele><time>2026-04-11T15:26:36.953Z</time></trkpt><trkpt lat="45.448708" lon="7.6692271"><ele>1103.0</ele><time>2026-04-11T15:26:37.951Z</time></trkpt><trkpt lat="45.4487711" lon="7.6691524"><ele>1103.0</ele><time>2026-04-11T15:26:40.952Z</time></trkpt><trkpt lat="45.4488388" lon="7.6693148"><ele>1103.0</ele><time>2026-04-11T15:26:42.946Z</time></trkpt><trkpt lat="45.4488717" lon="7.6694249"><ele>1103.0</ele><time>2026-04-11T15:26:43.949Z</time></trkpt><trkpt lat="45.4489077" lon="7.6695225"><ele>1103.0</ele><time>2026-04-11T15:26:44.951Z</time></trkpt><trkpt lat="45.4489558" lon="7.6696025"><ele>1103.0</ele><time>2026-04-11T15:26:45.948Z</time></trkpt><trkpt lat="45.4490185" lon="7.6696768"><ele>1103.0</ele><time>2026-04-11T15:26:46.949Z</time></trkpt><trkpt lat="45.449096" lon="7.6697422"><ele>1103.0</ele><time>2026-04-11T15:26:47.945Z</time></trkpt><trkpt lat="45.4491953" lon="7.6698117"><ele>1103.0</ele><time>2026-04-11T15:26:49.014Z</time></trkpt><trkpt lat="45.4493086" lon="7.6698909"><ele>1103.0</ele><time>2026-04-11T15:26:50.019Z</time></trkpt><trkpt lat="45.4494047" lon="7.6699817"><ele>1103.0</ele><time>2026-04-11T15:26:51.015Z</time></trkpt><trkpt lat="45.4494908" lon="7.6700866"><ele>1103.0</ele><time>2026-04-11T15:26:52.014Z</time></trkpt><trkpt lat="45.4495587" lon="7.6701782"><ele>1103.0</ele><time>2026-04-11T15:26:52.946Z</time></trkpt><trkpt lat="45.4496105" lon="7.670239"><ele>1103.0</ele><time>2026-04-11T15:26:53.949Z</time></trkpt><trkpt lat="45.449716" lon="7.6702943"><ele>1104.8333333333335</ele><time>2026-04-11T15:26:56.007Z</time></trkpt><trkpt lat="45.4498083" lon="7.6702886"><ele>1106.6666666666667</ele><time>2026-04-11T15:26:56.956Z</time></trkpt><trkpt lat="45.4499035" lon="7.6702899"><ele>1108.5</ele><time>2026-04-11T15:26:57.954Z</time></trkpt><trkpt lat="45.4499998" lon="7.6703113"><ele>1110.3333333333333</ele><time>2026-04-11T15:26:58.95Z</time></trkpt><trkpt lat="45.4500749" lon="7.6703497"><ele>1112.1666666666665</ele><time>2026-04-11T15:27:00.041Z</time></trkpt><trkpt lat="45.4501228" lon="7.6704176"><ele>1114.0</ele><time>2026-04-11T15:27:00.952Z</time></trkpt><trkpt lat="45.4501699" lon="7.6705061"><ele>1114.0</ele><time>2026-04-11T15:27:02.016Z</time></trkpt><trkpt lat="45.4502114" lon="7.6706274"><ele>1114.0</ele><time>2026-04-11T15:27:02.946Z</time></trkpt><trkpt lat="45.4502642" lon="7.6707162"><ele>1114.0</ele><time>2026-04-11T15:27:03.95Z</time></trkpt><trkpt lat="45.4503182" lon="7.670769"><ele>1114.0</ele><time>2026-04-11T15:27:04.97Z</time></trkpt><trkpt lat="45.4504006" lon="7.6708715"><ele>1114.0</ele><time>2026-04-11T15:27:07.019Z</time></trkpt><trkpt lat="45.45047" lon="7.670965"><ele>1114.0</ele><time>2026-04-11T15:27:08.947Z</time></trkpt><trkpt lat="45.4503971" lon="7.6709546"><ele>1114.0</ele><time>2026-04-11T15:28:05.957Z</time></trkpt><trkpt lat="45.4503374" lon="7.6709077"><ele>1114.0</ele><time>2026-04-11T15:28:10.012Z</time></trkpt><trkpt lat="45.4502838" lon="7.6708605"><ele>1114.0</ele><time>2026-04-11T15:28:12.952Z</time></trkpt><trkpt lat="45.4502166" lon="7.6708284"><ele>1114.0</ele><time>2026-04-11T15:28:15.948Z</time></trkpt><trkpt lat="45.4501648" lon="7.6707514"><ele>1114.0</ele><time>2026-04-11T15:28:20.021Z</time></trkpt><trkpt lat="45.4501294" lon="7.6706528"><ele>1114.0</ele><time>2026-04-11T15:28:24.935Z</time></trkpt><trkpt lat="45.4500832" lon="7.6705182"><ele>1114.0</ele><time>2026-04-11T15:28:26.95Z</time></trkpt><trkpt lat="45.4500118" lon="7.6704176"><ele>1114.0</ele><time>2026-04-11T15:28:28.946Z</time></trkpt><trkpt lat="45.4499194" lon="7.6703577"><ele>1114.0</ele><time>2026-04-11T15:28:30.938Z</time></trkpt><trkpt lat="45.4498166" lon="7.6703379"><ele>1114.0</ele><time>2026-04-11T15:28:32.945Z</time></trkpt><trkpt lat="45.449753" lon="7.6703456"><ele>1114.0</ele><time>2026-04-11T15:28:33.956Z</time></trkpt><trkpt lat="45.4496313" lon="7.6703196"><ele>1112.1666666666665</ele><time>2026-04-11T15:28:35.94Z</time></trkpt><trkpt lat="45.4495731" lon="7.670281"><ele>1110.3333333333333</ele><time>2026-04-11T15:28:36.951Z</time></trkpt><trkpt lat="45.4495153" lon="7.6702285"><ele>1108.5</ele><time>2026-04-11T15:28:37.947Z</time></trkpt><trkpt lat="45.4494633" lon="7.6701615"><ele>1106.6666666666667</ele><time>2026-04-11T15:28:38.945Z</time></trkpt><trkpt lat="45.4494024" lon="7.670088"><ele>1104.8333333333335</ele><time>2026-04-11T15:28:39.95Z</time></trkpt><trkpt lat="45.4493302" lon="7.6700235"><ele>1103.0</ele><time>2026-04-11T15:28:40.95Z</time></trkpt><trkpt lat="45.449249" lon="7.6699593"><ele>1103.0</ele><time>2026-04-11T15:28:41.946Z</time></trkpt><trkpt lat="45.4491771" lon="7.6698934"><ele>1103.0</ele><time>2026-04-11T15:28:42.945Z</time></trkpt><trkpt lat="45.4490904" lon="7.669832"><ele>1103.0</ele><time>2026-04-11T15:28:43.948Z</time></trkpt><trkpt lat="45.4490191" lon="7.6697757"><ele>1103.0</ele><time>2026-04-11T15:28:44.939Z</time></trkpt><trkpt lat="45.4489554" lon="7.6697149"><ele>1103.0</ele><time>2026-04-11T15:28:45.955Z</time></trkpt><trkpt lat="45.4489009" lon="7.6696354"><ele>1103.0</ele><time>2026-04-11T15:28:46.945Z</time></trkpt><trkpt lat="45.4488588" lon="7.6695388"><ele>1105.6666666666667</ele><time>2026-04-11T15:28:47.948Z</time></trkpt><trkpt lat="45.4488283" lon="7.6694321"><ele>1108.3333333333335</ele><time>2026-04-11T15:28:48.945Z</time></trkpt><trkpt lat="45.4488074" lon="7.6693285"><ele>1111.0</ele><time>2026-04-11T15:28:49.949Z</time></trkpt><trkpt lat="45.4487869" lon="7.6692404"><ele>1113.6666666666667</ele><time>2026-04-11T15:28:50.942Z</time></trkpt><trkpt lat="45.448728" lon="7.6691824"><ele>1116.3333333333333</ele><time>2026-04-11T15:28:52.95Z</time></trkpt><trkpt lat="45.4487436" lon="7.6693329"><ele>1119.0</ele><time>2026-04-11T15:28:55.958Z</time></trkpt><trkpt lat="45.4487674" lon="7.66945"><ele>1115.8</ele><time>2026-04-11T15:28:57.948Z</time></trkpt><trkpt lat="45.4487856" lon="7.6695955"><ele>1112.6000000000001</ele><time>2026-04-11T15:28:59.966Z</time></trkpt><trkpt lat="45.4488109" lon="7.6697418"><ele>1109.4</ele><time>2026-04-11T15:29:01.947Z</time></trkpt><trkpt lat="45.4488517" lon="7.6699"><ele>1106.2</ele><time>2026-04-11T15:29:03.953Z</time></trkpt><trkpt lat="45.4488911" lon="7.6700624"><ele>1103.0</ele><time>2026-04-11T15:29:06.014Z</time></trkpt><trkpt lat="45.448912" lon="7.670148"><ele>1103.0</ele><time>2026-04-11T15:29:07.012Z</time></trkpt><trkpt lat="45.4489345" lon="7.6702332"><ele>1103.0</ele><time>2026-04-11T15:29:07.944Z</time></trkpt><trkpt lat="45.4489902" lon="7.6703846"><ele>1103.0</ele><time>2026-04-11T15:29:09.95Z</time></trkpt><trkpt lat="45.4490699" lon="7.6705274"><ele>1103.0</ele><time>2026-04-11T15:29:11.952Z</time></trkpt><trkpt lat="45.4491652" lon="7.670631"><ele>1103.0</ele><time>2026-04-11T15:29:14.012Z</time></trkpt><trkpt lat="45.4492206" lon="7.6706796"><ele>1101.1666666666667</ele><time>2026-04-11T15:29:14.966Z</time></trkpt><trkpt lat="45.4492731" lon="7.6707364"><ele>1099.3333333333335</ele><time>2026-04-11T15:29:16.009Z</time></trkpt><trkpt lat="45.449327" lon="7.6708097"><ele>1097.5</ele><time>2026-04-11T15:29:16.963Z</time></trkpt><trkpt lat="45.4493524" lon="7.6709261"><ele>1095.6666666666667</ele><time>2026-04-11T15:29:17.941Z</time></trkpt><trkpt lat="45.4493505" lon="7.6710503"><ele>1093.8333333333333</ele><time>2026-04-11T15:29:18.951Z</time></trkpt><trkpt lat="45.4493549" lon="7.6711827"><ele>1092.0</ele><time>2026-04-11T15:29:19.949Z</time></trkpt><trkpt lat="45.4493659" lon="7.6713205"><ele>1089.0</ele><time>2026-04-11T15:29:20.944Z</time></trkpt><trkpt lat="45.4493858" lon="7.6714729"><ele>1086.0</ele><time>2026-04-11T15:29:21.949Z</time></trkpt><trkpt lat="45.4494161" lon="7.6716199"><ele>1083.0</ele><time>2026-04-11T15:29:22.945Z</time></trkpt><trkpt lat="45.4494489" lon="7.6717649"><ele>1080.0</ele><time>2026-04-11T15:29:23.954Z</time></trkpt><trkpt lat="45.4494786" lon="7.6719051"><ele>1077.0</ele><time>2026-04-11T15:29:24.952Z</time></trkpt><trkpt lat="45.4495084" lon="7.6720449"><ele>1074.6</ele><time>2026-04-11T15:29:25.946Z</time></trkpt><trkpt lat="45.4495399" lon="7.6721685"><ele>1072.2</ele><time>2026-04-11T15:29:26.951Z</time></trkpt><trkpt lat="45.4495558" lon="7.6722866"><ele>1069.8</ele><time>2026-04-11T15:29:27.946Z</time></trkpt><trkpt lat="45.4495425" lon="7.6724149"><ele>1067.4</ele><time>2026-04-11T15:29:28.956Z</time></trkpt><trkpt lat="45.4495114" lon="7.6725429"><ele>1065.0</ele><time>2026-04-11T15:29:29.94Z</time></trkpt><trkpt lat="45.4494717" lon="7.6726718"><ele>1064.0</ele><time>2026-04-11T15:29:31.02Z</time></trkpt><trkpt lat="45.4494265" lon="7.6727855"><ele>1063.0</ele><time>2026-04-11T15:29:32.006Z</time></trkpt><trkpt lat="45.4493674" lon="7.6729119"><ele>1062.0</ele><time>2026-04-11T15:29:32.945Z</time></trkpt><trkpt lat="45.4492932" lon="7.6730482"><ele>1061.0</ele><time>2026-04-11T15:29:33.95Z</time></trkpt><trkpt lat="45.4492386" lon="7.6731877"><ele>1060.0</ele><time>2026-04-11T15:29:34.947Z</time></trkpt><trkpt lat="45.4491905" lon="7.6733069"><ele>1059.9999999999998</ele><time>2026-04-11T15:29:36.008Z</time></trkpt><trkpt lat="45.4491606" lon="7.6734029"><ele>1060.0</ele><time>2026-04-11T15:29:37.012Z</time></trkpt><trkpt lat="45.4491398" lon="7.6734914"><ele>1060.0</ele><time>2026-04-11T15:29:37.945Z</time></trkpt><trkpt lat="45.4491644" lon="7.6735769"><ele>1060.0</ele><time>2026-04-11T15:29:38.954Z</time></trkpt><trkpt lat="45.4492035" lon="7.67365"><ele>1060.0</ele><time>2026-04-11T15:29:39.972Z</time></trkpt><trkpt lat="45.4492555" lon="7.6737211"><ele>1059.9999999999998</ele><time>2026-04-11T15:29:40.947Z</time></trkpt><trkpt lat="45.449325" lon="7.6737726"><ele>1060.0</ele><time>2026-04-11T15:29:41.95Z</time></trkpt><trkpt lat="45.4494074" lon="7.6737921"><ele>1060.8</ele><time>2026-04-11T15:29:42.94Z</time></trkpt><trkpt lat="45.4494893" lon="7.6738056"><ele>1061.6</ele><time>2026-04-11T15:29:43.95Z</time></trkpt><trkpt lat="45.4495729" lon="7.6738464"><ele>1062.4</ele><time>2026-04-11T15:29:44.948Z</time></trkpt><trkpt lat="45.449654" lon="7.6739195"><ele>1063.2</ele><time>2026-04-11T15:29:45.957Z</time></trkpt><trkpt lat="45.4497264" lon="7.6740064"><ele>1064.0</ele><time>2026-04-11T15:29:46.942Z</time></trkpt><trkpt lat="45.4498041" lon="7.6740965"><ele>1064.0</ele><time>2026-04-11T15:29:47.936Z</time></trkpt><trkpt lat="45.4498852" lon="7.6741896"><ele>1064.0</ele><time>2026-04-11T15:29:48.946Z</time></trkpt><trkpt lat="45.4499668" lon="7.674292"><ele>1064.0</ele><time>2026-04-11T15:29:49.944Z</time></trkpt><trkpt lat="45.4500494" lon="7.6743862"><ele>1064.0</ele><time>2026-04-11T15:29:50.947Z</time></trkpt><trkpt lat="45.4501332" lon="7.6744597"><ele>1064.0</ele><time>2026-04-11T15:29:51.944Z</time></trkpt><trkpt lat="45.4502257" lon="7.6745216"><ele>1060.0</ele><time>2026-04-11T15:29:52.946Z</time></trkpt><trkpt lat="45.4503139" lon="7.674566"><ele>1056.0</ele><time>2026-04-11T15:29:53.95Z</time></trkpt><trkpt lat="45.4503991" lon="7.6745965"><ele>1052.0</ele><time>2026-04-11T15:29:54.95Z</time></trkpt><trkpt lat="45.4504774" lon="7.674612"><ele>1048.0</ele><time>2026-04-11T15:29:55.95Z</time></trkpt><trkpt lat="45.450571" lon="7.6746803"><ele>1044.0</ele><time>2026-04-11T15:29:57.982Z</time></trkpt><trkpt lat="45.4505338" lon="7.6748274"><ele>1044.0</ele><time>2026-04-11T15:29:59.956Z</time></trkpt><trkpt lat="45.4504808" lon="7.6748782"><ele>1044.0</ele><time>2026-04-11T15:30:00.949Z</time></trkpt><trkpt lat="45.4503893" lon="7.6749663"><ele>1044.0</ele><time>2026-04-11T15:30:02.95Z</time></trkpt><trkpt lat="45.4503196" lon="7.67509"><ele>1044.0</ele><time>2026-04-11T15:30:04.952Z</time></trkpt><trkpt lat="45.4502444" lon="7.6752045"><ele>1044.0</ele><time>2026-04-11T15:30:06.957Z</time></trkpt><trkpt lat="45.4501936" lon="7.6752653"><ele>1041.6666666666667</ele><time>2026-04-11T15:30:07.955Z</time></trkpt><trkpt lat="45.4501405" lon="7.6753272"><ele>1039.3333333333333</ele><time>2026-04-11T15:30:08.947Z</time></trkpt><trkpt lat="45.450089" lon="7.6754097"><ele>1037.0</ele><time>2026-04-11T15:30:09.951Z</time></trkpt><trkpt lat="45.4500331" lon="7.6755037"><ele>1034.6666666666665</ele><time>2026-04-11T15:30:10.938Z</time></trkpt><trkpt lat="45.449977" lon="7.6756112"><ele>1032.3333333333333</ele><time>2026-04-11T15:30:12.024Z</time></trkpt><trkpt lat="45.4499194" lon="7.6757271"><ele>1030.0</ele><time>2026-04-11T15:30:12.949Z</time></trkpt><trkpt lat="45.449868" lon="7.6758539"><ele>1030.0</ele><time>2026-04-11T15:30:13.952Z</time></trkpt><trkpt lat="45.4498296" lon="7.6760012"><ele>1030.0</ele><time>2026-04-11T15:30:14.979Z</time></trkpt><trkpt lat="45.4498119" lon="7.6761557"><ele>1030.0</ele><time>2026-04-11T15:30:16.014Z</time></trkpt><trkpt lat="45.449807" lon="7.6763055"><ele>1030.0</ele><time>2026-04-11T15:30:17.016Z</time></trkpt><trkpt lat="45.4498031" lon="7.6764612"><ele>1030.0</ele><time>2026-04-11T15:30:17.954Z</time></trkpt><trkpt lat="45.4497917" lon="7.6766096"><ele>1027.2</ele><time>2026-04-11T15:30:18.951Z</time></trkpt><trkpt lat="45.4497806" lon="7.6767691"><ele>1024.4</ele><time>2026-04-11T15:30:19.958Z</time></trkpt><trkpt lat="45.4497733" lon="7.6769241"><ele>1021.5999999999999</ele><time>2026-04-11T15:30:21.008Z</time></trkpt><trkpt lat="45.4497673" lon="7.6770785"><ele>1018.8</ele><time>2026-04-11T15:30:22.019Z</time></trkpt><trkpt lat="45.4497561" lon="7.6772337"><ele>1016.0</ele><time>2026-04-11T15:30:22.94Z</time></trkpt><trkpt lat="45.4497383" lon="7.6773819"><ele>1014.8333333333334</ele><time>2026-04-11T15:30:23.94Z</time></trkpt><trkpt lat="45.449716" lon="7.6775191"><ele>1013.6666666666667</ele><time>2026-04-11T15:30:24.962Z</time></trkpt><trkpt lat="45.4496904" lon="7.6776431"><ele>1012.5</ele><time>2026-04-11T15:30:26.008Z</time></trkpt><trkpt lat="45.4496598" lon="7.6777533"><ele>1011.3333333333333</ele><time>2026-04-11T15:30:27.017Z</time></trkpt><trkpt lat="45.4495983" lon="7.6778197"><ele>1010.1666666666666</ele><time>2026-04-11T15:30:27.948Z</time></trkpt><trkpt lat="45.4495359" lon="7.6778633"><ele>1009.0</ele><time>2026-04-11T15:30:28.951Z</time></trkpt><trkpt lat="45.4494618" lon="7.6779048"><ele>1008.6</ele><time>2026-04-11T15:30:29.948Z</time></trkpt><trkpt lat="45.4493506" lon="7.6779249"><ele>1008.2</ele><time>2026-04-11T15:30:31.941Z</time></trkpt><trkpt lat="45.4492907" lon="7.6778479"><ele>1007.8000000000001</ele><time>2026-04-11T15:30:33.945Z</time></trkpt><trkpt lat="45.4492993" lon="7.6776966"><ele>1007.4000000000001</ele><time>2026-04-11T15:30:35.951Z</time></trkpt><trkpt lat="45.44928" lon="7.6775528"><ele>1007.0</ele><time>2026-04-11T15:30:37.94Z</time></trkpt><trkpt lat="45.4492348" lon="7.677408"><ele>1007.0</ele><time>2026-04-11T15:30:39.955Z</time></trkpt><trkpt lat="45.4492115" lon="7.6772369"><ele>1007.0</ele><time>2026-04-11T15:30:41.951Z</time></trkpt><trkpt lat="45.4491894" lon="7.677149"><ele>1007.0</ele><time>2026-04-11T15:30:42.952Z</time></trkpt><trkpt lat="45.4491287" lon="7.6770064"><ele>1007.0</ele><time>2026-04-11T15:30:44.954Z</time></trkpt><trkpt lat="45.449055" lon="7.6768916"><ele>1007.0</ele><time>2026-04-11T15:30:46.946Z</time></trkpt><trkpt lat="45.4489723" lon="7.6767824"><ele>1009.0000000000001</ele><time>2026-04-11T15:30:48.948Z</time></trkpt><trkpt lat="45.4488663" lon="7.6766995"><ele>1011.0</ele><time>2026-04-11T15:30:50.945Z</time></trkpt><trkpt lat="45.4487957" lon="7.676677"><ele>1013.0</ele><time>2026-04-11T15:30:51.947Z</time></trkpt><trkpt lat="45.4487307" lon="7.6766521"><ele>1015.0</ele><time>2026-04-11T15:30:52.955Z</time></trkpt><trkpt lat="45.4486741" lon="7.6766039"><ele>1017.0000000000001</ele><time>2026-04-11T15:30:53.945Z</time></trkpt><trkpt lat="45.4486272" lon="7.6765228"><ele>1019.0</ele><time>2026-04-11T15:30:54.94Z</time></trkpt><trkpt lat="45.4485785" lon="7.6764511"><ele>1018.6666666666667</ele><time>2026-04-11T15:30:55.943Z</time></trkpt><trkpt lat="45.4485144" lon="7.6763809"><ele>1018.3333333333334</ele><time>2026-04-11T15:30:56.943Z</time></trkpt><trkpt lat="45.4484418" lon="7.6763178"><ele>1018.0</ele><time>2026-04-11T15:30:57.954Z</time></trkpt><trkpt lat="45.4483667" lon="7.6762571"><ele>1017.6666666666667</ele><time>2026-04-11T15:30:58.957Z</time></trkpt><trkpt lat="45.4482869" lon="7.6762047"><ele>1017.3333333333334</ele><time>2026-04-11T15:30:59.951Z</time></trkpt><trkpt lat="45.4482018" lon="7.6761482"><ele>1017.0</ele><time>2026-04-11T15:31:00.951Z</time></trkpt><trkpt lat="45.4481198" lon="7.6760947"><ele>1017.0</ele><time>2026-04-11T15:31:01.951Z</time></trkpt><trkpt lat="45.4480364" lon="7.6760479"><ele>1017.0</ele><time>2026-04-11T15:31:02.948Z</time></trkpt><trkpt lat="45.4479455" lon="7.6760093"><ele>1017.0</ele><time>2026-04-11T15:31:03.949Z</time></trkpt><trkpt lat="45.4478581" lon="7.6759735"><ele>1017.0</ele><time>2026-04-11T15:31:04.969Z</time></trkpt><trkpt lat="45.4477591" lon="7.6759393"><ele>1017.0</ele><time>2026-04-11T15:31:05.952Z</time></trkpt><trkpt lat="45.4476596" lon="7.6759013"><ele>1012.6</ele><time>2026-04-11T15:31:06.949Z</time></trkpt><trkpt lat="45.4475537" lon="7.6758665"><ele>1008.2</ele><time>2026-04-11T15:31:07.941Z</time></trkpt><trkpt lat="45.4474579" lon="7.6758355"><ele>1003.8</ele><time>2026-04-11T15:31:08.953Z</time></trkpt><trkpt lat="45.4473778" lon="7.6757987"><ele>999.4</ele><time>2026-04-11T15:31:09.954Z</time></trkpt><trkpt lat="45.4473181" lon="7.6757618"><ele>995.0</ele><time>2026-04-11T15:31:10.947Z</time></trkpt><trkpt lat="45.447247" lon="7.6756061"><ele>995.0000000000001</ele><time>2026-04-11T15:31:12.953Z</time></trkpt><trkpt lat="45.4472353" lon="7.6754718"><ele>995.0</ele><time>2026-04-11T15:31:13.946Z</time></trkpt><trkpt lat="45.4472465" lon="7.6753474"><ele>995.0</ele><time>2026-04-11T15:31:14.949Z</time></trkpt><trkpt lat="45.4472617" lon="7.6752325"><ele>995.0</ele><time>2026-04-11T15:31:15.94Z</time></trkpt><trkpt lat="45.447243" lon="7.6750979"><ele>995.0000000000001</ele><time>2026-04-11T15:31:17.959Z</time></trkpt><trkpt lat="45.4471636" lon="7.6751305"><ele>995.0</ele><time>2026-04-11T15:31:19.951Z</time></trkpt><trkpt lat="45.4471036" lon="7.6752464"><ele>989.1666666666667</ele><time>2026-04-11T15:31:21.951Z</time></trkpt><trkpt lat="45.4470713" lon="7.6753344"><ele>983.3333333333334</ele><time>2026-04-11T15:31:22.945Z</time></trkpt><trkpt lat="45.4470353" lon="7.6754287"><ele>977.5</ele><time>2026-04-11T15:31:23.945Z</time></trkpt><trkpt lat="45.4469951" lon="7.6755352"><ele>971.6666666666667</ele><time>2026-04-11T15:31:24.942Z</time></trkpt><trkpt lat="45.4469527" lon="7.6756443"><ele>965.8333333333334</ele><time>2026-04-11T15:31:25.938Z</time></trkpt><trkpt lat="45.4469195" lon="7.6757539"><ele>960.0</ele><time>2026-04-11T15:31:26.952Z</time></trkpt><trkpt lat="45.4469056" lon="7.6758578"><ele>960.0</ele><time>2026-04-11T15:31:27.96Z</time></trkpt><trkpt lat="45.4469051" lon="7.6759588"><ele>960.0</ele><time>2026-04-11T15:31:28.948Z</time></trkpt><trkpt lat="45.4469449" lon="7.676075"><ele>960.0</ele><time>2026-04-11T15:31:29.95Z</time></trkpt><trkpt lat="45.4469911" lon="7.676181"><ele>960.0</ele><time>2026-04-11T15:31:30.949Z</time></trkpt><trkpt lat="45.4470388" lon="7.676286"><ele>960.0</ele><time>2026-04-11T15:31:31.953Z</time></trkpt><trkpt lat="45.4470842" lon="7.6763789"><ele>960.0</ele><time>2026-04-11T15:31:32.951Z</time></trkpt><trkpt lat="45.4471302" lon="7.6764734"><ele>959.3333333333334</ele><time>2026-04-11T15:31:33.952Z</time></trkpt><trkpt lat="45.4471771" lon="7.6765599"><ele>958.6666666666667</ele><time>2026-04-11T15:31:34.953Z</time></trkpt><trkpt lat="45.4472332" lon="7.6766354"><ele>958.0</ele><time>2026-04-11T15:31:35.954Z</time></trkpt><trkpt lat="45.4472897" lon="7.6767065"><ele>957.3333333333334</ele><time>2026-04-11T15:31:36.948Z</time></trkpt><trkpt lat="45.4473514" lon="7.67677"><ele>956.6666666666667</ele><time>2026-04-11T15:31:37.948Z</time></trkpt><trkpt lat="45.4474062" lon="7.676822"><ele>956.0</ele><time>2026-04-11T15:31:38.949Z</time></trkpt><trkpt lat="45.4474681" lon="7.6769378"><ele>956.0000000000001</ele><time>2026-04-11T15:31:40.949Z</time></trkpt><trkpt lat="45.4474346" lon="7.677026"><ele>956.0</ele><time>2026-04-11T15:31:42.948Z</time></trkpt><trkpt lat="45.4473191" lon="7.6770058"><ele>956.0</ele><time>2026-04-11T15:31:44.954Z</time></trkpt><trkpt lat="45.4472511" lon="7.6769764"><ele>956.0</ele><time>2026-04-11T15:31:45.943Z</time></trkpt><trkpt lat="45.4471802" lon="7.6769429"><ele>956.0000000000001</ele><time>2026-04-11T15:31:46.952Z</time></trkpt><trkpt lat="45.4471097" lon="7.6769208"><ele>956.0</ele><time>2026-04-11T15:31:47.95Z</time></trkpt><trkpt lat="45.4470305" lon="7.6768924"><ele>955.5999999999999</ele><time>2026-04-11T15:31:48.945Z</time></trkpt><trkpt lat="45.4469361" lon="7.6768638"><ele>955.1999999999999</ele><time>2026-04-11T15:31:49.937Z</time></trkpt><trkpt lat="45.446838" lon="7.6768324"><ele>954.8000000000001</ele><time>2026-04-11T15:31:50.941Z</time></trkpt><trkpt lat="45.4467347" lon="7.6768105"><ele>954.4000000000001</ele><time>2026-04-11T15:31:51.942Z</time></trkpt><trkpt lat="45.4466328" lon="7.6767848"><ele>954.0</ele><time>2026-04-11T15:31:52.944Z</time></trkpt><trkpt lat="45.4465373" lon="7.6767577"><ele>954.0</ele><time>2026-04-11T15:31:53.948Z</time></trkpt><trkpt lat="45.4464381" lon="7.6767119"><ele>954.0000000000001</ele><time>2026-04-11T15:31:55.003Z</time></trkpt><trkpt lat="45.4463465" lon="7.6766392"><ele>954.0000000000001</ele><time>2026-04-11T15:31:55.945Z</time></trkpt><trkpt lat="45.4462678" lon="7.6765603"><ele>954.0</ele><time>2026-04-11T15:31:56.936Z</time></trkpt><trkpt lat="45.446197" lon="7.6764808"><ele>954.0</ele><time>2026-04-11T15:31:57.951Z</time></trkpt><trkpt lat="45.4461465" lon="7.6763877"><ele>948.8333333333334</ele><time>2026-04-11T15:31:58.949Z</time></trkpt><trkpt lat="45.4461019" lon="7.676308"><ele>943.6666666666667</ele><time>2026-04-11T15:31:59.948Z</time></trkpt><trkpt lat="45.4460354" lon="7.6763291"><ele>938.5</ele><time>2026-04-11T15:32:02.955Z</time></trkpt><trkpt lat="45.4460573" lon="7.6764959"><ele>933.3333333333334</ele><time>2026-04-11T15:32:04.95Z</time></trkpt><trkpt lat="45.4460885" lon="7.6765912"><ele>928.1666666666667</ele><time>2026-04-11T15:32:05.942Z</time></trkpt><trkpt lat="45.4461185" lon="7.6766779"><ele>923.0</ele><time>2026-04-11T15:32:06.95Z</time></trkpt><trkpt lat="45.4461519" lon="7.6767836"><ele>923.0</ele><time>2026-04-11T15:32:07.948Z</time></trkpt><trkpt lat="45.44618" lon="7.6768981"><ele>923.0</ele><time>2026-04-11T15:32:08.952Z</time></trkpt><trkpt lat="45.4462153" lon="7.6770132"><ele>923.0</ele><time>2026-04-11T15:32:09.955Z</time></trkpt><trkpt lat="45.4462574" lon="7.6771304"><ele>923.0</ele><time>2026-04-11T15:32:10.951Z</time></trkpt><trkpt lat="45.4463056" lon="7.6772449"><ele>923.0</ele><time>2026-04-11T15:32:11.96Z</time></trkpt><trkpt lat="45.4463518" lon="7.6773654"><ele>923.4</ele><time>2026-04-11T15:32:12.953Z</time></trkpt><trkpt lat="45.4463893" lon="7.6774772"><ele>923.8</ele><time>2026-04-11T15:32:13.953Z</time></trkpt><trkpt lat="45.4464142" lon="7.6775734"><ele>924.2</ele><time>2026-04-11T15:32:14.94Z</time></trkpt><trkpt lat="45.4464147" lon="7.6777191"><ele>924.6</ele><time>2026-04-11T15:32:16.948Z</time></trkpt><trkpt lat="45.4463567" lon="7.6778122"><ele>925.0</ele><time>2026-04-11T15:32:18.942Z</time></trkpt><trkpt lat="45.4462516" lon="7.6777333"><ele>923.6666666666666</ele><time>2026-04-11T15:32:20.941Z</time></trkpt><trkpt lat="45.4461984" lon="7.6776848"><ele>922.3333333333333</ele><time>2026-04-11T15:32:21.95Z</time></trkpt><trkpt lat="45.4461194" lon="7.6776724"><ele>921.0</ele><time>2026-04-11T15:32:23.952Z</time></trkpt><trkpt lat="45.4460324" lon="7.6777666"><ele>919.6666666666667</ele><time>2026-04-11T15:32:25.94Z</time></trkpt><trkpt lat="45.4459809" lon="7.6778362"><ele>918.3333333333334</ele><time>2026-04-11T15:32:26.948Z</time></trkpt><trkpt lat="45.4459402" lon="7.6779236"><ele>917.0</ele><time>2026-04-11T15:32:27.955Z</time></trkpt><trkpt lat="45.4459601" lon="7.6780851"><ele>915.4000000000001</ele><time>2026-04-11T15:32:29.954Z</time></trkpt><trkpt lat="45.4460017" lon="7.6781784"><ele>913.8000000000001</ele><time>2026-04-11T15:32:30.954Z</time></trkpt><trkpt lat="45.446044" lon="7.6782888"><ele>912.2</ele><time>2026-04-11T15:32:31.949Z</time></trkpt><trkpt lat="45.4460734" lon="7.6784157"><ele>910.6</ele><time>2026-04-11T15:32:32.952Z</time></trkpt><trkpt lat="45.4460894" lon="7.6785498"><ele>909.0</ele><time>2026-04-11T15:32:33.95Z</time></trkpt><trkpt lat="45.446099" lon="7.6786846"><ele>906.4000000000001</ele><time>2026-04-11T15:32:34.947Z</time></trkpt><trkpt lat="45.4461031" lon="7.6788305"><ele>903.8000000000001</ele><time>2026-04-11T15:32:35.948Z</time></trkpt><trkpt lat="45.446104" lon="7.6789715"><ele>901.1999999999999</ele><time>2026-04-11T15:32:36.948Z</time></trkpt><trkpt lat="45.4461118" lon="7.6791218"><ele>898.5999999999999</ele><time>2026-04-11T15:32:37.951Z</time></trkpt><trkpt lat="45.446108" lon="7.6792362"><ele>896.0</ele><time>2026-04-11T15:32:38.952Z</time></trkpt><trkpt lat="45.4461053" lon="7.6793297"><ele>896.8333333333334</ele><time>2026-04-11T15:32:39.949Z</time></trkpt><trkpt lat="45.4461388" lon="7.6794393"><ele>897.6666666666667</ele><time>2026-04-11T15:32:41.955Z</time></trkpt><trkpt lat="45.4462407" lon="7.6795009"><ele>898.5</ele><time>2026-04-11T15:32:43.951Z</time></trkpt><trkpt lat="45.446306" lon="7.6795459"><ele>899.3333333333333</ele><time>2026-04-11T15:32:44.949Z</time></trkpt><trkpt lat="45.4463789" lon="7.6795961"><ele>900.1666666666666</ele><time>2026-04-11T15:32:45.945Z</time></trkpt><trkpt lat="45.4464525" lon="7.679664"><ele>901.0</ele><time>2026-04-11T15:32:47.037Z</time></trkpt><trkpt lat="45.4465249" lon="7.6797462"><ele>900.9999999999999</ele><time>2026-04-11T15:32:47.963Z</time></trkpt><trkpt lat="45.446593" lon="7.6798245"><ele>901.0</ele><time>2026-04-11T15:32:48.967Z</time></trkpt><trkpt lat="45.4466655" lon="7.679904"><ele>901.0</ele><time>2026-04-11T15:32:49.964Z</time></trkpt><trkpt lat="45.4467383" lon="7.6799875"><ele>901.0</ele><time>2026-04-11T15:32:51.027Z</time></trkpt><trkpt lat="45.4467916" lon="7.6800685"><ele>900.9999999999999</ele><time>2026-04-11T15:32:52.022Z</time></trkpt><trkpt lat="45.4468235" lon="7.6801486"><ele>901.0</ele><time>2026-04-11T15:32:52.95Z</time></trkpt><trkpt lat="45.4467911" lon="7.6803054"><ele>896.6666666666666</ele><time>2026-04-11T15:32:54.985Z</time></trkpt><trkpt lat="45.4467445" lon="7.6803669"><ele>892.3333333333333</ele><time>2026-04-11T15:32:56.019Z</time></trkpt><trkpt lat="45.446693" lon="7.6804234"><ele>888.0</ele><time>2026-04-11T15:32:57.017Z</time></trkpt><trkpt lat="45.4466215" lon="7.6804846"><ele>883.6666666666667</ele><time>2026-04-11T15:32:57.951Z</time></trkpt><trkpt lat="45.4465296" lon="7.6805352"><ele>879.3333333333334</ele><time>2026-04-11T15:32:58.948Z</time></trkpt><trkpt lat="45.4464353" lon="7.6805528"><ele>875.0</ele><time>2026-04-11T15:32:59.969Z</time></trkpt><trkpt lat="45.446338" lon="7.6805545"><ele>873.4</ele><time>2026-04-11T15:33:00.985Z</time></trkpt><trkpt lat="45.4462355" lon="7.6805198"><ele>871.8</ele><time>2026-04-11T15:33:01.979Z</time></trkpt><trkpt lat="45.446143" lon="7.6804825"><ele>870.2</ele><time>2026-04-11T15:33:02.95Z</time></trkpt><trkpt lat="45.4460524" lon="7.6804434"><ele>868.6</ele><time>2026-04-11T15:33:04.011Z</time></trkpt><trkpt lat="45.4459731" lon="7.6804036"><ele>867.0</ele><time>2026-04-11T15:33:05.021Z</time></trkpt><trkpt lat="45.4458968" lon="7.6803758"><ele>867.0</ele><time>2026-04-11T15:33:05.95Z</time></trkpt><trkpt lat="45.4458182" lon="7.6803445"><ele>867.0</ele><time>2026-04-11T15:33:06.953Z</time></trkpt><trkpt lat="45.4457424" lon="7.6803138"><ele>867.0</ele><time>2026-04-11T15:33:07.95Z</time></trkpt><trkpt lat="45.4456633" lon="7.6802997"><ele>867.0</ele><time>2026-04-11T15:33:08.954Z</time></trkpt><trkpt lat="45.4455873" lon="7.6802949"><ele>867.0</ele><time>2026-04-11T15:33:09.955Z</time></trkpt><trkpt lat="45.445507" lon="7.6803064"><ele>867.0</ele><time>2026-04-11T15:33:10.95Z</time></trkpt><trkpt lat="45.4454326" lon="7.680305"><ele>866.5714285714286</ele><time>2026-04-11T15:33:12.018Z</time></trkpt><trkpt lat="45.4453559" lon="7.6803085"><ele>866.1428571428572</ele><time>2026-04-11T15:33:12.981Z</time></trkpt><trkpt lat="45.4452868" lon="7.6802963"><ele>865.7142857142858</ele><time>2026-04-11T15:33:14.018Z</time></trkpt><trkpt lat="45.4452297" lon="7.6802486"><ele>865.2857142857142</ele><time>2026-04-11T15:33:14.958Z</time></trkpt><trkpt lat="45.4451778" lon="7.6801879"><ele>864.8571428571429</ele><time>2026-04-11T15:33:15.951Z</time></trkpt><trkpt lat="45.4451312" lon="7.6801185"><ele>864.4285714285714</ele><time>2026-04-11T15:33:16.958Z</time></trkpt><trkpt lat="45.4450524" lon="7.6800444"><ele>864.0</ele><time>2026-04-11T15:33:18.953Z</time></trkpt><trkpt lat="45.4449892" lon="7.6800477"><ele>864.0</ele><time>2026-04-11T15:33:20.955Z</time></trkpt><trkpt lat="45.444929" lon="7.6801154"><ele>864.0</ele><time>2026-04-11T15:33:52.955Z</time></trkpt><trkpt lat="45.4449106" lon="7.6802234"><ele>864.0</ele><time>2026-04-11T15:33:55.952Z</time></trkpt><trkpt lat="45.4449238" lon="7.68033"><ele>864.0</ele><time>2026-04-11T15:33:57.956Z</time></trkpt><trkpt lat="45.4449745" lon="7.6804431"><ele>864.0</ele><time>2026-04-11T15:34:00.047Z</time></trkpt><trkpt lat="45.4450425" lon="7.680584"><ele>864.0</ele><time>2026-04-11T15:34:01.951Z</time></trkpt><trkpt lat="45.4450817" lon="7.6806698"><ele>862.8333333333334</ele><time>2026-04-11T15:34:02.95Z</time></trkpt><trkpt lat="45.4451247" lon="7.6807612"><ele>861.6666666666667</ele><time>2026-04-11T15:34:03.951Z</time></trkpt><trkpt lat="45.4451703" lon="7.6808568"><ele>860.5</ele><time>2026-04-11T15:34:04.954Z</time></trkpt><trkpt lat="45.4452145" lon="7.6809531"><ele>859.3333333333334</ele><time>2026-04-11T15:34:06.016Z</time></trkpt><trkpt lat="45.445261" lon="7.6810491"><ele>858.1666666666667</ele><time>2026-04-11T15:34:07.017Z</time></trkpt><trkpt lat="45.4453166" lon="7.6811487"><ele>857.0</ele><time>2026-04-11T15:34:07.954Z</time></trkpt><trkpt lat="45.4453754" lon="7.6812388"><ele>856.1666666666667</ele><time>2026-04-11T15:34:08.952Z</time></trkpt><trkpt lat="45.4454358" lon="7.6813103"><ele>855.3333333333334</ele><time>2026-04-11T15:34:09.962Z</time></trkpt><trkpt lat="45.445495" lon="7.6813798"><ele>854.5</ele><time>2026-04-11T15:34:10.955Z</time></trkpt><trkpt lat="45.4455615" lon="7.6814377"><ele>853.6666666666667</ele><time>2026-04-11T15:34:11.947Z</time></trkpt><trkpt lat="45.4456304" lon="7.6814939"><ele>852.8333333333334</ele><time>2026-04-11T15:34:12.954Z</time></trkpt><trkpt lat="45.4456955" lon="7.6815557"><ele>852.0</ele><time>2026-04-11T15:34:13.958Z</time></trkpt><trkpt lat="45.4457607" lon="7.6816223"><ele>852.0</ele><time>2026-04-11T15:34:15.013Z</time></trkpt><trkpt lat="45.445823" lon="7.6816882"><ele>852.0</ele><time>2026-04-11T15:34:16.013Z</time></trkpt><trkpt lat="45.4458731" lon="7.68177"><ele>852.0</ele><time>2026-04-11T15:34:17.015Z</time></trkpt><trkpt lat="45.4459082" lon="7.6818623"><ele>852.0</ele><time>2026-04-11T15:34:17.957Z</time></trkpt><trkpt lat="45.44594" lon="7.6819616"><ele>852.0</ele><time>2026-04-11T15:34:18.944Z</time></trkpt><trkpt lat="45.4459387" lon="7.6820651"><ele>852.0</ele><time>2026-04-11T15:34:19.953Z</time></trkpt><trkpt lat="45.4459225" lon="7.6821717"><ele>850.1666666666666</ele><time>2026-04-11T15:34:20.952Z</time></trkpt><trkpt lat="45.4458983" lon="7.6822719"><ele>848.3333333333333</ele><time>2026-04-11T15:34:22.018Z</time></trkpt><trkpt lat="45.4458608" lon="7.6823603"><ele>846.5</ele><time>2026-04-11T15:34:22.955Z</time></trkpt><trkpt lat="45.4457848" lon="7.6824033"><ele>844.6666666666666</ele><time>2026-04-11T15:34:23.953Z</time></trkpt><trkpt lat="45.4457026" lon="7.6824215"><ele>842.8333333333333</ele><time>2026-04-11T15:34:24.958Z</time></trkpt><trkpt lat="45.4456239" lon="7.6824095"><ele>841.0</ele><time>2026-04-11T15:34:26.008Z</time></trkpt><trkpt lat="45.4455559" lon="7.6823972"><ele>841.0</ele><time>2026-04-11T15:34:26.949Z</time></trkpt><trkpt lat="45.4454877" lon="7.6823849"><ele>841.0</ele><time>2026-04-11T15:34:27.946Z</time></trkpt><trkpt lat="45.4453681" lon="7.6823666"><ele>841.0</ele><time>2026-04-11T15:34:29.951Z</time></trkpt><trkpt lat="45.4452399" lon="7.6823517"><ele>841.0</ele><time>2026-04-11T15:34:31.942Z</time></trkpt><trkpt lat="45.4451702" lon="7.6823429"><ele>841.0</ele><time>2026-04-11T15:34:32.958Z</time></trkpt><trkpt lat="45.4451044" lon="7.6823466"><ele>840.3333333333333</ele><time>2026-04-11T15:34:34.011Z</time></trkpt><trkpt lat="45.4450309" lon="7.6823543"><ele>839.6666666666666</ele><time>2026-04-11T15:34:34.951Z</time></trkpt><trkpt lat="45.4449548" lon="7.6823859"><ele>839.0</ele><time>2026-04-11T15:34:35.953Z</time></trkpt><trkpt lat="45.4448773" lon="7.6824148"><ele>838.3333333333333</ele><time>2026-04-11T15:34:36.948Z</time></trkpt><trkpt lat="45.4448042" lon="7.6824407"><ele>837.6666666666666</ele><time>2026-04-11T15:34:37.961Z</time></trkpt><trkpt lat="45.444731" lon="7.6824637"><ele>837.0</ele><time>2026-04-11T15:34:38.949Z</time></trkpt><trkpt lat="45.4446537" lon="7.6824949"><ele>835.2</ele><time>2026-04-11T15:34:40.056Z</time></trkpt><trkpt lat="45.4445744" lon="7.6825149"><ele>833.4000000000001</ele><time>2026-04-11T15:34:41.02Z</time></trkpt><trkpt lat="45.4444734" lon="7.6825256"><ele>831.5999999999999</ele><time>2026-04-11T15:34:41.954Z</time></trkpt><trkpt lat="45.4443788" lon="7.6825087"><ele>829.8</ele><time>2026-04-11T15:34:42.956Z</time></trkpt><trkpt lat="45.4442838" lon="7.6824691"><ele>828.0</ele><time>2026-04-11T15:34:43.956Z</time></trkpt><trkpt lat="45.4441903" lon="7.682422"><ele>828.0</ele><time>2026-04-11T15:34:44.953Z</time></trkpt><trkpt lat="45.4440886" lon="7.6823838"><ele>828.0</ele><time>2026-04-11T15:34:45.957Z</time></trkpt><trkpt lat="45.4439806" lon="7.6823526"><ele>828.0</ele><time>2026-04-11T15:34:47.019Z</time></trkpt><trkpt lat="45.4438692" lon="7.682331"><ele>828.0</ele><time>2026-04-11T15:34:47.95Z</time></trkpt><trkpt lat="45.4437612" lon="7.6823272"><ele>828.0</ele><time>2026-04-11T15:34:48.955Z</time></trkpt><trkpt lat="45.4436572" lon="7.6823415"><ele>826.4</ele><time>2026-04-11T15:34:49.969Z</time></trkpt><trkpt lat="45.4435517" lon="7.6823745"><ele>824.8</ele><time>2026-04-11T15:34:50.952Z</time></trkpt><trkpt lat="45.4434474" lon="7.6824054"><ele>823.2</ele><time>2026-04-11T15:34:51.951Z</time></trkpt><trkpt lat="45.4433394" lon="7.6824359"><ele>821.6</ele><time>2026-04-11T15:34:52.949Z</time></trkpt><trkpt lat="45.4432306" lon="7.6824587"><ele>820.0</ele><time>2026-04-11T15:34:53.949Z</time></trkpt><trkpt lat="45.4431348" lon="7.682482"><ele>819.9999999999999</ele><time>2026-04-11T15:34:54.953Z</time></trkpt><trkpt lat="45.4430519" lon="7.6825129"><ele>820.0</ele><time>2026-04-11T15:34:56.022Z</time></trkpt><trkpt lat="45.4429906" lon="7.6825629"><ele>820.0</ele><time>2026-04-11T15:34:57.017Z</time></trkpt><trkpt lat="45.4429358" lon="7.6826932"><ele>820.0</ele><time>2026-04-11T15:34:58.954Z</time></trkpt><trkpt lat="45.442955" lon="7.6827837"><ele>819.9999999999999</ele><time>2026-04-11T15:35:00.949Z</time></trkpt><trkpt lat="45.4430533" lon="7.6828474"><ele>820.0</ele><time>2026-04-11T15:35:02.942Z</time></trkpt><trkpt lat="45.4431714" lon="7.6829161"><ele>818.0</ele><time>2026-04-11T15:35:04.95Z</time></trkpt><trkpt lat="45.443229" lon="7.6829538"><ele>816.0</ele><time>2026-04-11T15:35:05.957Z</time></trkpt><trkpt lat="45.4432961" lon="7.6829933"><ele>814.0</ele><time>2026-04-11T15:35:06.953Z</time></trkpt><trkpt lat="45.4433636" lon="7.6830234"><ele>812.0</ele><time>2026-04-11T15:35:07.953Z</time></trkpt><trkpt lat="45.4434288" lon="7.6830532"><ele>810.0</ele><time>2026-04-11T15:35:08.953Z</time></trkpt><trkpt lat="45.4434943" lon="7.6830879"><ele>808.0</ele><time>2026-04-11T15:35:10.048Z</time></trkpt><trkpt lat="45.4435481" lon="7.6831574"><ele>806.0</ele><time>2026-04-11T15:35:11.031Z</time></trkpt><trkpt lat="45.4435707" lon="7.6832426"><ele>806.0000000000001</ele><time>2026-04-11T15:35:11.954Z</time></trkpt><trkpt lat="45.4435743" lon="7.6833333"><ele>806.0</ele><time>2026-04-11T15:35:12.95Z</time></trkpt><trkpt lat="45.443562" lon="7.6834351"><ele>806.0</ele><time>2026-04-11T15:35:13.958Z</time></trkpt><trkpt lat="45.4435522" lon="7.6835347"><ele>806.0</ele><time>2026-04-11T15:35:15.026Z</time></trkpt><trkpt lat="45.443597" lon="7.6836863"><ele>806.0000000000001</ele><time>2026-04-11T15:35:17.023Z</time></trkpt><trkpt lat="45.4436482" lon="7.6837441"><ele>806.0</ele><time>2026-04-11T15:35:17.954Z</time></trkpt><trkpt lat="45.4437055" lon="7.6838043"><ele>804.6666666666667</ele><time>2026-04-11T15:35:18.957Z</time></trkpt><trkpt lat="45.4437689" lon="7.6838601"><ele>803.3333333333334</ele><time>2026-04-11T15:35:19.969Z</time></trkpt><trkpt lat="45.4438359" lon="7.683911"><ele>802.0</ele><time>2026-04-11T15:35:21.011Z</time></trkpt><trkpt lat="45.4439177" lon="7.6839419"><ele>800.6666666666667</ele><time>2026-04-11T15:35:22.046Z</time></trkpt><trkpt lat="45.4439993" lon="7.6839758"><ele>799.3333333333334</ele><time>2026-04-11T15:35:22.956Z</time></trkpt><trkpt lat="45.4440865" lon="7.6840128"><ele>798.0</ele><time>2026-04-11T15:35:23.954Z</time></trkpt><trkpt lat="45.4441695" lon="7.6840607"><ele>798.0</ele><time>2026-04-11T15:35:25.01Z</time></trkpt><trkpt lat="45.4442509" lon="7.6841192"><ele>798.0</ele><time>2026-04-11T15:35:25.956Z</time></trkpt><trkpt lat="45.4443229" lon="7.6841801"><ele>798.0</ele><time>2026-04-11T15:35:27.022Z</time></trkpt><trkpt lat="45.4444013" lon="7.6842381"><ele>798.0</ele><time>2026-04-11T15:35:27.953Z</time></trkpt><trkpt lat="45.4444858" lon="7.6842999"><ele>798.0</ele><time>2026-04-11T15:35:29.014Z</time></trkpt><trkpt lat="45.4445617" lon="7.684375"><ele>795.8</ele><time>2026-04-11T15:35:30.022Z</time></trkpt><trkpt lat="45.4446354" lon="7.6844695"><ele>793.5999999999999</ele><time>2026-04-11T15:35:30.955Z</time></trkpt><trkpt lat="45.4447026" lon="7.6845837"><ele>791.4000000000001</ele><time>2026-04-11T15:35:31.947Z</time></trkpt><trkpt lat="45.4447788" lon="7.6846937"><ele>789.2</ele><time>2026-04-11T15:35:32.958Z</time></trkpt><trkpt lat="45.4448579" lon="7.684791"><ele>787.0</ele><time>2026-04-11T15:35:33.953Z</time></trkpt><trkpt lat="45.4449343" lon="7.6848937"><ele>787.0</ele><time>2026-04-11T15:35:34.952Z</time></trkpt><trkpt lat="45.4450062" lon="7.6850008"><ele>787.0</ele><time>2026-04-11T15:35:36.002Z</time></trkpt><trkpt lat="45.4450674" lon="7.6851035"><ele>787.0</ele><time>2026-04-11T15:35:37.019Z</time></trkpt><trkpt lat="45.4451237" lon="7.6851928"><ele>787.0</ele><time>2026-04-11T15:35:37.942Z</time></trkpt><trkpt lat="45.4451785" lon="7.6852783"><ele>787.0</ele><time>2026-04-11T15:35:38.953Z</time></trkpt><trkpt lat="45.4452475" lon="7.6853508"><ele>788.1666666666666</ele><time>2026-04-11T15:35:39.976Z</time></trkpt><trkpt lat="45.4453306" lon="7.685398"><ele>789.3333333333333</ele><time>2026-04-11T15:35:40.951Z</time></trkpt><trkpt lat="45.445395" lon="7.6854617"><ele>790.5</ele><time>2026-04-11T15:35:41.956Z</time></trkpt><trkpt lat="45.4454492" lon="7.6855281"><ele>791.6666666666667</ele><time>2026-04-11T15:35:42.941Z</time></trkpt><trkpt lat="45.4454821" lon="7.6856905"><ele>792.8333333333334</ele><time>2026-04-11T15:35:45.01Z</time></trkpt><trkpt lat="45.4454565" lon="7.6857994"><ele>794.0</ele><time>2026-04-11T15:35:47.033Z</time></trkpt><trkpt lat="45.4454438" lon="7.6859264"><ele>791.0000000000001</ele><time>2026-04-11T15:35:48.949Z</time></trkpt><trkpt lat="45.4454159" lon="7.6860227"><ele>788.0</ele><time>2026-04-11T15:35:49.948Z</time></trkpt><trkpt lat="45.4453788" lon="7.6861403"><ele>785.0</ele><time>2026-04-11T15:35:51.023Z</time></trkpt><trkpt lat="45.4453354" lon="7.6862556"><ele>782.0</ele><time>2026-04-11T15:35:51.964Z</time></trkpt><trkpt lat="45.4452969" lon="7.6863533"><ele>779.0000000000001</ele><time>2026-04-11T15:35:52.983Z</time></trkpt><trkpt lat="45.4452964" lon="7.6864932"><ele>776.0</ele><time>2026-04-11T15:35:54.945Z</time></trkpt><trkpt lat="45.4453475" lon="7.6866084"><ele>777.1999999999999</ele><time>2026-04-11T15:35:56.951Z</time></trkpt><trkpt lat="45.4454214" lon="7.6866666"><ele>778.4</ele><time>2026-04-11T15:35:57.955Z</time></trkpt><trkpt lat="45.4455093" lon="7.6867243"><ele>779.6</ele><time>2026-04-11T15:35:58.946Z</time></trkpt><trkpt lat="45.4456106" lon="7.6867992"><ele>780.8</ele><time>2026-04-11T15:35:59.944Z</time></trkpt><trkpt lat="45.445741" lon="7.6868786"><ele>782.0</ele><time>2026-04-11T15:36:01.009Z</time></trkpt><trkpt lat="45.4458725" lon="7.6869546"><ele>782.0</ele><time>2026-04-11T15:36:01.948Z</time></trkpt><trkpt lat="45.4460137" lon="7.6870336"><ele>782.0</ele><time>2026-04-11T15:36:02.957Z</time></trkpt><trkpt lat="45.4461485" lon="7.687118"><ele>782.0</ele><time>2026-04-11T15:36:03.941Z</time></trkpt><trkpt lat="45.4462644" lon="7.6872127"><ele>782.0</ele><time>2026-04-11T15:36:04.944Z</time></trkpt><trkpt lat="45.4463721" lon="7.6872986"><ele>784.2</ele><time>2026-04-11T15:36:05.957Z</time></trkpt><trkpt lat="45.4464631" lon="7.6873764"><ele>786.4000000000001</ele><time>2026-04-11T15:36:06.991Z</time></trkpt><trkpt lat="45.4465479" lon="7.6874363"><ele>788.5999999999999</ele><time>2026-04-11T15:36:07.946Z</time></trkpt><trkpt lat="45.4466243" lon="7.6875223"><ele>790.8</ele><time>2026-04-11T15:36:08.941Z</time></trkpt><trkpt lat="45.4466923" lon="7.6876241"><ele>793.0</ele><time>2026-04-11T15:36:09.977Z</time></trkpt><trkpt lat="45.4467551" lon="7.6877352"><ele>792.0</ele><time>2026-04-11T15:36:10.946Z</time></trkpt><trkpt lat="45.4468022" lon="7.6878611"><ele>791.0</ele><time>2026-04-11T15:36:12.017Z</time></trkpt><trkpt lat="45.4468328" lon="7.6879818"><ele>790.0</ele><time>2026-04-11T15:36:12.951Z</time></trkpt><trkpt lat="45.4468464" lon="7.6881039"><ele>789.0</ele><time>2026-04-11T15:36:13.951Z</time></trkpt><trkpt lat="45.4468559" lon="7.6882349"><ele>788.0</ele><time>2026-04-11T15:36:14.987Z</time></trkpt><trkpt lat="45.4468675" lon="7.688363"><ele>788.0000000000001</ele><time>2026-04-11T15:36:16.016Z</time></trkpt><trkpt lat="45.4468695" lon="7.6885003"><ele>788.0</ele><time>2026-04-11T15:36:17.015Z</time></trkpt><trkpt lat="45.4468592" lon="7.6886156"><ele>788.0</ele><time>2026-04-11T15:36:17.948Z</time></trkpt><trkpt lat="45.4468461" lon="7.6887307"><ele>788.0</ele><time>2026-04-11T15:36:18.95Z</time></trkpt><trkpt lat="45.4468223" lon="7.6888196"><ele>788.0000000000001</ele><time>2026-04-11T15:36:19.967Z</time></trkpt><trkpt lat="45.4467461" lon="7.6889393"><ele>788.0</ele><time>2026-04-11T15:36:22.017Z</time></trkpt><trkpt lat="45.4466825" lon="7.6889591"><ele>792.4</ele><time>2026-04-11T15:36:22.948Z</time></trkpt><trkpt lat="45.4466054" lon="7.6889459"><ele>796.8</ele><time>2026-04-11T15:36:23.948Z</time></trkpt><trkpt lat="45.4465138" lon="7.688929"><ele>801.2</ele><time>2026-04-11T15:36:24.942Z</time></trkpt><trkpt lat="45.4464029" lon="7.6889108"><ele>805.6</ele><time>2026-04-11T15:36:26.013Z</time></trkpt><trkpt lat="45.446282" lon="7.6888901"><ele>810.0</ele><time>2026-04-11T15:36:27.015Z</time></trkpt><trkpt lat="45.4461576" lon="7.6888842"><ele>810.0</ele><time>2026-04-11T15:36:27.948Z</time></trkpt><trkpt lat="45.4460364" lon="7.6888667"><ele>810.0</ele><time>2026-04-11T15:36:28.948Z</time></trkpt><trkpt lat="45.445921" lon="7.688844"><ele>810.0</ele><time>2026-04-11T15:36:29.949Z</time></trkpt><trkpt lat="45.4457981" lon="7.6888149"><ele>810.0</ele><time>2026-04-11T15:36:30.947Z</time></trkpt><trkpt lat="45.4456788" lon="7.6887916"><ele>810.0</ele><time>2026-04-11T15:36:31.946Z</time></trkpt><trkpt lat="45.4455593" lon="7.6887656"><ele>810.0</ele><time>2026-04-11T15:36:32.941Z</time></trkpt><trkpt lat="45.4454388" lon="7.6887472"><ele>810.0</ele><time>2026-04-11T15:36:33.944Z</time></trkpt><trkpt lat="45.4453361" lon="7.6887055"><ele>810.0</ele><time>2026-04-11T15:36:34.961Z</time></trkpt><trkpt lat="45.4452386" lon="7.6886616"><ele>812.2</ele><time>2026-04-11T15:36:35.947Z</time></trkpt><trkpt lat="45.4451301" lon="7.6886155"><ele>814.4</ele><time>2026-04-11T15:36:37.031Z</time></trkpt><trkpt lat="45.44502" lon="7.688578"><ele>816.5999999999999</ele><time>2026-04-11T15:36:37.961Z</time></trkpt><trkpt lat="45.4449105" lon="7.6885585"><ele>818.8</ele><time>2026-04-11T15:36:38.951Z</time></trkpt><trkpt lat="45.4447997" lon="7.6885496"><ele>821.0</ele><time>2026-04-11T15:36:39.957Z</time></trkpt><trkpt lat="45.4447087" lon="7.6885301"><ele>815.4</ele><time>2026-04-11T15:36:40.953Z</time></trkpt><trkpt lat="45.4446263" lon="7.6885062"><ele>809.8</ele><time>2026-04-11T15:36:41.953Z</time></trkpt><trkpt lat="45.4445106" lon="7.6884594"><ele>804.1999999999999</ele><time>2026-04-11T15:36:43.96Z</time></trkpt><trkpt lat="45.4444701" lon="7.6883794"><ele>798.5999999999999</ele><time>2026-04-11T15:37:08.951Z</time></trkpt><trkpt lat="45.4443673" lon="7.6882764"><ele>793.0</ele><time>2026-04-11T15:37:10.958Z</time></trkpt><trkpt lat="45.4443036" lon="7.6882346"><ele>792.9999999999999</ele><time>2026-04-11T15:37:11.948Z</time></trkpt><trkpt lat="45.4442316" lon="7.6881949"><ele>793.0</ele><time>2026-04-11T15:37:12.949Z</time></trkpt><trkpt lat="45.4441501" lon="7.6881776"><ele>793.0</ele><time>2026-04-11T15:37:13.957Z</time></trkpt><trkpt lat="45.4440723" lon="7.6881703"><ele>793.0</ele><time>2026-04-11T15:37:14.943Z</time></trkpt><trkpt lat="45.4439977" lon="7.6881607"><ele>792.9999999999999</ele><time>2026-04-11T15:37:15.949Z</time></trkpt><trkpt lat="45.4439212" lon="7.6881586"><ele>793.0</ele><time>2026-04-11T15:37:16.941Z</time></trkpt><trkpt lat="45.4438436" lon="7.6881496"><ele>793.3333333333333</ele><time>2026-04-11T15:37:17.95Z</time></trkpt><trkpt lat="45.4437587" lon="7.6881423"><ele>793.6666666666666</ele><time>2026-04-11T15:37:18.948Z</time></trkpt><trkpt lat="45.4436781" lon="7.6881233"><ele>794.0</ele><time>2026-04-11T15:37:19.949Z</time></trkpt><trkpt lat="45.4435953" lon="7.6880933"><ele>794.3333333333333</ele><time>2026-04-11T15:37:20.959Z</time></trkpt><trkpt lat="45.4435087" lon="7.6880677"><ele>794.6666666666666</ele><time>2026-04-11T15:37:21.954Z</time></trkpt><trkpt lat="45.4434194" lon="7.6880398"><ele>795.0</ele><time>2026-04-11T15:37:22.951Z</time></trkpt><trkpt lat="45.4433285" lon="7.6880334"><ele>795.0</ele><time>2026-04-11T15:37:23.962Z</time></trkpt><trkpt lat="45.4432324" lon="7.6880245"><ele>795.0</ele><time>2026-04-11T15:37:24.953Z</time></trkpt><trkpt lat="45.4431424" lon="7.6880134"><ele>795.0</ele><time>2026-04-11T15:37:25.961Z</time></trkpt><trkpt lat="45.4430532" lon="7.6879992"><ele>795.0</ele><time>2026-04-11T15:37:26.954Z</time></trkpt><trkpt lat="45.4429837" lon="7.6879985"><ele>795.0</ele><time>2026-04-11T15:37:27.955Z</time></trkpt><trkpt lat="45.4429166" lon="7.6880009"><ele>795.0</ele><time>2026-04-11T15:37:28.959Z</time></trkpt><trkpt lat="45.4428372" lon="7.6880084"><ele>794.6</ele><time>2026-04-11T15:37:29.953Z</time></trkpt><trkpt lat="45.4427478" lon="7.6880294"><ele>794.2</ele><time>2026-04-11T15:37:30.961Z</time></trkpt><trkpt lat="45.4426481" lon="7.6880601"><ele>793.8</ele><time>2026-04-11T15:37:31.964Z</time></trkpt><trkpt lat="45.4425507" lon="7.68809"><ele>793.4</ele><time>2026-04-11T15:37:32.958Z</time></trkpt><trkpt lat="45.4424453" lon="7.6881254"><ele>793.0</ele><time>2026-04-11T15:37:33.955Z</time></trkpt><trkpt lat="45.4423383" lon="7.6881517"><ele>793.0</ele><time>2026-04-11T15:37:34.954Z</time></trkpt><trkpt lat="45.4422391" lon="7.6881582"><ele>793.0</ele><time>2026-04-11T15:37:35.962Z</time></trkpt><trkpt lat="45.442136" lon="7.6881335"><ele>793.0</ele><time>2026-04-11T15:37:36.954Z</time></trkpt><trkpt lat="45.4420349" lon="7.6880923"><ele>793.0</ele><time>2026-04-11T15:37:37.952Z</time></trkpt><trkpt lat="45.4419343" lon="7.6880501"><ele>793.0</ele><time>2026-04-11T15:37:38.956Z</time></trkpt><trkpt lat="45.4418308" lon="7.6880046"><ele>794.5</ele><time>2026-04-11T15:37:39.958Z</time></trkpt><trkpt lat="45.4417229" lon="7.6879544"><ele>796.0</ele><time>2026-04-11T15:37:40.952Z</time></trkpt><trkpt lat="45.4416037" lon="7.6879024"><ele>797.5</ele><time>2026-04-11T15:37:41.954Z</time></trkpt><trkpt lat="45.4414807" lon="7.6878574"><ele>799.0</ele><time>2026-04-11T15:37:42.956Z</time></trkpt><trkpt lat="45.4413565" lon="7.6878128"><ele>794.6</ele><time>2026-04-11T15:37:43.96Z</time></trkpt><trkpt lat="45.4412368" lon="7.6877591"><ele>790.2</ele><time>2026-04-11T15:37:44.961Z</time></trkpt><trkpt lat="45.4411293" lon="7.6877174"><ele>785.8000000000001</ele><time>2026-04-11T15:37:45.947Z</time></trkpt><trkpt lat="45.4410253" lon="7.6876927"><ele>781.4000000000001</ele><time>2026-04-11T15:37:46.958Z</time></trkpt><trkpt lat="45.4409353" lon="7.6876704"><ele>777.0</ele><time>2026-04-11T15:37:47.956Z</time></trkpt><trkpt lat="45.4408341" lon="7.6876505"><ele>777.0</ele><time>2026-04-11T15:37:48.948Z</time></trkpt><trkpt lat="45.4407395" lon="7.6876286"><ele>777.0</ele><time>2026-04-11T15:37:49.954Z</time></trkpt><trkpt lat="45.4406336" lon="7.6876001"><ele>777.0</ele><time>2026-04-11T15:37:50.961Z</time></trkpt><trkpt lat="45.4405198" lon="7.6875826"><ele>777.0</ele><time>2026-04-11T15:37:51.955Z</time></trkpt><trkpt lat="45.4404074" lon="7.6875665"><ele>777.0</ele><time>2026-04-11T15:37:52.953Z</time></trkpt><trkpt lat="45.4403036" lon="7.6875443"><ele>776.5</ele><time>2026-04-11T15:37:53.962Z</time></trkpt><trkpt lat="45.4402165" lon="7.6875227"><ele>776.0</ele><time>2026-04-11T15:37:54.958Z</time></trkpt><trkpt lat="45.4401321" lon="7.6875381"><ele>775.5</ele><time>2026-04-11T15:37:55.957Z</time></trkpt><trkpt lat="45.4400524" lon="7.687557"><ele>775.0</ele><time>2026-04-11T15:37:56.956Z</time></trkpt><trkpt lat="45.4399759" lon="7.6875816"><ele>774.5</ele><time>2026-04-11T15:37:57.956Z</time></trkpt><trkpt lat="45.439872" lon="7.6876201"><ele>774.0</ele><time>2026-04-11T15:37:59.954Z</time></trkpt><trkpt lat="45.439781" lon="7.6876426"><ele>774.0</ele><time>2026-04-11T15:38:01.961Z</time></trkpt><trkpt lat="45.4396958" lon="7.6876581"><ele>774.0</ele><time>2026-04-11T15:38:03.957Z</time></trkpt><trkpt lat="45.4396155" lon="7.68773"><ele>774.0</ele><time>2026-04-11T15:38:05.96Z</time></trkpt><trkpt lat="45.4395328" lon="7.6878485"><ele>774.0</ele><time>2026-04-11T15:38:07.962Z</time></trkpt><trkpt lat="45.4395064" lon="7.6879965"><ele>774.0</ele><time>2026-04-11T15:38:09.957Z</time></trkpt><trkpt lat="45.4395001" lon="7.688131"><ele>773.6</ele><time>2026-04-11T15:38:11.959Z</time></trkpt><trkpt lat="45.4395056" lon="7.6882825"><ele>773.2</ele><time>2026-04-11T15:38:13.956Z</time></trkpt><trkpt lat="45.4395174" lon="7.6884548"><ele>772.8000000000001</ele><time>2026-04-11T15:38:16.06Z</time></trkpt><trkpt lat="45.4395354" lon="7.6885982"><ele>772.4000000000001</ele><time>2026-04-11T15:38:17.965Z</time></trkpt><trkpt lat="45.4395638" lon="7.6887447"><ele>772.0</ele><time>2026-04-11T15:38:19.989Z</time></trkpt><trkpt lat="45.439577" lon="7.6889003"><ele>770.2857142857143</ele><time>2026-04-11T15:38:22.026Z</time></trkpt><trkpt lat="45.439585" lon="7.6889911"><ele>768.5714285714286</ele><time>2026-04-11T15:38:22.959Z</time></trkpt><trkpt lat="45.4395921" lon="7.6890866"><ele>766.8571428571429</ele><time>2026-04-11T15:38:23.967Z</time></trkpt><trkpt lat="45.4395923" lon="7.6891887"><ele>765.1428571428571</ele><time>2026-04-11T15:38:24.978Z</time></trkpt><trkpt lat="45.4395971" lon="7.6892967"><ele>763.4285714285714</ele><time>2026-04-11T15:38:25.96Z</time></trkpt><trkpt lat="45.4396022" lon="7.6893972"><ele>761.7142857142858</ele><time>2026-04-11T15:38:27.038Z</time></trkpt><trkpt lat="45.4395913" lon="7.6894886"><ele>760.0</ele><time>2026-04-11T15:38:27.958Z</time></trkpt><trkpt lat="45.4395523" lon="7.6896088"><ele>760.0</ele><time>2026-04-11T15:38:29.951Z</time></trkpt><trkpt lat="45.4394626" lon="7.689618"><ele>760.0</ele><time>2026-04-11T15:38:31.953Z</time></trkpt><trkpt lat="45.439407" lon="7.6894671"><ele>760.0</ele><time>2026-04-11T15:38:33.959Z</time></trkpt><trkpt lat="45.4393535" lon="7.6892928"><ele>760.0</ele><time>2026-04-11T15:38:36.061Z</time></trkpt><trkpt lat="45.4392707" lon="7.6891087"><ele>760.0</ele><time>2026-04-11T15:38:37.956Z</time></trkpt><trkpt lat="45.43921" lon="7.6890448"><ele>760.0</ele><time>2026-04-11T15:38:38.953Z</time></trkpt><trkpt lat="45.4391335" lon="7.6889888"><ele>760.0</ele><time>2026-04-11T15:38:39.959Z</time></trkpt><trkpt lat="45.4390523" lon="7.6889414"><ele>760.0</ele><time>2026-04-11T15:38:40.96Z</time></trkpt><trkpt lat="45.438974" lon="7.6888732"><ele>760.0</ele><time>2026-04-11T15:38:41.959Z</time></trkpt><trkpt lat="45.4388955" lon="7.6887992"><ele>760.0</ele><time>2026-04-11T15:38:42.954Z</time></trkpt><trkpt lat="45.4388094" lon="7.6887384"><ele>758.2</ele><time>2026-04-11T15:38:43.953Z</time></trkpt><trkpt lat="45.438716" lon="7.6887027"><ele>756.4</ele><time>2026-04-11T15:38:44.985Z</time></trkpt><trkpt lat="45.4386128" lon="7.6886785"><ele>754.5999999999999</ele><time>2026-04-11T15:38:45.94Z</time></trkpt><trkpt lat="45.4385042" lon="7.6886526"><ele>752.8</ele><time>2026-04-11T15:38:46.947Z</time></trkpt><trkpt lat="45.4383924" lon="7.6886155"><ele>751.0</ele><time>2026-04-11T15:38:47.955Z</time></trkpt><trkpt lat="45.4382835" lon="7.6885767"><ele>751.0</ele><time>2026-04-11T15:38:48.955Z</time></trkpt><trkpt lat="45.4381766" lon="7.6885426"><ele>751.0</ele><time>2026-04-11T15:38:49.954Z</time></trkpt><trkpt lat="45.4380778" lon="7.6885206"><ele>751.0</ele><time>2026-04-11T15:38:51.043Z</time></trkpt><trkpt lat="45.4379865" lon="7.6884803"><ele>751.0</ele><time>2026-04-11T15:38:52.029Z</time></trkpt><trkpt lat="45.437899" lon="7.6884188"><ele>751.0</ele><time>2026-04-11T15:38:52.95Z</time></trkpt><trkpt lat="45.4378074" lon="7.6883322"><ele>746.75</ele><time>2026-04-11T15:38:53.961Z</time></trkpt><trkpt lat="45.437714" lon="7.6882481"><ele>742.5</ele><time>2026-04-11T15:38:54.964Z</time></trkpt><trkpt lat="45.4376173" lon="7.6881446"><ele>738.25</ele><time>2026-04-11T15:38:56.035Z</time></trkpt><trkpt lat="45.4375223" lon="7.6880393"><ele>734.0</ele><time>2026-04-11T15:38:57.037Z</time></trkpt><trkpt lat="45.4374223" lon="7.6879384"><ele>734.0</ele><time>2026-04-11T15:38:57.956Z</time></trkpt><trkpt lat="45.4373102" lon="7.6878388"><ele>734.0</ele><time>2026-04-11T15:38:58.961Z</time></trkpt><trkpt lat="45.4371932" lon="7.6877461"><ele>734.0</ele><time>2026-04-11T15:38:59.971Z</time></trkpt><trkpt lat="45.4370731" lon="7.6876579"><ele>734.0</ele><time>2026-04-11T15:39:01.028Z</time></trkpt><trkpt lat="45.4369541" lon="7.6875813"><ele>731.0</ele><time>2026-04-11T15:39:02.027Z</time></trkpt><trkpt lat="45.4368399" lon="7.6875231"><ele>728.0</ele><time>2026-04-11T15:39:02.996Z</time></trkpt><trkpt lat="45.4367302" lon="7.6874803"><ele>725.0</ele><time>2026-04-11T15:39:04.027Z</time></trkpt><trkpt lat="45.4366181" lon="7.6874573"><ele>722.0</ele><time>2026-04-11T15:39:05.023Z</time></trkpt><trkpt lat="45.4364975" lon="7.6874607"><ele>722.0</ele><time>2026-04-11T15:39:05.97Z</time></trkpt><trkpt lat="45.4363714" lon="7.6874764"><ele>722.0</ele><time>2026-04-11T15:39:07.029Z</time></trkpt><trkpt lat="45.4362411" lon="7.6874825"><ele>722.0</ele><time>2026-04-11T15:39:07.971Z</time></trkpt><trkpt lat="45.4361043" lon="7.6874816"><ele>722.0</ele><time>2026-04-11T15:39:08.965Z</time></trkpt><trkpt lat="45.4359649" lon="7.6874767"><ele>719.5</ele><time>2026-04-11T15:39:09.968Z</time></trkpt><trkpt lat="45.4358216" lon="7.6874594"><ele>717.0</ele><time>2026-04-11T15:39:10.966Z</time></trkpt><trkpt lat="45.4356886" lon="7.6874337"><ele>714.5</ele><time>2026-04-11T15:39:11.961Z</time></trkpt><trkpt lat="45.4355638" lon="7.6874125"><ele>712.0</ele><time>2026-04-11T15:39:12.967Z</time></trkpt><trkpt lat="45.435452" lon="7.6874127"><ele>709.25</ele><time>2026-04-11T15:39:14.035Z</time></trkpt><trkpt lat="45.4353497" lon="7.6874252"><ele>706.5</ele><time>2026-04-11T15:39:15.029Z</time></trkpt><trkpt lat="45.4352509" lon="7.6874578"><ele>703.75</ele><time>2026-04-11T15:39:16.026Z</time></trkpt><trkpt lat="45.4351481" lon="7.6875235"><ele>701.0</ele><time>2026-04-11T15:39:17.056Z</time></trkpt><trkpt lat="45.4349385" lon="7.6876492"><ele>701.0</ele><time>2026-04-11T15:39:18.955Z</time></trkpt><trkpt lat="45.4348181" lon="7.6876757"><ele>701.0</ele><time>2026-04-11T15:39:19.952Z</time></trkpt><trkpt lat="45.4346937" lon="7.6876704"><ele>701.0</ele><time>2026-04-11T15:39:20.952Z</time></trkpt><trkpt lat="45.4345895" lon="7.6876554"><ele>701.0</ele><time>2026-04-11T15:39:21.955Z</time></trkpt><trkpt lat="45.4344848" lon="7.6876338"><ele>699.8</ele><time>2026-04-11T15:39:22.954Z</time></trkpt><trkpt lat="45.434388" lon="7.6876243"><ele>698.5999999999999</ele><time>2026-04-11T15:39:23.966Z</time></trkpt><trkpt lat="45.4342969" lon="7.6876127"><ele>697.4</ele><time>2026-04-11T15:39:24.95Z</time></trkpt><trkpt lat="45.4342047" lon="7.6876037"><ele>696.2</ele><time>2026-04-11T15:39:26.033Z</time></trkpt><trkpt lat="45.434114" lon="7.687599"><ele>695.0</ele><time>2026-04-11T15:39:26.961Z</time></trkpt><trkpt lat="45.434022" lon="7.6876009"><ele>695.0</ele><time>2026-04-11T15:39:27.963Z</time></trkpt><trkpt lat="45.4339429" lon="7.6876053"><ele>695.0</ele><time>2026-04-11T15:39:28.948Z</time></trkpt><trkpt lat="45.4338594" lon="7.6876102"><ele>695.0</ele><time>2026-04-11T15:39:29.962Z</time></trkpt><trkpt lat="45.4337739" lon="7.6876129"><ele>695.0</ele><time>2026-04-11T15:39:30.959Z</time></trkpt><trkpt lat="45.4336981" lon="7.687617"><ele>695.0</ele><time>2026-04-11T15:39:32.02Z</time></trkpt><trkpt lat="45.4336255" lon="7.6876026"><ele>695.0</ele><time>2026-04-11T15:39:32.966Z</time></trkpt><trkpt lat="45.4335612" lon="7.6875902"><ele>695.0</ele><time>2026-04-11T15:39:33.965Z</time></trkpt><trkpt lat="45.4334989" lon="7.6875725"><ele>695.0</ele><time>2026-04-11T15:39:34.959Z</time></trkpt><trkpt lat="45.4333803" lon="7.687533"><ele>695.0</ele><time>2026-04-11T15:39:36.966Z</time></trkpt><trkpt lat="45.433312" lon="7.6875038"><ele>695.0</ele><time>2026-04-11T15:39:37.963Z</time></trkpt><trkpt lat="45.4332299" lon="7.687472"><ele>695.0</ele><time>2026-04-11T15:39:38.963Z</time></trkpt><trkpt lat="45.4331353" lon="7.6874336"><ele>695.0</ele><time>2026-04-11T15:39:39.973Z</time></trkpt><trkpt lat="45.4330328" lon="7.6873772"><ele>695.4</ele><time>2026-04-11T15:39:40.98Z</time></trkpt><trkpt lat="45.43293" lon="7.6873213"><ele>695.8</ele><time>2026-04-11T15:39:41.959Z</time></trkpt><trkpt lat="45.4328229" lon="7.6872705"><ele>696.2</ele><time>2026-04-11T15:39:42.956Z</time></trkpt><trkpt lat="45.4327182" lon="7.6872438"><ele>696.6</ele><time>2026-04-11T15:39:43.966Z</time></trkpt><trkpt lat="45.4326151" lon="7.6872477"><ele>697.0</ele><time>2026-04-11T15:39:44.953Z</time></trkpt><trkpt lat="45.432518" lon="7.6872471"><ele>697.0</ele><time>2026-04-11T15:39:45.963Z</time></trkpt><trkpt lat="45.4324207" lon="7.6872311"><ele>697.0</ele><time>2026-04-11T15:39:47.028Z</time></trkpt><trkpt lat="45.4323304" lon="7.6871957"><ele>697.0</ele><time>2026-04-11T15:39:47.955Z</time></trkpt><trkpt lat="45.4322419" lon="7.6871351"><ele>697.0</ele><time>2026-04-11T15:39:48.956Z</time></trkpt><trkpt lat="45.4321608" lon="7.6870572"><ele>697.0</ele><time>2026-04-11T15:39:49.96Z</time></trkpt><trkpt lat="45.4320808" lon="7.6869681"><ele>692.4000000000001</ele><time>2026-04-11T15:39:51.032Z</time></trkpt><trkpt lat="45.4319926" lon="7.686878"><ele>687.8000000000001</ele><time>2026-04-11T15:39:52.03Z</time></trkpt><trkpt lat="45.4319035" lon="7.6867926"><ele>683.2</ele><time>2026-04-11T15:39:52.947Z</time></trkpt><trkpt lat="45.431812" lon="7.6867075"><ele>678.6</ele><time>2026-04-11T15:39:54.024Z</time></trkpt><trkpt lat="45.4317185" lon="7.686656"><ele>674.0</ele><time>2026-04-11T15:39:54.965Z</time></trkpt><trkpt lat="45.4316183" lon="7.6866305"><ele>674.0</ele><time>2026-04-11T15:39:55.97Z</time></trkpt><trkpt lat="45.4315305" lon="7.6866232"><ele>674.0</ele><time>2026-04-11T15:39:57.018Z</time></trkpt><trkpt lat="45.4314459" lon="7.6866378"><ele>674.0</ele><time>2026-04-11T15:39:57.952Z</time></trkpt><trkpt lat="45.431372" lon="7.6866876"><ele>674.0</ele><time>2026-04-11T15:39:58.947Z</time></trkpt><trkpt lat="45.4313169" lon="7.6867507"><ele>674.0</ele><time>2026-04-11T15:39:59.95Z</time></trkpt><trkpt lat="45.4312547" lon="7.6867988"><ele>674.0</ele><time>2026-04-11T15:40:00.948Z</time></trkpt><trkpt lat="45.4311343" lon="7.6868435"><ele>673.8333333333333</ele><time>2026-04-11T15:40:02.953Z</time></trkpt><trkpt lat="45.4310599" lon="7.6868648"><ele>673.6666666666666</ele><time>2026-04-11T15:40:03.956Z</time></trkpt><trkpt lat="45.4309627" lon="7.686896"><ele>673.5</ele><time>2026-04-11T15:40:04.958Z</time></trkpt><trkpt lat="45.4308739" lon="7.6869437"><ele>673.3333333333334</ele><time>2026-04-11T15:40:05.953Z</time></trkpt><trkpt lat="45.4307916" lon="7.6869886"><ele>673.1666666666667</ele><time>2026-04-11T15:40:07.032Z</time></trkpt><trkpt lat="45.4307184" lon="7.6870487"><ele>673.0</ele><time>2026-04-11T15:40:07.965Z</time></trkpt><trkpt lat="45.430642" lon="7.6870904"><ele>672.8333333333334</ele><time>2026-04-11T15:40:08.963Z</time></trkpt><trkpt lat="45.4305702" lon="7.6871215"><ele>672.6666666666667</ele><time>2026-04-11T15:40:09.963Z</time></trkpt><trkpt lat="45.4305013" lon="7.6871417"><ele>672.5</ele><time>2026-04-11T15:40:10.959Z</time></trkpt><trkpt lat="45.430436" lon="7.6871631"><ele>672.3333333333334</ele><time>2026-04-11T15:40:11.965Z</time></trkpt><trkpt lat="45.430312" lon="7.6871286"><ele>672.1666666666666</ele><time>2026-04-11T15:40:13.964Z</time></trkpt><trkpt lat="45.4302414" lon="7.6870708"><ele>672.0</ele><time>2026-04-11T15:40:14.963Z</time></trkpt><trkpt lat="45.430161" lon="7.6870285"><ele>672.0</ele><time>2026-04-11T15:40:15.965Z</time></trkpt><trkpt lat="45.430081" lon="7.6869945"><ele>672.0</ele><time>2026-04-11T15:40:16.962Z</time></trkpt><trkpt lat="45.4299904" lon="7.6869758"><ele>672.0</ele><time>2026-04-11T15:40:17.96Z</time></trkpt><trkpt lat="45.4299014" lon="7.6869846"><ele>672.0</ele><time>2026-04-11T15:40:18.963Z</time></trkpt><trkpt lat="45.429819" lon="7.6870319"><ele>672.0</ele><time>2026-04-11T15:40:19.968Z</time></trkpt><trkpt lat="45.4297494" lon="7.6870989"><ele>672.0</ele><time>2026-04-11T15:40:20.965Z</time></trkpt><trkpt lat="45.4296572" lon="7.6871364"><ele>669.4000000000001</ele><time>2026-04-11T15:40:22.035Z</time></trkpt><trkpt lat="45.4295557" lon="7.6871607"><ele>666.8000000000001</ele><time>2026-04-11T15:40:23.047Z</time></trkpt><trkpt lat="45.4294355" lon="7.6871528"><ele>664.2</ele><time>2026-04-11T15:40:24.036Z</time></trkpt><trkpt lat="45.4293296" lon="7.6871506"><ele>661.6</ele><time>2026-04-11T15:40:25.032Z</time></trkpt><trkpt lat="45.4292424" lon="7.6871339"><ele>659.0</ele><time>2026-04-11T15:40:25.979Z</time></trkpt><trkpt lat="45.4291675" lon="7.687133"><ele>659.0</ele><time>2026-04-11T15:40:26.971Z</time></trkpt><trkpt lat="45.4290502" lon="7.6871266"><ele>659.0</ele><time>2026-04-11T15:40:28.959Z</time></trkpt><trkpt lat="45.428963" lon="7.6870587"><ele>659.0</ele><time>2026-04-11T15:40:31.035Z</time></trkpt><trkpt lat="45.4288777" lon="7.6869518"><ele>659.0</ele><time>2026-04-11T15:40:32.951Z</time></trkpt><trkpt lat="45.4287837" lon="7.686847"><ele>657.1666666666666</ele><time>2026-04-11T15:40:34.958Z</time></trkpt><trkpt lat="45.4287252" lon="7.6868098"><ele>655.3333333333333</ele><time>2026-04-11T15:40:36.031Z</time></trkpt><trkpt lat="45.4286113" lon="7.6867275"><ele>653.5</ele><time>2026-04-11T15:40:37.953Z</time></trkpt><trkpt lat="45.4285491" lon="7.6866831"><ele>651.6666666666666</ele><time>2026-04-11T15:40:38.947Z</time></trkpt><trkpt lat="45.4284801" lon="7.6866545"><ele>649.8333333333334</ele><time>2026-04-11T15:40:39.952Z</time></trkpt><trkpt lat="45.4284112" lon="7.6866222"><ele>648.0</ele><time>2026-04-11T15:40:41.035Z</time></trkpt><trkpt lat="45.4283407" lon="7.6866013"><ele>648.0</ele><time>2026-04-11T15:40:42.027Z</time></trkpt><trkpt lat="45.4282698" lon="7.6865626"><ele>648.0</ele><time>2026-04-11T15:40:42.947Z</time></trkpt><trkpt lat="45.428198" lon="7.6865262"><ele>648.0</ele><time>2026-04-11T15:40:43.95Z</time></trkpt><trkpt lat="45.4281276" lon="7.6864949"><ele>648.0</ele><time>2026-04-11T15:40:44.944Z</time></trkpt><trkpt lat="45.4280577" lon="7.6864651"><ele>648.0</ele><time>2026-04-11T15:40:46.031Z</time></trkpt><trkpt lat="45.4279844" lon="7.6864526"><ele>648.0</ele><time>2026-04-11T15:40:47.033Z</time></trkpt><trkpt lat="45.4279066" lon="7.686479"><ele>647.0</ele><time>2026-04-11T15:40:47.957Z</time></trkpt><trkpt lat="45.4278289" lon="7.6865383"><ele>646.0</ele><time>2026-04-11T15:40:48.965Z</time></trkpt><trkpt lat="45.4277509" lon="7.6865746"><ele>645.0</ele><time>2026-04-11T15:40:49.968Z</time></trkpt><trkpt lat="45.4276791" lon="7.6866285"><ele>644.0</ele><time>2026-04-11T15:40:50.961Z</time></trkpt><trkpt lat="45.4276092" lon="7.6866555"><ele>643.0</ele><time>2026-04-11T15:40:51.961Z</time></trkpt><trkpt lat="45.4275313" lon="7.6866743"><ele>642.0</ele><time>2026-04-11T15:40:52.968Z</time></trkpt><trkpt lat="45.4274567" lon="7.686685"><ele>642.0</ele><time>2026-04-11T15:40:54.029Z</time></trkpt><trkpt lat="45.4273726" lon="7.6866855"><ele>642.0</ele><time>2026-04-11T15:40:55.032Z</time></trkpt><trkpt lat="45.4272951" lon="7.6866806"><ele>642.0</ele><time>2026-04-11T15:40:55.977Z</time></trkpt><trkpt lat="45.4272198" lon="7.6866768"><ele>642.0</ele><time>2026-04-11T15:40:56.964Z</time></trkpt><trkpt lat="45.4271388" lon="7.6866774"><ele>642.0</ele><time>2026-04-11T15:40:57.966Z</time></trkpt><trkpt lat="45.4270556" lon="7.6866841"><ele>642.0</ele><time>2026-04-11T15:40:58.964Z</time></trkpt><trkpt lat="45.4269736" lon="7.6866928"><ele>640.6666666666666</ele><time>2026-04-11T15:40:59.962Z</time></trkpt><trkpt lat="45.4268916" lon="7.686701"><ele>639.3333333333334</ele><time>2026-04-11T15:41:00.96Z</time></trkpt><trkpt lat="45.4268131" lon="7.6867055"><ele>638.0</ele><time>2026-04-11T15:41:01.964Z</time></trkpt><trkpt lat="45.4267376" lon="7.6867074"><ele>636.6666666666667</ele><time>2026-04-11T15:41:02.964Z</time></trkpt><trkpt lat="45.4266591" lon="7.6867126"><ele>635.3333333333334</ele><time>2026-04-11T15:41:03.953Z</time></trkpt><trkpt lat="45.4265757" lon="7.6867212"><ele>634.0</ele><time>2026-04-11T15:41:05.052Z</time></trkpt><trkpt lat="45.4264925" lon="7.6867295"><ele>634.0</ele><time>2026-04-11T15:41:05.963Z</time></trkpt><trkpt lat="45.42641" lon="7.6867342"><ele>634.0</ele><time>2026-04-11T15:41:06.955Z</time></trkpt><trkpt lat="45.4263287" lon="7.6867289"><ele>634.0</ele><time>2026-04-11T15:41:07.959Z</time></trkpt><trkpt lat="45.426246" lon="7.686737"><ele>634.0</ele><time>2026-04-11T15:41:08.959Z</time></trkpt><trkpt lat="45.4261609" lon="7.6867303"><ele>634.0</ele><time>2026-04-11T15:41:09.962Z</time></trkpt><trkpt lat="45.4260768" lon="7.6867315"><ele>634.0</ele><time>2026-04-11T15:41:11.041Z</time></trkpt><trkpt lat="45.4259898" lon="7.6867453"><ele>632.6666666666667</ele><time>2026-04-11T15:41:12.03Z</time></trkpt><trkpt lat="45.4259099" lon="7.6867629"><ele>631.3333333333334</ele><time>2026-04-11T15:41:12.956Z</time></trkpt><trkpt lat="45.4258252" lon="7.6867701"><ele>630.0</ele><time>2026-04-11T15:41:13.955Z</time></trkpt><trkpt lat="45.4257424" lon="7.686788"><ele>628.6666666666666</ele><time>2026-04-11T15:41:14.985Z</time></trkpt><trkpt lat="45.4256641" lon="7.6868127"><ele>627.3333333333333</ele><time>2026-04-11T15:41:15.954Z</time></trkpt><trkpt lat="45.4255903" lon="7.6868563"><ele>626.0</ele><time>2026-04-11T15:41:16.965Z</time></trkpt><trkpt lat="45.4255125" lon="7.6869162"><ele>625.0</ele><time>2026-04-11T15:41:17.958Z</time></trkpt><trkpt lat="45.4254397" lon="7.6869705"><ele>624.0</ele><time>2026-04-11T15:41:19.014Z</time></trkpt><trkpt lat="45.4253702" lon="7.6870303"><ele>623.0</ele><time>2026-04-11T15:41:19.957Z</time></trkpt><trkpt lat="45.4252992" lon="7.6870961"><ele>622.0</ele><time>2026-04-11T15:41:20.951Z</time></trkpt><trkpt lat="45.4252266" lon="7.6871621"><ele>621.0</ele><time>2026-04-11T15:41:21.961Z</time></trkpt><trkpt lat="45.4251574" lon="7.6872321"><ele>620.0</ele><time>2026-04-11T15:41:22.954Z</time></trkpt><trkpt lat="45.4250857" lon="7.6872988"><ele>620.0</ele><time>2026-04-11T15:41:23.956Z</time></trkpt><trkpt lat="45.4250141" lon="7.6873687"><ele>620.0</ele><time>2026-04-11T15:41:25.023Z</time></trkpt><trkpt lat="45.4249412" lon="7.6874425"><ele>620.0</ele><time>2026-04-11T15:41:25.963Z</time></trkpt><trkpt lat="45.4248635" lon="7.6875062"><ele>620.0</ele><time>2026-04-11T15:41:26.969Z</time></trkpt><trkpt lat="45.4247851" lon="7.6875688"><ele>620.0</ele><time>2026-04-11T15:41:27.998Z</time></trkpt><trkpt lat="45.4247008" lon="7.6876254"><ele>620.0</ele><time>2026-04-11T15:41:28.969Z</time></trkpt><trkpt lat="45.4246115" lon="7.6876636"><ele>619.8</ele><time>2026-04-11T15:41:29.959Z</time></trkpt><trkpt lat="45.4245185" lon="7.6876956"><ele>619.6</ele><time>2026-04-11T15:41:31.027Z</time></trkpt><trkpt lat="45.4244266" lon="7.6877013"><ele>619.4</ele><time>2026-04-11T15:41:32.018Z</time></trkpt><trkpt lat="45.4243318" lon="7.6876834"><ele>619.2</ele><time>2026-04-11T15:41:32.956Z</time></trkpt><trkpt lat="45.4242369" lon="7.6876567"><ele>619.0</ele><time>2026-04-11T15:41:33.96Z</time></trkpt><trkpt lat="45.4241459" lon="7.6876199"><ele>619.0</ele><time>2026-04-11T15:41:34.949Z</time></trkpt><trkpt lat="45.4240586" lon="7.6875725"><ele>619.0</ele><time>2026-04-11T15:41:36.029Z</time></trkpt><trkpt lat="45.4239724" lon="7.6875208"><ele>619.0</ele><time>2026-04-11T15:41:37.036Z</time></trkpt><trkpt lat="45.423883" lon="7.6874626"><ele>619.0</ele><time>2026-04-11T15:41:37.948Z</time></trkpt><trkpt lat="45.4238112" lon="7.6873981"><ele>619.0</ele><time>2026-04-11T15:41:38.957Z</time></trkpt><trkpt lat="45.4237599" lon="7.6873305"><ele>619.0</ele><time>2026-04-11T15:41:39.956Z</time></trkpt><trkpt lat="45.4237252" lon="7.68725"><ele>619.0</ele><time>2026-04-11T15:41:40.95Z</time></trkpt><trkpt lat="45.4237367" lon="7.6871083"><ele>619.0</ele><time>2026-04-11T15:41:42.953Z</time></trkpt><trkpt lat="45.4238318" lon="7.6870412"><ele>619.0</ele><time>2026-04-11T15:41:45.04Z</time></trkpt><trkpt lat="45.4239481" lon="7.6870345"><ele>619.0</ele><time>2026-04-11T15:41:46.946Z</time></trkpt><trkpt lat="45.4240611" lon="7.6870054"><ele>619.0</ele><time>2026-04-11T15:41:48.946Z</time></trkpt><trkpt lat="45.4241866" lon="7.6869613"><ele>619.0</ele><time>2026-04-11T15:41:50.946Z</time></trkpt><trkpt lat="45.4242502" lon="7.6869354"><ele>619.0</ele><time>2026-04-11T15:41:51.949Z</time></trkpt><trkpt lat="45.4243119" lon="7.686907"><ele>619.0</ele><time>2026-04-11T15:41:52.95Z</time></trkpt><trkpt lat="45.4243733" lon="7.6868682"><ele>619.0</ele><time>2026-04-11T15:41:53.95Z</time></trkpt><trkpt lat="45.424428" lon="7.6868146"><ele>619.0</ele><time>2026-04-11T15:41:55.029Z</time></trkpt><trkpt lat="45.4244838" lon="7.6867411"><ele>619.0</ele><time>2026-04-11T15:41:55.944Z</time></trkpt><trkpt lat="45.424517" lon="7.6866474"><ele>619.0</ele><time>2026-04-11T15:41:56.943Z</time></trkpt><trkpt lat="45.4245712" lon="7.6864944"><ele>617.8333333333334</ele><time>2026-04-11T15:41:58.952Z</time></trkpt><trkpt lat="45.4246304" lon="7.6864138"><ele>616.6666666666667</ele><time>2026-04-11T15:41:59.948Z</time></trkpt><trkpt lat="45.4246878" lon="7.6863318"><ele>615.5</ele><time>2026-04-11T15:42:01.022Z</time></trkpt><trkpt lat="45.4247412" lon="7.6862609"><ele>614.3333333333334</ele><time>2026-04-11T15:42:01.953Z</time></trkpt><trkpt lat="45.4247892" lon="7.6861801"><ele>613.1666666666666</ele><time>2026-04-11T15:42:02.948Z</time></trkpt><trkpt lat="45.4248332" lon="7.6860938"><ele>612.0</ele><time>2026-04-11T15:42:03.954Z</time></trkpt><trkpt lat="45.4248722" lon="7.6859978"><ele>610.3333333333334</ele><time>2026-04-11T15:42:05.047Z</time></trkpt><trkpt lat="45.4249427" lon="7.6858075"><ele>608.6666666666666</ele><time>2026-04-11T15:42:07.046Z</time></trkpt><trkpt lat="45.4249649" lon="7.6857038"><ele>607.0</ele><time>2026-04-11T15:42:07.96Z</time></trkpt><trkpt lat="45.4249806" lon="7.6856001"><ele>605.3333333333333</ele><time>2026-04-11T15:42:08.96Z</time></trkpt><trkpt lat="45.4250006" lon="7.6854943"><ele>603.6666666666666</ele><time>2026-04-11T15:42:09.966Z</time></trkpt><trkpt lat="45.4250177" lon="7.685398"><ele>602.0</ele><time>2026-04-11T15:42:10.964Z</time></trkpt><trkpt lat="45.4250312" lon="7.6853002"><ele>600.6</ele><time>2026-04-11T15:42:12.039Z</time></trkpt><trkpt lat="45.4250479" lon="7.6852052"><ele>599.2</ele><time>2026-04-11T15:42:12.948Z</time></trkpt><trkpt lat="45.4250772" lon="7.6850245"><ele>597.8</ele><time>2026-04-11T15:42:14.951Z</time></trkpt><trkpt lat="45.4250857" lon="7.6849328"><ele>596.4</ele><time>2026-04-11T15:42:15.94Z</time></trkpt><trkpt lat="45.4250922" lon="7.6847621"><ele>595.0</ele><time>2026-04-11T15:42:17.951Z</time></trkpt><trkpt lat="45.4251056" lon="7.6845945"><ele>595.0</ele><time>2026-04-11T15:42:19.966Z</time></trkpt><trkpt lat="45.4251306" lon="7.6844424"><ele>595.0</ele><time>2026-04-11T15:42:21.97Z</time></trkpt><trkpt lat="45.4251894" lon="7.6842913"><ele>595.0</ele><time>2026-04-11T15:42:23.954Z</time></trkpt><trkpt lat="45.4252392" lon="7.6842205"><ele>595.0</ele><time>2026-04-11T15:42:25.038Z</time></trkpt><trkpt lat="45.4253019" lon="7.6841281"><ele>595.0</ele><time>2026-04-11T15:42:26.034Z</time></trkpt><trkpt lat="45.4253807" lon="7.6840225"><ele>595.8</ele><time>2026-04-11T15:42:27.03Z</time></trkpt><trkpt lat="45.4254627" lon="7.683918"><ele>596.6</ele><time>2026-04-11T15:42:27.949Z</time></trkpt><trkpt lat="45.4255433" lon="7.6838065"><ele>597.4</ele><time>2026-04-11T15:42:28.949Z</time></trkpt><trkpt lat="45.4256211" lon="7.6837046"><ele>598.2</ele><time>2026-04-11T15:42:29.952Z</time></trkpt><trkpt lat="45.4256925" lon="7.6836134"><ele>599.0</ele><time>2026-04-11T15:42:30.951Z</time></trkpt><trkpt lat="45.4257394" lon="7.6835141"><ele>597.6666666666666</ele><time>2026-04-11T15:42:31.951Z</time></trkpt><trkpt lat="45.4257645" lon="7.6834005"><ele>596.3333333333333</ele><time>2026-04-11T15:42:32.954Z</time></trkpt><trkpt lat="45.4257766" lon="7.6832858"><ele>595.0</ele><time>2026-04-11T15:42:34.015Z</time></trkpt><trkpt lat="45.4257703" lon="7.6831623"><ele>593.6666666666666</ele><time>2026-04-11T15:42:34.952Z</time></trkpt><trkpt lat="45.4257383" lon="7.6830583"><ele>592.3333333333334</ele><time>2026-04-11T15:42:36.036Z</time></trkpt><trkpt lat="45.4256905" lon="7.6829761"><ele>591.0</ele><time>2026-04-11T15:42:36.952Z</time></trkpt><trkpt lat="45.4256143" lon="7.6829204"><ele>591.0</ele><time>2026-04-11T15:42:37.945Z</time></trkpt><trkpt lat="45.4255" lon="7.682904"><ele>591.0</ele><time>2026-04-11T15:42:38.951Z</time></trkpt><trkpt lat="45.4253842" lon="7.6828772"><ele>591.0</ele><time>2026-04-11T15:42:39.955Z</time></trkpt><trkpt lat="45.4252695" lon="7.6828545"><ele>591.0</ele><time>2026-04-11T15:42:40.951Z</time></trkpt><trkpt lat="45.4251833" lon="7.682807"><ele>591.0</ele><time>2026-04-11T15:42:41.945Z</time></trkpt><trkpt lat="45.4251093" lon="7.6827277"><ele>592.25</ele><time>2026-04-11T15:42:42.953Z</time></trkpt><trkpt lat="45.4250419" lon="7.6826254"><ele>593.5</ele><time>2026-04-11T15:42:43.946Z</time></trkpt><trkpt lat="45.4249714" lon="7.682507"><ele>594.75</ele><time>2026-04-11T15:42:44.998Z</time></trkpt><trkpt lat="45.4248936" lon="7.6823691"><ele>596.0</ele><time>2026-04-11T15:42:45.957Z</time></trkpt><trkpt lat="45.4248179" lon="7.6822292"><ele>596.0</ele><time>2026-04-11T15:42:46.946Z</time></trkpt><trkpt lat="45.4247392" lon="7.6820888"><ele>596.0</ele><time>2026-04-11T15:42:47.948Z</time></trkpt><trkpt lat="45.4246641" lon="7.6819592"><ele>596.0</ele><time>2026-04-11T15:42:48.952Z</time></trkpt><trkpt lat="45.4245896" lon="7.6818434"><ele>596.0</ele><time>2026-04-11T15:42:49.953Z</time></trkpt><trkpt lat="45.4245067" lon="7.6817489"><ele>596.0</ele><time>2026-04-11T15:42:51.032Z</time></trkpt><trkpt lat="45.4244138" lon="7.6816735"><ele>596.0</ele><time>2026-04-11T15:42:52.054Z</time></trkpt><trkpt lat="45.4241852" lon="7.6816083"><ele>596.0</ele><time>2026-04-11T15:42:53.954Z</time></trkpt><trkpt lat="45.424066" lon="7.6816079"><ele>596.0</ele><time>2026-04-11T15:42:54.974Z</time></trkpt><trkpt lat="45.4239504" lon="7.6816268"><ele>596.0</ele><time>2026-04-11T15:42:56.019Z</time></trkpt><trkpt lat="45.4238516" lon="7.6816641"><ele>596.0</ele><time>2026-04-11T15:42:57.012Z</time></trkpt><trkpt lat="45.4237546" lon="7.681721"><ele>596.0</ele><time>2026-04-11T15:42:57.97Z</time></trkpt><trkpt lat="45.4236561" lon="7.6817697"><ele>596.0</ele><time>2026-04-11T15:42:58.969Z</time></trkpt><trkpt lat="45.4235595" lon="7.681792"><ele>594.2</ele><time>2026-04-11T15:42:59.983Z</time></trkpt><trkpt lat="45.4234663" lon="7.6817769"><ele>592.4000000000001</ele><time>2026-04-11T15:43:00.946Z</time></trkpt><trkpt lat="45.4233812" lon="7.6817335"><ele>590.6</ele><time>2026-04-11T15:43:02.037Z</time></trkpt><trkpt lat="45.4233006" lon="7.681675"><ele>588.8000000000001</ele><time>2026-04-11T15:43:02.957Z</time></trkpt><trkpt lat="45.4232299" lon="7.6815923"><ele>587.0</ele><time>2026-04-11T15:43:03.959Z</time></trkpt><trkpt lat="45.4231543" lon="7.6814775"><ele>587.0</ele><time>2026-04-11T15:43:04.96Z</time></trkpt><trkpt lat="45.4230733" lon="7.6813626"><ele>587.0</ele><time>2026-04-11T15:43:06.036Z</time></trkpt><trkpt lat="45.4230006" lon="7.6812206"><ele>587.0</ele><time>2026-04-11T15:43:07.027Z</time></trkpt><trkpt lat="45.4229184" lon="7.6810688"><ele>587.0</ele><time>2026-04-11T15:43:07.961Z</time></trkpt><trkpt lat="45.4228347" lon="7.6809058"><ele>586.25</ele><time>2026-04-11T15:43:08.963Z</time></trkpt><trkpt lat="45.4227513" lon="7.6807345"><ele>585.5</ele><time>2026-04-11T15:43:09.96Z</time></trkpt><trkpt lat="45.4226771" lon="7.6805716"><ele>584.75</ele><time>2026-04-11T15:43:11.039Z</time></trkpt><trkpt lat="45.4225986" lon="7.6804202"><ele>584.0</ele><time>2026-04-11T15:43:12.031Z</time></trkpt><trkpt lat="45.422518" lon="7.6802771"><ele>585.25</ele><time>2026-04-11T15:43:12.952Z</time></trkpt><trkpt lat="45.4224412" lon="7.6801353"><ele>586.5</ele><time>2026-04-11T15:43:13.957Z</time></trkpt><trkpt lat="45.4223663" lon="7.6799919"><ele>587.75</ele><time>2026-04-11T15:43:14.955Z</time></trkpt><trkpt lat="45.4222961" lon="7.6798547"><ele>589.0</ele><time>2026-04-11T15:43:16.042Z</time></trkpt><trkpt lat="45.4222318" lon="7.6797233"><ele>589.0</ele><time>2026-04-11T15:43:17.021Z</time></trkpt><trkpt lat="45.4221857" lon="7.679598"><ele>589.0</ele><time>2026-04-11T15:43:17.956Z</time></trkpt><trkpt lat="45.4221521" lon="7.6794838"><ele>589.0</ele><time>2026-04-11T15:43:18.964Z</time></trkpt><trkpt lat="45.4221149" lon="7.6793757"><ele>589.0</ele><time>2026-04-11T15:43:19.959Z</time></trkpt><trkpt lat="45.4220582" lon="7.6792797"><ele>589.0</ele><time>2026-04-11T15:43:20.963Z</time></trkpt><trkpt lat="45.4219888" lon="7.679195"><ele>588.5</ele><time>2026-04-11T15:43:21.956Z</time></trkpt><trkpt lat="45.4219055" lon="7.6791243"><ele>588.0</ele><time>2026-04-11T15:43:22.957Z</time></trkpt><trkpt lat="45.4218285" lon="7.6790669"><ele>587.5</ele><time>2026-04-11T15:43:23.962Z</time></trkpt><trkpt lat="45.4217524" lon="7.6790207"><ele>587.0</ele><time>2026-04-11T15:43:24.962Z</time></trkpt><trkpt lat="45.4216773" lon="7.6789733"><ele>586.5</ele><time>2026-04-11T15:43:26.022Z</time></trkpt><trkpt lat="45.421593" lon="7.678941"><ele>586.0</ele><time>2026-04-11T15:43:26.956Z</time></trkpt><trkpt lat="45.4215142" lon="7.6788922"><ele>586.0</ele><time>2026-04-11T15:43:27.954Z</time></trkpt><trkpt lat="45.4214312" lon="7.6788443"><ele>586.0</ele><time>2026-04-11T15:43:28.96Z</time></trkpt><trkpt lat="45.4213432" lon="7.6788101"><ele>586.0</ele><time>2026-04-11T15:43:29.966Z</time></trkpt><trkpt lat="45.4212623" lon="7.6787422"><ele>586.0</ele><time>2026-04-11T15:43:30.965Z</time></trkpt><trkpt lat="45.4211817" lon="7.6786791"><ele>586.0</ele><time>2026-04-11T15:43:32.034Z</time></trkpt><trkpt lat="45.4210996" lon="7.678618"><ele>584.0</ele><time>2026-04-11T15:43:32.952Z</time></trkpt><trkpt lat="45.4210134" lon="7.6785576"><ele>582.0</ele><time>2026-04-11T15:43:33.952Z</time></trkpt><trkpt lat="45.4209285" lon="7.6785038"><ele>580.0</ele><time>2026-04-11T15:43:34.968Z</time></trkpt><trkpt lat="45.4208407" lon="7.6784566"><ele>578.0</ele><time>2026-04-11T15:43:35.949Z</time></trkpt><trkpt lat="45.4207548" lon="7.6784053"><ele>576.0</ele><time>2026-04-11T15:43:36.95Z</time></trkpt><trkpt lat="45.4206629" lon="7.6783618"><ele>576.0</ele><time>2026-04-11T15:43:37.948Z</time></trkpt><trkpt lat="45.4205696" lon="7.6783177"><ele>576.0</ele><time>2026-04-11T15:43:38.952Z</time></trkpt><trkpt lat="45.4204817" lon="7.6782598"><ele>576.0</ele><time>2026-04-11T15:43:39.951Z</time></trkpt><trkpt lat="45.4203926" lon="7.6781991"><ele>576.0</ele><time>2026-04-11T15:43:40.951Z</time></trkpt><trkpt lat="45.4203002" lon="7.6781579"><ele>576.0</ele><time>2026-04-11T15:43:42.035Z</time></trkpt><trkpt lat="45.4202068" lon="7.6781174"><ele>574.6666666666666</ele><time>2026-04-11T15:43:42.959Z</time></trkpt><trkpt lat="45.4201223" lon="7.6780731"><ele>573.3333333333334</ele><time>2026-04-11T15:43:43.962Z</time></trkpt><trkpt lat="45.4200347" lon="7.6780285"><ele>572.0</ele><time>2026-04-11T15:43:44.946Z</time></trkpt><trkpt lat="45.4199541" lon="7.6779838"><ele>570.6666666666667</ele><time>2026-04-11T15:43:46.047Z</time></trkpt><trkpt lat="45.4198795" lon="7.6779417"><ele>569.3333333333334</ele><time>2026-04-11T15:43:47.035Z</time></trkpt><trkpt lat="45.4198108" lon="7.6779034"><ele>568.0</ele><time>2026-04-11T15:43:47.949Z</time></trkpt><trkpt lat="45.4197381" lon="7.6778741"><ele>568.0</ele><time>2026-04-11T15:43:48.956Z</time></trkpt><trkpt lat="45.4196695" lon="7.6778446"><ele>568.0</ele><time>2026-04-11T15:43:49.958Z</time></trkpt><trkpt lat="45.4195991" lon="7.6778194"><ele>568.0</ele><time>2026-04-11T15:43:50.972Z</time></trkpt><trkpt lat="45.4195263" lon="7.6778027"><ele>568.0</ele><time>2026-04-11T15:43:52.031Z</time></trkpt><trkpt lat="45.4194502" lon="7.6777821"><ele>568.0</ele><time>2026-04-11T15:43:52.949Z</time></trkpt><trkpt lat="45.4193769" lon="7.6777586"><ele>568.0</ele><time>2026-04-11T15:43:53.951Z</time></trkpt><trkpt lat="45.419306" lon="7.6777314"><ele>568.0</ele><time>2026-04-11T15:43:54.977Z</time></trkpt><trkpt lat="45.4192428" lon="7.6776936"><ele>567.4285714285714</ele><time>2026-04-11T15:43:55.966Z</time></trkpt><trkpt lat="45.4191791" lon="7.6776562"><ele>566.8571428571428</ele><time>2026-04-11T15:43:56.982Z</time></trkpt><trkpt lat="45.4191168" lon="7.6776195"><ele>566.2857142857142</ele><time>2026-04-11T15:43:57.953Z</time></trkpt><trkpt lat="45.4190547" lon="7.6775776"><ele>565.7142857142857</ele><time>2026-04-11T15:43:58.942Z</time></trkpt><trkpt lat="45.4189884" lon="7.6775436"><ele>565.1428571428571</ele><time>2026-04-11T15:43:59.951Z</time></trkpt><trkpt lat="45.4189252" lon="7.6775029"><ele>564.5714285714286</ele><time>2026-04-11T15:44:00.948Z</time></trkpt><trkpt lat="45.4188651" lon="7.677451"><ele>564.0</ele><time>2026-04-11T15:44:01.949Z</time></trkpt><trkpt lat="45.4188047" lon="7.6773965"><ele>563.0</ele><time>2026-04-11T15:44:02.952Z</time></trkpt><trkpt lat="45.4187468" lon="7.6773403"><ele>562.0</ele><time>2026-04-11T15:44:03.951Z</time></trkpt><trkpt lat="45.4186888" lon="7.6772753"><ele>561.0</ele><time>2026-04-11T15:44:04.952Z</time></trkpt><trkpt lat="45.4186353" lon="7.6772251"><ele>560.0</ele><time>2026-04-11T15:44:05.953Z</time></trkpt><trkpt lat="45.418579" lon="7.6771714"><ele>559.0</ele><time>2026-04-11T15:44:06.949Z</time></trkpt><trkpt lat="45.4185243" lon="7.6771218"><ele>558.0</ele><time>2026-04-11T15:44:07.957Z</time></trkpt><trkpt lat="45.4184629" lon="7.6770833"><ele>557.0</ele><time>2026-04-11T15:44:08.947Z</time></trkpt><trkpt lat="45.4183991" lon="7.6770459"><ele>557.0</ele><time>2026-04-11T15:44:09.949Z</time></trkpt><trkpt lat="45.4183327" lon="7.6770344"><ele>557.0</ele><time>2026-04-11T15:44:10.945Z</time></trkpt><trkpt lat="45.4182642" lon="7.6770299"><ele>557.0</ele><time>2026-04-11T15:44:11.936Z</time></trkpt><trkpt lat="45.418199" lon="7.6770398"><ele>557.0</ele><time>2026-04-11T15:44:12.939Z</time></trkpt><trkpt lat="45.418104" lon="7.6771031"><ele>557.0</ele><time>2026-04-11T15:44:15.016Z</time></trkpt><trkpt lat="45.418039" lon="7.6771141"><ele>557.0</ele><time>2026-04-11T15:44:15.947Z</time></trkpt><trkpt lat="45.4179245" lon="7.6771478"><ele>556.6</ele><time>2026-04-11T15:44:17.94Z</time></trkpt><trkpt lat="45.4178317" lon="7.6770554"><ele>556.2</ele><time>2026-04-11T15:44:19.949Z</time></trkpt><trkpt lat="45.4178514" lon="7.6769032"><ele>555.8</ele><time>2026-04-11T15:44:22.048Z</time></trkpt><trkpt lat="45.4179118" lon="7.6768616"><ele>555.4</ele><time>2026-04-11T15:44:22.958Z</time></trkpt><trkpt lat="45.4180151" lon="7.6768588"><ele>555.0</ele><time>2026-04-11T15:44:24.966Z</time></trkpt><trkpt lat="45.418118" lon="7.6768225"><ele>554.0</ele><time>2026-04-11T15:44:26.966Z</time></trkpt><trkpt lat="45.4182261" lon="7.676815"><ele>553.0</ele><time>2026-04-11T15:44:28.957Z</time></trkpt><trkpt lat="45.418334" lon="7.6768089"><ele>552.0</ele><time>2026-04-11T15:44:31.022Z</time></trkpt><trkpt lat="45.418397" lon="7.6768053"><ele>551.0</ele><time>2026-04-11T15:44:32.03Z</time></trkpt><trkpt lat="45.4185189" lon="7.6768155"><ele>550.0</ele><time>2026-04-11T15:44:33.96Z</time></trkpt><trkpt lat="45.4186426" lon="7.6768311"><ele>550.0</ele><time>2026-04-11T15:44:36.032Z</time></trkpt><trkpt lat="45.4187065" lon="7.6768284"><ele>550.0</ele><time>2026-04-11T15:44:37.03Z</time></trkpt><trkpt lat="45.4187714" lon="7.6768148"><ele>550.0</ele><time>2026-04-11T15:44:37.949Z</time></trkpt><trkpt lat="45.4188352" lon="7.6768128"><ele>550.0</ele><time>2026-04-11T15:44:38.956Z</time></trkpt><trkpt lat="45.4189047" lon="7.6768149"><ele>550.0</ele><time>2026-04-11T15:44:39.951Z</time></trkpt><trkpt lat="45.4189711" lon="7.6768035"><ele>550.0</ele><time>2026-04-11T15:44:41.034Z</time></trkpt><trkpt lat="45.4190411" lon="7.6768033"><ele>550.0</ele><time>2026-04-11T15:44:42.03Z</time></trkpt><trkpt lat="45.4191118" lon="7.6767914"><ele>550.3333333333334</ele><time>2026-04-11T15:44:42.953Z</time></trkpt><trkpt lat="45.4191823" lon="7.6767769"><ele>550.6666666666667</ele><time>2026-04-11T15:44:43.947Z</time></trkpt><trkpt lat="45.4192553" lon="7.6767682"><ele>551.0</ele><time>2026-04-11T15:44:44.97Z</time></trkpt><trkpt lat="45.4193306" lon="7.6767581"><ele>551.3333333333334</ele><time>2026-04-11T15:44:46.029Z</time></trkpt><trkpt lat="45.4194107" lon="7.6767487"><ele>551.6666666666666</ele><time>2026-04-11T15:44:47.032Z</time></trkpt><trkpt lat="45.4194887" lon="7.6767373"><ele>552.0</ele><time>2026-04-11T15:44:47.951Z</time></trkpt><trkpt lat="45.4195704" lon="7.6767354"><ele>552.0</ele><time>2026-04-11T15:44:48.951Z</time></trkpt><trkpt lat="45.4196502" lon="7.6767371"><ele>552.0</ele><time>2026-04-11T15:44:49.956Z</time></trkpt><trkpt lat="45.4197302" lon="7.6767293"><ele>552.0</ele><time>2026-04-11T15:44:51.033Z</time></trkpt><trkpt lat="45.4198106" lon="7.6767185"><ele>552.0</ele><time>2026-04-11T15:44:52.043Z</time></trkpt><trkpt lat="45.4198939" lon="7.6767071"><ele>552.0</ele><time>2026-04-11T15:44:52.95Z</time></trkpt><trkpt lat="45.4199745" lon="7.676696"><ele>552.0</ele><time>2026-04-11T15:44:53.955Z</time></trkpt><trkpt lat="45.4200567" lon="7.6766879"><ele>552.3333333333334</ele><time>2026-04-11T15:44:54.972Z</time></trkpt><trkpt lat="45.4201359" lon="7.6766922"><ele>552.6666666666666</ele><time>2026-04-11T15:44:56.036Z</time></trkpt><trkpt lat="45.4202101" lon="7.676688"><ele>553.0</ele><time>2026-04-11T15:44:56.954Z</time></trkpt><trkpt lat="45.4202788" lon="7.6766905"><ele>553.3333333333333</ele><time>2026-04-11T15:44:57.957Z</time></trkpt><trkpt lat="45.420356" lon="7.6765803"><ele>553.6666666666666</ele><time>2026-04-11T15:44:59.955Z</time></trkpt><trkpt lat="45.4203172" lon="7.6764221"><ele>554.0</ele><time>2026-04-11T15:45:01.968Z</time></trkpt><trkpt lat="45.4202052" lon="7.6763653"><ele>554.0</ele><time>2026-04-11T15:45:04.031Z</time></trkpt><trkpt lat="45.4200925" lon="7.6763213"><ele>554.0</ele><time>2026-04-11T15:45:05.95Z</time></trkpt><trkpt lat="45.4199822" lon="7.6762763"><ele>554.0</ele><time>2026-04-11T15:45:07.951Z</time></trkpt><trkpt lat="45.4199133" lon="7.6762326"><ele>554.0</ele><time>2026-04-11T15:45:08.947Z</time></trkpt><trkpt lat="45.4198266" lon="7.6761676"><ele>554.0</ele><time>2026-04-11T15:45:09.952Z</time></trkpt><trkpt lat="45.4197299" lon="7.6761148"><ele>549.6666666666666</ele><time>2026-04-11T15:45:11.038Z</time></trkpt><trkpt lat="45.4196098" lon="7.6760374"><ele>545.3333333333334</ele><time>2026-04-11T15:45:12.043Z</time></trkpt><trkpt lat="45.4194693" lon="7.6759338"><ele>541.0</ele><time>2026-04-11T15:45:12.948Z</time></trkpt><trkpt lat="45.4193259" lon="7.6758277"><ele>541.0</ele><time>2026-04-11T15:45:13.95Z</time></trkpt><trkpt lat="45.4191971" lon="7.6757244"><ele>541.0</ele><time>2026-04-11T15:45:14.984Z</time></trkpt><trkpt lat="45.4190696" lon="7.6756051"><ele>541.0</ele><time>2026-04-11T15:45:15.948Z</time></trkpt><trkpt lat="45.4189442" lon="7.6754889"><ele>540.0</ele><time>2026-04-11T15:45:16.947Z</time></trkpt><trkpt lat="45.4188175" lon="7.6753827"><ele>539.0</ele><time>2026-04-11T15:45:17.955Z</time></trkpt><trkpt lat="45.4186839" lon="7.6752803"><ele>538.0</ele><time>2026-04-11T15:45:18.982Z</time></trkpt><trkpt lat="45.4185521" lon="7.6751947"><ele>537.0</ele><time>2026-04-11T15:45:19.963Z</time></trkpt><trkpt lat="45.4184144" lon="7.6751251"><ele>537.0</ele><time>2026-04-11T15:45:20.951Z</time></trkpt><trkpt lat="45.418279" lon="7.6750528"><ele>537.0</ele><time>2026-04-11T15:45:22.034Z</time></trkpt><trkpt lat="45.4181527" lon="7.6749847"><ele>537.0</ele><time>2026-04-11T15:45:22.959Z</time></trkpt><trkpt lat="45.4180299" lon="7.6749142"><ele>537.0</ele><time>2026-04-11T15:45:23.957Z</time></trkpt><trkpt lat="45.4179155" lon="7.6748339"><ele>537.75</ele><time>2026-04-11T15:45:24.957Z</time></trkpt><trkpt lat="45.417816" lon="7.6747425"><ele>538.5</ele><time>2026-04-11T15:45:26.017Z</time></trkpt><trkpt lat="45.4177145" lon="7.674642"><ele>539.25</ele><time>2026-04-11T15:45:27.019Z</time></trkpt><trkpt lat="45.4176165" lon="7.6745341"><ele>540.0</ele><time>2026-04-11T15:45:27.954Z</time></trkpt><trkpt lat="45.4175353" lon="7.6744215"><ele>540.0</ele><time>2026-04-11T15:45:28.954Z</time></trkpt><trkpt lat="45.4174604" lon="7.6742971"><ele>540.0</ele><time>2026-04-11T15:45:29.958Z</time></trkpt><trkpt lat="45.4173891" lon="7.6741707"><ele>540.0</ele><time>2026-04-11T15:45:31.012Z</time></trkpt><trkpt lat="45.4173365" lon="7.6740367"><ele>540.0</ele><time>2026-04-11T15:45:32.019Z</time></trkpt><trkpt lat="45.4173013" lon="7.6738966"><ele>540.0</ele><time>2026-04-11T15:45:32.959Z</time></trkpt><trkpt lat="45.4172733" lon="7.6737563"><ele>541.75</ele><time>2026-04-11T15:45:33.956Z</time></trkpt><trkpt lat="45.4172634" lon="7.673598"><ele>543.5</ele><time>2026-04-11T15:45:34.958Z</time></trkpt><trkpt lat="45.4172571" lon="7.6734228"><ele>545.25</ele><time>2026-04-11T15:45:36.037Z</time></trkpt><trkpt lat="45.4172494" lon="7.6732325"><ele>547.0</ele><time>2026-04-11T15:45:37.031Z</time></trkpt><trkpt lat="45.4172431" lon="7.6730448"><ele>547.0</ele><time>2026-04-11T15:45:37.957Z</time></trkpt><trkpt lat="45.417237" lon="7.6728464"><ele>547.0</ele><time>2026-04-11T15:45:38.947Z</time></trkpt><trkpt lat="45.417232" lon="7.6726378"><ele>547.0</ele><time>2026-04-11T15:45:39.952Z</time></trkpt><trkpt lat="45.4172269" lon="7.6724359"><ele>547.0</ele><time>2026-04-11T15:45:40.963Z</time></trkpt><trkpt lat="45.417221" lon="7.6722323"><ele>547.25</ele><time>2026-04-11T15:45:41.954Z</time></trkpt><trkpt lat="45.4172181" lon="7.6720229"><ele>547.5</ele><time>2026-04-11T15:45:42.957Z</time></trkpt><trkpt lat="45.4172121" lon="7.6718215"><ele>547.75</ele><time>2026-04-11T15:45:43.952Z</time></trkpt><trkpt lat="45.4172048" lon="7.6716332"><ele>548.0</ele><time>2026-04-11T15:45:45.013Z</time></trkpt><trkpt lat="45.4172028" lon="7.6714515"><ele>549.0</ele><time>2026-04-11T15:45:45.948Z</time></trkpt><trkpt lat="45.4172097" lon="7.6712884"><ele>550.0</ele><time>2026-04-11T15:45:46.949Z</time></trkpt><trkpt lat="45.4172299" lon="7.6711539"><ele>551.0</ele><time>2026-04-11T15:45:47.954Z</time></trkpt><trkpt lat="45.4172678" lon="7.6710076"><ele>552.0</ele><time>2026-04-11T15:45:48.953Z</time></trkpt><trkpt lat="45.41733" lon="7.6708688"><ele>553.0</ele><time>2026-04-11T15:45:49.954Z</time></trkpt><trkpt lat="45.4174008" lon="7.670723"><ele>553.25</ele><time>2026-04-11T15:45:50.954Z</time></trkpt><trkpt lat="45.4174793" lon="7.6705603"><ele>553.5</ele><time>2026-04-11T15:45:52.03Z</time></trkpt><trkpt lat="45.4175542" lon="7.6704078"><ele>553.75</ele><time>2026-04-11T15:45:52.957Z</time></trkpt><trkpt lat="45.4176212" lon="7.6702625"><ele>554.0</ele><time>2026-04-11T15:45:53.963Z</time></trkpt><trkpt lat="45.4176735" lon="7.6701014"><ele>554.0</ele><time>2026-04-11T15:45:54.954Z</time></trkpt><trkpt lat="45.4177115" lon="7.6699479"><ele>554.0</ele><time>2026-04-11T15:45:55.955Z</time></trkpt><trkpt lat="45.4177412" lon="7.6697982"><ele>554.0</ele><time>2026-04-11T15:45:56.961Z</time></trkpt><trkpt lat="45.4177631" lon="7.669666"><ele>554.0</ele><time>2026-04-11T15:45:57.949Z</time></trkpt><trkpt lat="45.4177615" lon="7.6695536"><ele>554.0</ele><time>2026-04-11T15:45:58.944Z</time></trkpt><trkpt lat="45.417745" lon="7.6694573"><ele>555.4</ele><time>2026-04-11T15:45:59.95Z</time></trkpt><trkpt lat="45.4177017" lon="7.6693782"><ele>556.8</ele><time>2026-04-11T15:46:00.949Z</time></trkpt><trkpt lat="45.4176064" lon="7.6693172"><ele>558.2</ele><time>2026-04-11T15:46:02.953Z</time></trkpt><trkpt lat="45.4174714" lon="7.6693634"><ele>559.6</ele><time>2026-04-11T15:46:04.954Z</time></trkpt><trkpt lat="45.4173919" lon="7.6693426"><ele>561.0</ele><time>2026-04-11T15:46:05.957Z</time></trkpt><trkpt lat="45.4173026" lon="7.6693012"><ele>561.0</ele><time>2026-04-11T15:46:06.953Z</time></trkpt><trkpt lat="45.4172034" lon="7.6692278"><ele>561.0</ele><time>2026-04-11T15:46:07.953Z</time></trkpt><trkpt lat="45.4171029" lon="7.6691591"><ele>561.0</ele><time>2026-04-11T15:46:08.965Z</time></trkpt><trkpt lat="45.4170004" lon="7.6690858"><ele>561.0</ele><time>2026-04-11T15:46:09.99Z</time></trkpt><trkpt lat="45.416907" lon="7.6690138"><ele>561.0</ele><time>2026-04-11T15:46:10.96Z</time></trkpt><trkpt lat="45.4168099" lon="7.6689593"><ele>560.2</ele><time>2026-04-11T15:46:12.054Z</time></trkpt><trkpt lat="45.4166344" lon="7.6688984"><ele>559.4000000000001</ele><time>2026-04-11T15:46:13.95Z</time></trkpt><trkpt lat="45.4165497" lon="7.6689058"><ele>558.6</ele><time>2026-04-11T15:46:14.942Z</time></trkpt><trkpt lat="45.4164737" lon="7.6689248"><ele>557.8000000000001</ele><time>2026-04-11T15:46:16.029Z</time></trkpt><trkpt lat="45.4164022" lon="7.6689408"><ele>557.0</ele><time>2026-04-11T15:46:17.042Z</time></trkpt><trkpt lat="45.4163323" lon="7.6689345"><ele>556.6</ele><time>2026-04-11T15:46:17.966Z</time></trkpt><trkpt lat="45.416258" lon="7.6688994"><ele>556.2</ele><time>2026-04-11T15:46:19.034Z</time></trkpt><trkpt lat="45.4161925" lon="7.6688286"><ele>555.8</ele><time>2026-04-11T15:46:20.033Z</time></trkpt><trkpt lat="45.4161392" lon="7.6687258"><ele>555.4</ele><time>2026-04-11T15:46:21.033Z</time></trkpt><trkpt lat="45.4160779" lon="7.6685912"><ele>555.0</ele><time>2026-04-11T15:46:22.033Z</time></trkpt><trkpt lat="45.4160256" lon="7.6684528"><ele>555.8</ele><time>2026-04-11T15:46:22.957Z</time></trkpt><trkpt lat="45.4159426" lon="7.6683522"><ele>556.6</ele><time>2026-04-11T15:46:24.036Z</time></trkpt><trkpt lat="45.4158589" lon="7.6682575"><ele>557.4</ele><time>2026-04-11T15:46:25.029Z</time></trkpt><trkpt lat="45.4157709" lon="7.6681736"><ele>558.2</ele><time>2026-04-11T15:46:26.029Z</time></trkpt><trkpt lat="45.4156826" lon="7.668103"><ele>559.0</ele><time>2026-04-11T15:46:26.962Z</time></trkpt><trkpt lat="45.4155952" lon="7.6680437"><ele>559.0</ele><time>2026-04-11T15:46:27.95Z</time></trkpt><trkpt lat="45.4155214" lon="7.6680234"><ele>559.0</ele><time>2026-04-11T15:46:28.951Z</time></trkpt><trkpt lat="45.4153919" lon="7.668078"><ele>559.0</ele><time>2026-04-11T15:46:31.024Z</time></trkpt><trkpt lat="45.4153232" lon="7.6681453"><ele>559.0</ele><time>2026-04-11T15:46:32.019Z</time></trkpt><trkpt lat="45.4152673" lon="7.6682281"><ele>559.0</ele><time>2026-04-11T15:46:32.955Z</time></trkpt><trkpt lat="45.4152097" lon="7.668301"><ele>557.0</ele><time>2026-04-11T15:46:33.954Z</time></trkpt><trkpt lat="45.4151026" lon="7.6683307"><ele>555.0</ele><time>2026-04-11T15:46:35.948Z</time></trkpt><trkpt lat="45.4150519" lon="7.668205"><ele>553.0</ele><time>2026-04-11T15:46:37.953Z</time></trkpt><trkpt lat="45.4151034" lon="7.6680726"><ele>551.0</ele><time>2026-04-11T15:46:39.955Z</time></trkpt><trkpt lat="45.4151964" lon="7.6679985"><ele>549.0</ele><time>2026-04-11T15:46:42.035Z</time></trkpt><trkpt lat="45.4152888" lon="7.6678891"><ele>549.0</ele><time>2026-04-11T15:46:43.959Z</time></trkpt><trkpt lat="45.4153864" lon="7.6677921"><ele>549.0</ele><time>2026-04-11T15:46:45.961Z</time></trkpt><trkpt lat="45.4154762" lon="7.6676837"><ele>549.0</ele><time>2026-04-11T15:46:47.954Z</time></trkpt><trkpt lat="45.4155124" lon="7.6675392"><ele>549.0</ele><time>2026-04-11T15:46:50.032Z</time></trkpt><trkpt lat="45.4154579" lon="7.6674163"><ele>549.0</ele><time>2026-04-11T15:46:52.035Z</time></trkpt><trkpt lat="45.4153471" lon="7.6674447"><ele>548.7142857142857</ele><time>2026-04-11T15:46:53.96Z</time></trkpt><trkpt lat="45.4152868" lon="7.6674834"><ele>548.4285714285714</ele><time>2026-04-11T15:46:54.956Z</time></trkpt><trkpt lat="45.4152282" lon="7.6675178"><ele>548.1428571428571</ele><time>2026-04-11T15:46:55.959Z</time></trkpt><trkpt lat="45.4151564" lon="7.6675396"><ele>547.8571428571429</ele><time>2026-04-11T15:46:56.966Z</time></trkpt><trkpt lat="45.4150906" lon="7.6675601"><ele>547.5714285714286</ele><time>2026-04-11T15:46:57.958Z</time></trkpt><trkpt lat="45.4150218" lon="7.6675827"><ele>547.2857142857142</ele><time>2026-04-11T15:46:59.037Z</time></trkpt><trkpt lat="45.4149571" lon="7.6676091"><ele>547.0</ele><time>2026-04-11T15:47:00.03Z</time></trkpt><trkpt lat="45.414894" lon="7.6676297"><ele>547.0</ele><time>2026-04-11T15:47:01.035Z</time></trkpt><trkpt lat="45.4148312" lon="7.6676584"><ele>547.0</ele><time>2026-04-11T15:47:02.031Z</time></trkpt><trkpt lat="45.4147692" lon="7.6676751"><ele>547.0</ele><time>2026-04-11T15:47:02.959Z</time></trkpt><trkpt lat="45.4147053" lon="7.6676991"><ele>547.0</ele><time>2026-04-11T15:47:03.964Z</time></trkpt><trkpt lat="45.4146388" lon="7.6677231"><ele>547.0</ele><time>2026-04-11T15:47:04.987Z</time></trkpt><trkpt lat="45.414572" lon="7.667736"><ele>547.0</ele><time>2026-04-11T15:47:06.031Z</time></trkpt><trkpt lat="45.4145051" lon="7.6677509"><ele>547.0</ele><time>2026-04-11T15:47:07.029Z</time></trkpt><trkpt lat="45.4144418" lon="7.6677609"><ele>546.5</ele><time>2026-04-11T15:47:07.953Z</time></trkpt><trkpt lat="45.4143751" lon="7.667772"><ele>546.0</ele><time>2026-04-11T15:47:08.951Z</time></trkpt><trkpt lat="45.4142705" lon="7.6677881"><ele>545.5</ele><time>2026-04-11T15:47:11.031Z</time></trkpt><trkpt lat="45.4142053" lon="7.6677924"><ele>545.0</ele><time>2026-04-11T15:47:12.036Z</time></trkpt><trkpt lat="45.4141239" lon="7.6677938"><ele>544.5</ele><time>2026-04-11T15:47:12.952Z</time></trkpt><trkpt lat="45.4140222" lon="7.6678012"><ele>544.0</ele><time>2026-04-11T15:47:13.955Z</time></trkpt><trkpt lat="45.4139018" lon="7.667816"><ele>542.25</ele><time>2026-04-11T15:47:14.985Z</time></trkpt><trkpt lat="45.4137793" lon="7.6678376"><ele>540.5</ele><time>2026-04-11T15:47:16.026Z</time></trkpt><trkpt lat="45.4136627" lon="7.6678811"><ele>538.75</ele><time>2026-04-11T15:47:16.966Z</time></trkpt><trkpt lat="45.4135478" lon="7.6679412"><ele>537.0</ele><time>2026-04-11T15:47:17.959Z</time></trkpt><trkpt lat="45.4134403" lon="7.6680114"><ele>537.0</ele><time>2026-04-11T15:47:18.952Z</time></trkpt><trkpt lat="45.4133249" lon="7.6681157"><ele>537.0</ele><time>2026-04-11T15:47:19.973Z</time></trkpt><trkpt lat="45.4132044" lon="7.6682311"><ele>537.0</ele><time>2026-04-11T15:47:20.95Z</time></trkpt><trkpt lat="45.4130775" lon="7.6683566"><ele>537.0</ele><time>2026-04-11T15:47:22.03Z</time></trkpt><trkpt lat="45.412947" lon="7.6684761"><ele>536.3333333333334</ele><time>2026-04-11T15:47:22.95Z</time></trkpt><trkpt lat="45.4128183" lon="7.6685884"><ele>535.6666666666667</ele><time>2026-04-11T15:47:23.957Z</time></trkpt><trkpt lat="45.4126873" lon="7.6686936"><ele>535.0</ele><time>2026-04-11T15:47:24.978Z</time></trkpt><trkpt lat="45.4125435" lon="7.6687859"><ele>533.3333333333334</ele><time>2026-04-11T15:47:25.954Z</time></trkpt><trkpt lat="45.4124017" lon="7.6688742"><ele>531.6666666666666</ele><time>2026-04-11T15:47:26.947Z</time></trkpt><trkpt lat="45.4122604" lon="7.6689634"><ele>530.0</ele><time>2026-04-11T15:47:27.94Z</time></trkpt><trkpt lat="45.4121243" lon="7.6690573"><ele>530.0</ele><time>2026-04-11T15:47:28.945Z</time></trkpt><trkpt lat="45.4119871" lon="7.6691546"><ele>530.0</ele><time>2026-04-11T15:47:29.955Z</time></trkpt><trkpt lat="45.4118557" lon="7.6692501"><ele>530.0</ele><time>2026-04-11T15:47:30.948Z</time></trkpt><trkpt lat="45.4117268" lon="7.6693488"><ele>530.0</ele><time>2026-04-11T15:47:31.956Z</time></trkpt><trkpt lat="45.4115937" lon="7.6694534"><ele>527.75</ele><time>2026-04-11T15:47:32.951Z</time></trkpt><trkpt lat="45.4114646" lon="7.6695608"><ele>525.5</ele><time>2026-04-11T15:47:33.955Z</time></trkpt><trkpt lat="45.4113379" lon="7.6696584"><ele>523.25</ele><time>2026-04-11T15:47:34.95Z</time></trkpt><trkpt lat="45.4112205" lon="7.6697541"><ele>521.0</ele><time>2026-04-11T15:47:35.955Z</time></trkpt><trkpt lat="45.4111077" lon="7.6698422"><ele>521.0</ele><time>2026-04-11T15:47:36.957Z</time></trkpt><trkpt lat="45.4109981" lon="7.6699239"><ele>521.0</ele><time>2026-04-11T15:47:37.951Z</time></trkpt><trkpt lat="45.4109058" lon="7.6699837"><ele>521.0</ele><time>2026-04-11T15:47:38.954Z</time></trkpt><trkpt lat="45.4108222" lon="7.6700119"><ele>521.0</ele><time>2026-04-11T15:47:39.956Z</time></trkpt><trkpt lat="45.4107338" lon="7.6700119"><ele>521.0</ele><time>2026-04-11T15:47:40.954Z</time></trkpt><trkpt lat="45.4106604" lon="7.6699747"><ele>521.0</ele><time>2026-04-11T15:47:42.026Z</time></trkpt><trkpt lat="45.410604" lon="7.6699002"><ele>521.0</ele><time>2026-04-11T15:47:42.969Z</time></trkpt><trkpt lat="45.4105772" lon="7.669797"><ele>521.0</ele><time>2026-04-11T15:47:43.959Z</time></trkpt><trkpt lat="45.4105753" lon="7.6696701"><ele>521.0</ele><time>2026-04-11T15:47:44.965Z</time></trkpt><trkpt lat="45.4105966" lon="7.6695305"><ele>521.0</ele><time>2026-04-11T15:47:45.971Z</time></trkpt><trkpt lat="45.4106306" lon="7.6693947"><ele>521.0</ele><time>2026-04-11T15:47:46.958Z</time></trkpt><trkpt lat="45.4106526" lon="7.6692595"><ele>521.2</ele><time>2026-04-11T15:47:47.958Z</time></trkpt><trkpt lat="45.4106555" lon="7.669124"><ele>521.4000000000001</ele><time>2026-04-11T15:47:48.961Z</time></trkpt><trkpt lat="45.4106381" lon="7.6689849"><ele>521.6</ele><time>2026-04-11T15:47:49.981Z</time></trkpt><trkpt lat="45.4106018" lon="7.6688534"><ele>521.8000000000001</ele><time>2026-04-11T15:47:50.962Z</time></trkpt><trkpt lat="45.4105725" lon="7.6687384"><ele>522.0</ele><time>2026-04-11T15:47:52.03Z</time></trkpt><trkpt lat="45.4105559" lon="7.6685997"><ele>520.25</ele><time>2026-04-11T15:47:52.948Z</time></trkpt><trkpt lat="45.4105797" lon="7.6684423"><ele>518.5</ele><time>2026-04-11T15:47:53.957Z</time></trkpt><trkpt lat="45.4106193" lon="7.6682678"><ele>516.75</ele><time>2026-04-11T15:47:54.963Z</time></trkpt><trkpt lat="45.4106602" lon="7.6681053"><ele>515.0</ele><time>2026-04-11T15:47:56.031Z</time></trkpt><trkpt lat="45.4107133" lon="7.6679455"><ele>515.0</ele><time>2026-04-11T15:47:57.026Z</time></trkpt><trkpt lat="45.4107843" lon="7.6677941"><ele>515.0</ele><time>2026-04-11T15:47:57.947Z</time></trkpt><trkpt lat="45.4108693" lon="7.6676387"><ele>515.0</ele><time>2026-04-11T15:47:58.957Z</time></trkpt><trkpt lat="45.4109634" lon="7.6674701"><ele>515.0</ele><time>2026-04-11T15:47:59.964Z</time></trkpt><trkpt lat="45.4110481" lon="7.6673165"><ele>511.0</ele><time>2026-04-11T15:48:01.041Z</time></trkpt><trkpt lat="45.4111329" lon="7.6671729"><ele>507.0</ele><time>2026-04-11T15:48:01.949Z</time></trkpt><trkpt lat="45.4112189" lon="7.6670281"><ele>503.0</ele><time>2026-04-11T15:48:02.953Z</time></trkpt><trkpt lat="45.4113081" lon="7.6668925"><ele>499.0</ele><time>2026-04-11T15:48:03.954Z</time></trkpt><trkpt lat="45.4114097" lon="7.6667658"><ele>498.75</ele><time>2026-04-11T15:48:05.044Z</time></trkpt><trkpt lat="45.4115163" lon="7.6666523"><ele>498.5</ele><time>2026-04-11T15:48:05.955Z</time></trkpt><trkpt lat="45.4116216" lon="7.6665381"><ele>498.25</ele><time>2026-04-11T15:48:07.026Z</time></trkpt><trkpt lat="45.4117241" lon="7.6664296"><ele>498.0</ele><time>2026-04-11T15:48:07.952Z</time></trkpt><trkpt lat="45.4118216" lon="7.6663181"><ele>498.0</ele><time>2026-04-11T15:48:08.951Z</time></trkpt><trkpt lat="45.4118999" lon="7.6661875"><ele>497.99999999999994</ele><time>2026-04-11T15:48:09.983Z</time></trkpt><trkpt lat="45.4119723" lon="7.6660591"><ele>497.99999999999994</ele><time>2026-04-11T15:48:10.951Z</time></trkpt><trkpt lat="45.4120283" lon="7.665931"><ele>498.0</ele><time>2026-04-11T15:48:12.038Z</time></trkpt><trkpt lat="45.4120597" lon="7.6658015"><ele>498.0</ele><time>2026-04-11T15:48:12.958Z</time></trkpt><trkpt lat="45.4120667" lon="7.6656807"><ele>496.0</ele><time>2026-04-11T15:48:13.954Z</time></trkpt><trkpt lat="45.4120484" lon="7.6655634"><ele>494.0</ele><time>2026-04-11T15:48:14.95Z</time></trkpt><trkpt lat="45.4120084" lon="7.6654634"><ele>492.0</ele><time>2026-04-11T15:48:15.942Z</time></trkpt><trkpt lat="45.4119453" lon="7.6653912"><ele>490.0</ele><time>2026-04-11T15:48:16.949Z</time></trkpt><trkpt lat="45.4118608" lon="7.665337"><ele>488.0</ele><time>2026-04-11T15:48:17.95Z</time></trkpt><trkpt lat="45.4117625" lon="7.6653002"><ele>486.0</ele><time>2026-04-11T15:48:18.951Z</time></trkpt><trkpt lat="45.4116568" lon="7.665285"><ele>485.0</ele><time>2026-04-11T15:48:19.947Z</time></trkpt><trkpt lat="45.4115716" lon="7.665271"><ele>484.0</ele><time>2026-04-11T15:48:21.03Z</time></trkpt><trkpt lat="45.4114879" lon="7.6652152"><ele>483.0</ele><time>2026-04-11T15:48:22.028Z</time></trkpt><trkpt lat="45.411402" lon="7.6651446"><ele>482.0</ele><time>2026-04-11T15:48:22.961Z</time></trkpt><trkpt lat="45.4113252" lon="7.6650883"><ele>481.0</ele><time>2026-04-11T15:48:23.963Z</time></trkpt><trkpt lat="45.4112486" lon="7.6650521"><ele>480.0</ele><time>2026-04-11T15:48:24.958Z</time></trkpt><trkpt lat="45.4111921" lon="7.6650032"><ele>478.4</ele><time>2026-04-11T15:48:25.964Z</time></trkpt><trkpt lat="45.4111161" lon="7.664922"><ele>476.8</ele><time>2026-04-11T15:48:27.959Z</time></trkpt><trkpt lat="45.4110084" lon="7.6649078"><ele>475.20000000000005</ele><time>2026-04-11T15:48:29.993Z</time></trkpt><trkpt lat="45.4109149" lon="7.6649264"><ele>473.6</ele><time>2026-04-11T15:48:30.957Z</time></trkpt><trkpt lat="45.4107921" lon="7.6649409"><ele>472.0</ele><time>2026-04-11T15:48:32.036Z</time></trkpt><trkpt lat="45.4106437" lon="7.6649275"><ele>470.33333333333337</ele><time>2026-04-11T15:48:32.948Z</time></trkpt><trkpt lat="45.4104905" lon="7.6649108"><ele>468.66666666666663</ele><time>2026-04-11T15:48:33.949Z</time></trkpt><trkpt lat="45.4103389" lon="7.6648895"><ele>467.0</ele><time>2026-04-11T15:48:34.938Z</time></trkpt><trkpt lat="45.4101944" lon="7.6648839"><ele>467.0</ele><time>2026-04-11T15:48:35.948Z</time></trkpt><trkpt lat="45.4100542" lon="7.6648769"><ele>467.0</ele><time>2026-04-11T15:48:36.953Z</time></trkpt><trkpt lat="45.4099233" lon="7.6648723"><ele>467.0</ele><time>2026-04-11T15:48:37.948Z</time></trkpt><trkpt lat="45.4097929" lon="7.6648546"><ele>467.0</ele><time>2026-04-11T15:48:38.947Z</time></trkpt><trkpt lat="45.4096698" lon="7.6648381"><ele>466.6</ele><time>2026-04-11T15:48:40.038Z</time></trkpt><trkpt lat="45.4095506" lon="7.664829"><ele>466.20000000000005</ele><time>2026-04-11T15:48:40.962Z</time></trkpt><trkpt lat="45.4094497" lon="7.6648256"><ele>465.8</ele><time>2026-04-11T15:48:41.964Z</time></trkpt><trkpt lat="45.4093595" lon="7.6648262"><ele>465.4</ele><time>2026-04-11T15:48:42.952Z</time></trkpt><trkpt lat="45.4092738" lon="7.6648548"><ele>465.0</ele><time>2026-04-11T15:48:43.955Z</time></trkpt><trkpt lat="45.4091923" lon="7.6649002"><ele>465.0</ele><time>2026-04-11T15:48:45.046Z</time></trkpt><trkpt lat="45.4091235" lon="7.6649869"><ele>465.0</ele><time>2026-04-11T15:48:46.029Z</time></trkpt><trkpt lat="45.4090453" lon="7.6651018"><ele>465.0</ele><time>2026-04-11T15:48:47.04Z</time></trkpt><trkpt lat="45.408968" lon="7.6652315"><ele>465.0</ele><time>2026-04-11T15:48:47.961Z</time></trkpt><trkpt lat="45.4088881" lon="7.6653731"><ele>463.5</ele><time>2026-04-11T15:48:48.966Z</time></trkpt><trkpt lat="45.4088065" lon="7.6655109"><ele>462.0</ele><time>2026-04-11T15:48:49.981Z</time></trkpt><trkpt lat="45.4087262" lon="7.6656498"><ele>460.5</ele><time>2026-04-11T15:48:50.99Z</time></trkpt><trkpt lat="45.4086439" lon="7.665786"><ele>459.0</ele><time>2026-04-11T15:48:51.982Z</time></trkpt><trkpt lat="45.4085646" lon="7.6659178"><ele>459.0</ele><time>2026-04-11T15:48:52.964Z</time></trkpt><trkpt lat="45.4084892" lon="7.6660422"><ele>459.0</ele><time>2026-04-11T15:48:54.037Z</time></trkpt><trkpt lat="45.4084145" lon="7.6661557"><ele>459.0</ele><time>2026-04-11T15:48:55.029Z</time></trkpt><trkpt lat="45.4083382" lon="7.6662559"><ele>459.0</ele><time>2026-04-11T15:48:55.965Z</time></trkpt><trkpt lat="45.4082543" lon="7.6663343"><ele>459.0</ele><time>2026-04-11T15:48:57.035Z</time></trkpt><trkpt lat="45.4081543" lon="7.6663923"><ele>459.25</ele><time>2026-04-11T15:48:57.955Z</time></trkpt><trkpt lat="45.408029" lon="7.6664284"><ele>459.5</ele><time>2026-04-11T15:48:58.958Z</time></trkpt><trkpt lat="45.4078941" lon="7.6664559"><ele>459.75</ele><time>2026-04-11T15:49:00.003Z</time></trkpt><trkpt lat="45.4077615" lon="7.6664911"><ele>460.0</ele><time>2026-04-11T15:49:00.958Z</time></trkpt><trkpt lat="45.4076357" lon="7.6665252"><ele>460.5</ele><time>2026-04-11T15:49:02.041Z</time></trkpt><trkpt lat="45.4075164" lon="7.6665618"><ele>461.0</ele><time>2026-04-11T15:49:02.953Z</time></trkpt><trkpt lat="45.4073981" lon="7.666597"><ele>461.5</ele><time>2026-04-11T15:49:03.964Z</time></trkpt><trkpt lat="45.4072833" lon="7.6666318"><ele>462.0</ele><time>2026-04-11T15:49:04.987Z</time></trkpt><trkpt lat="45.4071678" lon="7.6666605"><ele>461.0</ele><time>2026-04-11T15:49:05.963Z</time></trkpt><trkpt lat="45.4070602" lon="7.6666869"><ele>460.00000000000006</ele><time>2026-04-11T15:49:06.954Z</time></trkpt><trkpt lat="45.40696" lon="7.6667071"><ele>459.00000000000006</ele><time>2026-04-11T15:49:07.958Z</time></trkpt><trkpt lat="45.4068629" lon="7.6667118"><ele>458.0</ele><time>2026-04-11T15:49:08.958Z</time></trkpt><trkpt lat="45.4067797" lon="7.6666976"><ele>457.0</ele><time>2026-04-11T15:49:09.961Z</time></trkpt><trkpt lat="45.4067212" lon="7.6666641"><ele>457.00000000000006</ele><time>2026-04-11T15:49:11.037Z</time></trkpt><trkpt lat="45.4066724" lon="7.6665425"><ele>457.0</ele><time>2026-04-11T15:49:12.945Z</time></trkpt><trkpt lat="45.4066918" lon="7.6664539"><ele>457.0</ele><time>2026-04-11T15:49:13.946Z</time></trkpt><trkpt lat="45.4067421" lon="7.666373"><ele>457.0</ele><time>2026-04-11T15:49:14.978Z</time></trkpt><trkpt lat="45.4068107" lon="7.6663175"><ele>457.00000000000006</ele><time>2026-04-11T15:49:15.947Z</time></trkpt><trkpt lat="45.4069022" lon="7.6662643"><ele>457.0</ele><time>2026-04-11T15:49:16.945Z</time></trkpt><trkpt lat="45.4070095" lon="7.6662134"><ele>457.0</ele><time>2026-04-11T15:49:17.949Z</time></trkpt><trkpt lat="45.4071182" lon="7.6661627"><ele>457.0</ele><time>2026-04-11T15:49:18.937Z</time></trkpt><trkpt lat="45.4072174" lon="7.6660794"><ele>457.0</ele><time>2026-04-11T15:49:19.954Z</time></trkpt><trkpt lat="45.4073116" lon="7.6659793"><ele>457.0</ele><time>2026-04-11T15:49:20.949Z</time></trkpt><trkpt lat="45.4073944" lon="7.6658801"><ele>456.33333333333337</ele><time>2026-04-11T15:49:21.941Z</time></trkpt><trkpt lat="45.4074571" lon="7.6657755"><ele>455.6666666666667</ele><time>2026-04-11T15:49:22.944Z</time></trkpt><trkpt lat="45.4075004" lon="7.6656528"><ele>455.0</ele><time>2026-04-11T15:49:23.942Z</time></trkpt><trkpt lat="45.4075231" lon="7.6655348"><ele>454.33333333333337</ele><time>2026-04-11T15:49:24.941Z</time></trkpt><trkpt lat="45.4075173" lon="7.6654213"><ele>453.6666666666667</ele><time>2026-04-11T15:49:25.949Z</time></trkpt><trkpt lat="45.4074945" lon="7.6653344"><ele>453.0</ele><time>2026-04-11T15:49:26.947Z</time></trkpt><trkpt lat="45.407458" lon="7.6652472"><ele>450.0</ele><time>2026-04-11T15:49:27.942Z</time></trkpt><trkpt lat="45.4073971" lon="7.6651435"><ele>447.0</ele><time>2026-04-11T15:49:28.95Z</time></trkpt><trkpt lat="45.4073116" lon="7.6650344"><ele>444.0</ele><time>2026-04-11T15:49:29.941Z</time></trkpt><trkpt lat="45.4072193" lon="7.6649106"><ele>441.0</ele><time>2026-04-11T15:49:30.942Z</time></trkpt><trkpt lat="45.4071205" lon="7.6647874"><ele>439.75</ele><time>2026-04-11T15:49:31.946Z</time></trkpt><trkpt lat="45.4070235" lon="7.6646675"><ele>438.5</ele><time>2026-04-11T15:49:32.95Z</time></trkpt><trkpt lat="45.4069308" lon="7.6645668"><ele>437.25</ele><time>2026-04-11T15:49:33.948Z</time></trkpt><trkpt lat="45.4068425" lon="7.6644683"><ele>436.0</ele><time>2026-04-11T15:49:34.948Z</time></trkpt><trkpt lat="45.4067575" lon="7.6643712"><ele>434.83333333333337</ele><time>2026-04-11T15:49:35.947Z</time></trkpt><trkpt lat="45.4066696" lon="7.6642937"><ele>433.6666666666667</ele><time>2026-04-11T15:49:36.944Z</time></trkpt><trkpt lat="45.4065858" lon="7.6642309"><ele>432.5</ele><time>2026-04-11T15:49:37.941Z</time></trkpt><trkpt lat="45.4065034" lon="7.6641799"><ele>431.33333333333337</ele><time>2026-04-11T15:49:38.944Z</time></trkpt><trkpt lat="45.4064318" lon="7.6641202"><ele>430.1666666666667</ele><time>2026-04-11T15:49:39.943Z</time></trkpt><trkpt lat="45.4063658" lon="7.6640598"><ele>429.0</ele><time>2026-04-11T15:49:40.947Z</time></trkpt><trkpt lat="45.4063006" lon="7.6640197"><ele>428.6666666666667</ele><time>2026-04-11T15:49:41.945Z</time></trkpt><trkpt lat="45.4062336" lon="7.6640121"><ele>428.33333333333337</ele><time>2026-04-11T15:49:42.945Z</time></trkpt><trkpt lat="45.4061668" lon="7.6640321"><ele>428.0</ele><time>2026-04-11T15:49:43.944Z</time></trkpt><trkpt lat="45.4060862" lon="7.6640524"><ele>427.6666666666667</ele><time>2026-04-11T15:49:44.947Z</time></trkpt><trkpt lat="45.4059974" lon="7.66406"><ele>427.33333333333337</ele><time>2026-04-11T15:49:45.95Z</time></trkpt><trkpt lat="45.4059031" lon="7.6640694"><ele>427.0</ele><time>2026-04-11T15:49:46.952Z</time></trkpt><trkpt lat="45.4058195" lon="7.6640783"><ele>427.0</ele><time>2026-04-11T15:49:47.946Z</time></trkpt><trkpt lat="45.4057492" lon="7.664086"><ele>427.00000000000006</ele><time>2026-04-11T15:49:49.033Z</time></trkpt><trkpt lat="45.405658" lon="7.6640549"><ele>427.00000000000006</ele><time>2026-04-11T15:49:50.954Z</time></trkpt><trkpt lat="45.4056083" lon="7.6639022"><ele>427.0</ele><time>2026-04-11T15:49:52.956Z</time></trkpt><trkpt lat="45.4055774" lon="7.6637789"><ele>427.0</ele><time>2026-04-11T15:49:53.958Z</time></trkpt><trkpt lat="45.4055491" lon="7.6636411"><ele>426.20000000000005</ele><time>2026-04-11T15:49:55.031Z</time></trkpt><trkpt lat="45.4055181" lon="7.6635032"><ele>425.40000000000003</ele><time>2026-04-11T15:49:56.03Z</time></trkpt><trkpt lat="45.4054957" lon="7.6633556"><ele>424.6</ele><time>2026-04-11T15:49:57.014Z</time></trkpt><trkpt lat="45.4055027" lon="7.6632188"><ele>423.79999999999995</ele><time>2026-04-11T15:49:57.956Z</time></trkpt><trkpt lat="45.4055178" lon="7.6631074"><ele>423.0</ele><time>2026-04-11T15:49:58.962Z</time></trkpt><trkpt lat="45.405527" lon="7.6630132"><ele>423.0</ele><time>2026-04-11T15:50:00.956Z</time></trkpt><trkpt lat="45.4055022" lon="7.6628972"><ele>423.0</ele><time>2026-04-11T15:50:03.956Z</time></trkpt><trkpt lat="45.4054949" lon="7.6627958"><ele>423.0</ele><time>2026-04-11T15:50:04.95Z</time></trkpt><trkpt lat="45.4054845" lon="7.6626873"><ele>423.0</ele><time>2026-04-11T15:50:05.962Z</time></trkpt><trkpt lat="45.4054674" lon="7.662563"><ele>423.0</ele><time>2026-04-11T15:50:06.96Z</time></trkpt><trkpt lat="45.4054358" lon="7.6624532"><ele>423.0</ele><time>2026-04-11T15:50:07.95Z</time></trkpt><trkpt lat="45.4054022" lon="7.6623589"><ele>422.8333333333333</ele><time>2026-04-11T15:50:08.949Z</time></trkpt><trkpt lat="45.4053732" lon="7.6622683"><ele>422.66666666666663</ele><time>2026-04-11T15:50:09.957Z</time></trkpt><trkpt lat="45.4053635" lon="7.6621786"><ele>422.5</ele><time>2026-04-11T15:50:10.955Z</time></trkpt><trkpt lat="45.4053628" lon="7.6620231"><ele>422.3333333333333</ele><time>2026-04-11T15:50:12.95Z</time></trkpt><trkpt lat="45.4054027" lon="7.661927"><ele>422.16666666666663</ele><time>2026-04-11T15:50:14.959Z</time></trkpt><trkpt lat="45.4054776" lon="7.6618673"><ele>422.0</ele><time>2026-04-11T15:50:16.962Z</time></trkpt><trkpt lat="45.4055653" lon="7.6618337"><ele>422.0</ele><time>2026-04-11T15:50:18.984Z</time></trkpt><trkpt lat="45.4056493" lon="7.6617794"><ele>422.0</ele><time>2026-04-11T15:50:20.967Z</time></trkpt><trkpt lat="45.4055763" lon="7.6618127"><ele>422.0</ele><time>2026-04-11T15:50:41.958Z</time></trkpt><trkpt lat="45.4055158" lon="7.6618643"><ele>422.0</ele><time>2026-04-11T15:52:18.946Z</time></trkpt><trkpt lat="45.405464" lon="7.6619234"><ele>415.0</ele><time>2026-04-11T15:52:25.962Z</time></trkpt></trkseg></trk></gpx>